<?xml version="1.0" encoding="UTF-8" standalone="no" ?>
<gpx xmlns="http://www.topografix.com/GPX/1/1" xmlns:xsi="http://www.w3.org/2001/XMLSchema-instance" xsi:schemaLocation="http://www.topografix.com/GPX/1/1 http://www.topografix.com/GPX/1/1/gpx.xsd" version="1.1" creator="VisuGPX - https://www.visugpx.com">
  <metadata>
    <name>83. Back to Ginals 9ème étape</name>
  </metadata>
  <trk>
    <name><![CDATA[83. Back to Ginals 9ème étape_1]]></name>
    <trkseg>
      <trkpt lat="43.95684" lon="0.37876">
        <ele>80.6</ele>
        <time>2023-07-04T06:18:19Z</time>
      </trkpt>
      <trkpt lat="43.95684" lon="0.37876">
        <ele>80.6</ele>
        <time>2023-07-04T06:18:20Z</time>
      </trkpt>
      <trkpt lat="43.95683" lon="0.37876">
        <ele>80.8</ele>
        <time>2023-07-04T06:18:22Z</time>
      </trkpt>
      <trkpt lat="43.95682" lon="0.37877">
        <ele>81</ele>
        <time>2023-07-04T06:18:25Z</time>
      </trkpt>
      <trkpt lat="43.95681" lon="0.37883">
        <ele>81.4</ele>
        <time>2023-07-04T06:18:29Z</time>
      </trkpt>
      <trkpt lat="43.9568" lon="0.37885">
        <ele>81.4</ele>
        <time>2023-07-04T06:18:30Z</time>
      </trkpt>
      <trkpt lat="43.95679" lon="0.37888">
        <ele>81.6</ele>
        <time>2023-07-04T06:18:32Z</time>
      </trkpt>
      <trkpt lat="43.95677" lon="0.37895">
        <ele>81.4</ele>
        <time>2023-07-04T06:18:36Z</time>
      </trkpt>
      <trkpt lat="43.95675" lon="0.37905">
        <ele>81.2</ele>
        <time>2023-07-04T06:18:43Z</time>
      </trkpt>
      <trkpt lat="43.95675" lon="0.37906">
        <ele>81.4</ele>
        <time>2023-07-04T06:18:44Z</time>
      </trkpt>
      <trkpt lat="43.95674" lon="0.37909">
        <ele>81.2</ele>
        <time>2023-07-04T06:18:46Z</time>
      </trkpt>
      <trkpt lat="43.95672" lon="0.37914">
        <ele>81.6</ele>
        <time>2023-07-04T06:18:49Z</time>
      </trkpt>
      <trkpt lat="43.95671" lon="0.37916">
        <ele>81.6</ele>
        <time>2023-07-04T06:18:50Z</time>
      </trkpt>
      <trkpt lat="43.9567" lon="0.37918">
        <ele>81.6</ele>
        <time>2023-07-04T06:18:51Z</time>
      </trkpt>
      <trkpt lat="43.95669" lon="0.37925">
        <ele>81.6</ele>
        <time>2023-07-04T06:18:55Z</time>
      </trkpt>
      <trkpt lat="43.95668" lon="0.37928">
        <ele>81.6</ele>
        <time>2023-07-04T06:18:57Z</time>
      </trkpt>
      <trkpt lat="43.95668" lon="0.37929">
        <ele>81.6</ele>
        <time>2023-07-04T06:18:58Z</time>
      </trkpt>
      <trkpt lat="43.95666" lon="0.37937">
        <ele>81.6</ele>
        <time>2023-07-04T06:19:04Z</time>
      </trkpt>
      <trkpt lat="43.95666" lon="0.37939">
        <ele>81.6</ele>
        <time>2023-07-04T06:19:05Z</time>
      </trkpt>
      <trkpt lat="43.95667" lon="0.37948">
        <ele>81.6</ele>
        <time>2023-07-04T06:19:11Z</time>
      </trkpt>
      <trkpt lat="43.95667" lon="0.37953">
        <ele>81.8</ele>
        <time>2023-07-04T06:19:16Z</time>
      </trkpt>
      <trkpt lat="43.95667" lon="0.37957">
        <ele>81.8</ele>
        <time>2023-07-04T06:19:20Z</time>
      </trkpt>
      <trkpt lat="43.95666" lon="0.37963">
        <ele>81.8</ele>
        <time>2023-07-04T06:19:24Z</time>
      </trkpt>
      <trkpt lat="43.95665" lon="0.37966">
        <ele>81.8</ele>
        <time>2023-07-04T06:19:26Z</time>
      </trkpt>
      <trkpt lat="43.95665" lon="0.37968">
        <ele>82</ele>
        <time>2023-07-04T06:19:27Z</time>
      </trkpt>
      <trkpt lat="43.95664" lon="0.37969">
        <ele>82.2</ele>
        <time>2023-07-04T06:19:28Z</time>
      </trkpt>
      <trkpt lat="43.95658" lon="0.37978">
        <ele>82.2</ele>
        <time>2023-07-04T06:19:32Z</time>
      </trkpt>
      <trkpt lat="43.95654" lon="0.37992">
        <ele>82.6</ele>
        <time>2023-07-04T06:19:39Z</time>
      </trkpt>
      <trkpt lat="43.95654" lon="0.37994">
        <ele>82.8</ele>
        <time>2023-07-04T06:19:40Z</time>
      </trkpt>
      <trkpt lat="43.95655" lon="0.37996">
        <ele>83</ele>
        <time>2023-07-04T06:19:42Z</time>
      </trkpt>
      <trkpt lat="43.95654" lon="0.38">
        <ele>82.8</ele>
        <time>2023-07-04T06:19:44Z</time>
      </trkpt>
      <trkpt lat="43.95654" lon="0.38006">
        <ele>83</ele>
        <time>2023-07-04T06:19:49Z</time>
      </trkpt>
      <trkpt lat="43.95656" lon="0.38007">
        <ele>83</ele>
        <time>2023-07-04T06:19:50Z</time>
      </trkpt>
      <trkpt lat="43.95659" lon="0.38007">
        <ele>83.4</ele>
        <time>2023-07-04T06:19:52Z</time>
      </trkpt>
      <trkpt lat="43.9566" lon="0.38009">
        <ele>83.6</ele>
        <time>2023-07-04T06:19:54Z</time>
      </trkpt>
      <trkpt lat="43.95662" lon="0.38009">
        <ele>83.6</ele>
        <time>2023-07-04T06:19:57Z</time>
      </trkpt>
      <trkpt lat="43.95663" lon="0.38009">
        <ele>83.6</ele>
        <time>2023-07-04T06:19:58Z</time>
      </trkpt>
      <trkpt lat="43.95664" lon="0.38007">
        <ele>83.6</ele>
        <time>2023-07-04T06:20:05Z</time>
      </trkpt>
      <trkpt lat="43.95671" lon="0.38011">
        <ele>83.2</ele>
        <time>2023-07-04T06:20:12Z</time>
      </trkpt>
      <trkpt lat="43.95674" lon="0.38013">
        <ele>83.2</ele>
        <time>2023-07-04T06:20:14Z</time>
      </trkpt>
      <trkpt lat="43.95681" lon="0.38019">
        <ele>83.2</ele>
        <time>2023-07-04T06:20:20Z</time>
      </trkpt>
      <trkpt lat="43.95688" lon="0.38023">
        <ele>83.4</ele>
        <time>2023-07-04T06:20:25Z</time>
      </trkpt>
      <trkpt lat="43.95689" lon="0.38024">
        <ele>83.4</ele>
        <time>2023-07-04T06:20:27Z</time>
      </trkpt>
      <trkpt lat="43.95691" lon="0.38025">
        <ele>83.4</ele>
        <time>2023-07-04T06:20:30Z</time>
      </trkpt>
      <trkpt lat="43.95697" lon="0.38028">
        <ele>83.4</ele>
        <time>2023-07-04T06:20:34Z</time>
      </trkpt>
      <trkpt lat="43.95706" lon="0.38032">
        <ele>83.8</ele>
        <time>2023-07-04T06:20:38Z</time>
      </trkpt>
      <trkpt lat="43.9571" lon="0.38033">
        <ele>84.2</ele>
        <time>2023-07-04T06:20:41Z</time>
      </trkpt>
      <trkpt lat="43.95717" lon="0.38025">
        <ele>84.2</ele>
        <time>2023-07-04T06:20:47Z</time>
      </trkpt>
      <trkpt lat="43.95721" lon="0.38025">
        <ele>84.2</ele>
        <time>2023-07-04T06:20:50Z</time>
      </trkpt>
      <trkpt lat="43.95724" lon="0.38024">
        <ele>84.4</ele>
        <time>2023-07-04T06:20:54Z</time>
      </trkpt>
      <trkpt lat="43.95726" lon="0.38024">
        <ele>84.8</ele>
        <time>2023-07-04T06:20:56Z</time>
      </trkpt>
      <trkpt lat="43.95727" lon="0.38024">
        <ele>85</ele>
        <time>2023-07-04T06:20:57Z</time>
      </trkpt>
      <trkpt lat="43.95734" lon="0.3803">
        <ele>85.8</ele>
        <time>2023-07-04T06:21:04Z</time>
      </trkpt>
      <trkpt lat="43.95737" lon="0.38035">
        <ele>86.2</ele>
        <time>2023-07-04T06:21:07Z</time>
      </trkpt>
      <trkpt lat="43.95742" lon="0.38038">
        <ele>86.8</ele>
        <time>2023-07-04T06:21:12Z</time>
      </trkpt>
      <trkpt lat="43.95746" lon="0.38039">
        <ele>87</ele>
        <time>2023-07-04T06:21:15Z</time>
      </trkpt>
      <trkpt lat="43.95747" lon="0.3804">
        <ele>87.2</ele>
        <time>2023-07-04T06:21:16Z</time>
      </trkpt>
      <trkpt lat="43.95753" lon="0.38048">
        <ele>87.8</ele>
        <time>2023-07-04T06:21:22Z</time>
      </trkpt>
      <trkpt lat="43.95756" lon="0.3805">
        <ele>88.4</ele>
        <time>2023-07-04T06:21:25Z</time>
      </trkpt>
      <trkpt lat="43.95756" lon="0.38054">
        <ele>88.6</ele>
        <time>2023-07-04T06:21:26Z</time>
      </trkpt>
      <trkpt lat="43.9576" lon="0.38059">
        <ele>89</ele>
        <time>2023-07-04T06:21:29Z</time>
      </trkpt>
      <trkpt lat="43.95764" lon="0.38069">
        <ele>89</ele>
        <time>2023-07-04T06:21:36Z</time>
      </trkpt>
      <trkpt lat="43.95765" lon="0.38071">
        <ele>89.2</ele>
        <time>2023-07-04T06:21:38Z</time>
      </trkpt>
      <trkpt lat="43.95766" lon="0.38073">
        <ele>89.6</ele>
        <time>2023-07-04T06:21:40Z</time>
      </trkpt>
      <trkpt lat="43.95766" lon="0.38073">
        <ele>89.6</ele>
        <time>2023-07-04T06:21:41Z</time>
      </trkpt>
      <trkpt lat="43.95767" lon="0.38077">
        <ele>89.8</ele>
        <time>2023-07-04T06:21:44Z</time>
      </trkpt>
      <trkpt lat="43.95768" lon="0.38077">
        <ele>90.2</ele>
        <time>2023-07-04T06:21:45Z</time>
      </trkpt>
      <trkpt lat="43.95769" lon="0.38078">
        <ele>90.4</ele>
        <time>2023-07-04T06:21:46Z</time>
      </trkpt>
      <trkpt lat="43.95772" lon="0.38078">
        <ele>90.6</ele>
        <time>2023-07-04T06:21:49Z</time>
      </trkpt>
      <trkpt lat="43.95776" lon="0.3808">
        <ele>90.6</ele>
        <time>2023-07-04T06:21:53Z</time>
      </trkpt>
      <trkpt lat="43.9578" lon="0.38085">
        <ele>91.4</ele>
        <time>2023-07-04T06:21:57Z</time>
      </trkpt>
      <trkpt lat="43.9578" lon="0.3809">
        <ele>91.6</ele>
        <time>2023-07-04T06:21:59Z</time>
      </trkpt>
      <trkpt lat="43.95779" lon="0.38092">
        <ele>91.6</ele>
        <time>2023-07-04T06:22:00Z</time>
      </trkpt>
      <trkpt lat="43.95779" lon="0.38096">
        <ele>91.8</ele>
        <time>2023-07-04T06:22:03Z</time>
      </trkpt>
      <trkpt lat="43.95781" lon="0.38099">
        <ele>92</ele>
        <time>2023-07-04T06:22:06Z</time>
      </trkpt>
      <trkpt lat="43.95782" lon="0.381">
        <ele>92.8</ele>
        <time>2023-07-04T06:22:08Z</time>
      </trkpt>
      <trkpt lat="43.9579" lon="0.38103">
        <ele>93.2</ele>
        <time>2023-07-04T06:22:12Z</time>
      </trkpt>
      <trkpt lat="43.95791" lon="0.38107">
        <ele>93.4</ele>
        <time>2023-07-04T06:22:14Z</time>
      </trkpt>
      <trkpt lat="43.95792" lon="0.38108">
        <ele>93.6</ele>
        <time>2023-07-04T06:22:15Z</time>
      </trkpt>
      <trkpt lat="43.95795" lon="0.38109">
        <ele>94</ele>
        <time>2023-07-04T06:22:17Z</time>
      </trkpt>
      <trkpt lat="43.95798" lon="0.3811">
        <ele>94.6</ele>
        <time>2023-07-04T06:22:20Z</time>
      </trkpt>
      <trkpt lat="43.958" lon="0.38112">
        <ele>94.8</ele>
        <time>2023-07-04T06:22:22Z</time>
      </trkpt>
      <trkpt lat="43.95801" lon="0.38118">
        <ele>94.8</ele>
        <time>2023-07-04T06:22:26Z</time>
      </trkpt>
      <trkpt lat="43.95801" lon="0.38119">
        <ele>95</ele>
        <time>2023-07-04T06:22:27Z</time>
      </trkpt>
      <trkpt lat="43.95801" lon="0.3812">
        <ele>95.2</ele>
        <time>2023-07-04T06:22:28Z</time>
      </trkpt>
      <trkpt lat="43.95802" lon="0.38122">
        <ele>95.2</ele>
        <time>2023-07-04T06:22:29Z</time>
      </trkpt>
      <trkpt lat="43.95802" lon="0.38123">
        <ele>95.4</ele>
        <time>2023-07-04T06:22:30Z</time>
      </trkpt>
      <trkpt lat="43.95802" lon="0.38124">
        <ele>95.4</ele>
        <time>2023-07-04T06:22:31Z</time>
      </trkpt>
      <trkpt lat="43.95804" lon="0.38126">
        <ele>95.6</ele>
        <time>2023-07-04T06:22:33Z</time>
      </trkpt>
      <trkpt lat="43.95805" lon="0.38128">
        <ele>95.8</ele>
        <time>2023-07-04T06:22:35Z</time>
      </trkpt>
      <trkpt lat="43.95806" lon="0.38129">
        <ele>95.8</ele>
        <time>2023-07-04T06:22:36Z</time>
      </trkpt>
      <trkpt lat="43.95807" lon="0.3813">
        <ele>96</ele>
        <time>2023-07-04T06:22:37Z</time>
      </trkpt>
      <trkpt lat="43.95808" lon="0.38132">
        <ele>96.2</ele>
        <time>2023-07-04T06:22:38Z</time>
      </trkpt>
      <trkpt lat="43.95812" lon="0.38135">
        <ele>96.6</ele>
        <time>2023-07-04T06:22:41Z</time>
      </trkpt>
      <trkpt lat="43.95815" lon="0.38138">
        <ele>96.8</ele>
        <time>2023-07-04T06:22:44Z</time>
      </trkpt>
      <trkpt lat="43.95817" lon="0.3814">
        <ele>97</ele>
        <time>2023-07-04T06:22:46Z</time>
      </trkpt>
      <trkpt lat="43.95818" lon="0.38142">
        <ele>97.2</ele>
        <time>2023-07-04T06:22:48Z</time>
      </trkpt>
      <trkpt lat="43.95819" lon="0.38143">
        <ele>97.2</ele>
        <time>2023-07-04T06:22:49Z</time>
      </trkpt>
      <trkpt lat="43.95824" lon="0.38147">
        <ele>97.6</ele>
        <time>2023-07-04T06:22:52Z</time>
      </trkpt>
      <trkpt lat="43.95833" lon="0.38152">
        <ele>98.2</ele>
        <time>2023-07-04T06:22:58Z</time>
      </trkpt>
      <trkpt lat="43.95834" lon="0.38154">
        <ele>98.4</ele>
        <time>2023-07-04T06:22:59Z</time>
      </trkpt>
      <trkpt lat="43.95838" lon="0.3816">
        <ele>98.8</ele>
        <time>2023-07-04T06:23:05Z</time>
      </trkpt>
      <trkpt lat="43.95839" lon="0.38164">
        <ele>99</ele>
        <time>2023-07-04T06:23:08Z</time>
      </trkpt>
      <trkpt lat="43.95839" lon="0.38166">
        <ele>99</ele>
        <time>2023-07-04T06:23:11Z</time>
      </trkpt>
      <trkpt lat="43.9584" lon="0.38166">
        <ele>99.2</ele>
        <time>2023-07-04T06:23:12Z</time>
      </trkpt>
      <trkpt lat="43.95844" lon="0.38162">
        <ele>100</ele>
        <time>2023-07-04T06:23:17Z</time>
      </trkpt>
      <trkpt lat="43.95843" lon="0.38164">
        <ele>100.2</ele>
        <time>2023-07-04T06:23:19Z</time>
      </trkpt>
      <trkpt lat="43.95844" lon="0.38165">
        <ele>100.2</ele>
        <time>2023-07-04T06:23:21Z</time>
      </trkpt>
      <trkpt lat="43.95845" lon="0.38167">
        <ele>100.4</ele>
        <time>2023-07-04T06:23:23Z</time>
      </trkpt>
      <trkpt lat="43.95848" lon="0.3817">
        <ele>100.6</ele>
        <time>2023-07-04T06:23:26Z</time>
      </trkpt>
      <trkpt lat="43.9585" lon="0.38174">
        <ele>100.6</ele>
        <time>2023-07-04T06:23:27Z</time>
      </trkpt>
      <trkpt lat="43.95852" lon="0.3818">
        <ele>100.8</ele>
        <time>2023-07-04T06:23:29Z</time>
      </trkpt>
      <trkpt lat="43.95852" lon="0.38186">
        <ele>101</ele>
        <time>2023-07-04T06:23:32Z</time>
      </trkpt>
      <trkpt lat="43.95854" lon="0.3819">
        <ele>101.2</ele>
        <time>2023-07-04T06:23:36Z</time>
      </trkpt>
      <trkpt lat="43.95854" lon="0.38191">
        <ele>101.2</ele>
        <time>2023-07-04T06:23:37Z</time>
      </trkpt>
      <trkpt lat="43.95855" lon="0.38194">
        <ele>101.6</ele>
        <time>2023-07-04T06:23:39Z</time>
      </trkpt>
      <trkpt lat="43.95858" lon="0.38198">
        <ele>102.2</ele>
        <time>2023-07-04T06:23:44Z</time>
      </trkpt>
      <trkpt lat="43.95859" lon="0.38201">
        <ele>102.6</ele>
        <time>2023-07-04T06:23:47Z</time>
      </trkpt>
      <trkpt lat="43.95863" lon="0.38203">
        <ele>103</ele>
        <time>2023-07-04T06:23:51Z</time>
      </trkpt>
      <trkpt lat="43.95863" lon="0.38203">
        <ele>103.2</ele>
        <time>2023-07-04T06:23:52Z</time>
      </trkpt>
      <trkpt lat="43.95865" lon="0.38206">
        <ele>103.6</ele>
        <time>2023-07-04T06:23:56Z</time>
      </trkpt>
      <trkpt lat="43.95866" lon="0.38206">
        <ele>103.8</ele>
        <time>2023-07-04T06:23:57Z</time>
      </trkpt>
      <trkpt lat="43.9587" lon="0.38209">
        <ele>104.2</ele>
        <time>2023-07-04T06:24:00Z</time>
      </trkpt>
      <trkpt lat="43.95874" lon="0.38212">
        <ele>104.8</ele>
        <time>2023-07-04T06:24:05Z</time>
      </trkpt>
      <trkpt lat="43.95875" lon="0.38214">
        <ele>105.2</ele>
        <time>2023-07-04T06:24:07Z</time>
      </trkpt>
      <trkpt lat="43.95876" lon="0.38216">
        <ele>105.4</ele>
        <time>2023-07-04T06:24:09Z</time>
      </trkpt>
      <trkpt lat="43.95877" lon="0.38217">
        <ele>105.6</ele>
        <time>2023-07-04T06:24:10Z</time>
      </trkpt>
      <trkpt lat="43.95877" lon="0.38219">
        <ele>105.8</ele>
        <time>2023-07-04T06:24:12Z</time>
      </trkpt>
      <trkpt lat="43.95879" lon="0.38222">
        <ele>106.2</ele>
        <time>2023-07-04T06:24:15Z</time>
      </trkpt>
      <trkpt lat="43.95881" lon="0.38227">
        <ele>107</ele>
        <time>2023-07-04T06:24:18Z</time>
      </trkpt>
      <trkpt lat="43.95888" lon="0.38231">
        <ele>107.6</ele>
        <time>2023-07-04T06:24:24Z</time>
      </trkpt>
      <trkpt lat="43.9589" lon="0.38233">
        <ele>107.8</ele>
        <time>2023-07-04T06:24:26Z</time>
      </trkpt>
      <trkpt lat="43.95893" lon="0.38234">
        <ele>108</ele>
        <time>2023-07-04T06:24:27Z</time>
      </trkpt>
      <trkpt lat="43.95897" lon="0.38235">
        <ele>108.4</ele>
        <time>2023-07-04T06:24:30Z</time>
      </trkpt>
      <trkpt lat="43.959" lon="0.38238">
        <ele>109</ele>
        <time>2023-07-04T06:24:33Z</time>
      </trkpt>
      <trkpt lat="43.95898" lon="0.38251">
        <ele>109</ele>
        <time>2023-07-04T06:24:35Z</time>
      </trkpt>
      <trkpt lat="43.95902" lon="0.38254">
        <ele>109.2</ele>
        <time>2023-07-04T06:24:38Z</time>
      </trkpt>
      <trkpt lat="43.95911" lon="0.38255">
        <ele>109.4</ele>
        <time>2023-07-04T06:24:42Z</time>
      </trkpt>
      <trkpt lat="43.95911" lon="0.38257">
        <ele>109.4</ele>
        <time>2023-07-04T06:24:43Z</time>
      </trkpt>
      <trkpt lat="43.9591" lon="0.38259">
        <ele>109.4</ele>
        <time>2023-07-04T06:24:45Z</time>
      </trkpt>
      <trkpt lat="43.95915" lon="0.38263">
        <ele>109.6</ele>
        <time>2023-07-04T06:24:50Z</time>
      </trkpt>
      <trkpt lat="43.95917" lon="0.38264">
        <ele>109.6</ele>
        <time>2023-07-04T06:24:51Z</time>
      </trkpt>
      <trkpt lat="43.95917" lon="0.38266">
        <ele>109.6</ele>
        <time>2023-07-04T06:24:52Z</time>
      </trkpt>
      <trkpt lat="43.95917" lon="0.38267">
        <ele>109.6</ele>
        <time>2023-07-04T06:24:53Z</time>
      </trkpt>
      <trkpt lat="43.95917" lon="0.38274">
        <ele>109.8</ele>
        <time>2023-07-04T06:24:57Z</time>
      </trkpt>
      <trkpt lat="43.95915" lon="0.38286">
        <ele>110.2</ele>
        <time>2023-07-04T06:25:04Z</time>
      </trkpt>
      <trkpt lat="43.95915" lon="0.38294">
        <ele>110.4</ele>
        <time>2023-07-04T06:25:08Z</time>
      </trkpt>
      <trkpt lat="43.95915" lon="0.38302">
        <ele>110.6</ele>
        <time>2023-07-04T06:25:12Z</time>
      </trkpt>
      <trkpt lat="43.95914" lon="0.38313">
        <ele>111.4</ele>
        <time>2023-07-04T06:25:18Z</time>
      </trkpt>
      <trkpt lat="43.95921" lon="0.38321">
        <ele>111.8</ele>
        <time>2023-07-04T06:25:23Z</time>
      </trkpt>
      <trkpt lat="43.95921" lon="0.38337">
        <ele>112</ele>
        <time>2023-07-04T06:25:32Z</time>
      </trkpt>
      <trkpt lat="43.95923" lon="0.38346">
        <ele>112.4</ele>
        <time>2023-07-04T06:25:37Z</time>
      </trkpt>
      <trkpt lat="43.95923" lon="0.38354">
        <ele>112.8</ele>
        <time>2023-07-04T06:25:41Z</time>
      </trkpt>
      <trkpt lat="43.95923" lon="0.38358">
        <ele>112.8</ele>
        <time>2023-07-04T06:25:43Z</time>
      </trkpt>
      <trkpt lat="43.95924" lon="0.38367">
        <ele>112.8</ele>
        <time>2023-07-04T06:25:49Z</time>
      </trkpt>
      <trkpt lat="43.95924" lon="0.38369">
        <ele>112.8</ele>
        <time>2023-07-04T06:25:50Z</time>
      </trkpt>
      <trkpt lat="43.95924" lon="0.38385">
        <ele>113.2</ele>
        <time>2023-07-04T06:25:59Z</time>
      </trkpt>
      <trkpt lat="43.95924" lon="0.38386">
        <ele>113.2</ele>
        <time>2023-07-04T06:26:00Z</time>
      </trkpt>
      <trkpt lat="43.95924" lon="0.38388">
        <ele>113.2</ele>
        <time>2023-07-04T06:26:01Z</time>
      </trkpt>
      <trkpt lat="43.95925" lon="0.38393">
        <ele>113.6</ele>
        <time>2023-07-04T06:26:04Z</time>
      </trkpt>
      <trkpt lat="43.95924" lon="0.38399">
        <ele>113.8</ele>
        <time>2023-07-04T06:26:08Z</time>
      </trkpt>
      <trkpt lat="43.95921" lon="0.38415">
        <ele>114.2</ele>
        <time>2023-07-04T06:26:17Z</time>
      </trkpt>
      <trkpt lat="43.95926" lon="0.38425">
        <ele>114.6</ele>
        <time>2023-07-04T06:26:23Z</time>
      </trkpt>
      <trkpt lat="43.95925" lon="0.38429">
        <ele>114.6</ele>
        <time>2023-07-04T06:26:25Z</time>
      </trkpt>
      <trkpt lat="43.95925" lon="0.38433">
        <ele>114.6</ele>
        <time>2023-07-04T06:26:27Z</time>
      </trkpt>
      <trkpt lat="43.95923" lon="0.38448">
        <ele>115</ele>
        <time>2023-07-04T06:26:35Z</time>
      </trkpt>
      <trkpt lat="43.95923" lon="0.38454">
        <ele>115.2</ele>
        <time>2023-07-04T06:26:39Z</time>
      </trkpt>
      <trkpt lat="43.95925" lon="0.3846">
        <ele>115.4</ele>
        <time>2023-07-04T06:26:43Z</time>
      </trkpt>
      <trkpt lat="43.95925" lon="0.38466">
        <ele>115.6</ele>
        <time>2023-07-04T06:26:46Z</time>
      </trkpt>
      <trkpt lat="43.95928" lon="0.38476">
        <ele>116</ele>
        <time>2023-07-04T06:26:51Z</time>
      </trkpt>
      <trkpt lat="43.95927" lon="0.38479">
        <ele>116</ele>
        <time>2023-07-04T06:26:53Z</time>
      </trkpt>
      <trkpt lat="43.95928" lon="0.38484">
        <ele>116.2</ele>
        <time>2023-07-04T06:26:56Z</time>
      </trkpt>
      <trkpt lat="43.95928" lon="0.38486">
        <ele>116.2</ele>
        <time>2023-07-04T06:26:57Z</time>
      </trkpt>
      <trkpt lat="43.95929" lon="0.38498">
        <ele>116.6</ele>
        <time>2023-07-04T06:27:04Z</time>
      </trkpt>
      <trkpt lat="43.95928" lon="0.38502">
        <ele>116.8</ele>
        <time>2023-07-04T06:27:06Z</time>
      </trkpt>
      <trkpt lat="43.95929" lon="0.38508">
        <ele>116.8</ele>
        <time>2023-07-04T06:27:10Z</time>
      </trkpt>
      <trkpt lat="43.95929" lon="0.38513">
        <ele>116.8</ele>
        <time>2023-07-04T06:27:13Z</time>
      </trkpt>
      <trkpt lat="43.95929" lon="0.38529">
        <ele>117.2</ele>
        <time>2023-07-04T06:27:22Z</time>
      </trkpt>
      <trkpt lat="43.95928" lon="0.38541">
        <ele>117.6</ele>
        <time>2023-07-04T06:27:29Z</time>
      </trkpt>
      <trkpt lat="43.95928" lon="0.38542">
        <ele>117.6</ele>
        <time>2023-07-04T06:27:30Z</time>
      </trkpt>
      <trkpt lat="43.95928" lon="0.38544">
        <ele>117.8</ele>
        <time>2023-07-04T06:27:31Z</time>
      </trkpt>
      <trkpt lat="43.95926" lon="0.38551">
        <ele>118</ele>
        <time>2023-07-04T06:27:35Z</time>
      </trkpt>
      <trkpt lat="43.95925" lon="0.38553">
        <ele>118</ele>
        <time>2023-07-04T06:27:36Z</time>
      </trkpt>
      <trkpt lat="43.95921" lon="0.38564">
        <ele>118.2</ele>
        <time>2023-07-04T06:27:43Z</time>
      </trkpt>
      <trkpt lat="43.9592" lon="0.38566">
        <ele>118.2</ele>
        <time>2023-07-04T06:27:44Z</time>
      </trkpt>
      <trkpt lat="43.95917" lon="0.38577">
        <ele>118.8</ele>
        <time>2023-07-04T06:27:51Z</time>
      </trkpt>
      <trkpt lat="43.95917" lon="0.38578">
        <ele>118.8</ele>
        <time>2023-07-04T06:27:52Z</time>
      </trkpt>
      <trkpt lat="43.95916" lon="0.38592">
        <ele>119.2</ele>
        <time>2023-07-04T06:28:00Z</time>
      </trkpt>
      <trkpt lat="43.95915" lon="0.38593">
        <ele>119.2</ele>
        <time>2023-07-04T06:28:01Z</time>
      </trkpt>
      <trkpt lat="43.95916" lon="0.38597">
        <ele>119.2</ele>
        <time>2023-07-04T06:28:04Z</time>
      </trkpt>
      <trkpt lat="43.95916" lon="0.38602">
        <ele>119.8</ele>
        <time>2023-07-04T06:28:07Z</time>
      </trkpt>
      <trkpt lat="43.95916" lon="0.38605">
        <ele>119.8</ele>
        <time>2023-07-04T06:28:08Z</time>
      </trkpt>
      <trkpt lat="43.95917" lon="0.38625">
        <ele>120.2</ele>
        <time>2023-07-04T06:28:18Z</time>
      </trkpt>
      <trkpt lat="43.95917" lon="0.3863">
        <ele>120.2</ele>
        <time>2023-07-04T06:28:21Z</time>
      </trkpt>
      <trkpt lat="43.95918" lon="0.3864">
        <ele>120.6</ele>
        <time>2023-07-04T06:28:26Z</time>
      </trkpt>
      <trkpt lat="43.95918" lon="0.38642">
        <ele>120.6</ele>
        <time>2023-07-04T06:28:27Z</time>
      </trkpt>
      <trkpt lat="43.95918" lon="0.38647">
        <ele>120.8</ele>
        <time>2023-07-04T06:28:30Z</time>
      </trkpt>
      <trkpt lat="43.95919" lon="0.38657">
        <ele>121</ele>
        <time>2023-07-04T06:28:35Z</time>
      </trkpt>
      <trkpt lat="43.95919" lon="0.38659">
        <ele>121</ele>
        <time>2023-07-04T06:28:36Z</time>
      </trkpt>
      <trkpt lat="43.9592" lon="0.38665">
        <ele>121</ele>
        <time>2023-07-04T06:28:40Z</time>
      </trkpt>
      <trkpt lat="43.95921" lon="0.3867">
        <ele>121.2</ele>
        <time>2023-07-04T06:28:43Z</time>
      </trkpt>
      <trkpt lat="43.95921" lon="0.38681">
        <ele>121.8</ele>
        <time>2023-07-04T06:28:49Z</time>
      </trkpt>
      <trkpt lat="43.95921" lon="0.38685">
        <ele>122</ele>
        <time>2023-07-04T06:28:51Z</time>
      </trkpt>
      <trkpt lat="43.95921" lon="0.38698">
        <ele>122.2</ele>
        <time>2023-07-04T06:28:58Z</time>
      </trkpt>
      <trkpt lat="43.95922" lon="0.38709">
        <ele>122.4</ele>
        <time>2023-07-04T06:29:04Z</time>
      </trkpt>
      <trkpt lat="43.95923" lon="0.38714">
        <ele>122.4</ele>
        <time>2023-07-04T06:29:07Z</time>
      </trkpt>
      <trkpt lat="43.95924" lon="0.38728">
        <ele>122.6</ele>
        <time>2023-07-04T06:29:15Z</time>
      </trkpt>
      <trkpt lat="43.95925" lon="0.38736">
        <ele>123</ele>
        <time>2023-07-04T06:29:19Z</time>
      </trkpt>
      <trkpt lat="43.95925" lon="0.38744">
        <ele>123.2</ele>
        <time>2023-07-04T06:29:24Z</time>
      </trkpt>
      <trkpt lat="43.95924" lon="0.38746">
        <ele>123.4</ele>
        <time>2023-07-04T06:29:25Z</time>
      </trkpt>
      <trkpt lat="43.95924" lon="0.38758">
        <ele>123.6</ele>
        <time>2023-07-04T06:29:31Z</time>
      </trkpt>
      <trkpt lat="43.95925" lon="0.38769">
        <ele>124</ele>
        <time>2023-07-04T06:29:38Z</time>
      </trkpt>
      <trkpt lat="43.95925" lon="0.38771">
        <ele>124</ele>
        <time>2023-07-04T06:29:39Z</time>
      </trkpt>
      <trkpt lat="43.95928" lon="0.38787">
        <ele>124.2</ele>
        <time>2023-07-04T06:29:48Z</time>
      </trkpt>
      <trkpt lat="43.9593" lon="0.38799">
        <ele>125</ele>
        <time>2023-07-04T06:29:56Z</time>
      </trkpt>
      <trkpt lat="43.95932" lon="0.38802">
        <ele>125</ele>
        <time>2023-07-04T06:29:58Z</time>
      </trkpt>
      <trkpt lat="43.95933" lon="0.38808">
        <ele>125</ele>
        <time>2023-07-04T06:30:02Z</time>
      </trkpt>
      <trkpt lat="43.95933" lon="0.38816">
        <ele>125.6</ele>
        <time>2023-07-04T06:30:06Z</time>
      </trkpt>
      <trkpt lat="43.95934" lon="0.3882">
        <ele>125.8</ele>
        <time>2023-07-04T06:30:08Z</time>
      </trkpt>
      <trkpt lat="43.95934" lon="0.38829">
        <ele>126</ele>
        <time>2023-07-04T06:30:13Z</time>
      </trkpt>
      <trkpt lat="43.95935" lon="0.38834">
        <ele>126.4</ele>
        <time>2023-07-04T06:30:16Z</time>
      </trkpt>
      <trkpt lat="43.95935" lon="0.38841">
        <ele>126.6</ele>
        <time>2023-07-04T06:30:20Z</time>
      </trkpt>
      <trkpt lat="43.95936" lon="0.38848">
        <ele>127</ele>
        <time>2023-07-04T06:30:24Z</time>
      </trkpt>
      <trkpt lat="43.95936" lon="0.38851">
        <ele>127.2</ele>
        <time>2023-07-04T06:30:26Z</time>
      </trkpt>
      <trkpt lat="43.95936" lon="0.38858">
        <ele>127.4</ele>
        <time>2023-07-04T06:30:30Z</time>
      </trkpt>
      <trkpt lat="43.95936" lon="0.38859">
        <ele>127.4</ele>
        <time>2023-07-04T06:30:31Z</time>
      </trkpt>
      <trkpt lat="43.95938" lon="0.38872">
        <ele>128.2</ele>
        <time>2023-07-04T06:30:39Z</time>
      </trkpt>
      <trkpt lat="43.95939" lon="0.38874">
        <ele>128.4</ele>
        <time>2023-07-04T06:30:40Z</time>
      </trkpt>
      <trkpt lat="43.9594" lon="0.38886">
        <ele>129.2</ele>
        <time>2023-07-04T06:30:49Z</time>
      </trkpt>
      <trkpt lat="43.95941" lon="0.38887">
        <ele>129.4</ele>
        <time>2023-07-04T06:30:50Z</time>
      </trkpt>
      <trkpt lat="43.95941" lon="0.38897">
        <ele>130.2</ele>
        <time>2023-07-04T06:30:56Z</time>
      </trkpt>
      <trkpt lat="43.9594" lon="0.38901">
        <ele>130.2</ele>
        <time>2023-07-04T06:30:58Z</time>
      </trkpt>
      <trkpt lat="43.95939" lon="0.38902">
        <ele>130.4</ele>
        <time>2023-07-04T06:30:59Z</time>
      </trkpt>
      <trkpt lat="43.95939" lon="0.38904">
        <ele>130.4</ele>
        <time>2023-07-04T06:31:00Z</time>
      </trkpt>
      <trkpt lat="43.95938" lon="0.38912">
        <ele>130.8</ele>
        <time>2023-07-04T06:31:04Z</time>
      </trkpt>
      <trkpt lat="43.95937" lon="0.38914">
        <ele>131</ele>
        <time>2023-07-04T06:31:05Z</time>
      </trkpt>
      <trkpt lat="43.95937" lon="0.38918">
        <ele>131.4</ele>
        <time>2023-07-04T06:31:08Z</time>
      </trkpt>
      <trkpt lat="43.95938" lon="0.38921">
        <ele>131.6</ele>
        <time>2023-07-04T06:31:10Z</time>
      </trkpt>
      <trkpt lat="43.95938" lon="0.38925">
        <ele>131.8</ele>
        <time>2023-07-04T06:31:13Z</time>
      </trkpt>
      <trkpt lat="43.95938" lon="0.38929">
        <ele>132</ele>
        <time>2023-07-04T06:31:15Z</time>
      </trkpt>
      <trkpt lat="43.95939" lon="0.3893">
        <ele>132</ele>
        <time>2023-07-04T06:31:16Z</time>
      </trkpt>
      <trkpt lat="43.95942" lon="0.38937">
        <ele>132.8</ele>
        <time>2023-07-04T06:31:20Z</time>
      </trkpt>
      <trkpt lat="43.95942" lon="0.38943">
        <ele>133.6</ele>
        <time>2023-07-04T06:31:25Z</time>
      </trkpt>
      <trkpt lat="43.95941" lon="0.38948">
        <ele>133.8</ele>
        <time>2023-07-04T06:31:28Z</time>
      </trkpt>
      <trkpt lat="43.95941" lon="0.38954">
        <ele>134.6</ele>
        <time>2023-07-04T06:31:32Z</time>
      </trkpt>
      <trkpt lat="43.95942" lon="0.38958">
        <ele>134.8</ele>
        <time>2023-07-04T06:31:35Z</time>
      </trkpt>
      <trkpt lat="43.95941" lon="0.38966">
        <ele>135.6</ele>
        <time>2023-07-04T06:31:41Z</time>
      </trkpt>
      <trkpt lat="43.95941" lon="0.38973">
        <ele>136</ele>
        <time>2023-07-04T06:31:45Z</time>
      </trkpt>
      <trkpt lat="43.95941" lon="0.38976">
        <ele>136.2</ele>
        <time>2023-07-04T06:31:47Z</time>
      </trkpt>
      <trkpt lat="43.95941" lon="0.38977">
        <ele>136.4</ele>
        <time>2023-07-04T06:31:48Z</time>
      </trkpt>
      <trkpt lat="43.95941" lon="0.38979">
        <ele>136.6</ele>
        <time>2023-07-04T06:31:49Z</time>
      </trkpt>
      <trkpt lat="43.95941" lon="0.38982">
        <ele>137</ele>
        <time>2023-07-04T06:31:51Z</time>
      </trkpt>
      <trkpt lat="43.95941" lon="0.38988">
        <ele>137.6</ele>
        <time>2023-07-04T06:31:55Z</time>
      </trkpt>
      <trkpt lat="43.95941" lon="0.38992">
        <ele>138.2</ele>
        <time>2023-07-04T06:31:58Z</time>
      </trkpt>
      <trkpt lat="43.95941" lon="0.39">
        <ele>138.8</ele>
        <time>2023-07-04T06:32:03Z</time>
      </trkpt>
      <trkpt lat="43.95941" lon="0.39005">
        <ele>139.2</ele>
        <time>2023-07-04T06:32:07Z</time>
      </trkpt>
      <trkpt lat="43.9594" lon="0.3901">
        <ele>140</ele>
        <time>2023-07-04T06:32:11Z</time>
      </trkpt>
      <trkpt lat="43.9594" lon="0.39012">
        <ele>140.4</ele>
        <time>2023-07-04T06:32:13Z</time>
      </trkpt>
      <trkpt lat="43.95941" lon="0.39018">
        <ele>141.2</ele>
        <time>2023-07-04T06:32:18Z</time>
      </trkpt>
      <trkpt lat="43.95942" lon="0.39021">
        <ele>141.6</ele>
        <time>2023-07-04T06:32:20Z</time>
      </trkpt>
      <trkpt lat="43.95944" lon="0.39024">
        <ele>141.8</ele>
        <time>2023-07-04T06:32:22Z</time>
      </trkpt>
      <trkpt lat="43.95945" lon="0.39033">
        <ele>142.6</ele>
        <time>2023-07-04T06:32:28Z</time>
      </trkpt>
      <trkpt lat="43.95945" lon="0.39034">
        <ele>142.6</ele>
        <time>2023-07-04T06:32:29Z</time>
      </trkpt>
      <trkpt lat="43.95947" lon="0.39047">
        <ele>143.6</ele>
        <time>2023-07-04T06:32:36Z</time>
      </trkpt>
      <trkpt lat="43.95947" lon="0.3905">
        <ele>143.8</ele>
        <time>2023-07-04T06:32:38Z</time>
      </trkpt>
      <trkpt lat="43.95946" lon="0.39058">
        <ele>143.8</ele>
        <time>2023-07-04T06:32:43Z</time>
      </trkpt>
      <trkpt lat="43.95946" lon="0.39063">
        <ele>143.8</ele>
        <time>2023-07-04T06:32:46Z</time>
      </trkpt>
      <trkpt lat="43.95947" lon="0.3907">
        <ele>143.6</ele>
        <time>2023-07-04T06:32:50Z</time>
      </trkpt>
      <trkpt lat="43.95948" lon="0.39073">
        <ele>143.6</ele>
        <time>2023-07-04T06:32:52Z</time>
      </trkpt>
      <trkpt lat="43.95949" lon="0.39078">
        <ele>143.6</ele>
        <time>2023-07-04T06:32:55Z</time>
      </trkpt>
      <trkpt lat="43.9595" lon="0.39088">
        <ele>143.2</ele>
        <time>2023-07-04T06:33:01Z</time>
      </trkpt>
      <trkpt lat="43.9595" lon="0.39098">
        <ele>143.2</ele>
        <time>2023-07-04T06:33:07Z</time>
      </trkpt>
      <trkpt lat="43.95951" lon="0.391">
        <ele>143.2</ele>
        <time>2023-07-04T06:33:08Z</time>
      </trkpt>
      <trkpt lat="43.95954" lon="0.39111">
        <ele>142.6</ele>
        <time>2023-07-04T06:33:14Z</time>
      </trkpt>
      <trkpt lat="43.95954" lon="0.39113">
        <ele>142.6</ele>
        <time>2023-07-04T06:33:15Z</time>
      </trkpt>
      <trkpt lat="43.95954" lon="0.39124">
        <ele>142.2</ele>
        <time>2023-07-04T06:33:21Z</time>
      </trkpt>
      <trkpt lat="43.95955" lon="0.39136">
        <ele>142</ele>
        <time>2023-07-04T06:33:28Z</time>
      </trkpt>
      <trkpt lat="43.95955" lon="0.39139">
        <ele>142</ele>
        <time>2023-07-04T06:33:30Z</time>
      </trkpt>
      <trkpt lat="43.95957" lon="0.39153">
        <ele>142.2</ele>
        <time>2023-07-04T06:33:38Z</time>
      </trkpt>
      <trkpt lat="43.9596" lon="0.39168">
        <ele>142.4</ele>
        <time>2023-07-04T06:33:47Z</time>
      </trkpt>
      <trkpt lat="43.9597" lon="0.39186">
        <ele>142.6</ele>
        <time>2023-07-04T06:33:58Z</time>
      </trkpt>
      <trkpt lat="43.95973" lon="0.3919">
        <ele>142.6</ele>
        <time>2023-07-04T06:34:01Z</time>
      </trkpt>
      <trkpt lat="43.95972" lon="0.39201">
        <ele>142.6</ele>
        <time>2023-07-04T06:34:07Z</time>
      </trkpt>
      <trkpt lat="43.95972" lon="0.39204">
        <ele>142.6</ele>
        <time>2023-07-04T06:34:09Z</time>
      </trkpt>
      <trkpt lat="43.95969" lon="0.39213">
        <ele>142.6</ele>
        <time>2023-07-04T06:34:14Z</time>
      </trkpt>
      <trkpt lat="43.95966" lon="0.3923">
        <ele>142.8</ele>
        <time>2023-07-04T06:34:24Z</time>
      </trkpt>
      <trkpt lat="43.95966" lon="0.39233">
        <ele>142.8</ele>
        <time>2023-07-04T06:34:26Z</time>
      </trkpt>
      <trkpt lat="43.95967" lon="0.3924">
        <ele>143</ele>
        <time>2023-07-04T06:34:31Z</time>
      </trkpt>
      <trkpt lat="43.9597" lon="0.39251">
        <ele>143.4</ele>
        <time>2023-07-04T06:34:38Z</time>
      </trkpt>
      <trkpt lat="43.95971" lon="0.39256">
        <ele>143.6</ele>
        <time>2023-07-04T06:34:41Z</time>
      </trkpt>
      <trkpt lat="43.95968" lon="0.39265">
        <ele>144</ele>
        <time>2023-07-04T06:34:46Z</time>
      </trkpt>
      <trkpt lat="43.95964" lon="0.39278">
        <ele>144.4</ele>
        <time>2023-07-04T06:34:53Z</time>
      </trkpt>
      <trkpt lat="43.95963" lon="0.39283">
        <ele>144.8</ele>
        <time>2023-07-04T06:34:56Z</time>
      </trkpt>
      <trkpt lat="43.95963" lon="0.39284">
        <ele>144.8</ele>
        <time>2023-07-04T06:34:57Z</time>
      </trkpt>
      <trkpt lat="43.95965" lon="0.39291">
        <ele>145.2</ele>
        <time>2023-07-04T06:35:01Z</time>
      </trkpt>
      <trkpt lat="43.95965" lon="0.393">
        <ele>145.4</ele>
        <time>2023-07-04T06:35:06Z</time>
      </trkpt>
      <trkpt lat="43.95962" lon="0.39317">
        <ele>145.4</ele>
        <time>2023-07-04T06:35:16Z</time>
      </trkpt>
      <trkpt lat="43.95961" lon="0.39327">
        <ele>145.6</ele>
        <time>2023-07-04T06:35:22Z</time>
      </trkpt>
      <trkpt lat="43.95961" lon="0.39329">
        <ele>145.8</ele>
        <time>2023-07-04T06:35:23Z</time>
      </trkpt>
      <trkpt lat="43.9596" lon="0.39334">
        <ele>146</ele>
        <time>2023-07-04T06:35:26Z</time>
      </trkpt>
      <trkpt lat="43.95961" lon="0.39341">
        <ele>146</ele>
        <time>2023-07-04T06:35:30Z</time>
      </trkpt>
      <trkpt lat="43.95963" lon="0.39346">
        <ele>146</ele>
        <time>2023-07-04T06:35:33Z</time>
      </trkpt>
      <trkpt lat="43.95965" lon="0.39362">
        <ele>146.4</ele>
        <time>2023-07-04T06:35:42Z</time>
      </trkpt>
      <trkpt lat="43.95966" lon="0.39373">
        <ele>146.6</ele>
        <time>2023-07-04T06:35:49Z</time>
      </trkpt>
      <trkpt lat="43.95967" lon="0.39377">
        <ele>146.6</ele>
        <time>2023-07-04T06:35:51Z</time>
      </trkpt>
      <trkpt lat="43.9597" lon="0.39394">
        <ele>146.4</ele>
        <time>2023-07-04T06:36:01Z</time>
      </trkpt>
      <trkpt lat="43.9597" lon="0.39407">
        <ele>146.2</ele>
        <time>2023-07-04T06:36:08Z</time>
      </trkpt>
      <trkpt lat="43.9597" lon="0.39409">
        <ele>146.4</ele>
        <time>2023-07-04T06:36:09Z</time>
      </trkpt>
      <trkpt lat="43.9597" lon="0.39419">
        <ele>146.2</ele>
        <time>2023-07-04T06:36:15Z</time>
      </trkpt>
      <trkpt lat="43.9597" lon="0.39421">
        <ele>146.2</ele>
        <time>2023-07-04T06:36:16Z</time>
      </trkpt>
      <trkpt lat="43.95969" lon="0.39434">
        <ele>146.4</ele>
        <time>2023-07-04T06:36:24Z</time>
      </trkpt>
      <trkpt lat="43.95971" lon="0.39446">
        <ele>146.2</ele>
        <time>2023-07-04T06:36:31Z</time>
      </trkpt>
      <trkpt lat="43.95973" lon="0.39451">
        <ele>146</ele>
        <time>2023-07-04T06:36:34Z</time>
      </trkpt>
      <trkpt lat="43.95975" lon="0.39456">
        <ele>146</ele>
        <time>2023-07-04T06:36:37Z</time>
      </trkpt>
      <trkpt lat="43.95977" lon="0.39474">
        <ele>146</ele>
        <time>2023-07-04T06:36:47Z</time>
      </trkpt>
      <trkpt lat="43.95978" lon="0.3949">
        <ele>145.8</ele>
        <time>2023-07-04T06:36:56Z</time>
      </trkpt>
      <trkpt lat="43.9598" lon="0.39504">
        <ele>146</ele>
        <time>2023-07-04T06:37:04Z</time>
      </trkpt>
      <trkpt lat="43.95981" lon="0.39516">
        <ele>146.2</ele>
        <time>2023-07-04T06:37:11Z</time>
      </trkpt>
      <trkpt lat="43.9598" lon="0.39524">
        <ele>146.2</ele>
        <time>2023-07-04T06:37:16Z</time>
      </trkpt>
      <trkpt lat="43.95981" lon="0.39528">
        <ele>146.2</ele>
        <time>2023-07-04T06:37:18Z</time>
      </trkpt>
      <trkpt lat="43.95986" lon="0.39539">
        <ele>146.4</ele>
        <time>2023-07-04T06:37:25Z</time>
      </trkpt>
      <trkpt lat="43.95991" lon="0.39551">
        <ele>146.6</ele>
        <time>2023-07-04T06:37:33Z</time>
      </trkpt>
      <trkpt lat="43.95991" lon="0.39562">
        <ele>146.6</ele>
        <time>2023-07-04T06:37:39Z</time>
      </trkpt>
      <trkpt lat="43.95992" lon="0.39564">
        <ele>146.6</ele>
        <time>2023-07-04T06:37:40Z</time>
      </trkpt>
      <trkpt lat="43.95993" lon="0.39573">
        <ele>146.8</ele>
        <time>2023-07-04T06:37:44Z</time>
      </trkpt>
      <trkpt lat="43.95994" lon="0.39578">
        <ele>147</ele>
        <time>2023-07-04T06:37:47Z</time>
      </trkpt>
      <trkpt lat="43.95994" lon="0.39584">
        <ele>146.8</ele>
        <time>2023-07-04T06:37:51Z</time>
      </trkpt>
      <trkpt lat="43.95996" lon="0.39587">
        <ele>147</ele>
        <time>2023-07-04T06:37:54Z</time>
      </trkpt>
      <trkpt lat="43.95997" lon="0.396">
        <ele>147.4</ele>
        <time>2023-07-04T06:38:01Z</time>
      </trkpt>
      <trkpt lat="43.95998" lon="0.39607">
        <ele>147.4</ele>
        <time>2023-07-04T06:38:04Z</time>
      </trkpt>
      <trkpt lat="43.96" lon="0.39618">
        <ele>147.4</ele>
        <time>2023-07-04T06:38:10Z</time>
      </trkpt>
      <trkpt lat="43.96002" lon="0.3963">
        <ele>147.6</ele>
        <time>2023-07-04T06:38:18Z</time>
      </trkpt>
      <trkpt lat="43.96003" lon="0.39636">
        <ele>147.8</ele>
        <time>2023-07-04T06:38:21Z</time>
      </trkpt>
      <trkpt lat="43.96004" lon="0.39644">
        <ele>148</ele>
        <time>2023-07-04T06:38:25Z</time>
      </trkpt>
      <trkpt lat="43.96004" lon="0.39646">
        <ele>147.8</ele>
        <time>2023-07-04T06:38:26Z</time>
      </trkpt>
      <trkpt lat="43.96004" lon="0.39652">
        <ele>147.8</ele>
        <time>2023-07-04T06:38:29Z</time>
      </trkpt>
      <trkpt lat="43.96004" lon="0.3966">
        <ele>147.8</ele>
        <time>2023-07-04T06:38:33Z</time>
      </trkpt>
      <trkpt lat="43.96005" lon="0.39673">
        <ele>148</ele>
        <time>2023-07-04T06:38:41Z</time>
      </trkpt>
      <trkpt lat="43.96004" lon="0.39679">
        <ele>148</ele>
        <time>2023-07-04T06:38:44Z</time>
      </trkpt>
      <trkpt lat="43.96004" lon="0.39684">
        <ele>147.8</ele>
        <time>2023-07-04T06:38:47Z</time>
      </trkpt>
      <trkpt lat="43.96004" lon="0.39695">
        <ele>148</ele>
        <time>2023-07-04T06:38:53Z</time>
      </trkpt>
      <trkpt lat="43.96004" lon="0.39699">
        <ele>148</ele>
        <time>2023-07-04T06:38:55Z</time>
      </trkpt>
      <trkpt lat="43.96004" lon="0.3971">
        <ele>147.8</ele>
        <time>2023-07-04T06:39:01Z</time>
      </trkpt>
      <trkpt lat="43.96007" lon="0.39715">
        <ele>148</ele>
        <time>2023-07-04T06:39:04Z</time>
      </trkpt>
      <trkpt lat="43.96008" lon="0.39719">
        <ele>148</ele>
        <time>2023-07-04T06:39:07Z</time>
      </trkpt>
      <trkpt lat="43.96009" lon="0.39734">
        <ele>148.4</ele>
        <time>2023-07-04T06:39:16Z</time>
      </trkpt>
      <trkpt lat="43.96009" lon="0.39743">
        <ele>148.4</ele>
        <time>2023-07-04T06:39:21Z</time>
      </trkpt>
      <trkpt lat="43.96011" lon="0.39747">
        <ele>148.6</ele>
        <time>2023-07-04T06:39:23Z</time>
      </trkpt>
      <trkpt lat="43.96012" lon="0.39757">
        <ele>148.8</ele>
        <time>2023-07-04T06:39:29Z</time>
      </trkpt>
      <trkpt lat="43.96012" lon="0.39759">
        <ele>148.8</ele>
        <time>2023-07-04T06:39:30Z</time>
      </trkpt>
      <trkpt lat="43.96013" lon="0.39766">
        <ele>148.8</ele>
        <time>2023-07-04T06:39:34Z</time>
      </trkpt>
      <trkpt lat="43.96013" lon="0.39772">
        <ele>149.2</ele>
        <time>2023-07-04T06:39:37Z</time>
      </trkpt>
      <trkpt lat="43.96016" lon="0.39783">
        <ele>149.4</ele>
        <time>2023-07-04T06:39:43Z</time>
      </trkpt>
      <trkpt lat="43.96017" lon="0.39795">
        <ele>149</ele>
        <time>2023-07-04T06:39:50Z</time>
      </trkpt>
      <trkpt lat="43.96018" lon="0.39799">
        <ele>149</ele>
        <time>2023-07-04T06:39:52Z</time>
      </trkpt>
      <trkpt lat="43.96021" lon="0.39807">
        <ele>149.6</ele>
        <time>2023-07-04T06:39:57Z</time>
      </trkpt>
      <trkpt lat="43.96024" lon="0.39819">
        <ele>149.2</ele>
        <time>2023-07-04T06:40:04Z</time>
      </trkpt>
      <trkpt lat="43.96025" lon="0.39828">
        <ele>149.2</ele>
        <time>2023-07-04T06:40:10Z</time>
      </trkpt>
      <trkpt lat="43.9603" lon="0.39842">
        <ele>149.4</ele>
        <time>2023-07-04T06:40:17Z</time>
      </trkpt>
      <trkpt lat="43.96033" lon="0.39858">
        <ele>149.6</ele>
        <time>2023-07-04T06:40:26Z</time>
      </trkpt>
      <trkpt lat="43.96034" lon="0.39868">
        <ele>149</ele>
        <time>2023-07-04T06:40:32Z</time>
      </trkpt>
      <trkpt lat="43.96035" lon="0.3987">
        <ele>149</ele>
        <time>2023-07-04T06:40:33Z</time>
      </trkpt>
      <trkpt lat="43.96035" lon="0.39872">
        <ele>149</ele>
        <time>2023-07-04T06:40:34Z</time>
      </trkpt>
      <trkpt lat="43.96036" lon="0.39887">
        <ele>149.2</ele>
        <time>2023-07-04T06:40:43Z</time>
      </trkpt>
      <trkpt lat="43.96038" lon="0.39893">
        <ele>149.2</ele>
        <time>2023-07-04T06:40:47Z</time>
      </trkpt>
      <trkpt lat="43.9604" lon="0.39904">
        <ele>149</ele>
        <time>2023-07-04T06:40:54Z</time>
      </trkpt>
      <trkpt lat="43.96042" lon="0.39918">
        <ele>149</ele>
        <time>2023-07-04T06:41:02Z</time>
      </trkpt>
      <trkpt lat="43.96044" lon="0.39926">
        <ele>149</ele>
        <time>2023-07-04T06:41:06Z</time>
      </trkpt>
      <trkpt lat="43.96044" lon="0.39937">
        <ele>148.6</ele>
        <time>2023-07-04T06:41:12Z</time>
      </trkpt>
      <trkpt lat="43.96046" lon="0.39946">
        <ele>148.6</ele>
        <time>2023-07-04T06:41:17Z</time>
      </trkpt>
      <trkpt lat="43.96046" lon="0.39951">
        <ele>148.8</ele>
        <time>2023-07-04T06:41:20Z</time>
      </trkpt>
      <trkpt lat="43.96048" lon="0.39958">
        <ele>148.8</ele>
        <time>2023-07-04T06:41:25Z</time>
      </trkpt>
      <trkpt lat="43.96048" lon="0.39963">
        <ele>148.8</ele>
        <time>2023-07-04T06:41:28Z</time>
      </trkpt>
      <trkpt lat="43.9605" lon="0.39971">
        <ele>148.4</ele>
        <time>2023-07-04T06:41:34Z</time>
      </trkpt>
      <trkpt lat="43.96051" lon="0.39972">
        <ele>148.4</ele>
        <time>2023-07-04T06:41:35Z</time>
      </trkpt>
      <trkpt lat="43.96052" lon="0.39975">
        <ele>148.4</ele>
        <time>2023-07-04T06:41:37Z</time>
      </trkpt>
      <trkpt lat="43.96052" lon="0.39977">
        <ele>148.4</ele>
        <time>2023-07-04T06:41:38Z</time>
      </trkpt>
      <trkpt lat="43.96053" lon="0.39983">
        <ele>148.6</ele>
        <time>2023-07-04T06:41:42Z</time>
      </trkpt>
      <trkpt lat="43.96053" lon="0.3999">
        <ele>148.4</ele>
        <time>2023-07-04T06:41:46Z</time>
      </trkpt>
      <trkpt lat="43.96055" lon="0.39996">
        <ele>148.6</ele>
        <time>2023-07-04T06:41:50Z</time>
      </trkpt>
      <trkpt lat="43.96056" lon="0.39997">
        <ele>148.6</ele>
        <time>2023-07-04T06:41:51Z</time>
      </trkpt>
      <trkpt lat="43.96059" lon="0.40003">
        <ele>148.6</ele>
        <time>2023-07-04T06:41:56Z</time>
      </trkpt>
      <trkpt lat="43.96058" lon="0.40006">
        <ele>148.6</ele>
        <time>2023-07-04T06:41:58Z</time>
      </trkpt>
      <trkpt lat="43.96059" lon="0.40012">
        <ele>148.8</ele>
        <time>2023-07-04T06:42:02Z</time>
      </trkpt>
      <trkpt lat="43.96061" lon="0.40019">
        <ele>149</ele>
        <time>2023-07-04T06:42:07Z</time>
      </trkpt>
      <trkpt lat="43.96063" lon="0.40024">
        <ele>148.8</ele>
        <time>2023-07-04T06:42:09Z</time>
      </trkpt>
      <trkpt lat="43.96064" lon="0.40028">
        <ele>148.8</ele>
        <time>2023-07-04T06:42:11Z</time>
      </trkpt>
      <trkpt lat="43.96065" lon="0.4004">
        <ele>148.6</ele>
        <time>2023-07-04T06:42:15Z</time>
      </trkpt>
      <trkpt lat="43.96065" lon="0.40042">
        <ele>148.6</ele>
        <time>2023-07-04T06:42:16Z</time>
      </trkpt>
      <trkpt lat="43.96066" lon="0.40063">
        <ele>148.8</ele>
        <time>2023-07-04T06:42:24Z</time>
      </trkpt>
      <trkpt lat="43.96067" lon="0.4007">
        <ele>148.8</ele>
        <time>2023-07-04T06:42:28Z</time>
      </trkpt>
      <trkpt lat="43.96069" lon="0.40077">
        <ele>149</ele>
        <time>2023-07-04T06:42:32Z</time>
      </trkpt>
      <trkpt lat="43.96069" lon="0.40079">
        <ele>148.8</ele>
        <time>2023-07-04T06:42:33Z</time>
      </trkpt>
      <trkpt lat="43.96072" lon="0.40092">
        <ele>149</ele>
        <time>2023-07-04T06:42:40Z</time>
      </trkpt>
      <trkpt lat="43.96074" lon="0.401">
        <ele>149</ele>
        <time>2023-07-04T06:42:45Z</time>
      </trkpt>
      <trkpt lat="43.96074" lon="0.40101">
        <ele>149.2</ele>
        <time>2023-07-04T06:42:46Z</time>
      </trkpt>
      <trkpt lat="43.96079" lon="0.40115">
        <ele>149.2</ele>
        <time>2023-07-04T06:42:54Z</time>
      </trkpt>
      <trkpt lat="43.96082" lon="0.40127">
        <ele>149.4</ele>
        <time>2023-07-04T06:43:01Z</time>
      </trkpt>
      <trkpt lat="43.96085" lon="0.40141">
        <ele>149.2</ele>
        <time>2023-07-04T06:43:09Z</time>
      </trkpt>
      <trkpt lat="43.96087" lon="0.40153">
        <ele>149.6</ele>
        <time>2023-07-04T06:43:16Z</time>
      </trkpt>
      <trkpt lat="43.96087" lon="0.40155">
        <ele>149.6</ele>
        <time>2023-07-04T06:43:17Z</time>
      </trkpt>
      <trkpt lat="43.96086" lon="0.40162">
        <ele>149.4</ele>
        <time>2023-07-04T06:43:22Z</time>
      </trkpt>
      <trkpt lat="43.96088" lon="0.40174">
        <ele>149.8</ele>
        <time>2023-07-04T06:43:31Z</time>
      </trkpt>
      <trkpt lat="43.96088" lon="0.40176">
        <ele>149.8</ele>
        <time>2023-07-04T06:43:32Z</time>
      </trkpt>
      <trkpt lat="43.96089" lon="0.40181">
        <ele>150</ele>
        <time>2023-07-04T06:43:34Z</time>
      </trkpt>
      <trkpt lat="43.9609" lon="0.4019">
        <ele>149.8</ele>
        <time>2023-07-04T06:43:38Z</time>
      </trkpt>
      <trkpt lat="43.96092" lon="0.40198">
        <ele>150</ele>
        <time>2023-07-04T06:43:42Z</time>
      </trkpt>
      <trkpt lat="43.96095" lon="0.40206">
        <ele>150.2</ele>
        <time>2023-07-04T06:43:47Z</time>
      </trkpt>
      <trkpt lat="43.961" lon="0.40217">
        <ele>150.8</ele>
        <time>2023-07-04T06:43:53Z</time>
      </trkpt>
      <trkpt lat="43.96105" lon="0.4023">
        <ele>150.4</ele>
        <time>2023-07-04T06:44:00Z</time>
      </trkpt>
      <trkpt lat="43.96108" lon="0.4024">
        <ele>150.8</ele>
        <time>2023-07-04T06:44:06Z</time>
      </trkpt>
      <trkpt lat="43.96109" lon="0.40253">
        <ele>150.8</ele>
        <time>2023-07-04T06:44:13Z</time>
      </trkpt>
      <trkpt lat="43.96109" lon="0.40255">
        <ele>151</ele>
        <time>2023-07-04T06:44:14Z</time>
      </trkpt>
      <trkpt lat="43.96111" lon="0.40259">
        <ele>151.2</ele>
        <time>2023-07-04T06:44:16Z</time>
      </trkpt>
      <trkpt lat="43.96111" lon="0.40261">
        <ele>151.4</ele>
        <time>2023-07-04T06:44:17Z</time>
      </trkpt>
      <trkpt lat="43.96112" lon="0.40266">
        <ele>151.6</ele>
        <time>2023-07-04T06:44:20Z</time>
      </trkpt>
      <trkpt lat="43.96114" lon="0.4028">
        <ele>151.8</ele>
        <time>2023-07-04T06:44:29Z</time>
      </trkpt>
      <trkpt lat="43.96114" lon="0.40283">
        <ele>152</ele>
        <time>2023-07-04T06:44:31Z</time>
      </trkpt>
      <trkpt lat="43.96117" lon="0.4029">
        <ele>152.4</ele>
        <time>2023-07-04T06:44:36Z</time>
      </trkpt>
      <trkpt lat="43.96119" lon="0.40299">
        <ele>152.6</ele>
        <time>2023-07-04T06:44:41Z</time>
      </trkpt>
      <trkpt lat="43.9612" lon="0.40301">
        <ele>152.6</ele>
        <time>2023-07-04T06:44:42Z</time>
      </trkpt>
      <trkpt lat="43.96121" lon="0.40304">
        <ele>152.8</ele>
        <time>2023-07-04T06:44:44Z</time>
      </trkpt>
      <trkpt lat="43.96122" lon="0.40309">
        <ele>152.8</ele>
        <time>2023-07-04T06:44:47Z</time>
      </trkpt>
      <trkpt lat="43.96123" lon="0.40316">
        <ele>153</ele>
        <time>2023-07-04T06:44:52Z</time>
      </trkpt>
      <trkpt lat="43.96123" lon="0.40318">
        <ele>153</ele>
        <time>2023-07-04T06:44:53Z</time>
      </trkpt>
      <trkpt lat="43.96124" lon="0.40321">
        <ele>153</ele>
        <time>2023-07-04T06:44:55Z</time>
      </trkpt>
      <trkpt lat="43.96125" lon="0.40324">
        <ele>153.2</ele>
        <time>2023-07-04T06:44:57Z</time>
      </trkpt>
      <trkpt lat="43.96127" lon="0.40337">
        <ele>153.4</ele>
        <time>2023-07-04T06:45:05Z</time>
      </trkpt>
      <trkpt lat="43.9613" lon="0.40345">
        <ele>153.4</ele>
        <time>2023-07-04T06:45:09Z</time>
      </trkpt>
      <trkpt lat="43.96131" lon="0.40351">
        <ele>153.6</ele>
        <time>2023-07-04T06:45:12Z</time>
      </trkpt>
      <trkpt lat="43.96136" lon="0.40363">
        <ele>154</ele>
        <time>2023-07-04T06:45:18Z</time>
      </trkpt>
      <trkpt lat="43.96137" lon="0.40367">
        <ele>154</ele>
        <time>2023-07-04T06:45:20Z</time>
      </trkpt>
      <trkpt lat="43.9614" lon="0.40372">
        <ele>154</ele>
        <time>2023-07-04T06:45:23Z</time>
      </trkpt>
      <trkpt lat="43.96141" lon="0.40379">
        <ele>154</ele>
        <time>2023-07-04T06:45:27Z</time>
      </trkpt>
      <trkpt lat="43.96141" lon="0.40381">
        <ele>154.2</ele>
        <time>2023-07-04T06:45:28Z</time>
      </trkpt>
      <trkpt lat="43.96141" lon="0.40386">
        <ele>154.2</ele>
        <time>2023-07-04T06:45:31Z</time>
      </trkpt>
      <trkpt lat="43.96142" lon="0.40388">
        <ele>154.4</ele>
        <time>2023-07-04T06:45:32Z</time>
      </trkpt>
      <trkpt lat="43.96142" lon="0.4039">
        <ele>154.4</ele>
        <time>2023-07-04T06:45:33Z</time>
      </trkpt>
      <trkpt lat="43.96142" lon="0.40392">
        <ele>154.2</ele>
        <time>2023-07-04T06:45:34Z</time>
      </trkpt>
      <trkpt lat="43.96143" lon="0.404">
        <ele>154.4</ele>
        <time>2023-07-04T06:45:39Z</time>
      </trkpt>
      <trkpt lat="43.96144" lon="0.40409">
        <ele>154.4</ele>
        <time>2023-07-04T06:45:45Z</time>
      </trkpt>
      <trkpt lat="43.96144" lon="0.40413">
        <ele>154.4</ele>
        <time>2023-07-04T06:45:47Z</time>
      </trkpt>
      <trkpt lat="43.96144" lon="0.40419">
        <ele>154.6</ele>
        <time>2023-07-04T06:45:50Z</time>
      </trkpt>
      <trkpt lat="43.96145" lon="0.40428">
        <ele>154.8</ele>
        <time>2023-07-04T06:45:54Z</time>
      </trkpt>
      <trkpt lat="43.96146" lon="0.40441">
        <ele>154.8</ele>
        <time>2023-07-04T06:46:01Z</time>
      </trkpt>
      <trkpt lat="43.96148" lon="0.40451">
        <ele>155.2</ele>
        <time>2023-07-04T06:46:06Z</time>
      </trkpt>
      <trkpt lat="43.96149" lon="0.40463">
        <ele>155.6</ele>
        <time>2023-07-04T06:46:12Z</time>
      </trkpt>
      <trkpt lat="43.96151" lon="0.40473">
        <ele>155.8</ele>
        <time>2023-07-04T06:46:18Z</time>
      </trkpt>
      <trkpt lat="43.96153" lon="0.40483">
        <ele>156</ele>
        <time>2023-07-04T06:46:24Z</time>
      </trkpt>
      <trkpt lat="43.96153" lon="0.40485">
        <ele>156.2</ele>
        <time>2023-07-04T06:46:25Z</time>
      </trkpt>
      <trkpt lat="43.96153" lon="0.40494">
        <ele>156.8</ele>
        <time>2023-07-04T06:46:30Z</time>
      </trkpt>
      <trkpt lat="43.96153" lon="0.40499">
        <ele>156.8</ele>
        <time>2023-07-04T06:46:33Z</time>
      </trkpt>
      <trkpt lat="43.96154" lon="0.405">
        <ele>156.8</ele>
        <time>2023-07-04T06:46:34Z</time>
      </trkpt>
      <trkpt lat="43.96155" lon="0.4051">
        <ele>157.2</ele>
        <time>2023-07-04T06:46:41Z</time>
      </trkpt>
      <trkpt lat="43.96155" lon="0.40512">
        <ele>157.4</ele>
        <time>2023-07-04T06:46:42Z</time>
      </trkpt>
      <trkpt lat="43.96157" lon="0.4052">
        <ele>158</ele>
        <time>2023-07-04T06:46:48Z</time>
      </trkpt>
      <trkpt lat="43.96158" lon="0.40521">
        <ele>158</ele>
        <time>2023-07-04T06:46:49Z</time>
      </trkpt>
      <trkpt lat="43.9616" lon="0.40529">
        <ele>158.4</ele>
        <time>2023-07-04T06:46:54Z</time>
      </trkpt>
      <trkpt lat="43.96161" lon="0.40531">
        <ele>158.6</ele>
        <time>2023-07-04T06:46:55Z</time>
      </trkpt>
      <trkpt lat="43.96161" lon="0.40532">
        <ele>158.8</ele>
        <time>2023-07-04T06:46:56Z</time>
      </trkpt>
      <trkpt lat="43.96164" lon="0.40542">
        <ele>158.8</ele>
        <time>2023-07-04T06:47:01Z</time>
      </trkpt>
      <trkpt lat="43.96166" lon="0.40548">
        <ele>159.4</ele>
        <time>2023-07-04T06:47:05Z</time>
      </trkpt>
      <trkpt lat="43.96167" lon="0.40552">
        <ele>159.8</ele>
        <time>2023-07-04T06:47:07Z</time>
      </trkpt>
      <trkpt lat="43.96169" lon="0.40555">
        <ele>160</ele>
        <time>2023-07-04T06:47:10Z</time>
      </trkpt>
      <trkpt lat="43.96171" lon="0.4056">
        <ele>160.2</ele>
        <time>2023-07-04T06:47:13Z</time>
      </trkpt>
      <trkpt lat="43.96172" lon="0.40563">
        <ele>160.4</ele>
        <time>2023-07-04T06:47:16Z</time>
      </trkpt>
      <trkpt lat="43.96175" lon="0.4057">
        <ele>161</ele>
        <time>2023-07-04T06:47:22Z</time>
      </trkpt>
      <trkpt lat="43.96176" lon="0.40573">
        <ele>161.2</ele>
        <time>2023-07-04T06:47:24Z</time>
      </trkpt>
      <trkpt lat="43.96176" lon="0.40576">
        <ele>161.6</ele>
        <time>2023-07-04T06:47:27Z</time>
      </trkpt>
      <trkpt lat="43.96176" lon="0.40578">
        <ele>161.8</ele>
        <time>2023-07-04T06:47:28Z</time>
      </trkpt>
      <trkpt lat="43.96178" lon="0.40583">
        <ele>162.2</ele>
        <time>2023-07-04T06:47:32Z</time>
      </trkpt>
      <trkpt lat="43.96178" lon="0.40584">
        <ele>162.2</ele>
        <time>2023-07-04T06:47:33Z</time>
      </trkpt>
      <trkpt lat="43.96179" lon="0.40586">
        <ele>162.2</ele>
        <time>2023-07-04T06:47:34Z</time>
      </trkpt>
      <trkpt lat="43.96182" lon="0.40594">
        <ele>162.6</ele>
        <time>2023-07-04T06:47:39Z</time>
      </trkpt>
      <trkpt lat="43.96182" lon="0.40596">
        <ele>162.8</ele>
        <time>2023-07-04T06:47:40Z</time>
      </trkpt>
      <trkpt lat="43.96183" lon="0.40607">
        <ele>163.6</ele>
        <time>2023-07-04T06:47:47Z</time>
      </trkpt>
      <trkpt lat="43.96183" lon="0.40609">
        <ele>163.6</ele>
        <time>2023-07-04T06:47:48Z</time>
      </trkpt>
      <trkpt lat="43.96186" lon="0.40619">
        <ele>164.2</ele>
        <time>2023-07-04T06:47:54Z</time>
      </trkpt>
      <trkpt lat="43.96191" lon="0.40626">
        <ele>164.8</ele>
        <time>2023-07-04T06:47:59Z</time>
      </trkpt>
      <trkpt lat="43.96192" lon="0.40627">
        <ele>165</ele>
        <time>2023-07-04T06:48:00Z</time>
      </trkpt>
      <trkpt lat="43.96196" lon="0.40633">
        <ele>165.2</ele>
        <time>2023-07-04T06:48:04Z</time>
      </trkpt>
      <trkpt lat="43.96197" lon="0.40634">
        <ele>165.8</ele>
        <time>2023-07-04T06:48:07Z</time>
      </trkpt>
      <trkpt lat="43.96197" lon="0.40635">
        <ele>165.8</ele>
        <time>2023-07-04T06:48:08Z</time>
      </trkpt>
      <trkpt lat="43.96197" lon="0.40637">
        <ele>166</ele>
        <time>2023-07-04T06:48:11Z</time>
      </trkpt>
      <trkpt lat="43.96199" lon="0.40643">
        <ele>166.4</ele>
        <time>2023-07-04T06:48:14Z</time>
      </trkpt>
      <trkpt lat="43.962" lon="0.40644">
        <ele>166.4</ele>
        <time>2023-07-04T06:48:15Z</time>
      </trkpt>
      <trkpt lat="43.962" lon="0.40646">
        <ele>166.6</ele>
        <time>2023-07-04T06:48:16Z</time>
      </trkpt>
      <trkpt lat="43.96203" lon="0.40656">
        <ele>167</ele>
        <time>2023-07-04T06:48:22Z</time>
      </trkpt>
      <trkpt lat="43.96204" lon="0.40659">
        <ele>167.2</ele>
        <time>2023-07-04T06:48:24Z</time>
      </trkpt>
      <trkpt lat="43.96206" lon="0.40666">
        <ele>168</ele>
        <time>2023-07-04T06:48:28Z</time>
      </trkpt>
      <trkpt lat="43.96206" lon="0.40668">
        <ele>168.6</ele>
        <time>2023-07-04T06:48:30Z</time>
      </trkpt>
      <trkpt lat="43.96205" lon="0.40671">
        <ele>169</ele>
        <time>2023-07-04T06:48:32Z</time>
      </trkpt>
      <trkpt lat="43.96205" lon="0.40675">
        <ele>169.2</ele>
        <time>2023-07-04T06:48:35Z</time>
      </trkpt>
      <trkpt lat="43.96205" lon="0.40678">
        <ele>169.6</ele>
        <time>2023-07-04T06:48:37Z</time>
      </trkpt>
      <trkpt lat="43.96205" lon="0.4068">
        <ele>170</ele>
        <time>2023-07-04T06:48:39Z</time>
      </trkpt>
      <trkpt lat="43.96205" lon="0.40681">
        <ele>170.2</ele>
        <time>2023-07-04T06:48:40Z</time>
      </trkpt>
      <trkpt lat="43.96206" lon="0.40684">
        <ele>170.4</ele>
        <time>2023-07-04T06:48:43Z</time>
      </trkpt>
      <trkpt lat="43.96207" lon="0.40693">
        <ele>171.4</ele>
        <time>2023-07-04T06:48:49Z</time>
      </trkpt>
      <trkpt lat="43.96207" lon="0.40694">
        <ele>171.4</ele>
        <time>2023-07-04T06:48:50Z</time>
      </trkpt>
      <trkpt lat="43.96209" lon="0.40703">
        <ele>172.4</ele>
        <time>2023-07-04T06:48:57Z</time>
      </trkpt>
      <trkpt lat="43.96208" lon="0.40705">
        <ele>172.6</ele>
        <time>2023-07-04T06:48:58Z</time>
      </trkpt>
      <trkpt lat="43.9621" lon="0.40713">
        <ele>173.6</ele>
        <time>2023-07-04T06:49:04Z</time>
      </trkpt>
      <trkpt lat="43.96211" lon="0.40717">
        <ele>174.2</ele>
        <time>2023-07-04T06:49:06Z</time>
      </trkpt>
      <trkpt lat="43.96212" lon="0.4072">
        <ele>174.4</ele>
        <time>2023-07-04T06:49:09Z</time>
      </trkpt>
      <trkpt lat="43.96212" lon="0.40721">
        <ele>174.8</ele>
        <time>2023-07-04T06:49:10Z</time>
      </trkpt>
      <trkpt lat="43.96213" lon="0.40725">
        <ele>175</ele>
        <time>2023-07-04T06:49:13Z</time>
      </trkpt>
      <trkpt lat="43.96214" lon="0.40731">
        <ele>175.6</ele>
        <time>2023-07-04T06:49:17Z</time>
      </trkpt>
      <trkpt lat="43.96214" lon="0.40732">
        <ele>175.6</ele>
        <time>2023-07-04T06:49:18Z</time>
      </trkpt>
      <trkpt lat="43.96215" lon="0.40733">
        <ele>175.8</ele>
        <time>2023-07-04T06:49:19Z</time>
      </trkpt>
      <trkpt lat="43.96215" lon="0.40735">
        <ele>175.8</ele>
        <time>2023-07-04T06:49:20Z</time>
      </trkpt>
      <trkpt lat="43.96215" lon="0.40741">
        <ele>176.2</ele>
        <time>2023-07-04T06:49:24Z</time>
      </trkpt>
      <trkpt lat="43.96216" lon="0.40742">
        <ele>176.4</ele>
        <time>2023-07-04T06:49:25Z</time>
      </trkpt>
      <trkpt lat="43.96216" lon="0.40746">
        <ele>177</ele>
        <time>2023-07-04T06:49:27Z</time>
      </trkpt>
      <trkpt lat="43.96216" lon="0.40748">
        <ele>177</ele>
        <time>2023-07-04T06:49:28Z</time>
      </trkpt>
      <trkpt lat="43.96217" lon="0.40754">
        <ele>177.6</ele>
        <time>2023-07-04T06:49:31Z</time>
      </trkpt>
      <trkpt lat="43.96219" lon="0.40755">
        <ele>177.6</ele>
        <time>2023-07-04T06:49:32Z</time>
      </trkpt>
      <trkpt lat="43.9622" lon="0.4076">
        <ele>177.8</ele>
        <time>2023-07-04T06:49:34Z</time>
      </trkpt>
      <trkpt lat="43.96221" lon="0.40762">
        <ele>177.8</ele>
        <time>2023-07-04T06:49:35Z</time>
      </trkpt>
      <trkpt lat="43.96222" lon="0.40763">
        <ele>177.6</ele>
        <time>2023-07-04T06:49:36Z</time>
      </trkpt>
      <trkpt lat="43.96223" lon="0.40766">
        <ele>177.8</ele>
        <time>2023-07-04T06:49:38Z</time>
      </trkpt>
      <trkpt lat="43.96224" lon="0.40768">
        <ele>178</ele>
        <time>2023-07-04T06:49:39Z</time>
      </trkpt>
      <trkpt lat="43.96224" lon="0.4077">
        <ele>177.8</ele>
        <time>2023-07-04T06:49:40Z</time>
      </trkpt>
      <trkpt lat="43.96231" lon="0.40781">
        <ele>178</ele>
        <time>2023-07-04T06:49:47Z</time>
      </trkpt>
      <trkpt lat="43.96236" lon="0.40792">
        <ele>178.8</ele>
        <time>2023-07-04T06:49:54Z</time>
      </trkpt>
      <trkpt lat="43.96238" lon="0.40796">
        <ele>178.8</ele>
        <time>2023-07-04T06:49:56Z</time>
      </trkpt>
      <trkpt lat="43.96239" lon="0.408">
        <ele>179</ele>
        <time>2023-07-04T06:49:58Z</time>
      </trkpt>
      <trkpt lat="43.96239" lon="0.40801">
        <ele>179.2</ele>
        <time>2023-07-04T06:49:59Z</time>
      </trkpt>
      <trkpt lat="43.96239" lon="0.40803">
        <ele>179.2</ele>
        <time>2023-07-04T06:50:00Z</time>
      </trkpt>
      <trkpt lat="43.96241" lon="0.40815">
        <ele>179</ele>
        <time>2023-07-04T06:50:07Z</time>
      </trkpt>
      <trkpt lat="43.96241" lon="0.40817">
        <ele>179</ele>
        <time>2023-07-04T06:50:08Z</time>
      </trkpt>
      <trkpt lat="43.96243" lon="0.40829">
        <ele>179</ele>
        <time>2023-07-04T06:50:15Z</time>
      </trkpt>
      <trkpt lat="43.96245" lon="0.40842">
        <ele>179.2</ele>
        <time>2023-07-04T06:50:23Z</time>
      </trkpt>
      <trkpt lat="43.96246" lon="0.40848">
        <ele>179.2</ele>
        <time>2023-07-04T06:50:26Z</time>
      </trkpt>
      <trkpt lat="43.96246" lon="0.4086">
        <ele>179.4</ele>
        <time>2023-07-04T06:50:33Z</time>
      </trkpt>
      <trkpt lat="43.96249" lon="0.4087">
        <ele>179.6</ele>
        <time>2023-07-04T06:50:38Z</time>
      </trkpt>
      <trkpt lat="43.9625" lon="0.40873">
        <ele>179.6</ele>
        <time>2023-07-04T06:50:40Z</time>
      </trkpt>
      <trkpt lat="43.96253" lon="0.40883">
        <ele>179.4</ele>
        <time>2023-07-04T06:50:46Z</time>
      </trkpt>
      <trkpt lat="43.96253" lon="0.40885">
        <ele>179.4</ele>
        <time>2023-07-04T06:50:47Z</time>
      </trkpt>
      <trkpt lat="43.96254" lon="0.40897">
        <ele>179.2</ele>
        <time>2023-07-04T06:50:54Z</time>
      </trkpt>
      <trkpt lat="43.96259" lon="0.40909">
        <ele>179.2</ele>
        <time>2023-07-04T06:51:01Z</time>
      </trkpt>
      <trkpt lat="43.96262" lon="0.4092">
        <ele>179.4</ele>
        <time>2023-07-04T06:51:08Z</time>
      </trkpt>
      <trkpt lat="43.96264" lon="0.40932">
        <ele>179.2</ele>
        <time>2023-07-04T06:51:15Z</time>
      </trkpt>
      <trkpt lat="43.96269" lon="0.40948">
        <ele>178.8</ele>
        <time>2023-07-04T06:51:24Z</time>
      </trkpt>
      <trkpt lat="43.9627" lon="0.40953">
        <ele>178.8</ele>
        <time>2023-07-04T06:51:27Z</time>
      </trkpt>
      <trkpt lat="43.9627" lon="0.40955">
        <ele>178.8</ele>
        <time>2023-07-04T06:51:28Z</time>
      </trkpt>
      <trkpt lat="43.96271" lon="0.40956">
        <ele>178.8</ele>
        <time>2023-07-04T06:51:29Z</time>
      </trkpt>
      <trkpt lat="43.96272" lon="0.40959">
        <ele>178.8</ele>
        <time>2023-07-04T06:51:31Z</time>
      </trkpt>
      <trkpt lat="43.96273" lon="0.40971">
        <ele>178</ele>
        <time>2023-07-04T06:51:38Z</time>
      </trkpt>
      <trkpt lat="43.96274" lon="0.40972">
        <ele>178</ele>
        <time>2023-07-04T06:51:39Z</time>
      </trkpt>
      <trkpt lat="43.96278" lon="0.40985">
        <ele>177.4</ele>
        <time>2023-07-04T06:51:46Z</time>
      </trkpt>
      <trkpt lat="43.9628" lon="0.40992">
        <ele>176.8</ele>
        <time>2023-07-04T06:51:50Z</time>
      </trkpt>
      <trkpt lat="43.96282" lon="0.41002">
        <ele>176.4</ele>
        <time>2023-07-04T06:51:55Z</time>
      </trkpt>
      <trkpt lat="43.96283" lon="0.41012">
        <ele>175.8</ele>
        <time>2023-07-04T06:52:00Z</time>
      </trkpt>
      <trkpt lat="43.96284" lon="0.41016">
        <ele>175.4</ele>
        <time>2023-07-04T06:52:02Z</time>
      </trkpt>
      <trkpt lat="43.96284" lon="0.41018">
        <ele>175.2</ele>
        <time>2023-07-04T06:52:03Z</time>
      </trkpt>
      <trkpt lat="43.96289" lon="0.41024">
        <ele>174.8</ele>
        <time>2023-07-04T06:52:06Z</time>
      </trkpt>
      <trkpt lat="43.9629" lon="0.41031">
        <ele>174.4</ele>
        <time>2023-07-04T06:52:10Z</time>
      </trkpt>
      <trkpt lat="43.96293" lon="0.4104">
        <ele>173.8</ele>
        <time>2023-07-04T06:52:15Z</time>
      </trkpt>
      <trkpt lat="43.96294" lon="0.41047">
        <ele>173.2</ele>
        <time>2023-07-04T06:52:19Z</time>
      </trkpt>
      <trkpt lat="43.96296" lon="0.41062">
        <ele>172.6</ele>
        <time>2023-07-04T06:52:27Z</time>
      </trkpt>
      <trkpt lat="43.96296" lon="0.41064">
        <ele>172.4</ele>
        <time>2023-07-04T06:52:28Z</time>
      </trkpt>
      <trkpt lat="43.96298" lon="0.41069">
        <ele>172.2</ele>
        <time>2023-07-04T06:52:31Z</time>
      </trkpt>
      <trkpt lat="43.96301" lon="0.41079">
        <ele>171.8</ele>
        <time>2023-07-04T06:52:37Z</time>
      </trkpt>
      <trkpt lat="43.96303" lon="0.41086">
        <ele>171.6</ele>
        <time>2023-07-04T06:52:41Z</time>
      </trkpt>
      <trkpt lat="43.96304" lon="0.41093">
        <ele>171.2</ele>
        <time>2023-07-04T06:52:45Z</time>
      </trkpt>
      <trkpt lat="43.96305" lon="0.41095">
        <ele>171.2</ele>
        <time>2023-07-04T06:52:46Z</time>
      </trkpt>
      <trkpt lat="43.96305" lon="0.41108">
        <ele>171</ele>
        <time>2023-07-04T06:52:53Z</time>
      </trkpt>
      <trkpt lat="43.96305" lon="0.41114">
        <ele>170.4</ele>
        <time>2023-07-04T06:52:56Z</time>
      </trkpt>
      <trkpt lat="43.96304" lon="0.41124">
        <ele>169.6</ele>
        <time>2023-07-04T06:53:02Z</time>
      </trkpt>
      <trkpt lat="43.96304" lon="0.41128">
        <ele>169.2</ele>
        <time>2023-07-04T06:53:04Z</time>
      </trkpt>
      <trkpt lat="43.96303" lon="0.41143">
        <ele>168.2</ele>
        <time>2023-07-04T06:53:11Z</time>
      </trkpt>
      <trkpt lat="43.96303" lon="0.41159">
        <ele>167.2</ele>
        <time>2023-07-04T06:53:20Z</time>
      </trkpt>
      <trkpt lat="43.96303" lon="0.41161">
        <ele>167</ele>
        <time>2023-07-04T06:53:21Z</time>
      </trkpt>
      <trkpt lat="43.96303" lon="0.41166">
        <ele>166.6</ele>
        <time>2023-07-04T06:53:24Z</time>
      </trkpt>
      <trkpt lat="43.96304" lon="0.41172">
        <ele>166.2</ele>
        <time>2023-07-04T06:53:27Z</time>
      </trkpt>
      <trkpt lat="43.96305" lon="0.41176">
        <ele>166</ele>
        <time>2023-07-04T06:53:29Z</time>
      </trkpt>
      <trkpt lat="43.96305" lon="0.41179">
        <ele>165.8</ele>
        <time>2023-07-04T06:53:31Z</time>
      </trkpt>
      <trkpt lat="43.96306" lon="0.41181">
        <ele>165.8</ele>
        <time>2023-07-04T06:53:32Z</time>
      </trkpt>
      <trkpt lat="43.96308" lon="0.41185">
        <ele>165.4</ele>
        <time>2023-07-04T06:53:34Z</time>
      </trkpt>
      <trkpt lat="43.96309" lon="0.41186">
        <ele>165.2</ele>
        <time>2023-07-04T06:53:35Z</time>
      </trkpt>
      <trkpt lat="43.9631" lon="0.41188">
        <ele>165</ele>
        <time>2023-07-04T06:53:36Z</time>
      </trkpt>
      <trkpt lat="43.96314" lon="0.41199">
        <ele>164.2</ele>
        <time>2023-07-04T06:53:42Z</time>
      </trkpt>
      <trkpt lat="43.96315" lon="0.412">
        <ele>164</ele>
        <time>2023-07-04T06:53:43Z</time>
      </trkpt>
      <trkpt lat="43.96319" lon="0.4121">
        <ele>163.4</ele>
        <time>2023-07-04T06:53:49Z</time>
      </trkpt>
      <trkpt lat="43.9632" lon="0.41215">
        <ele>162.8</ele>
        <time>2023-07-04T06:53:52Z</time>
      </trkpt>
      <trkpt lat="43.96321" lon="0.41221">
        <ele>162</ele>
        <time>2023-07-04T06:53:56Z</time>
      </trkpt>
      <trkpt lat="43.96321" lon="0.41226">
        <ele>161.8</ele>
        <time>2023-07-04T06:53:58Z</time>
      </trkpt>
      <trkpt lat="43.96322" lon="0.41233">
        <ele>161</ele>
        <time>2023-07-04T06:54:02Z</time>
      </trkpt>
      <trkpt lat="43.96322" lon="0.41234">
        <ele>160.8</ele>
        <time>2023-07-04T06:54:03Z</time>
      </trkpt>
      <trkpt lat="43.96322" lon="0.41237">
        <ele>160.4</ele>
        <time>2023-07-04T06:54:05Z</time>
      </trkpt>
      <trkpt lat="43.96324" lon="0.41244">
        <ele>159.6</ele>
        <time>2023-07-04T06:54:09Z</time>
      </trkpt>
      <trkpt lat="43.96325" lon="0.41248">
        <ele>159.4</ele>
        <time>2023-07-04T06:54:11Z</time>
      </trkpt>
      <trkpt lat="43.96325" lon="0.41249">
        <ele>159.4</ele>
        <time>2023-07-04T06:54:12Z</time>
      </trkpt>
      <trkpt lat="43.96326" lon="0.41256">
        <ele>158.8</ele>
        <time>2023-07-04T06:54:16Z</time>
      </trkpt>
      <trkpt lat="43.96327" lon="0.41265">
        <ele>158.2</ele>
        <time>2023-07-04T06:54:21Z</time>
      </trkpt>
      <trkpt lat="43.96327" lon="0.41266">
        <ele>158.2</ele>
        <time>2023-07-04T06:54:22Z</time>
      </trkpt>
      <trkpt lat="43.96328" lon="0.41277">
        <ele>157.4</ele>
        <time>2023-07-04T06:54:28Z</time>
      </trkpt>
      <trkpt lat="43.96329" lon="0.41282">
        <ele>157.2</ele>
        <time>2023-07-04T06:54:31Z</time>
      </trkpt>
      <trkpt lat="43.9633" lon="0.41292">
        <ele>156</ele>
        <time>2023-07-04T06:54:36Z</time>
      </trkpt>
      <trkpt lat="43.9633" lon="0.41295">
        <ele>155.6</ele>
        <time>2023-07-04T06:54:38Z</time>
      </trkpt>
      <trkpt lat="43.96333" lon="0.41303">
        <ele>155.4</ele>
        <time>2023-07-04T06:54:41Z</time>
      </trkpt>
      <trkpt lat="43.96333" lon="0.41305">
        <ele>155.4</ele>
        <time>2023-07-04T06:54:42Z</time>
      </trkpt>
      <trkpt lat="43.96335" lon="0.41313">
        <ele>154.8</ele>
        <time>2023-07-04T06:54:47Z</time>
      </trkpt>
      <trkpt lat="43.96335" lon="0.41315">
        <ele>154.6</ele>
        <time>2023-07-04T06:54:48Z</time>
      </trkpt>
      <trkpt lat="43.96337" lon="0.4132">
        <ele>154.4</ele>
        <time>2023-07-04T06:54:50Z</time>
      </trkpt>
      <trkpt lat="43.96339" lon="0.41328">
        <ele>153.8</ele>
        <time>2023-07-04T06:54:54Z</time>
      </trkpt>
      <trkpt lat="43.96339" lon="0.41333">
        <ele>153.6</ele>
        <time>2023-07-04T06:54:57Z</time>
      </trkpt>
      <trkpt lat="43.9634" lon="0.41339">
        <ele>153</ele>
        <time>2023-07-04T06:55:00Z</time>
      </trkpt>
      <trkpt lat="43.96341" lon="0.41343">
        <ele>152.8</ele>
        <time>2023-07-04T06:55:02Z</time>
      </trkpt>
      <trkpt lat="43.96344" lon="0.41353">
        <ele>152.6</ele>
        <time>2023-07-04T06:55:07Z</time>
      </trkpt>
      <trkpt lat="43.96347" lon="0.41362">
        <ele>151.8</ele>
        <time>2023-07-04T06:55:13Z</time>
      </trkpt>
      <trkpt lat="43.96348" lon="0.41369">
        <ele>150.8</ele>
        <time>2023-07-04T06:55:18Z</time>
      </trkpt>
      <trkpt lat="43.96349" lon="0.41371">
        <ele>150.6</ele>
        <time>2023-07-04T06:55:19Z</time>
      </trkpt>
      <trkpt lat="43.9635" lon="0.41374">
        <ele>150.4</ele>
        <time>2023-07-04T06:55:21Z</time>
      </trkpt>
      <trkpt lat="43.96353" lon="0.41381">
        <ele>150</ele>
        <time>2023-07-04T06:55:26Z</time>
      </trkpt>
      <trkpt lat="43.96357" lon="0.41389">
        <ele>149.6</ele>
        <time>2023-07-04T06:55:32Z</time>
      </trkpt>
      <trkpt lat="43.9636" lon="0.41402">
        <ele>149.2</ele>
        <time>2023-07-04T06:55:40Z</time>
      </trkpt>
      <trkpt lat="43.96361" lon="0.41407">
        <ele>149</ele>
        <time>2023-07-04T06:55:43Z</time>
      </trkpt>
      <trkpt lat="43.96361" lon="0.41413">
        <ele>148.8</ele>
        <time>2023-07-04T06:55:47Z</time>
      </trkpt>
      <trkpt lat="43.96362" lon="0.41419">
        <ele>148.6</ele>
        <time>2023-07-04T06:55:50Z</time>
      </trkpt>
      <trkpt lat="43.96364" lon="0.41421">
        <ele>148.4</ele>
        <time>2023-07-04T06:55:51Z</time>
      </trkpt>
      <trkpt lat="43.96365" lon="0.41427">
        <ele>148.2</ele>
        <time>2023-07-04T06:55:54Z</time>
      </trkpt>
      <trkpt lat="43.96367" lon="0.41445">
        <ele>147.6</ele>
        <time>2023-07-04T06:56:01Z</time>
      </trkpt>
      <trkpt lat="43.96367" lon="0.41447">
        <ele>147.6</ele>
        <time>2023-07-04T06:56:02Z</time>
      </trkpt>
      <trkpt lat="43.96367" lon="0.4145">
        <ele>147.4</ele>
        <time>2023-07-04T06:56:04Z</time>
      </trkpt>
      <trkpt lat="43.96368" lon="0.41454">
        <ele>147.4</ele>
        <time>2023-07-04T06:56:07Z</time>
      </trkpt>
      <trkpt lat="43.96368" lon="0.41458">
        <ele>147.2</ele>
        <time>2023-07-04T06:56:09Z</time>
      </trkpt>
      <trkpt lat="43.96365" lon="0.41467">
        <ele>147.2</ele>
        <time>2023-07-04T06:56:14Z</time>
      </trkpt>
      <trkpt lat="43.96364" lon="0.41474">
        <ele>147</ele>
        <time>2023-07-04T06:56:19Z</time>
      </trkpt>
      <trkpt lat="43.96362" lon="0.41478">
        <ele>147</ele>
        <time>2023-07-04T06:56:21Z</time>
      </trkpt>
      <trkpt lat="43.96358" lon="0.41492">
        <ele>146.4</ele>
        <time>2023-07-04T06:56:28Z</time>
      </trkpt>
      <trkpt lat="43.96356" lon="0.41494">
        <ele>146.4</ele>
        <time>2023-07-04T06:56:29Z</time>
      </trkpt>
      <trkpt lat="43.96354" lon="0.41497">
        <ele>146.4</ele>
        <time>2023-07-04T06:56:31Z</time>
      </trkpt>
      <trkpt lat="43.96356" lon="0.41501">
        <ele>146.4</ele>
        <time>2023-07-04T06:56:34Z</time>
      </trkpt>
      <trkpt lat="43.96355" lon="0.41508">
        <ele>146.4</ele>
        <time>2023-07-04T06:56:39Z</time>
      </trkpt>
      <trkpt lat="43.96353" lon="0.41513">
        <ele>146.2</ele>
        <time>2023-07-04T06:56:42Z</time>
      </trkpt>
      <trkpt lat="43.96349" lon="0.41523">
        <ele>146.2</ele>
        <time>2023-07-04T06:56:48Z</time>
      </trkpt>
      <trkpt lat="43.96345" lon="0.41534">
        <ele>146</ele>
        <time>2023-07-04T06:56:55Z</time>
      </trkpt>
      <trkpt lat="43.96341" lon="0.41545">
        <ele>145.8</ele>
        <time>2023-07-04T06:57:02Z</time>
      </trkpt>
      <trkpt lat="43.96339" lon="0.41553">
        <ele>146</ele>
        <time>2023-07-04T06:57:07Z</time>
      </trkpt>
      <trkpt lat="43.96338" lon="0.41554">
        <ele>146</ele>
        <time>2023-07-04T06:57:08Z</time>
      </trkpt>
      <trkpt lat="43.96334" lon="0.41566">
        <ele>145.8</ele>
        <time>2023-07-04T06:57:14Z</time>
      </trkpt>
      <trkpt lat="43.96333" lon="0.41568">
        <ele>145.8</ele>
        <time>2023-07-04T06:57:15Z</time>
      </trkpt>
      <trkpt lat="43.9633" lon="0.41573">
        <ele>145.6</ele>
        <time>2023-07-04T06:57:18Z</time>
      </trkpt>
      <trkpt lat="43.9633" lon="0.41576">
        <ele>145.6</ele>
        <time>2023-07-04T06:57:20Z</time>
      </trkpt>
      <trkpt lat="43.96329" lon="0.41584">
        <ele>145.6</ele>
        <time>2023-07-04T06:57:24Z</time>
      </trkpt>
      <trkpt lat="43.96329" lon="0.41586">
        <ele>145.4</ele>
        <time>2023-07-04T06:57:25Z</time>
      </trkpt>
      <trkpt lat="43.9633" lon="0.41591">
        <ele>145.4</ele>
        <time>2023-07-04T06:57:27Z</time>
      </trkpt>
      <trkpt lat="43.9633" lon="0.41596">
        <ele>145.4</ele>
        <time>2023-07-04T06:57:29Z</time>
      </trkpt>
      <trkpt lat="43.9633" lon="0.41597">
        <ele>145.4</ele>
        <time>2023-07-04T06:57:30Z</time>
      </trkpt>
      <trkpt lat="43.96329" lon="0.41602">
        <ele>145.2</ele>
        <time>2023-07-04T06:57:33Z</time>
      </trkpt>
      <trkpt lat="43.96328" lon="0.41608">
        <ele>144.6</ele>
        <time>2023-07-04T06:57:36Z</time>
      </trkpt>
      <trkpt lat="43.96326" lon="0.41612">
        <ele>144.2</ele>
        <time>2023-07-04T06:57:38Z</time>
      </trkpt>
      <trkpt lat="43.96326" lon="0.41614">
        <ele>144</ele>
        <time>2023-07-04T06:57:39Z</time>
      </trkpt>
      <trkpt lat="43.96326" lon="0.41617">
        <ele>144</ele>
        <time>2023-07-04T06:57:41Z</time>
      </trkpt>
      <trkpt lat="43.96326" lon="0.41621">
        <ele>144</ele>
        <time>2023-07-04T06:57:43Z</time>
      </trkpt>
      <trkpt lat="43.96326" lon="0.41622">
        <ele>144</ele>
        <time>2023-07-04T06:57:44Z</time>
      </trkpt>
      <trkpt lat="43.96324" lon="0.41633">
        <ele>143.4</ele>
        <time>2023-07-04T06:57:50Z</time>
      </trkpt>
      <trkpt lat="43.96323" lon="0.41637">
        <ele>143.2</ele>
        <time>2023-07-04T06:57:52Z</time>
      </trkpt>
      <trkpt lat="43.96323" lon="0.41639">
        <ele>143</ele>
        <time>2023-07-04T06:57:53Z</time>
      </trkpt>
      <trkpt lat="43.96323" lon="0.41645">
        <ele>143</ele>
        <time>2023-07-04T06:57:57Z</time>
      </trkpt>
      <trkpt lat="43.96323" lon="0.41646">
        <ele>142.8</ele>
        <time>2023-07-04T06:57:58Z</time>
      </trkpt>
      <trkpt lat="43.96325" lon="0.4166">
        <ele>142</ele>
        <time>2023-07-04T06:58:05Z</time>
      </trkpt>
      <trkpt lat="43.96324" lon="0.41663">
        <ele>142</ele>
        <time>2023-07-04T06:58:06Z</time>
      </trkpt>
      <trkpt lat="43.96324" lon="0.41664">
        <ele>142</ele>
        <time>2023-07-04T06:58:07Z</time>
      </trkpt>
      <trkpt lat="43.96323" lon="0.41671">
        <ele>141.6</ele>
        <time>2023-07-04T06:58:12Z</time>
      </trkpt>
      <trkpt lat="43.96321" lon="0.4168">
        <ele>141.4</ele>
        <time>2023-07-04T06:58:16Z</time>
      </trkpt>
      <trkpt lat="43.9632" lon="0.41684">
        <ele>141.4</ele>
        <time>2023-07-04T06:58:18Z</time>
      </trkpt>
      <trkpt lat="43.96319" lon="0.41689">
        <ele>141</ele>
        <time>2023-07-04T06:58:21Z</time>
      </trkpt>
      <trkpt lat="43.96319" lon="0.41692">
        <ele>140.6</ele>
        <time>2023-07-04T06:58:24Z</time>
      </trkpt>
      <trkpt lat="43.96319" lon="0.41694">
        <ele>140.6</ele>
        <time>2023-07-04T06:58:25Z</time>
      </trkpt>
      <trkpt lat="43.9632" lon="0.41696">
        <ele>140.6</ele>
        <time>2023-07-04T06:58:27Z</time>
      </trkpt>
      <trkpt lat="43.96323" lon="0.41709">
        <ele>140.4</ele>
        <time>2023-07-04T06:58:33Z</time>
      </trkpt>
      <trkpt lat="43.96322" lon="0.41712">
        <ele>140.4</ele>
        <time>2023-07-04T06:58:35Z</time>
      </trkpt>
      <trkpt lat="43.96323" lon="0.41715">
        <ele>140.4</ele>
        <time>2023-07-04T06:58:36Z</time>
      </trkpt>
      <trkpt lat="43.96323" lon="0.41724">
        <ele>140</ele>
        <time>2023-07-04T06:58:41Z</time>
      </trkpt>
      <trkpt lat="43.96321" lon="0.41732">
        <ele>139.8</ele>
        <time>2023-07-04T06:58:46Z</time>
      </trkpt>
      <trkpt lat="43.96321" lon="0.41734">
        <ele>139.8</ele>
        <time>2023-07-04T06:58:47Z</time>
      </trkpt>
      <trkpt lat="43.9632" lon="0.41737">
        <ele>140</ele>
        <time>2023-07-04T06:58:49Z</time>
      </trkpt>
      <trkpt lat="43.9632" lon="0.4174">
        <ele>140.2</ele>
        <time>2023-07-04T06:58:51Z</time>
      </trkpt>
      <trkpt lat="43.9632" lon="0.41746">
        <ele>140.4</ele>
        <time>2023-07-04T06:58:54Z</time>
      </trkpt>
      <trkpt lat="43.96324" lon="0.41763">
        <ele>140.6</ele>
        <time>2023-07-04T06:59:02Z</time>
      </trkpt>
      <trkpt lat="43.96324" lon="0.41773">
        <ele>140.4</ele>
        <time>2023-07-04T06:59:08Z</time>
      </trkpt>
      <trkpt lat="43.96324" lon="0.41774">
        <ele>140.6</ele>
        <time>2023-07-04T06:59:09Z</time>
      </trkpt>
      <trkpt lat="43.96323" lon="0.4178">
        <ele>141.2</ele>
        <time>2023-07-04T06:59:13Z</time>
      </trkpt>
      <trkpt lat="43.96324" lon="0.41781">
        <ele>141.2</ele>
        <time>2023-07-04T06:59:14Z</time>
      </trkpt>
      <trkpt lat="43.96323" lon="0.41787">
        <ele>141</ele>
        <time>2023-07-04T06:59:17Z</time>
      </trkpt>
      <trkpt lat="43.96324" lon="0.41791">
        <ele>140.6</ele>
        <time>2023-07-04T06:59:20Z</time>
      </trkpt>
      <trkpt lat="43.96324" lon="0.41795">
        <ele>140.6</ele>
        <time>2023-07-04T06:59:22Z</time>
      </trkpt>
      <trkpt lat="43.96324" lon="0.41797">
        <ele>140.6</ele>
        <time>2023-07-04T06:59:23Z</time>
      </trkpt>
      <trkpt lat="43.96325" lon="0.41801">
        <ele>140.8</ele>
        <time>2023-07-04T06:59:25Z</time>
      </trkpt>
      <trkpt lat="43.96324" lon="0.41806">
        <ele>141</ele>
        <time>2023-07-04T06:59:27Z</time>
      </trkpt>
      <trkpt lat="43.96324" lon="0.41808">
        <ele>141.2</ele>
        <time>2023-07-04T06:59:28Z</time>
      </trkpt>
      <trkpt lat="43.96325" lon="0.41817">
        <ele>141.4</ele>
        <time>2023-07-04T06:59:31Z</time>
      </trkpt>
      <trkpt lat="43.96324" lon="0.41821">
        <ele>141.4</ele>
        <time>2023-07-04T06:59:33Z</time>
      </trkpt>
      <trkpt lat="43.96327" lon="0.41828">
        <ele>141.2</ele>
        <time>2023-07-04T06:59:36Z</time>
      </trkpt>
      <trkpt lat="43.96328" lon="0.41833">
        <ele>141.2</ele>
        <time>2023-07-04T06:59:38Z</time>
      </trkpt>
      <trkpt lat="43.96329" lon="0.41838">
        <ele>141</ele>
        <time>2023-07-04T06:59:40Z</time>
      </trkpt>
      <trkpt lat="43.96331" lon="0.41843">
        <ele>140.6</ele>
        <time>2023-07-04T06:59:42Z</time>
      </trkpt>
      <trkpt lat="43.96333" lon="0.4185">
        <ele>140.4</ele>
        <time>2023-07-04T06:59:46Z</time>
      </trkpt>
      <trkpt lat="43.96333" lon="0.41855">
        <ele>140.4</ele>
        <time>2023-07-04T06:59:50Z</time>
      </trkpt>
      <trkpt lat="43.96332" lon="0.41857">
        <ele>140.2</ele>
        <time>2023-07-04T06:59:52Z</time>
      </trkpt>
      <trkpt lat="43.96332" lon="0.41859">
        <ele>140</ele>
        <time>2023-07-04T06:59:53Z</time>
      </trkpt>
      <trkpt lat="43.96332" lon="0.41863">
        <ele>139.6</ele>
        <time>2023-07-04T06:59:55Z</time>
      </trkpt>
      <trkpt lat="43.96333" lon="0.41877">
        <ele>139.4</ele>
        <time>2023-07-04T07:00:01Z</time>
      </trkpt>
      <trkpt lat="43.96334" lon="0.41881">
        <ele>139.2</ele>
        <time>2023-07-04T07:00:03Z</time>
      </trkpt>
      <trkpt lat="43.96334" lon="0.41885">
        <ele>139</ele>
        <time>2023-07-04T07:00:06Z</time>
      </trkpt>
      <trkpt lat="43.96336" lon="0.41888">
        <ele>138.8</ele>
        <time>2023-07-04T07:00:07Z</time>
      </trkpt>
      <trkpt lat="43.96337" lon="0.419">
        <ele>138.2</ele>
        <time>2023-07-04T07:00:13Z</time>
      </trkpt>
      <trkpt lat="43.96336" lon="0.41907">
        <ele>137.8</ele>
        <time>2023-07-04T07:00:17Z</time>
      </trkpt>
      <trkpt lat="43.96335" lon="0.41912">
        <ele>137</ele>
        <time>2023-07-04T07:00:20Z</time>
      </trkpt>
      <trkpt lat="43.96334" lon="0.41915">
        <ele>136.6</ele>
        <time>2023-07-04T07:00:22Z</time>
      </trkpt>
      <trkpt lat="43.96333" lon="0.41923">
        <ele>136.4</ele>
        <time>2023-07-04T07:00:26Z</time>
      </trkpt>
      <trkpt lat="43.96331" lon="0.41931">
        <ele>136</ele>
        <time>2023-07-04T07:00:29Z</time>
      </trkpt>
      <trkpt lat="43.96331" lon="0.41936">
        <ele>135.6</ele>
        <time>2023-07-04T07:00:32Z</time>
      </trkpt>
      <trkpt lat="43.9633" lon="0.41942">
        <ele>135.2</ele>
        <time>2023-07-04T07:00:35Z</time>
      </trkpt>
      <trkpt lat="43.9633" lon="0.41943">
        <ele>135</ele>
        <time>2023-07-04T07:00:36Z</time>
      </trkpt>
      <trkpt lat="43.96331" lon="0.41946">
        <ele>134.8</ele>
        <time>2023-07-04T07:00:39Z</time>
      </trkpt>
      <trkpt lat="43.96331" lon="0.41949">
        <ele>134.6</ele>
        <time>2023-07-04T07:00:40Z</time>
      </trkpt>
      <trkpt lat="43.96331" lon="0.41952">
        <ele>134.6</ele>
        <time>2023-07-04T07:00:42Z</time>
      </trkpt>
      <trkpt lat="43.96332" lon="0.41959">
        <ele>133.8</ele>
        <time>2023-07-04T07:00:46Z</time>
      </trkpt>
      <trkpt lat="43.96333" lon="0.4196">
        <ele>133.6</ele>
        <time>2023-07-04T07:00:47Z</time>
      </trkpt>
      <trkpt lat="43.96334" lon="0.41962">
        <ele>133.6</ele>
        <time>2023-07-04T07:00:48Z</time>
      </trkpt>
      <trkpt lat="43.96337" lon="0.41967">
        <ele>132.8</ele>
        <time>2023-07-04T07:00:52Z</time>
      </trkpt>
      <trkpt lat="43.96337" lon="0.41969">
        <ele>132.6</ele>
        <time>2023-07-04T07:00:53Z</time>
      </trkpt>
      <trkpt lat="43.96339" lon="0.41976">
        <ele>132.2</ele>
        <time>2023-07-04T07:00:56Z</time>
      </trkpt>
      <trkpt lat="43.96339" lon="0.4198">
        <ele>131.6</ele>
        <time>2023-07-04T07:00:58Z</time>
      </trkpt>
      <trkpt lat="43.96341" lon="0.4199">
        <ele>131.2</ele>
        <time>2023-07-04T07:01:04Z</time>
      </trkpt>
      <trkpt lat="43.96341" lon="0.41992">
        <ele>130.8</ele>
        <time>2023-07-04T07:01:05Z</time>
      </trkpt>
      <trkpt lat="43.96342" lon="0.41993">
        <ele>130.6</ele>
        <time>2023-07-04T07:01:06Z</time>
      </trkpt>
      <trkpt lat="43.96343" lon="0.41995">
        <ele>130.4</ele>
        <time>2023-07-04T07:01:08Z</time>
      </trkpt>
      <trkpt lat="43.96345" lon="0.41997">
        <ele>130</ele>
        <time>2023-07-04T07:01:10Z</time>
      </trkpt>
      <trkpt lat="43.96347" lon="0.42002">
        <ele>129.6</ele>
        <time>2023-07-04T07:01:13Z</time>
      </trkpt>
      <trkpt lat="43.96347" lon="0.42006">
        <ele>129.4</ele>
        <time>2023-07-04T07:01:15Z</time>
      </trkpt>
      <trkpt lat="43.96346" lon="0.42015">
        <ele>129.4</ele>
        <time>2023-07-04T07:01:19Z</time>
      </trkpt>
      <trkpt lat="43.96347" lon="0.42021">
        <ele>129.2</ele>
        <time>2023-07-04T07:01:22Z</time>
      </trkpt>
      <trkpt lat="43.96348" lon="0.42026">
        <ele>129</ele>
        <time>2023-07-04T07:01:24Z</time>
      </trkpt>
      <trkpt lat="43.96347" lon="0.4203">
        <ele>128.8</ele>
        <time>2023-07-04T07:01:26Z</time>
      </trkpt>
      <trkpt lat="43.96348" lon="0.42031">
        <ele>128.6</ele>
        <time>2023-07-04T07:01:27Z</time>
      </trkpt>
      <trkpt lat="43.96348" lon="0.42035">
        <ele>128.6</ele>
        <time>2023-07-04T07:01:29Z</time>
      </trkpt>
      <trkpt lat="43.9635" lon="0.42046">
        <ele>128.4</ele>
        <time>2023-07-04T07:01:35Z</time>
      </trkpt>
      <trkpt lat="43.9635" lon="0.42051">
        <ele>128.2</ele>
        <time>2023-07-04T07:01:38Z</time>
      </trkpt>
      <trkpt lat="43.9635" lon="0.42058">
        <ele>128.2</ele>
        <time>2023-07-04T07:01:42Z</time>
      </trkpt>
      <trkpt lat="43.9635" lon="0.4206">
        <ele>128.2</ele>
        <time>2023-07-04T07:01:43Z</time>
      </trkpt>
      <trkpt lat="43.96352" lon="0.42074">
        <ele>128.8</ele>
        <time>2023-07-04T07:01:49Z</time>
      </trkpt>
      <trkpt lat="43.96355" lon="0.42086">
        <ele>128.4</ele>
        <time>2023-07-04T07:01:56Z</time>
      </trkpt>
      <trkpt lat="43.96361" lon="0.42099">
        <ele>128.2</ele>
        <time>2023-07-04T07:02:06Z</time>
      </trkpt>
      <trkpt lat="43.96365" lon="0.42109">
        <ele>128</ele>
        <time>2023-07-04T07:02:13Z</time>
      </trkpt>
      <trkpt lat="43.9637" lon="0.42123">
        <ele>128</ele>
        <time>2023-07-04T07:02:22Z</time>
      </trkpt>
      <trkpt lat="43.96372" lon="0.42134">
        <ele>128.2</ele>
        <time>2023-07-04T07:02:29Z</time>
      </trkpt>
      <trkpt lat="43.96376" lon="0.42146">
        <ele>128.2</ele>
        <time>2023-07-04T07:02:36Z</time>
      </trkpt>
      <trkpt lat="43.96381" lon="0.42158">
        <ele>128.4</ele>
        <time>2023-07-04T07:02:43Z</time>
      </trkpt>
      <trkpt lat="43.96383" lon="0.42163">
        <ele>128.6</ele>
        <time>2023-07-04T07:02:47Z</time>
      </trkpt>
      <trkpt lat="43.96384" lon="0.42167">
        <ele>128.6</ele>
        <time>2023-07-04T07:02:49Z</time>
      </trkpt>
      <trkpt lat="43.96388" lon="0.42175">
        <ele>128.4</ele>
        <time>2023-07-04T07:02:55Z</time>
      </trkpt>
      <trkpt lat="43.96391" lon="0.42178">
        <ele>128.4</ele>
        <time>2023-07-04T07:02:57Z</time>
      </trkpt>
      <trkpt lat="43.96393" lon="0.42181">
        <ele>128.4</ele>
        <time>2023-07-04T07:02:59Z</time>
      </trkpt>
      <trkpt lat="43.96396" lon="0.42186">
        <ele>128.4</ele>
        <time>2023-07-04T07:03:02Z</time>
      </trkpt>
      <trkpt lat="43.96397" lon="0.42189">
        <ele>128.4</ele>
        <time>2023-07-04T07:03:04Z</time>
      </trkpt>
      <trkpt lat="43.96401" lon="0.42198">
        <ele>128.6</ele>
        <time>2023-07-04T07:03:10Z</time>
      </trkpt>
      <trkpt lat="43.96402" lon="0.42199">
        <ele>128.6</ele>
        <time>2023-07-04T07:03:11Z</time>
      </trkpt>
      <trkpt lat="43.96405" lon="0.42203">
        <ele>128.8</ele>
        <time>2023-07-04T07:03:15Z</time>
      </trkpt>
      <trkpt lat="43.96405" lon="0.42205">
        <ele>128.8</ele>
        <time>2023-07-04T07:03:16Z</time>
      </trkpt>
      <trkpt lat="43.96406" lon="0.42209">
        <ele>129.4</ele>
        <time>2023-07-04T07:03:19Z</time>
      </trkpt>
      <trkpt lat="43.96408" lon="0.42214">
        <ele>129.4</ele>
        <time>2023-07-04T07:03:22Z</time>
      </trkpt>
      <trkpt lat="43.96408" lon="0.42218">
        <ele>129.4</ele>
        <time>2023-07-04T07:03:24Z</time>
      </trkpt>
      <trkpt lat="43.96408" lon="0.42221">
        <ele>129.6</ele>
        <time>2023-07-04T07:03:26Z</time>
      </trkpt>
      <trkpt lat="43.96408" lon="0.42224">
        <ele>129.8</ele>
        <time>2023-07-04T07:03:29Z</time>
      </trkpt>
      <trkpt lat="43.96408" lon="0.42227">
        <ele>129.8</ele>
        <time>2023-07-04T07:03:31Z</time>
      </trkpt>
      <trkpt lat="43.96408" lon="0.42229">
        <ele>130</ele>
        <time>2023-07-04T07:03:32Z</time>
      </trkpt>
      <trkpt lat="43.96408" lon="0.42239">
        <ele>130.4</ele>
        <time>2023-07-04T07:03:38Z</time>
      </trkpt>
      <trkpt lat="43.96408" lon="0.42241">
        <ele>130.6</ele>
        <time>2023-07-04T07:03:39Z</time>
      </trkpt>
      <trkpt lat="43.96409" lon="0.42248">
        <ele>130.8</ele>
        <time>2023-07-04T07:03:43Z</time>
      </trkpt>
      <trkpt lat="43.96409" lon="0.42253">
        <ele>131.2</ele>
        <time>2023-07-04T07:03:46Z</time>
      </trkpt>
      <trkpt lat="43.9641" lon="0.42269">
        <ele>131.6</ele>
        <time>2023-07-04T07:03:55Z</time>
      </trkpt>
      <trkpt lat="43.96412" lon="0.4228">
        <ele>131.8</ele>
        <time>2023-07-04T07:04:03Z</time>
      </trkpt>
      <trkpt lat="43.96413" lon="0.42284">
        <ele>132.2</ele>
        <time>2023-07-04T07:04:06Z</time>
      </trkpt>
      <trkpt lat="43.96413" lon="0.42287">
        <ele>132.4</ele>
        <time>2023-07-04T07:04:08Z</time>
      </trkpt>
      <trkpt lat="43.96412" lon="0.42289">
        <ele>132.6</ele>
        <time>2023-07-04T07:04:10Z</time>
      </trkpt>
      <trkpt lat="43.96413" lon="0.42292">
        <ele>132.8</ele>
        <time>2023-07-04T07:04:13Z</time>
      </trkpt>
      <trkpt lat="43.96416" lon="0.42295">
        <ele>132.8</ele>
        <time>2023-07-04T07:04:15Z</time>
      </trkpt>
      <trkpt lat="43.96417" lon="0.42301">
        <ele>133.4</ele>
        <time>2023-07-04T07:04:19Z</time>
      </trkpt>
      <trkpt lat="43.96417" lon="0.42305">
        <ele>133.8</ele>
        <time>2023-07-04T07:04:22Z</time>
      </trkpt>
      <trkpt lat="43.9642" lon="0.42315">
        <ele>134.4</ele>
        <time>2023-07-04T07:04:28Z</time>
      </trkpt>
      <trkpt lat="43.96423" lon="0.42319">
        <ele>134.4</ele>
        <time>2023-07-04T07:04:30Z</time>
      </trkpt>
      <trkpt lat="43.96427" lon="0.42324">
        <ele>134.8</ele>
        <time>2023-07-04T07:04:33Z</time>
      </trkpt>
      <trkpt lat="43.96428" lon="0.42328">
        <ele>135.2</ele>
        <time>2023-07-04T07:04:36Z</time>
      </trkpt>
      <trkpt lat="43.96429" lon="0.4233">
        <ele>135.2</ele>
        <time>2023-07-04T07:04:37Z</time>
      </trkpt>
      <trkpt lat="43.96429" lon="0.42332">
        <ele>135.4</ele>
        <time>2023-07-04T07:04:39Z</time>
      </trkpt>
      <trkpt lat="43.96429" lon="0.42334">
        <ele>135.6</ele>
        <time>2023-07-04T07:04:40Z</time>
      </trkpt>
      <trkpt lat="43.9643" lon="0.42339">
        <ele>136</ele>
        <time>2023-07-04T07:04:43Z</time>
      </trkpt>
      <trkpt lat="43.9643" lon="0.42341">
        <ele>136</ele>
        <time>2023-07-04T07:04:44Z</time>
      </trkpt>
      <trkpt lat="43.96432" lon="0.42348">
        <ele>136.6</ele>
        <time>2023-07-04T07:04:48Z</time>
      </trkpt>
      <trkpt lat="43.96433" lon="0.42352">
        <ele>136.8</ele>
        <time>2023-07-04T07:04:50Z</time>
      </trkpt>
      <trkpt lat="43.96438" lon="0.42361">
        <ele>137.2</ele>
        <time>2023-07-04T07:04:55Z</time>
      </trkpt>
      <trkpt lat="43.96439" lon="0.42363">
        <ele>137.6</ele>
        <time>2023-07-04T07:04:57Z</time>
      </trkpt>
      <trkpt lat="43.9644" lon="0.42364">
        <ele>137.6</ele>
        <time>2023-07-04T07:04:58Z</time>
      </trkpt>
      <trkpt lat="43.96442" lon="0.42371">
        <ele>138.2</ele>
        <time>2023-07-04T07:05:03Z</time>
      </trkpt>
      <trkpt lat="43.96444" lon="0.42379">
        <ele>138.6</ele>
        <time>2023-07-04T07:05:08Z</time>
      </trkpt>
      <trkpt lat="43.96446" lon="0.42382">
        <ele>138.6</ele>
        <time>2023-07-04T07:05:10Z</time>
      </trkpt>
      <trkpt lat="43.96447" lon="0.42384">
        <ele>138.6</ele>
        <time>2023-07-04T07:05:11Z</time>
      </trkpt>
      <trkpt lat="43.96451" lon="0.42396">
        <ele>139.2</ele>
        <time>2023-07-04T07:05:18Z</time>
      </trkpt>
      <trkpt lat="43.96453" lon="0.42402">
        <ele>139.2</ele>
        <time>2023-07-04T07:05:23Z</time>
      </trkpt>
      <trkpt lat="43.96454" lon="0.42405">
        <ele>139.2</ele>
        <time>2023-07-04T07:05:25Z</time>
      </trkpt>
      <trkpt lat="43.96455" lon="0.42407">
        <ele>139.4</ele>
        <time>2023-07-04T07:05:26Z</time>
      </trkpt>
      <trkpt lat="43.96457" lon="0.42414">
        <ele>139.6</ele>
        <time>2023-07-04T07:05:30Z</time>
      </trkpt>
      <trkpt lat="43.96459" lon="0.42418">
        <ele>139.6</ele>
        <time>2023-07-04T07:05:33Z</time>
      </trkpt>
      <trkpt lat="43.9646" lon="0.42423">
        <ele>139.6</ele>
        <time>2023-07-04T07:05:36Z</time>
      </trkpt>
      <trkpt lat="43.96461" lon="0.42428">
        <ele>139.6</ele>
        <time>2023-07-04T07:05:39Z</time>
      </trkpt>
      <trkpt lat="43.96462" lon="0.4243">
        <ele>139.6</ele>
        <time>2023-07-04T07:05:40Z</time>
      </trkpt>
      <trkpt lat="43.96462" lon="0.42432">
        <ele>139.6</ele>
        <time>2023-07-04T07:05:41Z</time>
      </trkpt>
      <trkpt lat="43.96464" lon="0.42439">
        <ele>139.8</ele>
        <time>2023-07-04T07:05:46Z</time>
      </trkpt>
      <trkpt lat="43.96467" lon="0.42456">
        <ele>139.8</ele>
        <time>2023-07-04T07:05:55Z</time>
      </trkpt>
      <trkpt lat="43.96469" lon="0.42473">
        <ele>140</ele>
        <time>2023-07-04T07:06:04Z</time>
      </trkpt>
      <trkpt lat="43.96472" lon="0.42485">
        <ele>140.2</ele>
        <time>2023-07-04T07:06:11Z</time>
      </trkpt>
      <trkpt lat="43.96474" lon="0.4249">
        <ele>140.2</ele>
        <time>2023-07-04T07:06:14Z</time>
      </trkpt>
      <trkpt lat="43.96476" lon="0.42498">
        <ele>140.4</ele>
        <time>2023-07-04T07:06:19Z</time>
      </trkpt>
      <trkpt lat="43.96477" lon="0.42503">
        <ele>140.4</ele>
        <time>2023-07-04T07:06:22Z</time>
      </trkpt>
      <trkpt lat="43.96479" lon="0.42508">
        <ele>140.6</ele>
        <time>2023-07-04T07:06:25Z</time>
      </trkpt>
      <trkpt lat="43.96479" lon="0.42511">
        <ele>140.6</ele>
        <time>2023-07-04T07:06:26Z</time>
      </trkpt>
      <trkpt lat="43.9648" lon="0.42514">
        <ele>140.6</ele>
        <time>2023-07-04T07:06:28Z</time>
      </trkpt>
      <trkpt lat="43.96481" lon="0.4252">
        <ele>140.6</ele>
        <time>2023-07-04T07:06:31Z</time>
      </trkpt>
      <trkpt lat="43.96483" lon="0.42533">
        <ele>141</ele>
        <time>2023-07-04T07:06:38Z</time>
      </trkpt>
      <trkpt lat="43.96484" lon="0.42535">
        <ele>140.8</ele>
        <time>2023-07-04T07:06:39Z</time>
      </trkpt>
      <trkpt lat="43.96485" lon="0.42552">
        <ele>140.2</ele>
        <time>2023-07-04T07:06:48Z</time>
      </trkpt>
      <trkpt lat="43.96482" lon="0.42567">
        <ele>139.6</ele>
        <time>2023-07-04T07:06:56Z</time>
      </trkpt>
      <trkpt lat="43.96482" lon="0.42569">
        <ele>139.6</ele>
        <time>2023-07-04T07:06:57Z</time>
      </trkpt>
      <trkpt lat="43.9648" lon="0.42581">
        <ele>139</ele>
        <time>2023-07-04T07:07:04Z</time>
      </trkpt>
      <trkpt lat="43.96478" lon="0.42588">
        <ele>138.8</ele>
        <time>2023-07-04T07:07:09Z</time>
      </trkpt>
      <trkpt lat="43.96476" lon="0.42591">
        <ele>138.4</ele>
        <time>2023-07-04T07:07:11Z</time>
      </trkpt>
      <trkpt lat="43.96476" lon="0.42593">
        <ele>138.4</ele>
        <time>2023-07-04T07:07:12Z</time>
      </trkpt>
      <trkpt lat="43.96471" lon="0.42607">
        <ele>138</ele>
        <time>2023-07-04T07:07:20Z</time>
      </trkpt>
      <trkpt lat="43.96467" lon="0.42618">
        <ele>137.8</ele>
        <time>2023-07-04T07:07:27Z</time>
      </trkpt>
      <trkpt lat="43.96466" lon="0.4262">
        <ele>137.6</ele>
        <time>2023-07-04T07:07:28Z</time>
      </trkpt>
      <trkpt lat="43.96465" lon="0.42623">
        <ele>137.4</ele>
        <time>2023-07-04T07:07:30Z</time>
      </trkpt>
      <trkpt lat="43.96465" lon="0.42633">
        <ele>137.2</ele>
        <time>2023-07-04T07:07:35Z</time>
      </trkpt>
      <trkpt lat="43.96463" lon="0.4265">
        <ele>136.6</ele>
        <time>2023-07-04T07:07:44Z</time>
      </trkpt>
      <trkpt lat="43.96462" lon="0.42652">
        <ele>136.6</ele>
        <time>2023-07-04T07:07:45Z</time>
      </trkpt>
      <trkpt lat="43.96462" lon="0.42654">
        <ele>136.2</ele>
        <time>2023-07-04T07:07:46Z</time>
      </trkpt>
      <trkpt lat="43.9646" lon="0.42665">
        <ele>135.8</ele>
        <time>2023-07-04T07:07:52Z</time>
      </trkpt>
      <trkpt lat="43.9646" lon="0.42669">
        <ele>135.8</ele>
        <time>2023-07-04T07:07:54Z</time>
      </trkpt>
      <trkpt lat="43.96457" lon="0.42684">
        <ele>135.4</ele>
        <time>2023-07-04T07:08:02Z</time>
      </trkpt>
      <trkpt lat="43.96455" lon="0.42689">
        <ele>135.2</ele>
        <time>2023-07-04T07:08:05Z</time>
      </trkpt>
      <trkpt lat="43.96453" lon="0.42695">
        <ele>135.2</ele>
        <time>2023-07-04T07:08:09Z</time>
      </trkpt>
      <trkpt lat="43.96452" lon="0.427">
        <ele>135</ele>
        <time>2023-07-04T07:08:12Z</time>
      </trkpt>
      <trkpt lat="43.96449" lon="0.42711">
        <ele>134.6</ele>
        <time>2023-07-04T07:08:19Z</time>
      </trkpt>
      <trkpt lat="43.96448" lon="0.42716">
        <ele>134.2</ele>
        <time>2023-07-04T07:08:22Z</time>
      </trkpt>
      <trkpt lat="43.96446" lon="0.42725">
        <ele>133.6</ele>
        <time>2023-07-04T07:08:27Z</time>
      </trkpt>
      <trkpt lat="43.96443" lon="0.42733">
        <ele>133.2</ele>
        <time>2023-07-04T07:08:32Z</time>
      </trkpt>
      <trkpt lat="43.96442" lon="0.4274">
        <ele>132.8</ele>
        <time>2023-07-04T07:08:36Z</time>
      </trkpt>
      <trkpt lat="43.96438" lon="0.42751">
        <ele>132.8</ele>
        <time>2023-07-04T07:08:43Z</time>
      </trkpt>
      <trkpt lat="43.96438" lon="0.42752">
        <ele>132.6</ele>
        <time>2023-07-04T07:08:44Z</time>
      </trkpt>
      <trkpt lat="43.96432" lon="0.42764">
        <ele>132</ele>
        <time>2023-07-04T07:08:51Z</time>
      </trkpt>
      <trkpt lat="43.9643" lon="0.42771">
        <ele>131.6</ele>
        <time>2023-07-04T07:08:55Z</time>
      </trkpt>
      <trkpt lat="43.96426" lon="0.42777">
        <ele>131.2</ele>
        <time>2023-07-04T07:08:59Z</time>
      </trkpt>
      <trkpt lat="43.96424" lon="0.42779">
        <ele>131</ele>
        <time>2023-07-04T07:09:01Z</time>
      </trkpt>
      <trkpt lat="43.9642" lon="0.42786">
        <ele>130.6</ele>
        <time>2023-07-04T07:09:05Z</time>
      </trkpt>
      <trkpt lat="43.96416" lon="0.42792">
        <ele>130</ele>
        <time>2023-07-04T07:09:09Z</time>
      </trkpt>
      <trkpt lat="43.96412" lon="0.42799">
        <ele>129.6</ele>
        <time>2023-07-04T07:09:13Z</time>
      </trkpt>
      <trkpt lat="43.96409" lon="0.42805">
        <ele>129</ele>
        <time>2023-07-04T07:09:17Z</time>
      </trkpt>
      <trkpt lat="43.96408" lon="0.4281">
        <ele>128.8</ele>
        <time>2023-07-04T07:09:20Z</time>
      </trkpt>
      <trkpt lat="43.96404" lon="0.42823">
        <ele>128</ele>
        <time>2023-07-04T07:09:27Z</time>
      </trkpt>
      <trkpt lat="43.96404" lon="0.42825">
        <ele>127.8</ele>
        <time>2023-07-04T07:09:29Z</time>
      </trkpt>
      <trkpt lat="43.96402" lon="0.42837">
        <ele>127.4</ele>
        <time>2023-07-04T07:09:36Z</time>
      </trkpt>
      <trkpt lat="43.964" lon="0.42841">
        <ele>127.2</ele>
        <time>2023-07-04T07:09:38Z</time>
      </trkpt>
      <trkpt lat="43.96398" lon="0.4285">
        <ele>127</ele>
        <time>2023-07-04T07:09:43Z</time>
      </trkpt>
      <trkpt lat="43.96397" lon="0.42851">
        <ele>127</ele>
        <time>2023-07-04T07:09:44Z</time>
      </trkpt>
      <trkpt lat="43.96388" lon="0.42861">
        <ele>127</ele>
        <time>2023-07-04T07:09:52Z</time>
      </trkpt>
      <trkpt lat="43.96381" lon="0.42868">
        <ele>126.8</ele>
        <time>2023-07-04T07:10:00Z</time>
      </trkpt>
      <trkpt lat="43.96371" lon="0.42875">
        <ele>127</ele>
        <time>2023-07-04T07:10:08Z</time>
      </trkpt>
      <trkpt lat="43.96363" lon="0.42881">
        <ele>126.8</ele>
        <time>2023-07-04T07:10:13Z</time>
      </trkpt>
      <trkpt lat="43.96353" lon="0.42884">
        <ele>127</ele>
        <time>2023-07-04T07:10:21Z</time>
      </trkpt>
      <trkpt lat="43.96344" lon="0.42891">
        <ele>127</ele>
        <time>2023-07-04T07:10:29Z</time>
      </trkpt>
      <trkpt lat="43.96341" lon="0.42892">
        <ele>127</ele>
        <time>2023-07-04T07:10:32Z</time>
      </trkpt>
      <trkpt lat="43.96341" lon="0.42892">
        <ele>127</ele>
        <time>2023-07-04T07:10:35Z</time>
      </trkpt>
      <trkpt lat="43.9634" lon="0.42892">
        <ele>127</ele>
        <time>2023-07-04T07:10:37Z</time>
      </trkpt>
      <trkpt lat="43.96336" lon="0.42895">
        <ele>127</ele>
        <time>2023-07-04T07:10:41Z</time>
      </trkpt>
      <trkpt lat="43.9633" lon="0.429">
        <ele>126.8</ele>
        <time>2023-07-04T07:10:47Z</time>
      </trkpt>
      <trkpt lat="43.96327" lon="0.42903">
        <ele>126.8</ele>
        <time>2023-07-04T07:10:49Z</time>
      </trkpt>
      <trkpt lat="43.96325" lon="0.42905">
        <ele>127</ele>
        <time>2023-07-04T07:10:51Z</time>
      </trkpt>
      <trkpt lat="43.96322" lon="0.4291">
        <ele>127.2</ele>
        <time>2023-07-04T07:10:54Z</time>
      </trkpt>
      <trkpt lat="43.9632" lon="0.42914">
        <ele>127.2</ele>
        <time>2023-07-04T07:10:57Z</time>
      </trkpt>
      <trkpt lat="43.96317" lon="0.42916">
        <ele>127.2</ele>
        <time>2023-07-04T07:11:00Z</time>
      </trkpt>
      <trkpt lat="43.96313" lon="0.4292">
        <ele>127.6</ele>
        <time>2023-07-04T07:11:05Z</time>
      </trkpt>
      <trkpt lat="43.96311" lon="0.42923">
        <ele>127.6</ele>
        <time>2023-07-04T07:11:07Z</time>
      </trkpt>
      <trkpt lat="43.96311" lon="0.42924">
        <ele>127.4</ele>
        <time>2023-07-04T07:11:08Z</time>
      </trkpt>
      <trkpt lat="43.96309" lon="0.42929">
        <ele>127.4</ele>
        <time>2023-07-04T07:11:12Z</time>
      </trkpt>
      <trkpt lat="43.96308" lon="0.42931">
        <ele>127.2</ele>
        <time>2023-07-04T07:11:13Z</time>
      </trkpt>
      <trkpt lat="43.96307" lon="0.42932">
        <ele>127.2</ele>
        <time>2023-07-04T07:11:14Z</time>
      </trkpt>
      <trkpt lat="43.96301" lon="0.42941">
        <ele>127.2</ele>
        <time>2023-07-04T07:11:21Z</time>
      </trkpt>
      <trkpt lat="43.96298" lon="0.42945">
        <ele>127.2</ele>
        <time>2023-07-04T07:11:24Z</time>
      </trkpt>
      <trkpt lat="43.96296" lon="0.42948">
        <ele>127</ele>
        <time>2023-07-04T07:11:28Z</time>
      </trkpt>
      <trkpt lat="43.96295" lon="0.42951">
        <ele>127</ele>
        <time>2023-07-04T07:11:31Z</time>
      </trkpt>
      <trkpt lat="43.96289" lon="0.42964">
        <ele>127.4</ele>
        <time>2023-07-04T07:11:40Z</time>
      </trkpt>
      <trkpt lat="43.96285" lon="0.42972">
        <ele>127.6</ele>
        <time>2023-07-04T07:11:47Z</time>
      </trkpt>
      <trkpt lat="43.96284" lon="0.42977">
        <ele>128</ele>
        <time>2023-07-04T07:11:51Z</time>
      </trkpt>
      <trkpt lat="43.96283" lon="0.42981">
        <ele>128</ele>
        <time>2023-07-04T07:11:53Z</time>
      </trkpt>
      <trkpt lat="43.96281" lon="0.42984">
        <ele>126.6</ele>
        <time>2023-07-04T07:11:56Z</time>
      </trkpt>
      <trkpt lat="43.9628" lon="0.42992">
        <ele>129.6</ele>
        <time>2023-07-04T07:24:41Z</time>
      </trkpt>
      <trkpt lat="43.96277" lon="0.42993">
        <ele>129.6</ele>
        <time>2023-07-04T07:24:44Z</time>
      </trkpt>
      <trkpt lat="43.96271" lon="0.43">
        <ele>130</ele>
        <time>2023-07-04T07:24:50Z</time>
      </trkpt>
      <trkpt lat="43.96269" lon="0.43004">
        <ele>130.2</ele>
        <time>2023-07-04T07:24:54Z</time>
      </trkpt>
      <trkpt lat="43.96266" lon="0.43007">
        <ele>130.2</ele>
        <time>2023-07-04T07:24:57Z</time>
      </trkpt>
      <trkpt lat="43.96266" lon="0.43008">
        <ele>130.2</ele>
        <time>2023-07-04T07:24:58Z</time>
      </trkpt>
      <trkpt lat="43.96263" lon="0.43012">
        <ele>130</ele>
        <time>2023-07-04T07:25:01Z</time>
      </trkpt>
      <trkpt lat="43.9626" lon="0.43018">
        <ele>129.8</ele>
        <time>2023-07-04T07:25:06Z</time>
      </trkpt>
      <trkpt lat="43.96254" lon="0.43026">
        <ele>130.2</ele>
        <time>2023-07-04T07:25:12Z</time>
      </trkpt>
      <trkpt lat="43.96247" lon="0.43037">
        <ele>130.4</ele>
        <time>2023-07-04T07:25:20Z</time>
      </trkpt>
      <trkpt lat="43.96243" lon="0.43039">
        <ele>130.4</ele>
        <time>2023-07-04T07:25:24Z</time>
      </trkpt>
      <trkpt lat="43.96239" lon="0.43043">
        <ele>130.4</ele>
        <time>2023-07-04T07:25:27Z</time>
      </trkpt>
      <trkpt lat="43.96231" lon="0.4305">
        <ele>130</ele>
        <time>2023-07-04T07:25:35Z</time>
      </trkpt>
      <trkpt lat="43.96228" lon="0.43052">
        <ele>130</ele>
        <time>2023-07-04T07:25:38Z</time>
      </trkpt>
      <trkpt lat="43.96226" lon="0.43053">
        <ele>129.8</ele>
        <time>2023-07-04T07:25:40Z</time>
      </trkpt>
      <trkpt lat="43.96222" lon="0.43055">
        <ele>129.8</ele>
        <time>2023-07-04T07:25:44Z</time>
      </trkpt>
      <trkpt lat="43.96218" lon="0.43059">
        <ele>129.8</ele>
        <time>2023-07-04T07:25:48Z</time>
      </trkpt>
      <trkpt lat="43.96208" lon="0.43065">
        <ele>129.4</ele>
        <time>2023-07-04T07:25:56Z</time>
      </trkpt>
      <trkpt lat="43.96198" lon="0.43072">
        <ele>129.6</ele>
        <time>2023-07-04T07:26:05Z</time>
      </trkpt>
      <trkpt lat="43.96188" lon="0.4308">
        <ele>129.6</ele>
        <time>2023-07-04T07:26:13Z</time>
      </trkpt>
      <trkpt lat="43.96177" lon="0.43089">
        <ele>129.4</ele>
        <time>2023-07-04T07:26:23Z</time>
      </trkpt>
      <trkpt lat="43.96173" lon="0.43094">
        <ele>129.4</ele>
        <time>2023-07-04T07:26:27Z</time>
      </trkpt>
      <trkpt lat="43.9617" lon="0.43098">
        <ele>129.6</ele>
        <time>2023-07-04T07:26:31Z</time>
      </trkpt>
      <trkpt lat="43.96161" lon="0.43108">
        <ele>129.2</ele>
        <time>2023-07-04T07:26:40Z</time>
      </trkpt>
      <trkpt lat="43.96157" lon="0.43112">
        <ele>129</ele>
        <time>2023-07-04T07:26:44Z</time>
      </trkpt>
      <trkpt lat="43.96151" lon="0.4312">
        <ele>129</ele>
        <time>2023-07-04T07:26:50Z</time>
      </trkpt>
      <trkpt lat="43.96149" lon="0.43122">
        <ele>129.2</ele>
        <time>2023-07-04T07:26:52Z</time>
      </trkpt>
      <trkpt lat="43.96142" lon="0.43132">
        <ele>129</ele>
        <time>2023-07-04T07:27:00Z</time>
      </trkpt>
      <trkpt lat="43.96132" lon="0.43146">
        <ele>129.4</ele>
        <time>2023-07-04T07:27:11Z</time>
      </trkpt>
      <trkpt lat="43.96125" lon="0.43155">
        <ele>129.4</ele>
        <time>2023-07-04T07:27:19Z</time>
      </trkpt>
      <trkpt lat="43.9612" lon="0.4316">
        <ele>129.2</ele>
        <time>2023-07-04T07:27:23Z</time>
      </trkpt>
      <trkpt lat="43.96119" lon="0.43161">
        <ele>129.2</ele>
        <time>2023-07-04T07:27:24Z</time>
      </trkpt>
      <trkpt lat="43.96117" lon="0.43165">
        <ele>129.2</ele>
        <time>2023-07-04T07:27:27Z</time>
      </trkpt>
      <trkpt lat="43.96113" lon="0.43172">
        <ele>129</ele>
        <time>2023-07-04T07:27:32Z</time>
      </trkpt>
      <trkpt lat="43.96111" lon="0.43175">
        <ele>129</ele>
        <time>2023-07-04T07:27:34Z</time>
      </trkpt>
      <trkpt lat="43.96103" lon="0.43184">
        <ele>128.8</ele>
        <time>2023-07-04T07:27:42Z</time>
      </trkpt>
      <trkpt lat="43.96097" lon="0.43191">
        <ele>129</ele>
        <time>2023-07-04T07:27:48Z</time>
      </trkpt>
      <trkpt lat="43.96093" lon="0.43194">
        <ele>128.8</ele>
        <time>2023-07-04T07:27:51Z</time>
      </trkpt>
      <trkpt lat="43.96092" lon="0.43195">
        <ele>128.8</ele>
        <time>2023-07-04T07:27:52Z</time>
      </trkpt>
      <trkpt lat="43.96086" lon="0.432">
        <ele>128.8</ele>
        <time>2023-07-04T07:27:58Z</time>
      </trkpt>
      <trkpt lat="43.96081" lon="0.43203">
        <ele>128.4</ele>
        <time>2023-07-04T07:28:02Z</time>
      </trkpt>
      <trkpt lat="43.96076" lon="0.43206">
        <ele>128.8</ele>
        <time>2023-07-04T07:28:06Z</time>
      </trkpt>
      <trkpt lat="43.96068" lon="0.4321">
        <ele>128.8</ele>
        <time>2023-07-04T07:28:13Z</time>
      </trkpt>
      <trkpt lat="43.96067" lon="0.4321">
        <ele>128.8</ele>
        <time>2023-07-04T07:28:14Z</time>
      </trkpt>
      <trkpt lat="43.9606" lon="0.43216">
        <ele>128.8</ele>
        <time>2023-07-04T07:28:21Z</time>
      </trkpt>
      <trkpt lat="43.96059" lon="0.43218">
        <ele>128.8</ele>
        <time>2023-07-04T07:28:23Z</time>
      </trkpt>
      <trkpt lat="43.96057" lon="0.4322">
        <ele>128.8</ele>
        <time>2023-07-04T07:28:26Z</time>
      </trkpt>
      <trkpt lat="43.96056" lon="0.4322">
        <ele>128.8</ele>
        <time>2023-07-04T07:28:27Z</time>
      </trkpt>
      <trkpt lat="43.96054" lon="0.43221">
        <ele>128.8</ele>
        <time>2023-07-04T07:28:30Z</time>
      </trkpt>
      <trkpt lat="43.9605" lon="0.43222">
        <ele>128.8</ele>
        <time>2023-07-04T07:28:34Z</time>
      </trkpt>
      <trkpt lat="43.96049" lon="0.43222">
        <ele>128.8</ele>
        <time>2023-07-04T07:28:35Z</time>
      </trkpt>
      <trkpt lat="43.96044" lon="0.43224">
        <ele>128.8</ele>
        <time>2023-07-04T07:28:41Z</time>
      </trkpt>
      <trkpt lat="43.96043" lon="0.43225">
        <ele>128.6</ele>
        <time>2023-07-04T07:28:42Z</time>
      </trkpt>
      <trkpt lat="43.96036" lon="0.43228">
        <ele>128.4</ele>
        <time>2023-07-04T07:28:47Z</time>
      </trkpt>
      <trkpt lat="43.96035" lon="0.43229">
        <ele>128.4</ele>
        <time>2023-07-04T07:28:48Z</time>
      </trkpt>
      <trkpt lat="43.96033" lon="0.4323">
        <ele>128.4</ele>
        <time>2023-07-04T07:28:49Z</time>
      </trkpt>
      <trkpt lat="43.96032" lon="0.4323">
        <ele>128.4</ele>
        <time>2023-07-04T07:28:51Z</time>
      </trkpt>
      <trkpt lat="43.96029" lon="0.43233">
        <ele>128.4</ele>
        <time>2023-07-04T07:28:53Z</time>
      </trkpt>
      <trkpt lat="43.96028" lon="0.43234">
        <ele>128.4</ele>
        <time>2023-07-04T07:28:54Z</time>
      </trkpt>
      <trkpt lat="43.96026" lon="0.43235">
        <ele>128.6</ele>
        <time>2023-07-04T07:28:55Z</time>
      </trkpt>
      <trkpt lat="43.9602" lon="0.43237">
        <ele>128.6</ele>
        <time>2023-07-04T07:29:00Z</time>
      </trkpt>
      <trkpt lat="43.96019" lon="0.43238">
        <ele>128.6</ele>
        <time>2023-07-04T07:29:01Z</time>
      </trkpt>
      <trkpt lat="43.96014" lon="0.43241">
        <ele>128.8</ele>
        <time>2023-07-04T07:29:05Z</time>
      </trkpt>
      <trkpt lat="43.96013" lon="0.43241">
        <ele>128.6</ele>
        <time>2023-07-04T07:29:06Z</time>
      </trkpt>
      <trkpt lat="43.96012" lon="0.43242">
        <ele>128.6</ele>
        <time>2023-07-04T07:29:07Z</time>
      </trkpt>
      <trkpt lat="43.9601" lon="0.43243">
        <ele>128.4</ele>
        <time>2023-07-04T07:29:09Z</time>
      </trkpt>
      <trkpt lat="43.96005" lon="0.43247">
        <ele>128.4</ele>
        <time>2023-07-04T07:29:13Z</time>
      </trkpt>
      <trkpt lat="43.95996" lon="0.43251">
        <ele>128.4</ele>
        <time>2023-07-04T07:29:20Z</time>
      </trkpt>
      <trkpt lat="43.95996" lon="0.43252">
        <ele>128.2</ele>
        <time>2023-07-04T07:29:21Z</time>
      </trkpt>
      <trkpt lat="43.95995" lon="0.43252">
        <ele>128.2</ele>
        <time>2023-07-04T07:29:23Z</time>
      </trkpt>
      <trkpt lat="43.95993" lon="0.43254">
        <ele>128.4</ele>
        <time>2023-07-04T07:29:25Z</time>
      </trkpt>
      <trkpt lat="43.95989" lon="0.43256">
        <ele>128.4</ele>
        <time>2023-07-04T07:29:28Z</time>
      </trkpt>
      <trkpt lat="43.95981" lon="0.4326">
        <ele>128.6</ele>
        <time>2023-07-04T07:29:34Z</time>
      </trkpt>
      <trkpt lat="43.95981" lon="0.4326">
        <ele>128.4</ele>
        <time>2023-07-04T07:29:35Z</time>
      </trkpt>
      <trkpt lat="43.9598" lon="0.43261">
        <ele>128.4</ele>
        <time>2023-07-04T07:29:36Z</time>
      </trkpt>
      <trkpt lat="43.95979" lon="0.43262">
        <ele>128.4</ele>
        <time>2023-07-04T07:29:37Z</time>
      </trkpt>
      <trkpt lat="43.95973" lon="0.43268">
        <ele>128.4</ele>
        <time>2023-07-04T07:29:44Z</time>
      </trkpt>
      <trkpt lat="43.95969" lon="0.43272">
        <ele>128.4</ele>
        <time>2023-07-04T07:29:47Z</time>
      </trkpt>
      <trkpt lat="43.95968" lon="0.43273">
        <ele>128.4</ele>
        <time>2023-07-04T07:29:48Z</time>
      </trkpt>
      <trkpt lat="43.95964" lon="0.43277">
        <ele>128.4</ele>
        <time>2023-07-04T07:29:51Z</time>
      </trkpt>
      <trkpt lat="43.95962" lon="0.43278">
        <ele>128.4</ele>
        <time>2023-07-04T07:29:52Z</time>
      </trkpt>
      <trkpt lat="43.95957" lon="0.43281">
        <ele>128.2</ele>
        <time>2023-07-04T07:29:56Z</time>
      </trkpt>
      <trkpt lat="43.95955" lon="0.43282">
        <ele>128</ele>
        <time>2023-07-04T07:29:58Z</time>
      </trkpt>
      <trkpt lat="43.95945" lon="0.43287">
        <ele>127.8</ele>
        <time>2023-07-04T07:30:07Z</time>
      </trkpt>
      <trkpt lat="43.95937" lon="0.43293">
        <ele>127.8</ele>
        <time>2023-07-04T07:30:14Z</time>
      </trkpt>
      <trkpt lat="43.95933" lon="0.43297">
        <ele>128</ele>
        <time>2023-07-04T07:30:17Z</time>
      </trkpt>
      <trkpt lat="43.95928" lon="0.43304">
        <ele>127.8</ele>
        <time>2023-07-04T07:30:22Z</time>
      </trkpt>
      <trkpt lat="43.95927" lon="0.43306">
        <ele>127.8</ele>
        <time>2023-07-04T07:30:23Z</time>
      </trkpt>
      <trkpt lat="43.95919" lon="0.43316">
        <ele>127.6</ele>
        <time>2023-07-04T07:30:30Z</time>
      </trkpt>
      <trkpt lat="43.95917" lon="0.43319">
        <ele>127.6</ele>
        <time>2023-07-04T07:30:32Z</time>
      </trkpt>
      <trkpt lat="43.95911" lon="0.43324">
        <ele>127.2</ele>
        <time>2023-07-04T07:30:36Z</time>
      </trkpt>
      <trkpt lat="43.95908" lon="0.43329">
        <ele>127.2</ele>
        <time>2023-07-04T07:30:39Z</time>
      </trkpt>
      <trkpt lat="43.95902" lon="0.43336">
        <ele>126.6</ele>
        <time>2023-07-04T07:30:46Z</time>
      </trkpt>
      <trkpt lat="43.95901" lon="0.43338">
        <ele>126.6</ele>
        <time>2023-07-04T07:30:48Z</time>
      </trkpt>
      <trkpt lat="43.95899" lon="0.43341">
        <ele>126.6</ele>
        <time>2023-07-04T07:30:52Z</time>
      </trkpt>
      <trkpt lat="43.95893" lon="0.43343">
        <ele>126.6</ele>
        <time>2023-07-04T07:30:58Z</time>
      </trkpt>
      <trkpt lat="43.9588" lon="0.43343">
        <ele>126.8</ele>
        <time>2023-07-04T07:31:05Z</time>
      </trkpt>
      <trkpt lat="43.95877" lon="0.43343">
        <ele>126.8</ele>
        <time>2023-07-04T07:31:07Z</time>
      </trkpt>
      <trkpt lat="43.95872" lon="0.43343">
        <ele>126.6</ele>
        <time>2023-07-04T07:31:11Z</time>
      </trkpt>
      <trkpt lat="43.9587" lon="0.43345">
        <ele>126.4</ele>
        <time>2023-07-04T07:31:13Z</time>
      </trkpt>
      <trkpt lat="43.95866" lon="0.43349">
        <ele>126.4</ele>
        <time>2023-07-04T07:31:17Z</time>
      </trkpt>
      <trkpt lat="43.95864" lon="0.43353">
        <ele>126.4</ele>
        <time>2023-07-04T07:31:20Z</time>
      </trkpt>
      <trkpt lat="43.95863" lon="0.43354">
        <ele>126.6</ele>
        <time>2023-07-04T07:31:22Z</time>
      </trkpt>
      <trkpt lat="43.95862" lon="0.43355">
        <ele>126.8</ele>
        <time>2023-07-04T07:31:24Z</time>
      </trkpt>
      <trkpt lat="43.9586" lon="0.43356">
        <ele>126.8</ele>
        <time>2023-07-04T07:31:26Z</time>
      </trkpt>
      <trkpt lat="43.95859" lon="0.43356">
        <ele>126.8</ele>
        <time>2023-07-04T07:31:27Z</time>
      </trkpt>
      <trkpt lat="43.95853" lon="0.43356">
        <ele>126.6</ele>
        <time>2023-07-04T07:31:32Z</time>
      </trkpt>
      <trkpt lat="43.95852" lon="0.43356">
        <ele>126.6</ele>
        <time>2023-07-04T07:31:33Z</time>
      </trkpt>
      <trkpt lat="43.95843" lon="0.43358">
        <ele>126.4</ele>
        <time>2023-07-04T07:31:39Z</time>
      </trkpt>
      <trkpt lat="43.95835" lon="0.43363">
        <ele>126.6</ele>
        <time>2023-07-04T07:31:45Z</time>
      </trkpt>
      <trkpt lat="43.95832" lon="0.43366">
        <ele>126.4</ele>
        <time>2023-07-04T07:31:48Z</time>
      </trkpt>
      <trkpt lat="43.95824" lon="0.43371">
        <ele>126.4</ele>
        <time>2023-07-04T07:31:53Z</time>
      </trkpt>
      <trkpt lat="43.95817" lon="0.43374">
        <ele>126.6</ele>
        <time>2023-07-04T07:31:59Z</time>
      </trkpt>
      <trkpt lat="43.95813" lon="0.43379">
        <ele>126.4</ele>
        <time>2023-07-04T07:32:04Z</time>
      </trkpt>
      <trkpt lat="43.95813" lon="0.4338">
        <ele>126.4</ele>
        <time>2023-07-04T07:32:05Z</time>
      </trkpt>
      <trkpt lat="43.95813" lon="0.4338">
        <ele>126.2</ele>
        <time>2023-07-04T07:32:06Z</time>
      </trkpt>
      <trkpt lat="43.95814" lon="0.43381">
        <ele>126.2</ele>
        <time>2023-07-04T07:32:07Z</time>
      </trkpt>
      <trkpt lat="43.95814" lon="0.43381">
        <ele>126.2</ele>
        <time>2023-07-04T07:32:08Z</time>
      </trkpt>
      <trkpt lat="43.95815" lon="0.43381">
        <ele>126.2</ele>
        <time>2023-07-04T07:32:09Z</time>
      </trkpt>
      <trkpt lat="43.95815" lon="0.43382">
        <ele>125.8</ele>
        <time>2023-07-04T07:32:11Z</time>
      </trkpt>
      <trkpt lat="43.95817" lon="0.43382">
        <ele>125.6</ele>
        <time>2023-07-04T07:32:15Z</time>
      </trkpt>
      <trkpt lat="43.95817" lon="0.43383">
        <ele>126.4</ele>
        <time>2023-07-04T07:32:21Z</time>
      </trkpt>
      <trkpt lat="43.95817" lon="0.43384">
        <ele>126.4</ele>
        <time>2023-07-04T07:32:24Z</time>
      </trkpt>
      <trkpt lat="43.9582" lon="0.4339">
        <ele>126.4</ele>
        <time>2023-07-04T07:32:30Z</time>
      </trkpt>
      <trkpt lat="43.95821" lon="0.4339">
        <ele>126.4</ele>
        <time>2023-07-04T07:32:31Z</time>
      </trkpt>
      <trkpt lat="43.95823" lon="0.4339">
        <ele>126.4</ele>
        <time>2023-07-04T07:32:34Z</time>
      </trkpt>
      <trkpt lat="43.95824" lon="0.4339">
        <ele>126.4</ele>
        <time>2023-07-04T07:32:35Z</time>
      </trkpt>
      <trkpt lat="43.95825" lon="0.43391">
        <ele>126.4</ele>
        <time>2023-07-04T07:32:36Z</time>
      </trkpt>
      <trkpt lat="43.95827" lon="0.43391">
        <ele>126.2</ele>
        <time>2023-07-04T07:32:38Z</time>
      </trkpt>
      <trkpt lat="43.9583" lon="0.43391">
        <ele>126</ele>
        <time>2023-07-04T07:32:42Z</time>
      </trkpt>
      <trkpt lat="43.95832" lon="0.43391">
        <ele>126</ele>
        <time>2023-07-04T07:32:43Z</time>
      </trkpt>
      <trkpt lat="43.95832" lon="0.43391">
        <ele>126</ele>
        <time>2023-07-04T07:32:44Z</time>
      </trkpt>
      <trkpt lat="43.95838" lon="0.43393">
        <ele>126.2</ele>
        <time>2023-07-04T07:32:49Z</time>
      </trkpt>
      <trkpt lat="43.95845" lon="0.43391">
        <ele>126</ele>
        <time>2023-07-04T07:32:55Z</time>
      </trkpt>
      <trkpt lat="43.95852" lon="0.43393">
        <ele>125.8</ele>
        <time>2023-07-04T07:33:01Z</time>
      </trkpt>
      <trkpt lat="43.95853" lon="0.43393">
        <ele>125.8</ele>
        <time>2023-07-04T07:33:02Z</time>
      </trkpt>
      <trkpt lat="43.95854" lon="0.43392">
        <ele>125.8</ele>
        <time>2023-07-04T07:33:03Z</time>
      </trkpt>
      <trkpt lat="43.95855" lon="0.4339">
        <ele>125.8</ele>
        <time>2023-07-04T07:33:07Z</time>
      </trkpt>
      <trkpt lat="43.95856" lon="0.4339">
        <ele>125.8</ele>
        <time>2023-07-04T07:33:08Z</time>
      </trkpt>
      <trkpt lat="43.95858" lon="0.43391">
        <ele>125.8</ele>
        <time>2023-07-04T07:33:10Z</time>
      </trkpt>
      <trkpt lat="43.95858" lon="0.43391">
        <ele>125.6</ele>
        <time>2023-07-04T07:33:12Z</time>
      </trkpt>
      <trkpt lat="43.95858" lon="0.4339">
        <ele>125.8</ele>
        <time>2023-07-04T07:33:15Z</time>
      </trkpt>
      <trkpt lat="43.95859" lon="0.43388">
        <ele>125.8</ele>
        <time>2023-07-04T07:33:19Z</time>
      </trkpt>
      <trkpt lat="43.95857" lon="0.43389">
        <ele>125.6</ele>
        <time>2023-07-04T07:33:21Z</time>
      </trkpt>
      <trkpt lat="43.95857" lon="0.4339">
        <ele>125.6</ele>
        <time>2023-07-04T07:33:22Z</time>
      </trkpt>
      <trkpt lat="43.95856" lon="0.43392">
        <ele>125.4</ele>
        <time>2023-07-04T07:33:25Z</time>
      </trkpt>
      <trkpt lat="43.95857" lon="0.43395">
        <ele>125.8</ele>
        <time>2023-07-04T07:33:30Z</time>
      </trkpt>
      <trkpt lat="43.95856" lon="0.43398">
        <ele>125.8</ele>
        <time>2023-07-04T07:33:33Z</time>
      </trkpt>
      <trkpt lat="43.95858" lon="0.43396">
        <ele>125.8</ele>
        <time>2023-07-04T07:33:38Z</time>
      </trkpt>
      <trkpt lat="43.95862" lon="0.43392">
        <ele>125.6</ele>
        <time>2023-07-04T07:33:46Z</time>
      </trkpt>
      <trkpt lat="43.95864" lon="0.4339">
        <ele>125.8</ele>
        <time>2023-07-04T07:33:48Z</time>
      </trkpt>
      <trkpt lat="43.95868" lon="0.43389">
        <ele>125.6</ele>
        <time>2023-07-04T07:33:52Z</time>
      </trkpt>
      <trkpt lat="43.95868" lon="0.43389">
        <ele>125.6</ele>
        <time>2023-07-04T07:33:53Z</time>
      </trkpt>
      <trkpt lat="43.95869" lon="0.43389">
        <ele>125.6</ele>
        <time>2023-07-04T07:33:55Z</time>
      </trkpt>
      <trkpt lat="43.95871" lon="0.43389">
        <ele>125.8</ele>
        <time>2023-07-04T07:33:57Z</time>
      </trkpt>
      <trkpt lat="43.95874" lon="0.4339">
        <ele>125.8</ele>
        <time>2023-07-04T07:33:59Z</time>
      </trkpt>
      <trkpt lat="43.95877" lon="0.43389">
        <ele>125.8</ele>
        <time>2023-07-04T07:34:01Z</time>
      </trkpt>
      <trkpt lat="43.95885" lon="0.43387">
        <ele>125.8</ele>
        <time>2023-07-04T07:34:06Z</time>
      </trkpt>
      <trkpt lat="43.95887" lon="0.43388">
        <ele>125.8</ele>
        <time>2023-07-04T07:34:08Z</time>
      </trkpt>
      <trkpt lat="43.95889" lon="0.4339">
        <ele>125.8</ele>
        <time>2023-07-04T07:34:11Z</time>
      </trkpt>
      <trkpt lat="43.95889" lon="0.4339">
        <ele>125.8</ele>
        <time>2023-07-04T07:34:13Z</time>
      </trkpt>
      <trkpt lat="43.95892" lon="0.43391">
        <ele>125.8</ele>
        <time>2023-07-04T07:34:16Z</time>
      </trkpt>
      <trkpt lat="43.95895" lon="0.43394">
        <ele>125.8</ele>
        <time>2023-07-04T07:34:18Z</time>
      </trkpt>
      <trkpt lat="43.95897" lon="0.43395">
        <ele>125.8</ele>
        <time>2023-07-04T07:34:19Z</time>
      </trkpt>
      <trkpt lat="43.95908" lon="0.43398">
        <ele>126.6</ele>
        <time>2023-07-04T07:34:26Z</time>
      </trkpt>
      <trkpt lat="43.95921" lon="0.43402">
        <ele>126.6</ele>
        <time>2023-07-04T07:34:33Z</time>
      </trkpt>
      <trkpt lat="43.9593" lon="0.43404">
        <ele>127</ele>
        <time>2023-07-04T07:34:40Z</time>
      </trkpt>
      <trkpt lat="43.9593" lon="0.43404">
        <ele>127</ele>
        <time>2023-07-04T07:34:41Z</time>
      </trkpt>
      <trkpt lat="43.95932" lon="0.43403">
        <ele>126.8</ele>
        <time>2023-07-04T07:34:44Z</time>
      </trkpt>
      <trkpt lat="43.95934" lon="0.43404">
        <ele>127</ele>
        <time>2023-07-04T07:34:46Z</time>
      </trkpt>
      <trkpt lat="43.95944" lon="0.43405">
        <ele>127.2</ele>
        <time>2023-07-04T07:34:52Z</time>
      </trkpt>
      <trkpt lat="43.95944" lon="0.43403">
        <ele>127</ele>
        <time>2023-07-04T07:34:53Z</time>
      </trkpt>
      <trkpt lat="43.9595" lon="0.43403">
        <ele>126.8</ele>
        <time>2023-07-04T07:34:59Z</time>
      </trkpt>
      <trkpt lat="43.95951" lon="0.43404">
        <ele>127</ele>
        <time>2023-07-04T07:35:00Z</time>
      </trkpt>
      <trkpt lat="43.95953" lon="0.43405">
        <ele>127.2</ele>
        <time>2023-07-04T07:35:02Z</time>
      </trkpt>
      <trkpt lat="43.95954" lon="0.43406">
        <ele>127.4</ele>
        <time>2023-07-04T07:35:03Z</time>
      </trkpt>
      <trkpt lat="43.95955" lon="0.43405">
        <ele>127.6</ele>
        <time>2023-07-04T07:35:06Z</time>
      </trkpt>
      <trkpt lat="43.95955" lon="0.43405">
        <ele>127.8</ele>
        <time>2023-07-04T07:35:07Z</time>
      </trkpt>
      <trkpt lat="43.95955" lon="0.43409">
        <ele>128</ele>
        <time>2023-07-04T07:35:11Z</time>
      </trkpt>
      <trkpt lat="43.95955" lon="0.43412">
        <ele>128.6</ele>
        <time>2023-07-04T07:35:13Z</time>
      </trkpt>
      <trkpt lat="43.95956" lon="0.43416">
        <ele>129.6</ele>
        <time>2023-07-04T07:35:18Z</time>
      </trkpt>
      <trkpt lat="43.95956" lon="0.43417">
        <ele>129.8</ele>
        <time>2023-07-04T07:35:19Z</time>
      </trkpt>
      <trkpt lat="43.95955" lon="0.43421">
        <ele>130.6</ele>
        <time>2023-07-04T07:35:23Z</time>
      </trkpt>
      <trkpt lat="43.95956" lon="0.43423">
        <ele>131.2</ele>
        <time>2023-07-04T07:35:26Z</time>
      </trkpt>
      <trkpt lat="43.95954" lon="0.43428">
        <ele>131.6</ele>
        <time>2023-07-04T07:35:31Z</time>
      </trkpt>
      <trkpt lat="43.95954" lon="0.43429">
        <ele>132</ele>
        <time>2023-07-04T07:35:32Z</time>
      </trkpt>
      <trkpt lat="43.95953" lon="0.4343">
        <ele>132.2</ele>
        <time>2023-07-04T07:35:33Z</time>
      </trkpt>
      <trkpt lat="43.95953" lon="0.43434">
        <ele>132.6</ele>
        <time>2023-07-04T07:35:36Z</time>
      </trkpt>
      <trkpt lat="43.95953" lon="0.43436">
        <ele>132.8</ele>
        <time>2023-07-04T07:35:38Z</time>
      </trkpt>
      <trkpt lat="43.95952" lon="0.43437">
        <ele>133</ele>
        <time>2023-07-04T07:35:39Z</time>
      </trkpt>
      <trkpt lat="43.95952" lon="0.43439">
        <ele>133.4</ele>
        <time>2023-07-04T07:35:41Z</time>
      </trkpt>
      <trkpt lat="43.95951" lon="0.43444">
        <ele>134.2</ele>
        <time>2023-07-04T07:35:45Z</time>
      </trkpt>
      <trkpt lat="43.95952" lon="0.43448">
        <ele>134.4</ele>
        <time>2023-07-04T07:35:48Z</time>
      </trkpt>
      <trkpt lat="43.95953" lon="0.43453">
        <ele>135.2</ele>
        <time>2023-07-04T07:35:51Z</time>
      </trkpt>
      <trkpt lat="43.95951" lon="0.43457">
        <ele>135.6</ele>
        <time>2023-07-04T07:35:53Z</time>
      </trkpt>
      <trkpt lat="43.95951" lon="0.43461">
        <ele>135.6</ele>
        <time>2023-07-04T07:35:55Z</time>
      </trkpt>
      <trkpt lat="43.9595" lon="0.43465">
        <ele>136.2</ele>
        <time>2023-07-04T07:35:57Z</time>
      </trkpt>
      <trkpt lat="43.95951" lon="0.43467">
        <ele>136.4</ele>
        <time>2023-07-04T07:35:58Z</time>
      </trkpt>
      <trkpt lat="43.95952" lon="0.43471">
        <ele>136.8</ele>
        <time>2023-07-04T07:36:01Z</time>
      </trkpt>
      <trkpt lat="43.95952" lon="0.43472">
        <ele>137</ele>
        <time>2023-07-04T07:36:03Z</time>
      </trkpt>
      <trkpt lat="43.95952" lon="0.43474">
        <ele>137.2</ele>
        <time>2023-07-04T07:36:04Z</time>
      </trkpt>
      <trkpt lat="43.95952" lon="0.43476">
        <ele>137.4</ele>
        <time>2023-07-04T07:36:06Z</time>
      </trkpt>
      <trkpt lat="43.95954" lon="0.43481">
        <ele>138</ele>
        <time>2023-07-04T07:36:11Z</time>
      </trkpt>
      <trkpt lat="43.95955" lon="0.43483">
        <ele>138.2</ele>
        <time>2023-07-04T07:36:12Z</time>
      </trkpt>
      <trkpt lat="43.95955" lon="0.43487">
        <ele>138.4</ele>
        <time>2023-07-04T07:36:16Z</time>
      </trkpt>
      <trkpt lat="43.95955" lon="0.43491">
        <ele>139</ele>
        <time>2023-07-04T07:36:20Z</time>
      </trkpt>
      <trkpt lat="43.95954" lon="0.43492">
        <ele>139</ele>
        <time>2023-07-04T07:36:21Z</time>
      </trkpt>
      <trkpt lat="43.95953" lon="0.43496">
        <ele>139.4</ele>
        <time>2023-07-04T07:36:23Z</time>
      </trkpt>
      <trkpt lat="43.95949" lon="0.43505">
        <ele>140.4</ele>
        <time>2023-07-04T07:36:29Z</time>
      </trkpt>
      <trkpt lat="43.95949" lon="0.43507">
        <ele>140.6</ele>
        <time>2023-07-04T07:36:30Z</time>
      </trkpt>
      <trkpt lat="43.95947" lon="0.43512">
        <ele>141.2</ele>
        <time>2023-07-04T07:36:35Z</time>
      </trkpt>
      <trkpt lat="43.95947" lon="0.43514">
        <ele>141.4</ele>
        <time>2023-07-04T07:36:37Z</time>
      </trkpt>
      <trkpt lat="43.95946" lon="0.43515">
        <ele>141.8</ele>
        <time>2023-07-04T07:36:38Z</time>
      </trkpt>
      <trkpt lat="43.95945" lon="0.43522">
        <ele>142.6</ele>
        <time>2023-07-04T07:36:42Z</time>
      </trkpt>
      <trkpt lat="43.95942" lon="0.43526">
        <ele>142.8</ele>
        <time>2023-07-04T07:36:45Z</time>
      </trkpt>
      <trkpt lat="43.95942" lon="0.43527">
        <ele>142.8</ele>
        <time>2023-07-04T07:36:46Z</time>
      </trkpt>
      <trkpt lat="43.95941" lon="0.43529">
        <ele>143</ele>
        <time>2023-07-04T07:36:48Z</time>
      </trkpt>
      <trkpt lat="43.9594" lon="0.4353">
        <ele>143</ele>
        <time>2023-07-04T07:36:49Z</time>
      </trkpt>
      <trkpt lat="43.9594" lon="0.43532">
        <ele>143.2</ele>
        <time>2023-07-04T07:36:50Z</time>
      </trkpt>
      <trkpt lat="43.95939" lon="0.43535">
        <ele>143.4</ele>
        <time>2023-07-04T07:36:51Z</time>
      </trkpt>
      <trkpt lat="43.95938" lon="0.43541">
        <ele>143.6</ele>
        <time>2023-07-04T07:36:54Z</time>
      </trkpt>
      <trkpt lat="43.95937" lon="0.43545">
        <ele>143.6</ele>
        <time>2023-07-04T07:36:56Z</time>
      </trkpt>
      <trkpt lat="43.95935" lon="0.43548">
        <ele>143.6</ele>
        <time>2023-07-04T07:36:59Z</time>
      </trkpt>
      <trkpt lat="43.95935" lon="0.43549">
        <ele>143.6</ele>
        <time>2023-07-04T07:37:00Z</time>
      </trkpt>
      <trkpt lat="43.95936" lon="0.43551">
        <ele>143.8</ele>
        <time>2023-07-04T07:37:02Z</time>
      </trkpt>
      <trkpt lat="43.95936" lon="0.43553">
        <ele>144</ele>
        <time>2023-07-04T07:37:03Z</time>
      </trkpt>
      <trkpt lat="43.95936" lon="0.43556">
        <ele>144</ele>
        <time>2023-07-04T07:37:05Z</time>
      </trkpt>
      <trkpt lat="43.95936" lon="0.43558">
        <ele>144.4</ele>
        <time>2023-07-04T07:37:07Z</time>
      </trkpt>
      <trkpt lat="43.95936" lon="0.43563">
        <ele>144.4</ele>
        <time>2023-07-04T07:37:11Z</time>
      </trkpt>
      <trkpt lat="43.95936" lon="0.43566">
        <ele>144.4</ele>
        <time>2023-07-04T07:37:14Z</time>
      </trkpt>
      <trkpt lat="43.95936" lon="0.43568">
        <ele>144.4</ele>
        <time>2023-07-04T07:37:15Z</time>
      </trkpt>
      <trkpt lat="43.95936" lon="0.4357">
        <ele>144.4</ele>
        <time>2023-07-04T07:37:17Z</time>
      </trkpt>
      <trkpt lat="43.95936" lon="0.43572">
        <ele>144.6</ele>
        <time>2023-07-04T07:37:19Z</time>
      </trkpt>
      <trkpt lat="43.95935" lon="0.43575">
        <ele>144.6</ele>
        <time>2023-07-04T07:37:21Z</time>
      </trkpt>
      <trkpt lat="43.95935" lon="0.43577">
        <ele>144.8</ele>
        <time>2023-07-04T07:37:22Z</time>
      </trkpt>
      <trkpt lat="43.95935" lon="0.43579">
        <ele>145.2</ele>
        <time>2023-07-04T07:37:23Z</time>
      </trkpt>
      <trkpt lat="43.95937" lon="0.43583">
        <ele>145.4</ele>
        <time>2023-07-04T07:37:26Z</time>
      </trkpt>
      <trkpt lat="43.95936" lon="0.43584">
        <ele>145.4</ele>
        <time>2023-07-04T07:37:27Z</time>
      </trkpt>
      <trkpt lat="43.95936" lon="0.43585">
        <ele>145.4</ele>
        <time>2023-07-04T07:37:28Z</time>
      </trkpt>
      <trkpt lat="43.95935" lon="0.43588">
        <ele>145.4</ele>
        <time>2023-07-04T07:37:30Z</time>
      </trkpt>
      <trkpt lat="43.95934" lon="0.4359">
        <ele>145.4</ele>
        <time>2023-07-04T07:37:33Z</time>
      </trkpt>
      <trkpt lat="43.95933" lon="0.43592">
        <ele>145.4</ele>
        <time>2023-07-04T07:37:36Z</time>
      </trkpt>
      <trkpt lat="43.95934" lon="0.43593">
        <ele>145.4</ele>
        <time>2023-07-04T07:37:37Z</time>
      </trkpt>
      <trkpt lat="43.95931" lon="0.43602">
        <ele>145.4</ele>
        <time>2023-07-04T07:37:42Z</time>
      </trkpt>
      <trkpt lat="43.95928" lon="0.43615">
        <ele>145.4</ele>
        <time>2023-07-04T07:37:49Z</time>
      </trkpt>
      <trkpt lat="43.95925" lon="0.43621">
        <ele>145.4</ele>
        <time>2023-07-04T07:37:53Z</time>
      </trkpt>
      <trkpt lat="43.95925" lon="0.43624">
        <ele>145.2</ele>
        <time>2023-07-04T07:37:55Z</time>
      </trkpt>
      <trkpt lat="43.95924" lon="0.43632">
        <ele>145.4</ele>
        <time>2023-07-04T07:38:00Z</time>
      </trkpt>
      <trkpt lat="43.95921" lon="0.43635">
        <ele>145.6</ele>
        <time>2023-07-04T07:38:03Z</time>
      </trkpt>
      <trkpt lat="43.9592" lon="0.43637">
        <ele>145.6</ele>
        <time>2023-07-04T07:38:04Z</time>
      </trkpt>
      <trkpt lat="43.95917" lon="0.43642">
        <ele>145.8</ele>
        <time>2023-07-04T07:38:07Z</time>
      </trkpt>
      <trkpt lat="43.95916" lon="0.43647">
        <ele>146.4</ele>
        <time>2023-07-04T07:38:10Z</time>
      </trkpt>
      <trkpt lat="43.95915" lon="0.43651">
        <ele>146.6</ele>
        <time>2023-07-04T07:38:13Z</time>
      </trkpt>
      <trkpt lat="43.95914" lon="0.43654">
        <ele>146.8</ele>
        <time>2023-07-04T07:38:15Z</time>
      </trkpt>
      <trkpt lat="43.95913" lon="0.43659">
        <ele>147</ele>
        <time>2023-07-04T07:38:18Z</time>
      </trkpt>
      <trkpt lat="43.95912" lon="0.43662">
        <ele>147.4</ele>
        <time>2023-07-04T07:38:20Z</time>
      </trkpt>
      <trkpt lat="43.95912" lon="0.43664">
        <ele>147.6</ele>
        <time>2023-07-04T07:38:21Z</time>
      </trkpt>
      <trkpt lat="43.95911" lon="0.43669">
        <ele>147.6</ele>
        <time>2023-07-04T07:38:24Z</time>
      </trkpt>
      <trkpt lat="43.95909" lon="0.4368">
        <ele>147.4</ele>
        <time>2023-07-04T07:38:30Z</time>
      </trkpt>
      <trkpt lat="43.95908" lon="0.43684">
        <ele>147.4</ele>
        <time>2023-07-04T07:38:32Z</time>
      </trkpt>
      <trkpt lat="43.95909" lon="0.43695">
        <ele>147.6</ele>
        <time>2023-07-04T07:38:40Z</time>
      </trkpt>
      <trkpt lat="43.95909" lon="0.43706">
        <ele>148</ele>
        <time>2023-07-04T07:38:46Z</time>
      </trkpt>
      <trkpt lat="43.95908" lon="0.43712">
        <ele>148</ele>
        <time>2023-07-04T07:38:49Z</time>
      </trkpt>
      <trkpt lat="43.95908" lon="0.43721">
        <ele>148.2</ele>
        <time>2023-07-04T07:38:53Z</time>
      </trkpt>
      <trkpt lat="43.9591" lon="0.43738">
        <ele>148</ele>
        <time>2023-07-04T07:39:01Z</time>
      </trkpt>
      <trkpt lat="43.95911" lon="0.43745">
        <ele>148.4</ele>
        <time>2023-07-04T07:39:05Z</time>
      </trkpt>
      <trkpt lat="43.95912" lon="0.4376">
        <ele>148.2</ele>
        <time>2023-07-04T07:39:13Z</time>
      </trkpt>
      <trkpt lat="43.95912" lon="0.4377">
        <ele>148.6</ele>
        <time>2023-07-04T07:39:19Z</time>
      </trkpt>
      <trkpt lat="43.95912" lon="0.43777">
        <ele>148.8</ele>
        <time>2023-07-04T07:39:23Z</time>
      </trkpt>
      <trkpt lat="43.95912" lon="0.43781">
        <ele>149.4</ele>
        <time>2023-07-04T07:39:25Z</time>
      </trkpt>
      <trkpt lat="43.95912" lon="0.43782">
        <ele>149.6</ele>
        <time>2023-07-04T07:39:26Z</time>
      </trkpt>
      <trkpt lat="43.95912" lon="0.43797">
        <ele>150</ele>
        <time>2023-07-04T07:39:35Z</time>
      </trkpt>
      <trkpt lat="43.95913" lon="0.43808">
        <ele>150.4</ele>
        <time>2023-07-04T07:39:41Z</time>
      </trkpt>
      <trkpt lat="43.95913" lon="0.43809">
        <ele>150.4</ele>
        <time>2023-07-04T07:39:42Z</time>
      </trkpt>
      <trkpt lat="43.95913" lon="0.43809">
        <ele>150.4</ele>
        <time>2023-07-04T07:39:43Z</time>
      </trkpt>
      <trkpt lat="43.95912" lon="0.43815">
        <ele>152.6</ele>
        <time>2023-07-04T07:54:38Z</time>
      </trkpt>
      <trkpt lat="43.95912" lon="0.43816">
        <ele>152.6</ele>
        <time>2023-07-04T07:54:39Z</time>
      </trkpt>
      <trkpt lat="43.95912" lon="0.43819">
        <ele>153.8</ele>
        <time>2023-07-04T07:54:41Z</time>
      </trkpt>
      <trkpt lat="43.95912" lon="0.43821">
        <ele>154.6</ele>
        <time>2023-07-04T07:54:42Z</time>
      </trkpt>
      <trkpt lat="43.95913" lon="0.43823">
        <ele>155</ele>
        <time>2023-07-04T07:54:43Z</time>
      </trkpt>
      <trkpt lat="43.95914" lon="0.43825">
        <ele>155.4</ele>
        <time>2023-07-04T07:54:44Z</time>
      </trkpt>
      <trkpt lat="43.95915" lon="0.43832">
        <ele>156.2</ele>
        <time>2023-07-04T07:54:47Z</time>
      </trkpt>
      <trkpt lat="43.95914" lon="0.43837">
        <ele>156.2</ele>
        <time>2023-07-04T07:54:50Z</time>
      </trkpt>
      <trkpt lat="43.95915" lon="0.43841">
        <ele>156.2</ele>
        <time>2023-07-04T07:54:52Z</time>
      </trkpt>
      <trkpt lat="43.95914" lon="0.43846">
        <ele>156.2</ele>
        <time>2023-07-04T07:54:55Z</time>
      </trkpt>
      <trkpt lat="43.95915" lon="0.43848">
        <ele>156.4</ele>
        <time>2023-07-04T07:54:56Z</time>
      </trkpt>
      <trkpt lat="43.95915" lon="0.43852">
        <ele>156.4</ele>
        <time>2023-07-04T07:54:58Z</time>
      </trkpt>
      <trkpt lat="43.95916" lon="0.43862">
        <ele>156.2</ele>
        <time>2023-07-04T07:55:04Z</time>
      </trkpt>
      <trkpt lat="43.95916" lon="0.43864">
        <ele>156.2</ele>
        <time>2023-07-04T07:55:05Z</time>
      </trkpt>
      <trkpt lat="43.95917" lon="0.43877">
        <ele>157</ele>
        <time>2023-07-04T07:55:12Z</time>
      </trkpt>
      <trkpt lat="43.95918" lon="0.43885">
        <ele>157.2</ele>
        <time>2023-07-04T07:55:16Z</time>
      </trkpt>
      <trkpt lat="43.95918" lon="0.4389">
        <ele>157</ele>
        <time>2023-07-04T07:55:19Z</time>
      </trkpt>
      <trkpt lat="43.95919" lon="0.43892">
        <ele>157</ele>
        <time>2023-07-04T07:55:20Z</time>
      </trkpt>
      <trkpt lat="43.95919" lon="0.43904">
        <ele>157.6</ele>
        <time>2023-07-04T07:55:27Z</time>
      </trkpt>
      <trkpt lat="43.95919" lon="0.43906">
        <ele>157.8</ele>
        <time>2023-07-04T07:55:28Z</time>
      </trkpt>
      <trkpt lat="43.95919" lon="0.43913">
        <ele>158.2</ele>
        <time>2023-07-04T07:55:32Z</time>
      </trkpt>
      <trkpt lat="43.95919" lon="0.43915">
        <ele>158.4</ele>
        <time>2023-07-04T07:55:33Z</time>
      </trkpt>
      <trkpt lat="43.9592" lon="0.43929">
        <ele>159</ele>
        <time>2023-07-04T07:55:40Z</time>
      </trkpt>
      <trkpt lat="43.95922" lon="0.43941">
        <ele>159.2</ele>
        <time>2023-07-04T07:55:47Z</time>
      </trkpt>
      <trkpt lat="43.95922" lon="0.43944">
        <ele>159.4</ele>
        <time>2023-07-04T07:55:49Z</time>
      </trkpt>
      <trkpt lat="43.95922" lon="0.43956">
        <ele>160</ele>
        <time>2023-07-04T07:55:56Z</time>
      </trkpt>
      <trkpt lat="43.95922" lon="0.43958">
        <ele>160.2</ele>
        <time>2023-07-04T07:55:57Z</time>
      </trkpt>
      <trkpt lat="43.95923" lon="0.4396">
        <ele>160.2</ele>
        <time>2023-07-04T07:55:58Z</time>
      </trkpt>
      <trkpt lat="43.95923" lon="0.43962">
        <ele>160.4</ele>
        <time>2023-07-04T07:55:59Z</time>
      </trkpt>
      <trkpt lat="43.95923" lon="0.43968">
        <ele>160.4</ele>
        <time>2023-07-04T07:56:03Z</time>
      </trkpt>
      <trkpt lat="43.95923" lon="0.4397">
        <ele>160.8</ele>
        <time>2023-07-04T07:56:04Z</time>
      </trkpt>
      <trkpt lat="43.95923" lon="0.43972">
        <ele>160.8</ele>
        <time>2023-07-04T07:56:05Z</time>
      </trkpt>
      <trkpt lat="43.95925" lon="0.43979">
        <ele>161.4</ele>
        <time>2023-07-04T07:56:09Z</time>
      </trkpt>
      <trkpt lat="43.95925" lon="0.43983">
        <ele>161.4</ele>
        <time>2023-07-04T07:56:11Z</time>
      </trkpt>
      <trkpt lat="43.95926" lon="0.43984">
        <ele>161.6</ele>
        <time>2023-07-04T07:56:12Z</time>
      </trkpt>
      <trkpt lat="43.95927" lon="0.43996">
        <ele>162.4</ele>
        <time>2023-07-04T07:56:19Z</time>
      </trkpt>
      <trkpt lat="43.95926" lon="0.43999">
        <ele>162.4</ele>
        <time>2023-07-04T07:56:21Z</time>
      </trkpt>
      <trkpt lat="43.95927" lon="0.44007">
        <ele>162.8</ele>
        <time>2023-07-04T07:56:26Z</time>
      </trkpt>
      <trkpt lat="43.95927" lon="0.44009">
        <ele>163</ele>
        <time>2023-07-04T07:56:27Z</time>
      </trkpt>
      <trkpt lat="43.95927" lon="0.44015">
        <ele>163.2</ele>
        <time>2023-07-04T07:56:31Z</time>
      </trkpt>
      <trkpt lat="43.95926" lon="0.44021">
        <ele>163.6</ele>
        <time>2023-07-04T07:56:34Z</time>
      </trkpt>
      <trkpt lat="43.95926" lon="0.44023">
        <ele>163.8</ele>
        <time>2023-07-04T07:56:35Z</time>
      </trkpt>
      <trkpt lat="43.95926" lon="0.44033">
        <ele>164.4</ele>
        <time>2023-07-04T07:56:41Z</time>
      </trkpt>
      <trkpt lat="43.95926" lon="0.44035">
        <ele>164.6</ele>
        <time>2023-07-04T07:56:42Z</time>
      </trkpt>
      <trkpt lat="43.95931" lon="0.44049">
        <ele>165.6</ele>
        <time>2023-07-04T07:56:50Z</time>
      </trkpt>
      <trkpt lat="43.95931" lon="0.44051">
        <ele>166</ele>
        <time>2023-07-04T07:56:51Z</time>
      </trkpt>
      <trkpt lat="43.95929" lon="0.44054">
        <ele>166.2</ele>
        <time>2023-07-04T07:56:53Z</time>
      </trkpt>
      <trkpt lat="43.95927" lon="0.44059">
        <ele>166.6</ele>
        <time>2023-07-04T07:56:56Z</time>
      </trkpt>
      <trkpt lat="43.95932" lon="0.44068">
        <ele>166.8</ele>
        <time>2023-07-04T07:57:03Z</time>
      </trkpt>
      <trkpt lat="43.95934" lon="0.44067">
        <ele>167</ele>
        <time>2023-07-04T07:57:04Z</time>
      </trkpt>
      <trkpt lat="43.95939" lon="0.44061">
        <ele>167.2</ele>
        <time>2023-07-04T07:57:08Z</time>
      </trkpt>
      <trkpt lat="43.95945" lon="0.44055">
        <ele>167.2</ele>
        <time>2023-07-04T07:57:13Z</time>
      </trkpt>
      <trkpt lat="43.95948" lon="0.44053">
        <ele>167.2</ele>
        <time>2023-07-04T07:57:15Z</time>
      </trkpt>
      <trkpt lat="43.95953" lon="0.4405">
        <ele>167.2</ele>
        <time>2023-07-04T07:57:19Z</time>
      </trkpt>
      <trkpt lat="43.9596" lon="0.44045">
        <ele>167.2</ele>
        <time>2023-07-04T07:57:25Z</time>
      </trkpt>
      <trkpt lat="43.95966" lon="0.44041">
        <ele>167.2</ele>
        <time>2023-07-04T07:57:30Z</time>
      </trkpt>
      <trkpt lat="43.9598" lon="0.44037">
        <ele>166.8</ele>
        <time>2023-07-04T07:57:39Z</time>
      </trkpt>
      <trkpt lat="43.95993" lon="0.44036">
        <ele>166.6</ele>
        <time>2023-07-04T07:57:47Z</time>
      </trkpt>
      <trkpt lat="43.96004" lon="0.44033">
        <ele>166.8</ele>
        <time>2023-07-04T07:57:55Z</time>
      </trkpt>
      <trkpt lat="43.96015" lon="0.44031">
        <ele>166.8</ele>
        <time>2023-07-04T07:58:03Z</time>
      </trkpt>
      <trkpt lat="43.96027" lon="0.44027">
        <ele>166.8</ele>
        <time>2023-07-04T07:58:13Z</time>
      </trkpt>
      <trkpt lat="43.96034" lon="0.44025">
        <ele>167.2</ele>
        <time>2023-07-04T07:58:18Z</time>
      </trkpt>
      <trkpt lat="43.96039" lon="0.44024">
        <ele>167</ele>
        <time>2023-07-04T07:58:21Z</time>
      </trkpt>
      <trkpt lat="43.9605" lon="0.4402">
        <ele>167.4</ele>
        <time>2023-07-04T07:58:30Z</time>
      </trkpt>
      <trkpt lat="43.96057" lon="0.4402">
        <ele>167.4</ele>
        <time>2023-07-04T07:58:34Z</time>
      </trkpt>
      <trkpt lat="43.96062" lon="0.44019">
        <ele>167.4</ele>
        <time>2023-07-04T07:58:38Z</time>
      </trkpt>
      <trkpt lat="43.96066" lon="0.44018">
        <ele>167.4</ele>
        <time>2023-07-04T07:58:41Z</time>
      </trkpt>
      <trkpt lat="43.96075" lon="0.44016">
        <ele>167.4</ele>
        <time>2023-07-04T07:58:47Z</time>
      </trkpt>
      <trkpt lat="43.96076" lon="0.44016">
        <ele>167.4</ele>
        <time>2023-07-04T07:58:48Z</time>
      </trkpt>
      <trkpt lat="43.96078" lon="0.44016">
        <ele>167.2</ele>
        <time>2023-07-04T07:58:49Z</time>
      </trkpt>
      <trkpt lat="43.96085" lon="0.4402">
        <ele>167</ele>
        <time>2023-07-04T07:58:54Z</time>
      </trkpt>
      <trkpt lat="43.96092" lon="0.4402">
        <ele>166.6</ele>
        <time>2023-07-04T07:58:58Z</time>
      </trkpt>
      <trkpt lat="43.96094" lon="0.44021">
        <ele>166.4</ele>
        <time>2023-07-04T07:59:00Z</time>
      </trkpt>
      <trkpt lat="43.96102" lon="0.44022">
        <ele>166.4</ele>
        <time>2023-07-04T07:59:06Z</time>
      </trkpt>
      <trkpt lat="43.96111" lon="0.44022">
        <ele>165.8</ele>
        <time>2023-07-04T07:59:12Z</time>
      </trkpt>
      <trkpt lat="43.96116" lon="0.44024">
        <ele>165.6</ele>
        <time>2023-07-04T07:59:15Z</time>
      </trkpt>
      <trkpt lat="43.9612" lon="0.44024">
        <ele>165.4</ele>
        <time>2023-07-04T07:59:18Z</time>
      </trkpt>
      <trkpt lat="43.96126" lon="0.44025">
        <ele>165.2</ele>
        <time>2023-07-04T07:59:22Z</time>
      </trkpt>
      <trkpt lat="43.96131" lon="0.44026">
        <ele>164.8</ele>
        <time>2023-07-04T07:59:26Z</time>
      </trkpt>
      <trkpt lat="43.96137" lon="0.44028">
        <ele>163.8</ele>
        <time>2023-07-04T07:59:30Z</time>
      </trkpt>
      <trkpt lat="43.96139" lon="0.44028">
        <ele>163.6</ele>
        <time>2023-07-04T07:59:31Z</time>
      </trkpt>
      <trkpt lat="43.96145" lon="0.4403">
        <ele>163.4</ele>
        <time>2023-07-04T07:59:35Z</time>
      </trkpt>
      <trkpt lat="43.9615" lon="0.44032">
        <ele>163.4</ele>
        <time>2023-07-04T07:59:38Z</time>
      </trkpt>
      <trkpt lat="43.96158" lon="0.44035">
        <ele>163.2</ele>
        <time>2023-07-04T07:59:44Z</time>
      </trkpt>
      <trkpt lat="43.96166" lon="0.44037">
        <ele>162.6</ele>
        <time>2023-07-04T07:59:50Z</time>
      </trkpt>
      <trkpt lat="43.96167" lon="0.44037">
        <ele>162.6</ele>
        <time>2023-07-04T07:59:51Z</time>
      </trkpt>
      <trkpt lat="43.96176" lon="0.4404">
        <ele>162.4</ele>
        <time>2023-07-04T07:59:57Z</time>
      </trkpt>
      <trkpt lat="43.96183" lon="0.44042">
        <ele>162.2</ele>
        <time>2023-07-04T08:00:02Z</time>
      </trkpt>
      <trkpt lat="43.96184" lon="0.44043">
        <ele>162.2</ele>
        <time>2023-07-04T08:00:03Z</time>
      </trkpt>
      <trkpt lat="43.96186" lon="0.44043">
        <ele>162.2</ele>
        <time>2023-07-04T08:00:04Z</time>
      </trkpt>
      <trkpt lat="43.96197" lon="0.44047">
        <ele>162.6</ele>
        <time>2023-07-04T08:00:12Z</time>
      </trkpt>
      <trkpt lat="43.962" lon="0.44048">
        <ele>162.6</ele>
        <time>2023-07-04T08:00:15Z</time>
      </trkpt>
      <trkpt lat="43.96205" lon="0.44051">
        <ele>162.6</ele>
        <time>2023-07-04T08:00:19Z</time>
      </trkpt>
      <trkpt lat="43.9621" lon="0.44053">
        <ele>162.6</ele>
        <time>2023-07-04T08:00:22Z</time>
      </trkpt>
      <trkpt lat="43.96216" lon="0.44053">
        <ele>162.8</ele>
        <time>2023-07-04T08:00:26Z</time>
      </trkpt>
      <trkpt lat="43.96226" lon="0.44055">
        <ele>163</ele>
        <time>2023-07-04T08:00:33Z</time>
      </trkpt>
      <trkpt lat="43.96227" lon="0.44055">
        <ele>163</ele>
        <time>2023-07-04T08:00:34Z</time>
      </trkpt>
      <trkpt lat="43.96235" lon="0.44058">
        <ele>162.8</ele>
        <time>2023-07-04T08:00:39Z</time>
      </trkpt>
      <trkpt lat="43.96237" lon="0.44059">
        <ele>163.2</ele>
        <time>2023-07-04T08:00:41Z</time>
      </trkpt>
      <trkpt lat="43.96247" lon="0.44062">
        <ele>163.4</ele>
        <time>2023-07-04T08:00:48Z</time>
      </trkpt>
      <trkpt lat="43.96255" lon="0.44064">
        <ele>163.6</ele>
        <time>2023-07-04T08:00:53Z</time>
      </trkpt>
      <trkpt lat="43.96268" lon="0.44067">
        <ele>164.6</ele>
        <time>2023-07-04T08:01:03Z</time>
      </trkpt>
      <trkpt lat="43.9627" lon="0.44067">
        <ele>164.8</ele>
        <time>2023-07-04T08:01:05Z</time>
      </trkpt>
      <trkpt lat="43.96272" lon="0.44067">
        <ele>164.8</ele>
        <time>2023-07-04T08:01:07Z</time>
      </trkpt>
      <trkpt lat="43.96278" lon="0.44069">
        <ele>165.2</ele>
        <time>2023-07-04T08:01:12Z</time>
      </trkpt>
      <trkpt lat="43.96285" lon="0.44072">
        <ele>165.8</ele>
        <time>2023-07-04T08:01:17Z</time>
      </trkpt>
      <trkpt lat="43.96286" lon="0.44072">
        <ele>166</ele>
        <time>2023-07-04T08:01:18Z</time>
      </trkpt>
      <trkpt lat="43.96289" lon="0.44073">
        <ele>166.2</ele>
        <time>2023-07-04T08:01:20Z</time>
      </trkpt>
      <trkpt lat="43.96296" lon="0.44075">
        <ele>166.6</ele>
        <time>2023-07-04T08:01:25Z</time>
      </trkpt>
      <trkpt lat="43.96299" lon="0.44076">
        <ele>166.8</ele>
        <time>2023-07-04T08:01:28Z</time>
      </trkpt>
      <trkpt lat="43.96302" lon="0.44078">
        <ele>167</ele>
        <time>2023-07-04T08:01:31Z</time>
      </trkpt>
      <trkpt lat="43.96304" lon="0.44078">
        <ele>167</ele>
        <time>2023-07-04T08:01:32Z</time>
      </trkpt>
      <trkpt lat="43.96307" lon="0.44079">
        <ele>167.2</ele>
        <time>2023-07-04T08:01:35Z</time>
      </trkpt>
      <trkpt lat="43.96309" lon="0.4408">
        <ele>167.2</ele>
        <time>2023-07-04T08:01:37Z</time>
      </trkpt>
      <trkpt lat="43.96314" lon="0.4408">
        <ele>167.6</ele>
        <time>2023-07-04T08:01:41Z</time>
      </trkpt>
      <trkpt lat="43.96315" lon="0.44081">
        <ele>167.8</ele>
        <time>2023-07-04T08:01:42Z</time>
      </trkpt>
      <trkpt lat="43.96317" lon="0.44081">
        <ele>168.2</ele>
        <time>2023-07-04T08:01:43Z</time>
      </trkpt>
      <trkpt lat="43.96323" lon="0.44084">
        <ele>168.4</ele>
        <time>2023-07-04T08:01:48Z</time>
      </trkpt>
      <trkpt lat="43.96325" lon="0.44085">
        <ele>168.4</ele>
        <time>2023-07-04T08:01:49Z</time>
      </trkpt>
      <trkpt lat="43.96333" lon="0.4409">
        <ele>169</ele>
        <time>2023-07-04T08:01:55Z</time>
      </trkpt>
      <trkpt lat="43.96336" lon="0.44092">
        <ele>169.2</ele>
        <time>2023-07-04T08:01:57Z</time>
      </trkpt>
      <trkpt lat="43.96342" lon="0.44095">
        <ele>169.2</ele>
        <time>2023-07-04T08:02:01Z</time>
      </trkpt>
      <trkpt lat="43.96351" lon="0.441">
        <ele>170</ele>
        <time>2023-07-04T08:02:08Z</time>
      </trkpt>
      <trkpt lat="43.96354" lon="0.44102">
        <ele>170.2</ele>
        <time>2023-07-04T08:02:10Z</time>
      </trkpt>
      <trkpt lat="43.96358" lon="0.44104">
        <ele>170.2</ele>
        <time>2023-07-04T08:02:14Z</time>
      </trkpt>
      <trkpt lat="43.96368" lon="0.44108">
        <ele>170</ele>
        <time>2023-07-04T08:02:21Z</time>
      </trkpt>
      <trkpt lat="43.96372" lon="0.44111">
        <ele>169.8</ele>
        <time>2023-07-04T08:02:24Z</time>
      </trkpt>
      <trkpt lat="43.96377" lon="0.44113">
        <ele>169.2</ele>
        <time>2023-07-04T08:02:28Z</time>
      </trkpt>
      <trkpt lat="43.96379" lon="0.44114">
        <ele>169</ele>
        <time>2023-07-04T08:02:29Z</time>
      </trkpt>
      <trkpt lat="43.96386" lon="0.44119">
        <ele>169.2</ele>
        <time>2023-07-04T08:02:35Z</time>
      </trkpt>
      <trkpt lat="43.96389" lon="0.44123">
        <ele>169</ele>
        <time>2023-07-04T08:02:39Z</time>
      </trkpt>
      <trkpt lat="43.96392" lon="0.44128">
        <ele>168.8</ele>
        <time>2023-07-04T08:02:42Z</time>
      </trkpt>
      <trkpt lat="43.96395" lon="0.44137">
        <ele>168.6</ele>
        <time>2023-07-04T08:02:48Z</time>
      </trkpt>
      <trkpt lat="43.96395" lon="0.44141">
        <ele>168.6</ele>
        <time>2023-07-04T08:02:50Z</time>
      </trkpt>
      <trkpt lat="43.96394" lon="0.44143">
        <ele>168.4</ele>
        <time>2023-07-04T08:02:51Z</time>
      </trkpt>
      <trkpt lat="43.9639" lon="0.44151">
        <ele>168.2</ele>
        <time>2023-07-04T08:02:55Z</time>
      </trkpt>
      <trkpt lat="43.96387" lon="0.44154">
        <ele>167.8</ele>
        <time>2023-07-04T08:02:57Z</time>
      </trkpt>
      <trkpt lat="43.96385" lon="0.4416">
        <ele>167.6</ele>
        <time>2023-07-04T08:03:00Z</time>
      </trkpt>
      <trkpt lat="43.96384" lon="0.44164">
        <ele>167.2</ele>
        <time>2023-07-04T08:03:02Z</time>
      </trkpt>
      <trkpt lat="43.96382" lon="0.44172">
        <ele>166.8</ele>
        <time>2023-07-04T08:03:06Z</time>
      </trkpt>
      <trkpt lat="43.96381" lon="0.44174">
        <ele>166.8</ele>
        <time>2023-07-04T08:03:07Z</time>
      </trkpt>
      <trkpt lat="43.9638" lon="0.44175">
        <ele>166.8</ele>
        <time>2023-07-04T08:03:08Z</time>
      </trkpt>
      <trkpt lat="43.96378" lon="0.44181">
        <ele>166.8</ele>
        <time>2023-07-04T08:03:12Z</time>
      </trkpt>
      <trkpt lat="43.96377" lon="0.44183">
        <ele>166.6</ele>
        <time>2023-07-04T08:03:14Z</time>
      </trkpt>
      <trkpt lat="43.96367" lon="0.44197">
        <ele>166.4</ele>
        <time>2023-07-04T08:03:23Z</time>
      </trkpt>
      <trkpt lat="43.96365" lon="0.442">
        <ele>166.4</ele>
        <time>2023-07-04T08:03:25Z</time>
      </trkpt>
      <trkpt lat="43.96359" lon="0.44209">
        <ele>166.4</ele>
        <time>2023-07-04T08:03:31Z</time>
      </trkpt>
      <trkpt lat="43.96354" lon="0.44218">
        <ele>166</ele>
        <time>2023-07-04T08:03:36Z</time>
      </trkpt>
      <trkpt lat="43.96352" lon="0.44221">
        <ele>165.8</ele>
        <time>2023-07-04T08:03:38Z</time>
      </trkpt>
      <trkpt lat="43.96351" lon="0.44224">
        <ele>165.6</ele>
        <time>2023-07-04T08:03:40Z</time>
      </trkpt>
      <trkpt lat="43.9635" lon="0.44227">
        <ele>165.6</ele>
        <time>2023-07-04T08:03:42Z</time>
      </trkpt>
      <trkpt lat="43.96348" lon="0.44236">
        <ele>165.2</ele>
        <time>2023-07-04T08:03:46Z</time>
      </trkpt>
      <trkpt lat="43.96346" lon="0.44245">
        <ele>164.8</ele>
        <time>2023-07-04T08:03:50Z</time>
      </trkpt>
      <trkpt lat="43.96346" lon="0.44248">
        <ele>164.6</ele>
        <time>2023-07-04T08:03:52Z</time>
      </trkpt>
      <trkpt lat="43.96351" lon="0.44259">
        <ele>164.4</ele>
        <time>2023-07-04T08:03:59Z</time>
      </trkpt>
      <trkpt lat="43.96356" lon="0.4427">
        <ele>164.6</ele>
        <time>2023-07-04T08:04:06Z</time>
      </trkpt>
      <trkpt lat="43.96363" lon="0.4428">
        <ele>164.4</ele>
        <time>2023-07-04T08:04:13Z</time>
      </trkpt>
      <trkpt lat="43.96365" lon="0.44284">
        <ele>164.2</ele>
        <time>2023-07-04T08:04:15Z</time>
      </trkpt>
      <trkpt lat="43.96366" lon="0.44285">
        <ele>164.2</ele>
        <time>2023-07-04T08:04:16Z</time>
      </trkpt>
      <trkpt lat="43.96373" lon="0.44298">
        <ele>164</ele>
        <time>2023-07-04T08:04:24Z</time>
      </trkpt>
      <trkpt lat="43.96376" lon="0.44303">
        <ele>163.8</ele>
        <time>2023-07-04T08:04:28Z</time>
      </trkpt>
      <trkpt lat="43.9638" lon="0.44311">
        <ele>163.6</ele>
        <time>2023-07-04T08:04:33Z</time>
      </trkpt>
      <trkpt lat="43.96386" lon="0.44319">
        <ele>162.4</ele>
        <time>2023-07-04T08:04:39Z</time>
      </trkpt>
      <trkpt lat="43.96387" lon="0.44321">
        <ele>162.2</ele>
        <time>2023-07-04T08:04:40Z</time>
      </trkpt>
      <trkpt lat="43.96393" lon="0.44327">
        <ele>161.4</ele>
        <time>2023-07-04T08:04:45Z</time>
      </trkpt>
      <trkpt lat="43.96394" lon="0.44328">
        <ele>161.2</ele>
        <time>2023-07-04T08:04:46Z</time>
      </trkpt>
      <trkpt lat="43.964" lon="0.44338">
        <ele>161</ele>
        <time>2023-07-04T08:04:54Z</time>
      </trkpt>
      <trkpt lat="43.9641" lon="0.44347">
        <ele>160.4</ele>
        <time>2023-07-04T08:05:03Z</time>
      </trkpt>
      <trkpt lat="43.96417" lon="0.44353">
        <ele>159.2</ele>
        <time>2023-07-04T08:05:09Z</time>
      </trkpt>
      <trkpt lat="43.96418" lon="0.44354">
        <ele>159.2</ele>
        <time>2023-07-04T08:05:10Z</time>
      </trkpt>
      <trkpt lat="43.96424" lon="0.44362">
        <ele>158.2</ele>
        <time>2023-07-04T08:05:16Z</time>
      </trkpt>
      <trkpt lat="43.96426" lon="0.44363">
        <ele>158.2</ele>
        <time>2023-07-04T08:05:17Z</time>
      </trkpt>
      <trkpt lat="43.96428" lon="0.44365">
        <ele>158</ele>
        <time>2023-07-04T08:05:19Z</time>
      </trkpt>
      <trkpt lat="43.96431" lon="0.44367">
        <ele>157.8</ele>
        <time>2023-07-04T08:05:21Z</time>
      </trkpt>
      <trkpt lat="43.96438" lon="0.44373">
        <ele>157.6</ele>
        <time>2023-07-04T08:05:26Z</time>
      </trkpt>
      <trkpt lat="43.9644" lon="0.44375">
        <ele>157.6</ele>
        <time>2023-07-04T08:05:28Z</time>
      </trkpt>
      <trkpt lat="43.96443" lon="0.44377">
        <ele>157.2</ele>
        <time>2023-07-04T08:05:30Z</time>
      </trkpt>
      <trkpt lat="43.96448" lon="0.44382">
        <ele>156.4</ele>
        <time>2023-07-04T08:05:34Z</time>
      </trkpt>
      <trkpt lat="43.96449" lon="0.44383">
        <ele>156</ele>
        <time>2023-07-04T08:05:35Z</time>
      </trkpt>
      <trkpt lat="43.96457" lon="0.44395">
        <ele>156</ele>
        <time>2023-07-04T08:05:43Z</time>
      </trkpt>
      <trkpt lat="43.96458" lon="0.44397">
        <ele>155.8</ele>
        <time>2023-07-04T08:05:44Z</time>
      </trkpt>
      <trkpt lat="43.96459" lon="0.44401">
        <ele>155.4</ele>
        <time>2023-07-04T08:05:46Z</time>
      </trkpt>
      <trkpt lat="43.96462" lon="0.44412">
        <ele>155</ele>
        <time>2023-07-04T08:05:51Z</time>
      </trkpt>
      <trkpt lat="43.96462" lon="0.44418">
        <ele>154.6</ele>
        <time>2023-07-04T08:05:54Z</time>
      </trkpt>
      <trkpt lat="43.96462" lon="0.44422">
        <ele>154.6</ele>
        <time>2023-07-04T08:05:56Z</time>
      </trkpt>
      <trkpt lat="43.96461" lon="0.4443">
        <ele>154</ele>
        <time>2023-07-04T08:06:00Z</time>
      </trkpt>
      <trkpt lat="43.96459" lon="0.44436">
        <ele>153.8</ele>
        <time>2023-07-04T08:06:03Z</time>
      </trkpt>
      <trkpt lat="43.96456" lon="0.44449">
        <ele>153.4</ele>
        <time>2023-07-04T08:06:10Z</time>
      </trkpt>
      <trkpt lat="43.96454" lon="0.44464">
        <ele>153.4</ele>
        <time>2023-07-04T08:06:18Z</time>
      </trkpt>
      <trkpt lat="43.96454" lon="0.44476">
        <ele>153.4</ele>
        <time>2023-07-04T08:06:24Z</time>
      </trkpt>
      <trkpt lat="43.96454" lon="0.44479">
        <ele>153.4</ele>
        <time>2023-07-04T08:06:25Z</time>
      </trkpt>
      <trkpt lat="43.96454" lon="0.44487">
        <ele>153.2</ele>
        <time>2023-07-04T08:06:29Z</time>
      </trkpt>
      <trkpt lat="43.96454" lon="0.44491">
        <ele>153.2</ele>
        <time>2023-07-04T08:06:31Z</time>
      </trkpt>
      <trkpt lat="43.96455" lon="0.44498">
        <ele>153</ele>
        <time>2023-07-04T08:06:35Z</time>
      </trkpt>
      <trkpt lat="43.96455" lon="0.44504">
        <ele>153</ele>
        <time>2023-07-04T08:06:38Z</time>
      </trkpt>
      <trkpt lat="43.96455" lon="0.44506">
        <ele>153</ele>
        <time>2023-07-04T08:06:39Z</time>
      </trkpt>
      <trkpt lat="43.96454" lon="0.44517">
        <ele>153.2</ele>
        <time>2023-07-04T08:06:46Z</time>
      </trkpt>
      <trkpt lat="43.96453" lon="0.44525">
        <ele>153</ele>
        <time>2023-07-04T08:06:50Z</time>
      </trkpt>
      <trkpt lat="43.96452" lon="0.44531">
        <ele>152.8</ele>
        <time>2023-07-04T08:06:53Z</time>
      </trkpt>
      <trkpt lat="43.96451" lon="0.44533">
        <ele>152.8</ele>
        <time>2023-07-04T08:06:54Z</time>
      </trkpt>
      <trkpt lat="43.9645" lon="0.44537">
        <ele>153</ele>
        <time>2023-07-04T08:06:56Z</time>
      </trkpt>
      <trkpt lat="43.96448" lon="0.44547">
        <ele>153.2</ele>
        <time>2023-07-04T08:07:01Z</time>
      </trkpt>
      <trkpt lat="43.96448" lon="0.44549">
        <ele>153</ele>
        <time>2023-07-04T08:07:02Z</time>
      </trkpt>
      <trkpt lat="43.96446" lon="0.44561">
        <ele>152.8</ele>
        <time>2023-07-04T08:07:08Z</time>
      </trkpt>
      <trkpt lat="43.96446" lon="0.44563">
        <ele>152.8</ele>
        <time>2023-07-04T08:07:09Z</time>
      </trkpt>
      <trkpt lat="43.96444" lon="0.44569">
        <ele>152.8</ele>
        <time>2023-07-04T08:07:13Z</time>
      </trkpt>
      <trkpt lat="43.96441" lon="0.44576">
        <ele>152.8</ele>
        <time>2023-07-04T08:07:19Z</time>
      </trkpt>
      <trkpt lat="43.96439" lon="0.44575">
        <ele>154</ele>
        <time>2023-07-04T08:07:23Z</time>
      </trkpt>
      <trkpt lat="43.96432" lon="0.44569">
        <ele>154</ele>
        <time>2023-07-04T08:08:08Z</time>
      </trkpt>
      <trkpt lat="43.96433" lon="0.44571">
        <ele>154</ele>
        <time>2023-07-04T08:08:09Z</time>
      </trkpt>
      <trkpt lat="43.96434" lon="0.44574">
        <ele>154</ele>
        <time>2023-07-04T08:08:11Z</time>
      </trkpt>
      <trkpt lat="43.96435" lon="0.44574">
        <ele>154.2</ele>
        <time>2023-07-04T08:08:12Z</time>
      </trkpt>
      <trkpt lat="43.96439" lon="0.44576">
        <ele>154.4</ele>
        <time>2023-07-04T08:08:15Z</time>
      </trkpt>
      <trkpt lat="43.9644" lon="0.44578">
        <ele>154</ele>
        <time>2023-07-04T08:08:16Z</time>
      </trkpt>
      <trkpt lat="43.96441" lon="0.44583">
        <ele>153.6</ele>
        <time>2023-07-04T08:08:19Z</time>
      </trkpt>
      <trkpt lat="43.96441" lon="0.4459">
        <ele>153.6</ele>
        <time>2023-07-04T08:08:22Z</time>
      </trkpt>
      <trkpt lat="43.96442" lon="0.44607">
        <ele>153.4</ele>
        <time>2023-07-04T08:08:30Z</time>
      </trkpt>
      <trkpt lat="43.96442" lon="0.44609">
        <ele>153.4</ele>
        <time>2023-07-04T08:08:31Z</time>
      </trkpt>
      <trkpt lat="43.96443" lon="0.44612">
        <ele>153</ele>
        <time>2023-07-04T08:08:33Z</time>
      </trkpt>
      <trkpt lat="43.96445" lon="0.44616">
        <ele>152.6</ele>
        <time>2023-07-04T08:08:35Z</time>
      </trkpt>
      <trkpt lat="43.96446" lon="0.44617">
        <ele>152.4</ele>
        <time>2023-07-04T08:08:36Z</time>
      </trkpt>
      <trkpt lat="43.96448" lon="0.4462">
        <ele>151.8</ele>
        <time>2023-07-04T08:08:38Z</time>
      </trkpt>
      <trkpt lat="43.96454" lon="0.44626">
        <ele>150.8</ele>
        <time>2023-07-04T08:08:44Z</time>
      </trkpt>
      <trkpt lat="43.96456" lon="0.44628">
        <ele>150.2</ele>
        <time>2023-07-04T08:08:46Z</time>
      </trkpt>
      <trkpt lat="43.96462" lon="0.44631">
        <ele>149.8</ele>
        <time>2023-07-04T08:08:50Z</time>
      </trkpt>
      <trkpt lat="43.96465" lon="0.44634">
        <ele>149</ele>
        <time>2023-07-04T08:08:53Z</time>
      </trkpt>
      <trkpt lat="43.96468" lon="0.44636">
        <ele>148.6</ele>
        <time>2023-07-04T08:08:56Z</time>
      </trkpt>
      <trkpt lat="43.96474" lon="0.44642">
        <ele>147.4</ele>
        <time>2023-07-04T08:09:02Z</time>
      </trkpt>
      <trkpt lat="43.96483" lon="0.44648">
        <ele>146.6</ele>
        <time>2023-07-04T08:09:09Z</time>
      </trkpt>
      <trkpt lat="43.96484" lon="0.44649">
        <ele>146.6</ele>
        <time>2023-07-04T08:09:11Z</time>
      </trkpt>
      <trkpt lat="43.96485" lon="0.44649">
        <ele>146.4</ele>
        <time>2023-07-04T08:09:12Z</time>
      </trkpt>
      <trkpt lat="43.9649" lon="0.44651">
        <ele>145.8</ele>
        <time>2023-07-04T08:09:15Z</time>
      </trkpt>
      <trkpt lat="43.96496" lon="0.44655">
        <ele>145.6</ele>
        <time>2023-07-04T08:09:20Z</time>
      </trkpt>
      <trkpt lat="43.96499" lon="0.44657">
        <ele>145.4</ele>
        <time>2023-07-04T08:09:23Z</time>
      </trkpt>
      <trkpt lat="43.96502" lon="0.44659">
        <ele>145.2</ele>
        <time>2023-07-04T08:09:25Z</time>
      </trkpt>
      <trkpt lat="43.96507" lon="0.44662">
        <ele>145.2</ele>
        <time>2023-07-04T08:09:29Z</time>
      </trkpt>
      <trkpt lat="43.96509" lon="0.44663">
        <ele>145.2</ele>
        <time>2023-07-04T08:09:30Z</time>
      </trkpt>
      <trkpt lat="43.96517" lon="0.4467">
        <ele>144.4</ele>
        <time>2023-07-04T08:09:38Z</time>
      </trkpt>
      <trkpt lat="43.96517" lon="0.44671">
        <ele>144</ele>
        <time>2023-07-04T08:09:39Z</time>
      </trkpt>
      <trkpt lat="43.9652" lon="0.44672">
        <ele>143</ele>
        <time>2023-07-04T08:09:42Z</time>
      </trkpt>
      <trkpt lat="43.96523" lon="0.44674">
        <ele>142</ele>
        <time>2023-07-04T08:09:45Z</time>
      </trkpt>
      <trkpt lat="43.96524" lon="0.44674">
        <ele>142</ele>
        <time>2023-07-04T08:09:46Z</time>
      </trkpt>
      <trkpt lat="43.96533" lon="0.44679">
        <ele>140.8</ele>
        <time>2023-07-04T08:09:53Z</time>
      </trkpt>
      <trkpt lat="43.96534" lon="0.4468">
        <ele>140.8</ele>
        <time>2023-07-04T08:09:54Z</time>
      </trkpt>
      <trkpt lat="43.96537" lon="0.44682">
        <ele>140.6</ele>
        <time>2023-07-04T08:09:56Z</time>
      </trkpt>
      <trkpt lat="43.9654" lon="0.44683">
        <ele>140.6</ele>
        <time>2023-07-04T08:09:58Z</time>
      </trkpt>
      <trkpt lat="43.96543" lon="0.44686">
        <ele>140.2</ele>
        <time>2023-07-04T08:10:01Z</time>
      </trkpt>
      <trkpt lat="43.96544" lon="0.44688">
        <ele>140</ele>
        <time>2023-07-04T08:10:02Z</time>
      </trkpt>
      <trkpt lat="43.96546" lon="0.44689">
        <ele>139.8</ele>
        <time>2023-07-04T08:10:03Z</time>
      </trkpt>
      <trkpt lat="43.96552" lon="0.44698">
        <ele>138.8</ele>
        <time>2023-07-04T08:10:09Z</time>
      </trkpt>
      <trkpt lat="43.96553" lon="0.44699">
        <ele>138.8</ele>
        <time>2023-07-04T08:10:10Z</time>
      </trkpt>
      <trkpt lat="43.96558" lon="0.44707">
        <ele>137.6</ele>
        <time>2023-07-04T08:10:15Z</time>
      </trkpt>
      <trkpt lat="43.96559" lon="0.44708">
        <ele>137.4</ele>
        <time>2023-07-04T08:10:16Z</time>
      </trkpt>
      <trkpt lat="43.96563" lon="0.44712">
        <ele>136.8</ele>
        <time>2023-07-04T08:10:19Z</time>
      </trkpt>
      <trkpt lat="43.96565" lon="0.44715">
        <ele>136.6</ele>
        <time>2023-07-04T08:10:21Z</time>
      </trkpt>
      <trkpt lat="43.96569" lon="0.4472">
        <ele>136.4</ele>
        <time>2023-07-04T08:10:25Z</time>
      </trkpt>
      <trkpt lat="43.96575" lon="0.44726">
        <ele>135.6</ele>
        <time>2023-07-04T08:10:30Z</time>
      </trkpt>
      <trkpt lat="43.9658" lon="0.44733">
        <ele>134.8</ele>
        <time>2023-07-04T08:10:35Z</time>
      </trkpt>
      <trkpt lat="43.96582" lon="0.44736">
        <ele>134.4</ele>
        <time>2023-07-04T08:10:38Z</time>
      </trkpt>
      <trkpt lat="43.96587" lon="0.44743">
        <ele>133.4</ele>
        <time>2023-07-04T08:10:43Z</time>
      </trkpt>
      <trkpt lat="43.96588" lon="0.44744">
        <ele>133</ele>
        <time>2023-07-04T08:10:44Z</time>
      </trkpt>
      <trkpt lat="43.96596" lon="0.44752">
        <ele>132</ele>
        <time>2023-07-04T08:10:50Z</time>
      </trkpt>
      <trkpt lat="43.96597" lon="0.44753">
        <ele>131.8</ele>
        <time>2023-07-04T08:10:51Z</time>
      </trkpt>
      <trkpt lat="43.96602" lon="0.44759">
        <ele>130.8</ele>
        <time>2023-07-04T08:10:56Z</time>
      </trkpt>
      <trkpt lat="43.96604" lon="0.44761">
        <ele>130.6</ele>
        <time>2023-07-04T08:10:58Z</time>
      </trkpt>
      <trkpt lat="43.96606" lon="0.44763">
        <ele>130.2</ele>
        <time>2023-07-04T08:11:00Z</time>
      </trkpt>
      <trkpt lat="43.96611" lon="0.44769">
        <ele>129.6</ele>
        <time>2023-07-04T08:11:05Z</time>
      </trkpt>
      <trkpt lat="43.96615" lon="0.44773">
        <ele>128.8</ele>
        <time>2023-07-04T08:11:09Z</time>
      </trkpt>
      <trkpt lat="43.96616" lon="0.44774">
        <ele>128.6</ele>
        <time>2023-07-04T08:11:10Z</time>
      </trkpt>
      <trkpt lat="43.96623" lon="0.44781">
        <ele>128</ele>
        <time>2023-07-04T08:11:16Z</time>
      </trkpt>
      <trkpt lat="43.96627" lon="0.44784">
        <ele>127.4</ele>
        <time>2023-07-04T08:11:19Z</time>
      </trkpt>
      <trkpt lat="43.96636" lon="0.44792">
        <ele>126.4</ele>
        <time>2023-07-04T08:11:26Z</time>
      </trkpt>
      <trkpt lat="43.96637" lon="0.44793">
        <ele>126.4</ele>
        <time>2023-07-04T08:11:27Z</time>
      </trkpt>
      <trkpt lat="43.96641" lon="0.44797">
        <ele>125.2</ele>
        <time>2023-07-04T08:11:31Z</time>
      </trkpt>
      <trkpt lat="43.96644" lon="0.44801">
        <ele>124.8</ele>
        <time>2023-07-04T08:11:34Z</time>
      </trkpt>
      <trkpt lat="43.96645" lon="0.44803">
        <ele>124.6</ele>
        <time>2023-07-04T08:11:36Z</time>
      </trkpt>
      <trkpt lat="43.96646" lon="0.44804">
        <ele>124.6</ele>
        <time>2023-07-04T08:11:37Z</time>
      </trkpt>
      <trkpt lat="43.96651" lon="0.4481">
        <ele>124</ele>
        <time>2023-07-04T08:11:41Z</time>
      </trkpt>
      <trkpt lat="43.96654" lon="0.44814">
        <ele>123.4</ele>
        <time>2023-07-04T08:11:44Z</time>
      </trkpt>
      <trkpt lat="43.96659" lon="0.44821">
        <ele>122.8</ele>
        <time>2023-07-04T08:11:49Z</time>
      </trkpt>
      <trkpt lat="43.96661" lon="0.44826">
        <ele>122.4</ele>
        <time>2023-07-04T08:11:52Z</time>
      </trkpt>
      <trkpt lat="43.96664" lon="0.44834">
        <ele>121.8</ele>
        <time>2023-07-04T08:11:57Z</time>
      </trkpt>
      <trkpt lat="43.96665" lon="0.44837">
        <ele>121.6</ele>
        <time>2023-07-04T08:11:59Z</time>
      </trkpt>
      <trkpt lat="43.96668" lon="0.44841">
        <ele>121.4</ele>
        <time>2023-07-04T08:12:02Z</time>
      </trkpt>
      <trkpt lat="43.96672" lon="0.44848">
        <ele>120.8</ele>
        <time>2023-07-04T08:12:07Z</time>
      </trkpt>
      <trkpt lat="43.96675" lon="0.44852">
        <ele>120.4</ele>
        <time>2023-07-04T08:12:10Z</time>
      </trkpt>
      <trkpt lat="43.96679" lon="0.44859">
        <ele>119.4</ele>
        <time>2023-07-04T08:12:15Z</time>
      </trkpt>
      <trkpt lat="43.96682" lon="0.44866">
        <ele>119.2</ele>
        <time>2023-07-04T08:12:19Z</time>
      </trkpt>
      <trkpt lat="43.96688" lon="0.44874">
        <ele>118.8</ele>
        <time>2023-07-04T08:12:25Z</time>
      </trkpt>
      <trkpt lat="43.96691" lon="0.4488">
        <ele>118.4</ele>
        <time>2023-07-04T08:12:29Z</time>
      </trkpt>
      <trkpt lat="43.96701" lon="0.44893">
        <ele>117.6</ele>
        <time>2023-07-04T08:12:38Z</time>
      </trkpt>
      <trkpt lat="43.96702" lon="0.44894">
        <ele>117.4</ele>
        <time>2023-07-04T08:12:39Z</time>
      </trkpt>
      <trkpt lat="43.96703" lon="0.44896">
        <ele>117.4</ele>
        <time>2023-07-04T08:12:40Z</time>
      </trkpt>
      <trkpt lat="43.96704" lon="0.44897">
        <ele>117.2</ele>
        <time>2023-07-04T08:12:41Z</time>
      </trkpt>
      <trkpt lat="43.96709" lon="0.44905">
        <ele>117</ele>
        <time>2023-07-04T08:12:46Z</time>
      </trkpt>
      <trkpt lat="43.96715" lon="0.4491">
        <ele>116.6</ele>
        <time>2023-07-04T08:12:50Z</time>
      </trkpt>
      <trkpt lat="43.96718" lon="0.44914">
        <ele>116.4</ele>
        <time>2023-07-04T08:12:53Z</time>
      </trkpt>
      <trkpt lat="43.9672" lon="0.44919">
        <ele>116.4</ele>
        <time>2023-07-04T08:12:55Z</time>
      </trkpt>
      <trkpt lat="43.96721" lon="0.44922">
        <ele>116.4</ele>
        <time>2023-07-04T08:12:58Z</time>
      </trkpt>
      <trkpt lat="43.96724" lon="0.44926">
        <ele>116.2</ele>
        <time>2023-07-04T08:13:01Z</time>
      </trkpt>
      <trkpt lat="43.96732" lon="0.44937">
        <ele>115.6</ele>
        <time>2023-07-04T08:13:09Z</time>
      </trkpt>
      <trkpt lat="43.96739" lon="0.44947">
        <ele>115.4</ele>
        <time>2023-07-04T08:13:16Z</time>
      </trkpt>
      <trkpt lat="43.9674" lon="0.44948">
        <ele>115.2</ele>
        <time>2023-07-04T08:13:17Z</time>
      </trkpt>
      <trkpt lat="43.96746" lon="0.44959">
        <ele>115</ele>
        <time>2023-07-04T08:13:25Z</time>
      </trkpt>
      <trkpt lat="43.96755" lon="0.44975">
        <ele>114.4</ele>
        <time>2023-07-04T08:13:35Z</time>
      </trkpt>
      <trkpt lat="43.96762" lon="0.44986">
        <ele>114.6</ele>
        <time>2023-07-04T08:13:42Z</time>
      </trkpt>
      <trkpt lat="43.96763" lon="0.44989">
        <ele>114.4</ele>
        <time>2023-07-04T08:13:44Z</time>
      </trkpt>
      <trkpt lat="43.96767" lon="0.44995">
        <ele>114.2</ele>
        <time>2023-07-04T08:13:48Z</time>
      </trkpt>
      <trkpt lat="43.96771" lon="0.45002">
        <ele>113.8</ele>
        <time>2023-07-04T08:13:53Z</time>
      </trkpt>
      <trkpt lat="43.9678" lon="0.45011">
        <ele>113.2</ele>
        <time>2023-07-04T08:14:01Z</time>
      </trkpt>
      <trkpt lat="43.96782" lon="0.45012">
        <ele>113</ele>
        <time>2023-07-04T08:14:02Z</time>
      </trkpt>
      <trkpt lat="43.96787" lon="0.45016">
        <ele>112.4</ele>
        <time>2023-07-04T08:14:07Z</time>
      </trkpt>
      <trkpt lat="43.9679" lon="0.45017">
        <ele>112</ele>
        <time>2023-07-04T08:14:09Z</time>
      </trkpt>
      <trkpt lat="43.96797" lon="0.4502">
        <ele>110.8</ele>
        <time>2023-07-04T08:14:14Z</time>
      </trkpt>
      <trkpt lat="43.96799" lon="0.45021">
        <ele>110.4</ele>
        <time>2023-07-04T08:14:16Z</time>
      </trkpt>
      <trkpt lat="43.968" lon="0.45022">
        <ele>110.2</ele>
        <time>2023-07-04T08:14:17Z</time>
      </trkpt>
      <trkpt lat="43.96803" lon="0.45023">
        <ele>109.8</ele>
        <time>2023-07-04T08:14:19Z</time>
      </trkpt>
      <trkpt lat="43.96804" lon="0.45024">
        <ele>109.6</ele>
        <time>2023-07-04T08:14:20Z</time>
      </trkpt>
      <trkpt lat="43.96809" lon="0.45025">
        <ele>109.2</ele>
        <time>2023-07-04T08:14:24Z</time>
      </trkpt>
      <trkpt lat="43.9681" lon="0.45025">
        <ele>109.2</ele>
        <time>2023-07-04T08:14:25Z</time>
      </trkpt>
      <trkpt lat="43.96814" lon="0.45028">
        <ele>108.8</ele>
        <time>2023-07-04T08:14:28Z</time>
      </trkpt>
      <trkpt lat="43.96824" lon="0.45034">
        <ele>107.8</ele>
        <time>2023-07-04T08:14:36Z</time>
      </trkpt>
      <trkpt lat="43.96825" lon="0.45035">
        <ele>107.6</ele>
        <time>2023-07-04T08:14:37Z</time>
      </trkpt>
      <trkpt lat="43.96833" lon="0.45039">
        <ele>107.2</ele>
        <time>2023-07-04T08:14:43Z</time>
      </trkpt>
      <trkpt lat="43.96837" lon="0.45041">
        <ele>107.2</ele>
        <time>2023-07-04T08:14:46Z</time>
      </trkpt>
      <trkpt lat="43.96839" lon="0.45042">
        <ele>107.2</ele>
        <time>2023-07-04T08:14:47Z</time>
      </trkpt>
      <trkpt lat="43.96842" lon="0.45042">
        <ele>107.4</ele>
        <time>2023-07-04T08:14:49Z</time>
      </trkpt>
      <trkpt lat="43.96843" lon="0.45043">
        <ele>107.6</ele>
        <time>2023-07-04T08:14:50Z</time>
      </trkpt>
      <trkpt lat="43.96854" lon="0.45044">
        <ele>107.4</ele>
        <time>2023-07-04T08:14:58Z</time>
      </trkpt>
      <trkpt lat="43.96855" lon="0.45045">
        <ele>107.4</ele>
        <time>2023-07-04T08:14:59Z</time>
      </trkpt>
      <trkpt lat="43.96866" lon="0.45045">
        <ele>107.4</ele>
        <time>2023-07-04T08:15:08Z</time>
      </trkpt>
      <trkpt lat="43.96877" lon="0.45046">
        <ele>107.6</ele>
        <time>2023-07-04T08:15:17Z</time>
      </trkpt>
      <trkpt lat="43.96882" lon="0.45045">
        <ele>107.6</ele>
        <time>2023-07-04T08:15:21Z</time>
      </trkpt>
      <trkpt lat="43.96885" lon="0.45045">
        <ele>107.8</ele>
        <time>2023-07-04T08:15:24Z</time>
      </trkpt>
      <trkpt lat="43.96893" lon="0.45047">
        <ele>108</ele>
        <time>2023-07-04T08:15:31Z</time>
      </trkpt>
      <trkpt lat="43.96904" lon="0.4505">
        <ele>107.8</ele>
        <time>2023-07-04T08:15:39Z</time>
      </trkpt>
      <trkpt lat="43.96914" lon="0.45051">
        <ele>107.6</ele>
        <time>2023-07-04T08:15:46Z</time>
      </trkpt>
      <trkpt lat="43.96922" lon="0.45056">
        <ele>107.4</ele>
        <time>2023-07-04T08:15:53Z</time>
      </trkpt>
      <trkpt lat="43.96925" lon="0.45058">
        <ele>107.2</ele>
        <time>2023-07-04T08:15:55Z</time>
      </trkpt>
      <trkpt lat="43.96928" lon="0.45059">
        <ele>107.2</ele>
        <time>2023-07-04T08:15:57Z</time>
      </trkpt>
      <trkpt lat="43.96932" lon="0.45062">
        <ele>107.2</ele>
        <time>2023-07-04T08:16:00Z</time>
      </trkpt>
      <trkpt lat="43.96941" lon="0.45067">
        <ele>107</ele>
        <time>2023-07-04T08:16:06Z</time>
      </trkpt>
      <trkpt lat="43.96948" lon="0.45069">
        <ele>107.2</ele>
        <time>2023-07-04T08:16:13Z</time>
      </trkpt>
      <trkpt lat="43.96959" lon="0.45077">
        <ele>106.8</ele>
        <time>2023-07-04T08:16:21Z</time>
      </trkpt>
      <trkpt lat="43.9697" lon="0.45079">
        <ele>107</ele>
        <time>2023-07-04T08:16:27Z</time>
      </trkpt>
      <trkpt lat="43.9698" lon="0.45082">
        <ele>106.8</ele>
        <time>2023-07-04T08:16:34Z</time>
      </trkpt>
      <trkpt lat="43.96982" lon="0.45084">
        <ele>106.6</ele>
        <time>2023-07-04T08:16:36Z</time>
      </trkpt>
      <trkpt lat="43.96984" lon="0.45085">
        <ele>106.6</ele>
        <time>2023-07-04T08:16:37Z</time>
      </trkpt>
      <trkpt lat="43.96985" lon="0.45086">
        <ele>106.6</ele>
        <time>2023-07-04T08:16:38Z</time>
      </trkpt>
      <trkpt lat="43.96988" lon="0.45088">
        <ele>106.6</ele>
        <time>2023-07-04T08:16:40Z</time>
      </trkpt>
      <trkpt lat="43.9699" lon="0.45089">
        <ele>106.6</ele>
        <time>2023-07-04T08:16:42Z</time>
      </trkpt>
      <trkpt lat="43.96992" lon="0.45092">
        <ele>106.6</ele>
        <time>2023-07-04T08:16:44Z</time>
      </trkpt>
      <trkpt lat="43.96993" lon="0.45094">
        <ele>106.6</ele>
        <time>2023-07-04T08:16:45Z</time>
      </trkpt>
      <trkpt lat="43.96994" lon="0.45095">
        <ele>106.6</ele>
        <time>2023-07-04T08:16:46Z</time>
      </trkpt>
      <trkpt lat="43.97" lon="0.45101">
        <ele>106.4</ele>
        <time>2023-07-04T08:16:50Z</time>
      </trkpt>
      <trkpt lat="43.97001" lon="0.45102">
        <ele>106.4</ele>
        <time>2023-07-04T08:16:51Z</time>
      </trkpt>
      <trkpt lat="43.97001" lon="0.45104">
        <ele>106.6</ele>
        <time>2023-07-04T08:16:52Z</time>
      </trkpt>
      <trkpt lat="43.97002" lon="0.45107">
        <ele>106.6</ele>
        <time>2023-07-04T08:16:54Z</time>
      </trkpt>
      <trkpt lat="43.97004" lon="0.45111">
        <ele>106.6</ele>
        <time>2023-07-04T08:16:58Z</time>
      </trkpt>
      <trkpt lat="43.97005" lon="0.45112">
        <ele>106.6</ele>
        <time>2023-07-04T08:16:59Z</time>
      </trkpt>
      <trkpt lat="43.97006" lon="0.45114">
        <ele>106.4</ele>
        <time>2023-07-04T08:17:01Z</time>
      </trkpt>
      <trkpt lat="43.97006" lon="0.45117">
        <ele>106.4</ele>
        <time>2023-07-04T08:17:03Z</time>
      </trkpt>
      <trkpt lat="43.97006" lon="0.45118">
        <ele>106.2</ele>
        <time>2023-07-04T08:17:04Z</time>
      </trkpt>
      <trkpt lat="43.97008" lon="0.45121">
        <ele>106.2</ele>
        <time>2023-07-04T08:17:06Z</time>
      </trkpt>
      <trkpt lat="43.97011" lon="0.45129">
        <ele>106.2</ele>
        <time>2023-07-04T08:17:10Z</time>
      </trkpt>
      <trkpt lat="43.97012" lon="0.45131">
        <ele>106.2</ele>
        <time>2023-07-04T08:17:11Z</time>
      </trkpt>
      <trkpt lat="43.97014" lon="0.45135">
        <ele>106</ele>
        <time>2023-07-04T08:17:14Z</time>
      </trkpt>
      <trkpt lat="43.97015" lon="0.45138">
        <ele>106</ele>
        <time>2023-07-04T08:17:16Z</time>
      </trkpt>
      <trkpt lat="43.97018" lon="0.45147">
        <ele>105.8</ele>
        <time>2023-07-04T08:17:21Z</time>
      </trkpt>
      <trkpt lat="43.97021" lon="0.45163">
        <ele>106</ele>
        <time>2023-07-04T08:17:28Z</time>
      </trkpt>
      <trkpt lat="43.97025" lon="0.45174">
        <ele>105.6</ele>
        <time>2023-07-04T08:17:33Z</time>
      </trkpt>
      <trkpt lat="43.97026" lon="0.45179">
        <ele>105.8</ele>
        <time>2023-07-04T08:17:36Z</time>
      </trkpt>
      <trkpt lat="43.9703" lon="0.4519">
        <ele>105.8</ele>
        <time>2023-07-04T08:17:42Z</time>
      </trkpt>
      <trkpt lat="43.97031" lon="0.45192">
        <ele>105.8</ele>
        <time>2023-07-04T08:17:43Z</time>
      </trkpt>
      <trkpt lat="43.97032" lon="0.45194">
        <ele>105.8</ele>
        <time>2023-07-04T08:17:44Z</time>
      </trkpt>
      <trkpt lat="43.97038" lon="0.45206">
        <ele>106</ele>
        <time>2023-07-04T08:17:51Z</time>
      </trkpt>
      <trkpt lat="43.97038" lon="0.45208">
        <ele>106</ele>
        <time>2023-07-04T08:17:52Z</time>
      </trkpt>
      <trkpt lat="43.97038" lon="0.45213">
        <ele>106</ele>
        <time>2023-07-04T08:17:55Z</time>
      </trkpt>
      <trkpt lat="43.97039" lon="0.45215">
        <ele>106.2</ele>
        <time>2023-07-04T08:17:56Z</time>
      </trkpt>
      <trkpt lat="43.97042" lon="0.45218">
        <ele>106.2</ele>
        <time>2023-07-04T08:17:58Z</time>
      </trkpt>
      <trkpt lat="43.97046" lon="0.45226">
        <ele>106.2</ele>
        <time>2023-07-04T08:18:02Z</time>
      </trkpt>
      <trkpt lat="43.97047" lon="0.45229">
        <ele>106.2</ele>
        <time>2023-07-04T08:18:04Z</time>
      </trkpt>
      <trkpt lat="43.97047" lon="0.45232">
        <ele>106.2</ele>
        <time>2023-07-04T08:18:05Z</time>
      </trkpt>
      <trkpt lat="43.97048" lon="0.45233">
        <ele>106.2</ele>
        <time>2023-07-04T08:18:06Z</time>
      </trkpt>
      <trkpt lat="43.97048" lon="0.45234">
        <ele>106.2</ele>
        <time>2023-07-04T08:18:07Z</time>
      </trkpt>
      <trkpt lat="43.9705" lon="0.45244">
        <ele>106.6</ele>
        <time>2023-07-04T08:18:12Z</time>
      </trkpt>
      <trkpt lat="43.97052" lon="0.45252">
        <ele>106.8</ele>
        <time>2023-07-04T08:18:15Z</time>
      </trkpt>
      <trkpt lat="43.97053" lon="0.4526">
        <ele>106.2</ele>
        <time>2023-07-04T08:18:19Z</time>
      </trkpt>
      <trkpt lat="43.97053" lon="0.45262">
        <ele>106.2</ele>
        <time>2023-07-04T08:18:20Z</time>
      </trkpt>
      <trkpt lat="43.97054" lon="0.4528">
        <ele>106.2</ele>
        <time>2023-07-04T08:18:29Z</time>
      </trkpt>
      <trkpt lat="43.97055" lon="0.45283">
        <ele>106.2</ele>
        <time>2023-07-04T08:18:30Z</time>
      </trkpt>
      <trkpt lat="43.97054" lon="0.45297">
        <ele>106.4</ele>
        <time>2023-07-04T08:18:37Z</time>
      </trkpt>
      <trkpt lat="43.97053" lon="0.45311">
        <ele>106.8</ele>
        <time>2023-07-04T08:18:44Z</time>
      </trkpt>
      <trkpt lat="43.97054" lon="0.45317">
        <ele>107</ele>
        <time>2023-07-04T08:18:47Z</time>
      </trkpt>
      <trkpt lat="43.97053" lon="0.45325">
        <ele>107</ele>
        <time>2023-07-04T08:18:51Z</time>
      </trkpt>
      <trkpt lat="43.97054" lon="0.45333">
        <ele>107.6</ele>
        <time>2023-07-04T08:18:57Z</time>
      </trkpt>
      <trkpt lat="43.97054" lon="0.45334">
        <ele>107.6</ele>
        <time>2023-07-04T08:18:58Z</time>
      </trkpt>
      <trkpt lat="43.97055" lon="0.4534">
        <ele>108</ele>
        <time>2023-07-04T08:19:02Z</time>
      </trkpt>
      <trkpt lat="43.97055" lon="0.45343">
        <ele>108</ele>
        <time>2023-07-04T08:19:04Z</time>
      </trkpt>
      <trkpt lat="43.97055" lon="0.45345">
        <ele>108.4</ele>
        <time>2023-07-04T08:19:06Z</time>
      </trkpt>
      <trkpt lat="43.97055" lon="0.45347">
        <ele>108.8</ele>
        <time>2023-07-04T08:19:07Z</time>
      </trkpt>
      <trkpt lat="43.97055" lon="0.45351">
        <ele>109.2</ele>
        <time>2023-07-04T08:19:10Z</time>
      </trkpt>
      <trkpt lat="43.97055" lon="0.45358">
        <ele>109.8</ele>
        <time>2023-07-04T08:19:15Z</time>
      </trkpt>
      <trkpt lat="43.97055" lon="0.4536">
        <ele>109.8</ele>
        <time>2023-07-04T08:19:16Z</time>
      </trkpt>
      <trkpt lat="43.97055" lon="0.45363">
        <ele>110.2</ele>
        <time>2023-07-04T08:19:18Z</time>
      </trkpt>
      <trkpt lat="43.97055" lon="0.45368">
        <ele>111</ele>
        <time>2023-07-04T08:19:22Z</time>
      </trkpt>
      <trkpt lat="43.97056" lon="0.4537">
        <ele>111.2</ele>
        <time>2023-07-04T08:19:23Z</time>
      </trkpt>
      <trkpt lat="43.97057" lon="0.45376">
        <ele>112.2</ele>
        <time>2023-07-04T08:19:27Z</time>
      </trkpt>
      <trkpt lat="43.97057" lon="0.45379">
        <ele>112.4</ele>
        <time>2023-07-04T08:19:29Z</time>
      </trkpt>
      <trkpt lat="43.97056" lon="0.4538">
        <ele>112.6</ele>
        <time>2023-07-04T08:19:30Z</time>
      </trkpt>
      <trkpt lat="43.97057" lon="0.45381">
        <ele>113</ele>
        <time>2023-07-04T08:19:31Z</time>
      </trkpt>
      <trkpt lat="43.97057" lon="0.45382">
        <ele>113.2</ele>
        <time>2023-07-04T08:19:32Z</time>
      </trkpt>
      <trkpt lat="43.97058" lon="0.45384">
        <ele>113.2</ele>
        <time>2023-07-04T08:19:33Z</time>
      </trkpt>
      <trkpt lat="43.97058" lon="0.45389">
        <ele>114</ele>
        <time>2023-07-04T08:19:37Z</time>
      </trkpt>
      <trkpt lat="43.97058" lon="0.4539">
        <ele>114</ele>
        <time>2023-07-04T08:19:38Z</time>
      </trkpt>
      <trkpt lat="43.97058" lon="0.45392">
        <ele>114.2</ele>
        <time>2023-07-04T08:19:39Z</time>
      </trkpt>
      <trkpt lat="43.97058" lon="0.45394">
        <ele>114.2</ele>
        <time>2023-07-04T08:19:41Z</time>
      </trkpt>
      <trkpt lat="43.97058" lon="0.45398">
        <ele>115.2</ele>
        <time>2023-07-04T08:19:44Z</time>
      </trkpt>
      <trkpt lat="43.97058" lon="0.45399">
        <ele>115.4</ele>
        <time>2023-07-04T08:19:45Z</time>
      </trkpt>
      <trkpt lat="43.97058" lon="0.45401">
        <ele>116</ele>
        <time>2023-07-04T08:19:47Z</time>
      </trkpt>
      <trkpt lat="43.97058" lon="0.45403">
        <ele>116.2</ele>
        <time>2023-07-04T08:19:49Z</time>
      </trkpt>
      <trkpt lat="43.97059" lon="0.45405">
        <ele>116.6</ele>
        <time>2023-07-04T08:19:51Z</time>
      </trkpt>
      <trkpt lat="43.97059" lon="0.45407">
        <ele>117.4</ele>
        <time>2023-07-04T08:19:53Z</time>
      </trkpt>
      <trkpt lat="43.97059" lon="0.45408">
        <ele>117.6</ele>
        <time>2023-07-04T08:19:54Z</time>
      </trkpt>
      <trkpt lat="43.97062" lon="0.45417">
        <ele>118.4</ele>
        <time>2023-07-04T08:19:59Z</time>
      </trkpt>
      <trkpt lat="43.97064" lon="0.45422">
        <ele>118.6</ele>
        <time>2023-07-04T08:20:02Z</time>
      </trkpt>
      <trkpt lat="43.97064" lon="0.45425">
        <ele>119.2</ele>
        <time>2023-07-04T08:20:04Z</time>
      </trkpt>
      <trkpt lat="43.97066" lon="0.45428">
        <ele>119.4</ele>
        <time>2023-07-04T08:20:06Z</time>
      </trkpt>
      <trkpt lat="43.97066" lon="0.4543">
        <ele>119.8</ele>
        <time>2023-07-04T08:20:07Z</time>
      </trkpt>
      <trkpt lat="43.97066" lon="0.45431">
        <ele>120</ele>
        <time>2023-07-04T08:20:08Z</time>
      </trkpt>
      <trkpt lat="43.97067" lon="0.45435">
        <ele>120.8</ele>
        <time>2023-07-04T08:20:11Z</time>
      </trkpt>
      <trkpt lat="43.97067" lon="0.45437">
        <ele>121</ele>
        <time>2023-07-04T08:20:12Z</time>
      </trkpt>
      <trkpt lat="43.97067" lon="0.4544">
        <ele>121.2</ele>
        <time>2023-07-04T08:20:14Z</time>
      </trkpt>
      <trkpt lat="43.97068" lon="0.45441">
        <ele>121.4</ele>
        <time>2023-07-04T08:20:15Z</time>
      </trkpt>
      <trkpt lat="43.97068" lon="0.45447">
        <ele>122</ele>
        <time>2023-07-04T08:20:18Z</time>
      </trkpt>
      <trkpt lat="43.97069" lon="0.45452">
        <ele>122.4</ele>
        <time>2023-07-04T08:20:21Z</time>
      </trkpt>
      <trkpt lat="43.97069" lon="0.45456">
        <ele>123</ele>
        <time>2023-07-04T08:20:25Z</time>
      </trkpt>
      <trkpt lat="43.97069" lon="0.4546">
        <ele>123.4</ele>
        <time>2023-07-04T08:20:28Z</time>
      </trkpt>
      <trkpt lat="43.97069" lon="0.45462">
        <ele>123.4</ele>
        <time>2023-07-04T08:20:29Z</time>
      </trkpt>
      <trkpt lat="43.97069" lon="0.45466">
        <ele>124</ele>
        <time>2023-07-04T08:20:31Z</time>
      </trkpt>
      <trkpt lat="43.9707" lon="0.45468">
        <ele>124.2</ele>
        <time>2023-07-04T08:20:32Z</time>
      </trkpt>
      <trkpt lat="43.9707" lon="0.45471">
        <ele>124.4</ele>
        <time>2023-07-04T08:20:34Z</time>
      </trkpt>
      <trkpt lat="43.9707" lon="0.45472">
        <ele>124.4</ele>
        <time>2023-07-04T08:20:35Z</time>
      </trkpt>
      <trkpt lat="43.9707" lon="0.45477">
        <ele>125</ele>
        <time>2023-07-04T08:20:38Z</time>
      </trkpt>
      <trkpt lat="43.9707" lon="0.45479">
        <ele>125.4</ele>
        <time>2023-07-04T08:20:40Z</time>
      </trkpt>
      <trkpt lat="43.9707" lon="0.45482">
        <ele>125.6</ele>
        <time>2023-07-04T08:20:42Z</time>
      </trkpt>
      <trkpt lat="43.97069" lon="0.45485">
        <ele>125.6</ele>
        <time>2023-07-04T08:20:44Z</time>
      </trkpt>
      <trkpt lat="43.97069" lon="0.45486">
        <ele>125.8</ele>
        <time>2023-07-04T08:20:45Z</time>
      </trkpt>
      <trkpt lat="43.97069" lon="0.45491">
        <ele>126.4</ele>
        <time>2023-07-04T08:20:48Z</time>
      </trkpt>
      <trkpt lat="43.97069" lon="0.45492">
        <ele>127</ele>
        <time>2023-07-04T08:20:49Z</time>
      </trkpt>
      <trkpt lat="43.97069" lon="0.45495">
        <ele>127.4</ele>
        <time>2023-07-04T08:20:50Z</time>
      </trkpt>
      <trkpt lat="43.9707" lon="0.45497">
        <ele>127.6</ele>
        <time>2023-07-04T08:20:51Z</time>
      </trkpt>
      <trkpt lat="43.97071" lon="0.45499">
        <ele>127.6</ele>
        <time>2023-07-04T08:20:52Z</time>
      </trkpt>
      <trkpt lat="43.97071" lon="0.45504">
        <ele>128.2</ele>
        <time>2023-07-04T08:20:56Z</time>
      </trkpt>
      <trkpt lat="43.9707" lon="0.45507">
        <ele>128.4</ele>
        <time>2023-07-04T08:20:58Z</time>
      </trkpt>
      <trkpt lat="43.9707" lon="0.45511">
        <ele>128.8</ele>
        <time>2023-07-04T08:21:00Z</time>
      </trkpt>
      <trkpt lat="43.97072" lon="0.45516">
        <ele>129.4</ele>
        <time>2023-07-04T08:21:03Z</time>
      </trkpt>
      <trkpt lat="43.97073" lon="0.45519">
        <ele>129.8</ele>
        <time>2023-07-04T08:21:05Z</time>
      </trkpt>
      <trkpt lat="43.97072" lon="0.45521">
        <ele>130.2</ele>
        <time>2023-07-04T08:21:07Z</time>
      </trkpt>
      <trkpt lat="43.97072" lon="0.45526">
        <ele>130.4</ele>
        <time>2023-07-04T08:21:11Z</time>
      </trkpt>
      <trkpt lat="43.97071" lon="0.45528">
        <ele>131</ele>
        <time>2023-07-04T08:21:13Z</time>
      </trkpt>
      <trkpt lat="43.97072" lon="0.45533">
        <ele>131.4</ele>
        <time>2023-07-04T08:21:17Z</time>
      </trkpt>
      <trkpt lat="43.97073" lon="0.45536">
        <ele>131.6</ele>
        <time>2023-07-04T08:21:19Z</time>
      </trkpt>
      <trkpt lat="43.97074" lon="0.45537">
        <ele>131.8</ele>
        <time>2023-07-04T08:21:20Z</time>
      </trkpt>
      <trkpt lat="43.97074" lon="0.45539">
        <ele>132.2</ele>
        <time>2023-07-04T08:21:21Z</time>
      </trkpt>
      <trkpt lat="43.97075" lon="0.45546">
        <ele>133</ele>
        <time>2023-07-04T08:21:27Z</time>
      </trkpt>
      <trkpt lat="43.97075" lon="0.45547">
        <ele>133.2</ele>
        <time>2023-07-04T08:21:28Z</time>
      </trkpt>
      <trkpt lat="43.97075" lon="0.45551">
        <ele>133.8</ele>
        <time>2023-07-04T08:21:31Z</time>
      </trkpt>
      <trkpt lat="43.97075" lon="0.45554">
        <ele>134</ele>
        <time>2023-07-04T08:21:33Z</time>
      </trkpt>
      <trkpt lat="43.97076" lon="0.45557">
        <ele>134.2</ele>
        <time>2023-07-04T08:21:34Z</time>
      </trkpt>
      <trkpt lat="43.97076" lon="0.45559">
        <ele>134.2</ele>
        <time>2023-07-04T08:21:35Z</time>
      </trkpt>
      <trkpt lat="43.97076" lon="0.45564">
        <ele>135.4</ele>
        <time>2023-07-04T08:21:39Z</time>
      </trkpt>
      <trkpt lat="43.97076" lon="0.45565">
        <ele>135.4</ele>
        <time>2023-07-04T08:21:40Z</time>
      </trkpt>
      <trkpt lat="43.97077" lon="0.45568">
        <ele>135.6</ele>
        <time>2023-07-04T08:21:42Z</time>
      </trkpt>
      <trkpt lat="43.97077" lon="0.4557">
        <ele>136.2</ele>
        <time>2023-07-04T08:21:44Z</time>
      </trkpt>
      <trkpt lat="43.97077" lon="0.45571">
        <ele>136.4</ele>
        <time>2023-07-04T08:21:45Z</time>
      </trkpt>
      <trkpt lat="43.97077" lon="0.45572">
        <ele>136.6</ele>
        <time>2023-07-04T08:21:46Z</time>
      </trkpt>
      <trkpt lat="43.97077" lon="0.45573">
        <ele>136.6</ele>
        <time>2023-07-04T08:21:47Z</time>
      </trkpt>
      <trkpt lat="43.97077" lon="0.45574">
        <ele>136.8</ele>
        <time>2023-07-04T08:21:48Z</time>
      </trkpt>
      <trkpt lat="43.97078" lon="0.45576">
        <ele>136.8</ele>
        <time>2023-07-04T08:21:49Z</time>
      </trkpt>
      <trkpt lat="43.9708" lon="0.45579">
        <ele>137</ele>
        <time>2023-07-04T08:21:51Z</time>
      </trkpt>
      <trkpt lat="43.9708" lon="0.45582">
        <ele>137.6</ele>
        <time>2023-07-04T08:21:53Z</time>
      </trkpt>
      <trkpt lat="43.97081" lon="0.45587">
        <ele>138.2</ele>
        <time>2023-07-04T08:21:56Z</time>
      </trkpt>
      <trkpt lat="43.97082" lon="0.45589">
        <ele>138.8</ele>
        <time>2023-07-04T08:21:58Z</time>
      </trkpt>
      <trkpt lat="43.97082" lon="0.45591">
        <ele>139</ele>
        <time>2023-07-04T08:22:00Z</time>
      </trkpt>
      <trkpt lat="43.97082" lon="0.45594">
        <ele>139.6</ele>
        <time>2023-07-04T08:22:03Z</time>
      </trkpt>
      <trkpt lat="43.97084" lon="0.45596">
        <ele>139.8</ele>
        <time>2023-07-04T08:22:05Z</time>
      </trkpt>
      <trkpt lat="43.97085" lon="0.45601">
        <ele>141</ele>
        <time>2023-07-04T08:22:09Z</time>
      </trkpt>
      <trkpt lat="43.97086" lon="0.45604">
        <ele>141.2</ele>
        <time>2023-07-04T08:22:11Z</time>
      </trkpt>
      <trkpt lat="43.97087" lon="0.45608">
        <ele>141.6</ele>
        <time>2023-07-04T08:22:14Z</time>
      </trkpt>
      <trkpt lat="43.97088" lon="0.45611">
        <ele>142</ele>
        <time>2023-07-04T08:22:16Z</time>
      </trkpt>
      <trkpt lat="43.9709" lon="0.45617">
        <ele>143</ele>
        <time>2023-07-04T08:22:20Z</time>
      </trkpt>
      <trkpt lat="43.97092" lon="0.45621">
        <ele>143.4</ele>
        <time>2023-07-04T08:22:23Z</time>
      </trkpt>
      <trkpt lat="43.97093" lon="0.45623">
        <ele>144.2</ele>
        <time>2023-07-04T08:22:25Z</time>
      </trkpt>
      <trkpt lat="43.97094" lon="0.45625">
        <ele>145</ele>
        <time>2023-07-04T08:22:27Z</time>
      </trkpt>
      <trkpt lat="43.97094" lon="0.45625">
        <ele>145.2</ele>
        <time>2023-07-04T08:22:28Z</time>
      </trkpt>
      <trkpt lat="43.97094" lon="0.45625">
        <ele>145.6</ele>
        <time>2023-07-04T08:22:30Z</time>
      </trkpt>
      <trkpt lat="43.97095" lon="0.45625">
        <ele>146.4</ele>
        <time>2023-07-04T08:22:33Z</time>
      </trkpt>
      <trkpt lat="43.97098" lon="0.45626">
        <ele>146.8</ele>
        <time>2023-07-04T08:22:36Z</time>
      </trkpt>
      <trkpt lat="43.97099" lon="0.45627">
        <ele>147</ele>
        <time>2023-07-04T08:22:37Z</time>
      </trkpt>
      <trkpt lat="43.971" lon="0.45627">
        <ele>147.4</ele>
        <time>2023-07-04T08:22:38Z</time>
      </trkpt>
      <trkpt lat="43.97101" lon="0.45627">
        <ele>147.8</ele>
        <time>2023-07-04T08:22:40Z</time>
      </trkpt>
      <trkpt lat="43.97104" lon="0.45627">
        <ele>148</ele>
        <time>2023-07-04T08:22:42Z</time>
      </trkpt>
      <trkpt lat="43.97107" lon="0.45627">
        <ele>148.4</ele>
        <time>2023-07-04T08:22:44Z</time>
      </trkpt>
      <trkpt lat="43.97107" lon="0.45626">
        <ele>148.6</ele>
        <time>2023-07-04T08:22:45Z</time>
      </trkpt>
      <trkpt lat="43.97108" lon="0.45625">
        <ele>148.8</ele>
        <time>2023-07-04T08:22:46Z</time>
      </trkpt>
      <trkpt lat="43.9711" lon="0.45625">
        <ele>149.2</ele>
        <time>2023-07-04T08:22:48Z</time>
      </trkpt>
      <trkpt lat="43.97112" lon="0.45625">
        <ele>149.6</ele>
        <time>2023-07-04T08:22:50Z</time>
      </trkpt>
      <trkpt lat="43.97115" lon="0.45624">
        <ele>150</ele>
        <time>2023-07-04T08:22:52Z</time>
      </trkpt>
      <trkpt lat="43.97116" lon="0.45624">
        <ele>150.4</ele>
        <time>2023-07-04T08:22:53Z</time>
      </trkpt>
      <trkpt lat="43.97119" lon="0.45622">
        <ele>151</ele>
        <time>2023-07-04T08:22:55Z</time>
      </trkpt>
      <trkpt lat="43.97123" lon="0.45622">
        <ele>151.6</ele>
        <time>2023-07-04T08:23:00Z</time>
      </trkpt>
      <trkpt lat="43.97124" lon="0.45622">
        <ele>152.2</ele>
        <time>2023-07-04T08:23:02Z</time>
      </trkpt>
      <trkpt lat="43.97128" lon="0.45622">
        <ele>152.8</ele>
        <time>2023-07-04T08:23:06Z</time>
      </trkpt>
      <trkpt lat="43.9713" lon="0.45622">
        <ele>153</ele>
        <time>2023-07-04T08:23:07Z</time>
      </trkpt>
      <trkpt lat="43.97131" lon="0.45622">
        <ele>153.4</ele>
        <time>2023-07-04T08:23:08Z</time>
      </trkpt>
      <trkpt lat="43.97134" lon="0.45622">
        <ele>154</ele>
        <time>2023-07-04T08:23:10Z</time>
      </trkpt>
      <trkpt lat="43.97136" lon="0.45621">
        <ele>154.2</ele>
        <time>2023-07-04T08:23:11Z</time>
      </trkpt>
      <trkpt lat="43.97139" lon="0.45622">
        <ele>154.4</ele>
        <time>2023-07-04T08:23:13Z</time>
      </trkpt>
      <trkpt lat="43.9714" lon="0.45622">
        <ele>154.4</ele>
        <time>2023-07-04T08:23:14Z</time>
      </trkpt>
      <trkpt lat="43.9714" lon="0.45621">
        <ele>154.8</ele>
        <time>2023-07-04T08:23:15Z</time>
      </trkpt>
      <trkpt lat="43.97142" lon="0.45622">
        <ele>155.2</ele>
        <time>2023-07-04T08:23:18Z</time>
      </trkpt>
      <trkpt lat="43.97143" lon="0.45622">
        <ele>155.4</ele>
        <time>2023-07-04T08:23:19Z</time>
      </trkpt>
      <trkpt lat="43.97145" lon="0.45623">
        <ele>156</ele>
        <time>2023-07-04T08:23:21Z</time>
      </trkpt>
      <trkpt lat="43.97147" lon="0.45625">
        <ele>156.6</ele>
        <time>2023-07-04T08:23:24Z</time>
      </trkpt>
      <trkpt lat="43.97148" lon="0.45626">
        <ele>156.6</ele>
        <time>2023-07-04T08:23:25Z</time>
      </trkpt>
      <trkpt lat="43.97149" lon="0.45627">
        <ele>156.8</ele>
        <time>2023-07-04T08:23:26Z</time>
      </trkpt>
      <trkpt lat="43.9715" lon="0.45628">
        <ele>157</ele>
        <time>2023-07-04T08:23:27Z</time>
      </trkpt>
      <trkpt lat="43.97155" lon="0.45632">
        <ele>157.6</ele>
        <time>2023-07-04T08:23:31Z</time>
      </trkpt>
      <trkpt lat="43.97157" lon="0.45634">
        <ele>158.2</ele>
        <time>2023-07-04T08:23:33Z</time>
      </trkpt>
      <trkpt lat="43.9716" lon="0.45637">
        <ele>158.4</ele>
        <time>2023-07-04T08:23:36Z</time>
      </trkpt>
      <trkpt lat="43.97161" lon="0.45637">
        <ele>158.6</ele>
        <time>2023-07-04T08:23:37Z</time>
      </trkpt>
      <trkpt lat="43.97162" lon="0.45638">
        <ele>159</ele>
        <time>2023-07-04T08:23:39Z</time>
      </trkpt>
      <trkpt lat="43.97163" lon="0.45639">
        <ele>159.2</ele>
        <time>2023-07-04T08:23:40Z</time>
      </trkpt>
      <trkpt lat="43.97165" lon="0.45641">
        <ele>159.8</ele>
        <time>2023-07-04T08:23:42Z</time>
      </trkpt>
      <trkpt lat="43.9717" lon="0.45643">
        <ele>160.6</ele>
        <time>2023-07-04T08:23:46Z</time>
      </trkpt>
      <trkpt lat="43.97171" lon="0.45643">
        <ele>161</ele>
        <time>2023-07-04T08:23:47Z</time>
      </trkpt>
      <trkpt lat="43.97177" lon="0.4564">
        <ele>161.6</ele>
        <time>2023-07-04T08:23:50Z</time>
      </trkpt>
      <trkpt lat="43.9718" lon="0.45638">
        <ele>162</ele>
        <time>2023-07-04T08:23:52Z</time>
      </trkpt>
      <trkpt lat="43.97181" lon="0.45637">
        <ele>162</ele>
        <time>2023-07-04T08:23:53Z</time>
      </trkpt>
      <trkpt lat="43.97186" lon="0.45631">
        <ele>162.8</ele>
        <time>2023-07-04T08:24:00Z</time>
      </trkpt>
      <trkpt lat="43.9719" lon="0.45628">
        <ele>162.8</ele>
        <time>2023-07-04T08:24:03Z</time>
      </trkpt>
      <trkpt lat="43.97191" lon="0.45627">
        <ele>163</ele>
        <time>2023-07-04T08:24:05Z</time>
      </trkpt>
      <trkpt lat="43.97194" lon="0.45625">
        <ele>163.2</ele>
        <time>2023-07-04T08:24:07Z</time>
      </trkpt>
      <trkpt lat="43.97198" lon="0.45622">
        <ele>163.8</ele>
        <time>2023-07-04T08:24:11Z</time>
      </trkpt>
      <trkpt lat="43.97203" lon="0.45619">
        <ele>164</ele>
        <time>2023-07-04T08:24:15Z</time>
      </trkpt>
      <trkpt lat="43.9721" lon="0.45615">
        <ele>164.6</ele>
        <time>2023-07-04T08:24:21Z</time>
      </trkpt>
      <trkpt lat="43.97212" lon="0.45613">
        <ele>164.8</ele>
        <time>2023-07-04T08:24:23Z</time>
      </trkpt>
      <trkpt lat="43.97214" lon="0.45612">
        <ele>165</ele>
        <time>2023-07-04T08:24:25Z</time>
      </trkpt>
      <trkpt lat="43.97215" lon="0.45611">
        <ele>165.2</ele>
        <time>2023-07-04T08:24:26Z</time>
      </trkpt>
      <trkpt lat="43.97216" lon="0.45611">
        <ele>165.2</ele>
        <time>2023-07-04T08:24:27Z</time>
      </trkpt>
      <trkpt lat="43.9722" lon="0.45611">
        <ele>165.6</ele>
        <time>2023-07-04T08:24:31Z</time>
      </trkpt>
      <trkpt lat="43.97222" lon="0.45614">
        <ele>166.2</ele>
        <time>2023-07-04T08:24:34Z</time>
      </trkpt>
      <trkpt lat="43.97222" lon="0.45615">
        <ele>166.4</ele>
        <time>2023-07-04T08:24:35Z</time>
      </trkpt>
      <trkpt lat="43.9722" lon="0.45626">
        <ele>167.2</ele>
        <time>2023-07-04T08:24:42Z</time>
      </trkpt>
      <trkpt lat="43.9722" lon="0.45628">
        <ele>167.4</ele>
        <time>2023-07-04T08:24:43Z</time>
      </trkpt>
      <trkpt lat="43.9722" lon="0.45632">
        <ele>167.4</ele>
        <time>2023-07-04T08:24:45Z</time>
      </trkpt>
      <trkpt lat="43.97221" lon="0.45636">
        <ele>167.4</ele>
        <time>2023-07-04T08:24:47Z</time>
      </trkpt>
      <trkpt lat="43.97221" lon="0.45639">
        <ele>167.8</ele>
        <time>2023-07-04T08:24:49Z</time>
      </trkpt>
      <trkpt lat="43.97226" lon="0.45649">
        <ele>168.4</ele>
        <time>2023-07-04T08:24:55Z</time>
      </trkpt>
      <trkpt lat="43.97227" lon="0.45654">
        <ele>168.6</ele>
        <time>2023-07-04T08:24:59Z</time>
      </trkpt>
      <trkpt lat="43.97226" lon="0.45661">
        <ele>168.6</ele>
        <time>2023-07-04T08:25:02Z</time>
      </trkpt>
      <trkpt lat="43.97226" lon="0.45667">
        <ele>168.8</ele>
        <time>2023-07-04T08:25:05Z</time>
      </trkpt>
      <trkpt lat="43.97224" lon="0.45672">
        <ele>169</ele>
        <time>2023-07-04T08:25:08Z</time>
      </trkpt>
      <trkpt lat="43.97217" lon="0.45686">
        <ele>169.2</ele>
        <time>2023-07-04T08:25:16Z</time>
      </trkpt>
      <trkpt lat="43.97215" lon="0.45695">
        <ele>169.4</ele>
        <time>2023-07-04T08:25:21Z</time>
      </trkpt>
      <trkpt lat="43.97212" lon="0.45698">
        <ele>169.6</ele>
        <time>2023-07-04T08:25:23Z</time>
      </trkpt>
      <trkpt lat="43.97211" lon="0.45698">
        <ele>169.6</ele>
        <time>2023-07-04T08:25:24Z</time>
      </trkpt>
      <trkpt lat="43.97205" lon="0.45703">
        <ele>169.8</ele>
        <time>2023-07-04T08:25:28Z</time>
      </trkpt>
      <trkpt lat="43.97204" lon="0.45705">
        <ele>170</ele>
        <time>2023-07-04T08:25:29Z</time>
      </trkpt>
      <trkpt lat="43.97199" lon="0.45714">
        <ele>169.8</ele>
        <time>2023-07-04T08:25:35Z</time>
      </trkpt>
      <trkpt lat="43.97197" lon="0.45718">
        <ele>170</ele>
        <time>2023-07-04T08:25:38Z</time>
      </trkpt>
      <trkpt lat="43.97193" lon="0.4573">
        <ele>170.4</ele>
        <time>2023-07-04T08:25:46Z</time>
      </trkpt>
      <trkpt lat="43.97192" lon="0.45733">
        <ele>170.4</ele>
        <time>2023-07-04T08:25:48Z</time>
      </trkpt>
      <trkpt lat="43.97189" lon="0.45738">
        <ele>170.8</ele>
        <time>2023-07-04T08:25:51Z</time>
      </trkpt>
      <trkpt lat="43.97186" lon="0.45741">
        <ele>170.8</ele>
        <time>2023-07-04T08:25:53Z</time>
      </trkpt>
      <trkpt lat="43.97182" lon="0.45748">
        <ele>171</ele>
        <time>2023-07-04T08:25:57Z</time>
      </trkpt>
      <trkpt lat="43.9718" lon="0.45752">
        <ele>171</ele>
        <time>2023-07-04T08:26:00Z</time>
      </trkpt>
      <trkpt lat="43.9718" lon="0.45753">
        <ele>171</ele>
        <time>2023-07-04T08:26:01Z</time>
      </trkpt>
      <trkpt lat="43.97173" lon="0.45763">
        <ele>171.2</ele>
        <time>2023-07-04T08:26:08Z</time>
      </trkpt>
      <trkpt lat="43.97172" lon="0.45766">
        <ele>171.2</ele>
        <time>2023-07-04T08:26:10Z</time>
      </trkpt>
      <trkpt lat="43.97169" lon="0.45774">
        <ele>171.4</ele>
        <time>2023-07-04T08:26:16Z</time>
      </trkpt>
      <trkpt lat="43.97168" lon="0.45775">
        <ele>171.6</ele>
        <time>2023-07-04T08:26:17Z</time>
      </trkpt>
      <trkpt lat="43.97167" lon="0.45776">
        <ele>171.6</ele>
        <time>2023-07-04T08:26:18Z</time>
      </trkpt>
      <trkpt lat="43.97166" lon="0.45778">
        <ele>171.8</ele>
        <time>2023-07-04T08:26:20Z</time>
      </trkpt>
      <trkpt lat="43.97164" lon="0.45782">
        <ele>172.2</ele>
        <time>2023-07-04T08:26:23Z</time>
      </trkpt>
      <trkpt lat="43.97163" lon="0.45785">
        <ele>172.4</ele>
        <time>2023-07-04T08:26:25Z</time>
      </trkpt>
      <trkpt lat="43.9716" lon="0.4579">
        <ele>172.4</ele>
        <time>2023-07-04T08:26:28Z</time>
      </trkpt>
      <trkpt lat="43.97155" lon="0.45799">
        <ele>172.4</ele>
        <time>2023-07-04T08:26:34Z</time>
      </trkpt>
      <trkpt lat="43.97154" lon="0.45801">
        <ele>172.6</ele>
        <time>2023-07-04T08:26:35Z</time>
      </trkpt>
      <trkpt lat="43.9715" lon="0.45811">
        <ele>172.6</ele>
        <time>2023-07-04T08:26:41Z</time>
      </trkpt>
      <trkpt lat="43.97146" lon="0.45821">
        <ele>172.4</ele>
        <time>2023-07-04T08:26:48Z</time>
      </trkpt>
      <trkpt lat="43.97145" lon="0.45823">
        <ele>172.4</ele>
        <time>2023-07-04T08:26:49Z</time>
      </trkpt>
      <trkpt lat="43.97138" lon="0.45824">
        <ele>172</ele>
        <time>2023-07-04T09:06:24Z</time>
      </trkpt>
      <trkpt lat="43.97137" lon="0.45824">
        <ele>171.6</ele>
        <time>2023-07-04T09:06:27Z</time>
      </trkpt>
      <trkpt lat="43.97137" lon="0.45824">
        <ele>171.6</ele>
        <time>2023-07-04T09:06:28Z</time>
      </trkpt>
      <trkpt lat="43.97133" lon="0.45831">
        <ele>171.2</ele>
        <time>2023-07-04T09:06:33Z</time>
      </trkpt>
      <trkpt lat="43.97131" lon="0.45835">
        <ele>171.2</ele>
        <time>2023-07-04T09:06:36Z</time>
      </trkpt>
      <trkpt lat="43.97128" lon="0.4584">
        <ele>171</ele>
        <time>2023-07-04T09:06:39Z</time>
      </trkpt>
      <trkpt lat="43.97127" lon="0.45841">
        <ele>171</ele>
        <time>2023-07-04T09:06:40Z</time>
      </trkpt>
      <trkpt lat="43.97124" lon="0.45852">
        <ele>170.8</ele>
        <time>2023-07-04T09:06:47Z</time>
      </trkpt>
      <trkpt lat="43.97118" lon="0.45862">
        <ele>171</ele>
        <time>2023-07-04T09:06:54Z</time>
      </trkpt>
      <trkpt lat="43.97115" lon="0.45872">
        <ele>170.6</ele>
        <time>2023-07-04T09:07:00Z</time>
      </trkpt>
      <trkpt lat="43.97113" lon="0.45876">
        <ele>170.6</ele>
        <time>2023-07-04T09:07:02Z</time>
      </trkpt>
      <trkpt lat="43.97108" lon="0.45888">
        <ele>171</ele>
        <time>2023-07-04T09:07:09Z</time>
      </trkpt>
      <trkpt lat="43.97107" lon="0.45895">
        <ele>171.2</ele>
        <time>2023-07-04T09:07:13Z</time>
      </trkpt>
      <trkpt lat="43.97105" lon="0.45901">
        <ele>171</ele>
        <time>2023-07-04T09:07:16Z</time>
      </trkpt>
      <trkpt lat="43.97103" lon="0.45907">
        <ele>171.2</ele>
        <time>2023-07-04T09:07:19Z</time>
      </trkpt>
      <trkpt lat="43.97102" lon="0.45914">
        <ele>171.2</ele>
        <time>2023-07-04T09:07:23Z</time>
      </trkpt>
      <trkpt lat="43.971" lon="0.45918">
        <ele>171.4</ele>
        <time>2023-07-04T09:07:26Z</time>
      </trkpt>
      <trkpt lat="43.97097" lon="0.45928">
        <ele>171.6</ele>
        <time>2023-07-04T09:07:32Z</time>
      </trkpt>
      <trkpt lat="43.97096" lon="0.45932">
        <ele>171.4</ele>
        <time>2023-07-04T09:07:34Z</time>
      </trkpt>
      <trkpt lat="43.97092" lon="0.45943">
        <ele>171.4</ele>
        <time>2023-07-04T09:07:41Z</time>
      </trkpt>
      <trkpt lat="43.97091" lon="0.45948">
        <ele>171.2</ele>
        <time>2023-07-04T09:07:44Z</time>
      </trkpt>
      <trkpt lat="43.9709" lon="0.45953">
        <ele>171.2</ele>
        <time>2023-07-04T09:07:47Z</time>
      </trkpt>
      <trkpt lat="43.97085" lon="0.45969">
        <ele>171.2</ele>
        <time>2023-07-04T09:07:56Z</time>
      </trkpt>
      <trkpt lat="43.97081" lon="0.45988">
        <ele>171.2</ele>
        <time>2023-07-04T09:08:06Z</time>
      </trkpt>
      <trkpt lat="43.97076" lon="0.46004">
        <ele>171.4</ele>
        <time>2023-07-04T09:08:15Z</time>
      </trkpt>
      <trkpt lat="43.97071" lon="0.4602">
        <ele>171.6</ele>
        <time>2023-07-04T09:08:24Z</time>
      </trkpt>
      <trkpt lat="43.97068" lon="0.46029">
        <ele>171.4</ele>
        <time>2023-07-04T09:08:30Z</time>
      </trkpt>
      <trkpt lat="43.97066" lon="0.46033">
        <ele>171.4</ele>
        <time>2023-07-04T09:08:32Z</time>
      </trkpt>
      <trkpt lat="43.97066" lon="0.46035">
        <ele>171.2</ele>
        <time>2023-07-04T09:08:33Z</time>
      </trkpt>
      <trkpt lat="43.97064" lon="0.46041">
        <ele>171.2</ele>
        <time>2023-07-04T09:08:37Z</time>
      </trkpt>
      <trkpt lat="43.97062" lon="0.46048">
        <ele>171.2</ele>
        <time>2023-07-04T09:08:41Z</time>
      </trkpt>
      <trkpt lat="43.97061" lon="0.46052">
        <ele>171.4</ele>
        <time>2023-07-04T09:08:43Z</time>
      </trkpt>
      <trkpt lat="43.9706" lon="0.46053">
        <ele>171.4</ele>
        <time>2023-07-04T09:08:44Z</time>
      </trkpt>
      <trkpt lat="43.97059" lon="0.46056">
        <ele>171.4</ele>
        <time>2023-07-04T09:08:45Z</time>
      </trkpt>
      <trkpt lat="43.97057" lon="0.46067">
        <ele>171.4</ele>
        <time>2023-07-04T09:08:52Z</time>
      </trkpt>
      <trkpt lat="43.97054" lon="0.46077">
        <ele>171.4</ele>
        <time>2023-07-04T09:08:58Z</time>
      </trkpt>
      <trkpt lat="43.97049" lon="0.4609">
        <ele>171.6</ele>
        <time>2023-07-04T09:09:06Z</time>
      </trkpt>
      <trkpt lat="43.97049" lon="0.46094">
        <ele>171.8</ele>
        <time>2023-07-04T09:09:08Z</time>
      </trkpt>
      <trkpt lat="43.97047" lon="0.461">
        <ele>172</ele>
        <time>2023-07-04T09:09:12Z</time>
      </trkpt>
      <trkpt lat="43.97042" lon="0.46115">
        <ele>172</ele>
        <time>2023-07-04T09:09:21Z</time>
      </trkpt>
      <trkpt lat="43.97041" lon="0.46118">
        <ele>172</ele>
        <time>2023-07-04T09:09:23Z</time>
      </trkpt>
      <trkpt lat="43.9704" lon="0.46121">
        <ele>172</ele>
        <time>2023-07-04T09:09:25Z</time>
      </trkpt>
      <trkpt lat="43.97039" lon="0.46125">
        <ele>172</ele>
        <time>2023-07-04T09:09:27Z</time>
      </trkpt>
      <trkpt lat="43.97035" lon="0.46141">
        <ele>172.2</ele>
        <time>2023-07-04T09:09:36Z</time>
      </trkpt>
      <trkpt lat="43.97032" lon="0.46153">
        <ele>172</ele>
        <time>2023-07-04T09:09:43Z</time>
      </trkpt>
      <trkpt lat="43.97027" lon="0.4617">
        <ele>172</ele>
        <time>2023-07-04T09:09:52Z</time>
      </trkpt>
      <trkpt lat="43.97025" lon="0.46177">
        <ele>171.6</ele>
        <time>2023-07-04T09:09:56Z</time>
      </trkpt>
      <trkpt lat="43.97023" lon="0.46187">
        <ele>171.4</ele>
        <time>2023-07-04T09:10:01Z</time>
      </trkpt>
      <trkpt lat="43.9702" lon="0.46203">
        <ele>171.4</ele>
        <time>2023-07-04T09:10:10Z</time>
      </trkpt>
      <trkpt lat="43.97019" lon="0.46213">
        <ele>171</ele>
        <time>2023-07-04T09:10:15Z</time>
      </trkpt>
      <trkpt lat="43.97019" lon="0.46215">
        <ele>171</ele>
        <time>2023-07-04T09:10:16Z</time>
      </trkpt>
      <trkpt lat="43.97018" lon="0.46222">
        <ele>171</ele>
        <time>2023-07-04T09:10:20Z</time>
      </trkpt>
      <trkpt lat="43.97017" lon="0.46227">
        <ele>171</ele>
        <time>2023-07-04T09:10:23Z</time>
      </trkpt>
      <trkpt lat="43.97016" lon="0.46229">
        <ele>170.8</ele>
        <time>2023-07-04T09:10:24Z</time>
      </trkpt>
      <trkpt lat="43.97014" lon="0.46245">
        <ele>170.6</ele>
        <time>2023-07-04T09:10:32Z</time>
      </trkpt>
      <trkpt lat="43.97016" lon="0.46263">
        <ele>170.4</ele>
        <time>2023-07-04T09:10:40Z</time>
      </trkpt>
      <trkpt lat="43.97018" lon="0.46279">
        <ele>170.8</ele>
        <time>2023-07-04T09:10:49Z</time>
      </trkpt>
      <trkpt lat="43.97021" lon="0.46288">
        <ele>170.8</ele>
        <time>2023-07-04T09:10:54Z</time>
      </trkpt>
      <trkpt lat="43.97022" lon="0.4629">
        <ele>170.6</ele>
        <time>2023-07-04T09:10:55Z</time>
      </trkpt>
      <trkpt lat="43.97029" lon="0.46302">
        <ele>170.6</ele>
        <time>2023-07-04T09:11:02Z</time>
      </trkpt>
      <trkpt lat="43.97033" lon="0.46317">
        <ele>170.2</ele>
        <time>2023-07-04T09:11:11Z</time>
      </trkpt>
      <trkpt lat="43.97035" lon="0.46328">
        <ele>169.6</ele>
        <time>2023-07-04T09:11:17Z</time>
      </trkpt>
      <trkpt lat="43.97035" lon="0.46329">
        <ele>169.6</ele>
        <time>2023-07-04T09:11:18Z</time>
      </trkpt>
      <trkpt lat="43.97035" lon="0.46331">
        <ele>169.6</ele>
        <time>2023-07-04T09:11:19Z</time>
      </trkpt>
      <trkpt lat="43.97035" lon="0.46333">
        <ele>169.8</ele>
        <time>2023-07-04T09:11:20Z</time>
      </trkpt>
      <trkpt lat="43.97035" lon="0.46336">
        <ele>169.8</ele>
        <time>2023-07-04T09:11:22Z</time>
      </trkpt>
      <trkpt lat="43.97035" lon="0.46338">
        <ele>169.8</ele>
        <time>2023-07-04T09:11:23Z</time>
      </trkpt>
      <trkpt lat="43.97034" lon="0.46343">
        <ele>169.8</ele>
        <time>2023-07-04T09:11:25Z</time>
      </trkpt>
      <trkpt lat="43.97034" lon="0.46349">
        <ele>169.8</ele>
        <time>2023-07-04T09:11:28Z</time>
      </trkpt>
      <trkpt lat="43.97033" lon="0.46352">
        <ele>169.8</ele>
        <time>2023-07-04T09:11:30Z</time>
      </trkpt>
      <trkpt lat="43.97033" lon="0.46355">
        <ele>169.6</ele>
        <time>2023-07-04T09:11:32Z</time>
      </trkpt>
      <trkpt lat="43.97033" lon="0.46356">
        <ele>169.6</ele>
        <time>2023-07-04T09:11:33Z</time>
      </trkpt>
      <trkpt lat="43.97032" lon="0.46358">
        <ele>169.4</ele>
        <time>2023-07-04T09:11:34Z</time>
      </trkpt>
      <trkpt lat="43.97029" lon="0.46368">
        <ele>169</ele>
        <time>2023-07-04T09:11:39Z</time>
      </trkpt>
      <trkpt lat="43.97028" lon="0.46372">
        <ele>168.8</ele>
        <time>2023-07-04T09:11:42Z</time>
      </trkpt>
      <trkpt lat="43.97023" lon="0.46387">
        <ele>169.2</ele>
        <time>2023-07-04T09:11:50Z</time>
      </trkpt>
      <trkpt lat="43.97019" lon="0.46399">
        <ele>169.4</ele>
        <time>2023-07-04T09:11:57Z</time>
      </trkpt>
      <trkpt lat="43.97018" lon="0.464">
        <ele>169.2</ele>
        <time>2023-07-04T09:11:58Z</time>
      </trkpt>
      <trkpt lat="43.97014" lon="0.46411">
        <ele>169</ele>
        <time>2023-07-04T09:12:04Z</time>
      </trkpt>
      <trkpt lat="43.97012" lon="0.46416">
        <ele>169.2</ele>
        <time>2023-07-04T09:12:07Z</time>
      </trkpt>
      <trkpt lat="43.9701" lon="0.46421">
        <ele>169.2</ele>
        <time>2023-07-04T09:12:10Z</time>
      </trkpt>
      <trkpt lat="43.97007" lon="0.46426">
        <ele>168.8</ele>
        <time>2023-07-04T09:12:14Z</time>
      </trkpt>
      <trkpt lat="43.97002" lon="0.46434">
        <ele>169</ele>
        <time>2023-07-04T09:12:20Z</time>
      </trkpt>
      <trkpt lat="43.96999" lon="0.46437">
        <ele>169</ele>
        <time>2023-07-04T09:12:23Z</time>
      </trkpt>
      <trkpt lat="43.96995" lon="0.4644">
        <ele>169.2</ele>
        <time>2023-07-04T09:12:26Z</time>
      </trkpt>
      <trkpt lat="43.96985" lon="0.46446">
        <ele>169.6</ele>
        <time>2023-07-04T09:12:34Z</time>
      </trkpt>
      <trkpt lat="43.96978" lon="0.46452">
        <ele>169.8</ele>
        <time>2023-07-04T09:12:40Z</time>
      </trkpt>
      <trkpt lat="43.96973" lon="0.46456">
        <ele>170</ele>
        <time>2023-07-04T09:12:44Z</time>
      </trkpt>
      <trkpt lat="43.9697" lon="0.46458">
        <ele>170</ele>
        <time>2023-07-04T09:12:47Z</time>
      </trkpt>
      <trkpt lat="43.9696" lon="0.46462">
        <ele>169.8</ele>
        <time>2023-07-04T09:12:55Z</time>
      </trkpt>
      <trkpt lat="43.96948" lon="0.4647">
        <ele>170.4</ele>
        <time>2023-07-04T09:13:04Z</time>
      </trkpt>
      <trkpt lat="43.9694" lon="0.46479">
        <ele>170.2</ele>
        <time>2023-07-04T09:13:12Z</time>
      </trkpt>
      <trkpt lat="43.9693" lon="0.46494">
        <ele>170</ele>
        <time>2023-07-04T09:13:22Z</time>
      </trkpt>
      <trkpt lat="43.96926" lon="0.46503">
        <ele>170</ele>
        <time>2023-07-04T09:13:28Z</time>
      </trkpt>
      <trkpt lat="43.96924" lon="0.46507">
        <ele>169.8</ele>
        <time>2023-07-04T09:13:31Z</time>
      </trkpt>
      <trkpt lat="43.96916" lon="0.46522">
        <ele>169.8</ele>
        <time>2023-07-04T09:13:40Z</time>
      </trkpt>
      <trkpt lat="43.96908" lon="0.46533">
        <ele>170</ele>
        <time>2023-07-04T09:13:47Z</time>
      </trkpt>
      <trkpt lat="43.96907" lon="0.46535">
        <ele>170.2</ele>
        <time>2023-07-04T09:13:48Z</time>
      </trkpt>
      <trkpt lat="43.96904" lon="0.46539">
        <ele>170.2</ele>
        <time>2023-07-04T09:13:51Z</time>
      </trkpt>
      <trkpt lat="43.96898" lon="0.46549">
        <ele>170.2</ele>
        <time>2023-07-04T09:13:58Z</time>
      </trkpt>
      <trkpt lat="43.96891" lon="0.46557">
        <ele>170.2</ele>
        <time>2023-07-04T09:14:05Z</time>
      </trkpt>
      <trkpt lat="43.96889" lon="0.46561">
        <ele>170.2</ele>
        <time>2023-07-04T09:14:08Z</time>
      </trkpt>
      <trkpt lat="43.96883" lon="0.46567">
        <ele>170</ele>
        <time>2023-07-04T09:14:13Z</time>
      </trkpt>
      <trkpt lat="43.9688" lon="0.46571">
        <ele>170.2</ele>
        <time>2023-07-04T09:14:16Z</time>
      </trkpt>
      <trkpt lat="43.96878" lon="0.46573">
        <ele>170</ele>
        <time>2023-07-04T09:14:18Z</time>
      </trkpt>
      <trkpt lat="43.96877" lon="0.46574">
        <ele>170.2</ele>
        <time>2023-07-04T09:14:19Z</time>
      </trkpt>
      <trkpt lat="43.96872" lon="0.46579">
        <ele>170.2</ele>
        <time>2023-07-04T09:14:23Z</time>
      </trkpt>
      <trkpt lat="43.96868" lon="0.46582">
        <ele>170.2</ele>
        <time>2023-07-04T09:14:26Z</time>
      </trkpt>
      <trkpt lat="43.96867" lon="0.46584">
        <ele>170.2</ele>
        <time>2023-07-04T09:14:27Z</time>
      </trkpt>
      <trkpt lat="43.96857" lon="0.46595">
        <ele>170.2</ele>
        <time>2023-07-04T09:14:36Z</time>
      </trkpt>
      <trkpt lat="43.96853" lon="0.46598">
        <ele>170.2</ele>
        <time>2023-07-04T09:14:39Z</time>
      </trkpt>
      <trkpt lat="43.96847" lon="0.46605">
        <ele>170.2</ele>
        <time>2023-07-04T09:14:45Z</time>
      </trkpt>
      <trkpt lat="43.96839" lon="0.46614">
        <ele>170.2</ele>
        <time>2023-07-04T09:14:53Z</time>
      </trkpt>
      <trkpt lat="43.96838" lon="0.46615">
        <ele>170.2</ele>
        <time>2023-07-04T09:14:54Z</time>
      </trkpt>
      <trkpt lat="43.96837" lon="0.46616">
        <ele>170.2</ele>
        <time>2023-07-04T09:14:55Z</time>
      </trkpt>
      <trkpt lat="43.96832" lon="0.46622">
        <ele>170.2</ele>
        <time>2023-07-04T09:15:00Z</time>
      </trkpt>
      <trkpt lat="43.96829" lon="0.46624">
        <ele>170.2</ele>
        <time>2023-07-04T09:15:02Z</time>
      </trkpt>
      <trkpt lat="43.9682" lon="0.46636">
        <ele>170</ele>
        <time>2023-07-04T09:15:11Z</time>
      </trkpt>
      <trkpt lat="43.96811" lon="0.46647">
        <ele>170.2</ele>
        <time>2023-07-04T09:15:19Z</time>
      </trkpt>
      <trkpt lat="43.968" lon="0.4666">
        <ele>169.4</ele>
        <time>2023-07-04T09:15:29Z</time>
      </trkpt>
      <trkpt lat="43.9679" lon="0.46672">
        <ele>169.4</ele>
        <time>2023-07-04T09:15:38Z</time>
      </trkpt>
      <trkpt lat="43.96784" lon="0.46679">
        <ele>169</ele>
        <time>2023-07-04T09:15:44Z</time>
      </trkpt>
      <trkpt lat="43.96781" lon="0.46682">
        <ele>169</ele>
        <time>2023-07-04T09:15:46Z</time>
      </trkpt>
      <trkpt lat="43.96776" lon="0.46687">
        <ele>168.8</ele>
        <time>2023-07-04T09:15:51Z</time>
      </trkpt>
      <trkpt lat="43.96772" lon="0.46691">
        <ele>168.8</ele>
        <time>2023-07-04T09:15:54Z</time>
      </trkpt>
      <trkpt lat="43.96768" lon="0.46697">
        <ele>168.4</ele>
        <time>2023-07-04T09:15:58Z</time>
      </trkpt>
      <trkpt lat="43.96764" lon="0.46702">
        <ele>168.4</ele>
        <time>2023-07-04T09:16:02Z</time>
      </trkpt>
      <trkpt lat="43.96758" lon="0.46709">
        <ele>168.6</ele>
        <time>2023-07-04T09:16:08Z</time>
      </trkpt>
      <trkpt lat="43.96756" lon="0.46713">
        <ele>168.6</ele>
        <time>2023-07-04T09:16:10Z</time>
      </trkpt>
      <trkpt lat="43.96751" lon="0.46721">
        <ele>168.8</ele>
        <time>2023-07-04T09:16:15Z</time>
      </trkpt>
      <trkpt lat="43.96748" lon="0.46725">
        <ele>168.6</ele>
        <time>2023-07-04T09:16:18Z</time>
      </trkpt>
      <trkpt lat="43.96739" lon="0.46741">
        <ele>168.6</ele>
        <time>2023-07-04T09:16:28Z</time>
      </trkpt>
      <trkpt lat="43.96729" lon="0.46756">
        <ele>168.8</ele>
        <time>2023-07-04T09:16:38Z</time>
      </trkpt>
      <trkpt lat="43.9672" lon="0.46766">
        <ele>168.6</ele>
        <time>2023-07-04T09:16:47Z</time>
      </trkpt>
      <trkpt lat="43.96716" lon="0.46772">
        <ele>168.6</ele>
        <time>2023-07-04T09:16:52Z</time>
      </trkpt>
      <trkpt lat="43.96716" lon="0.46772">
        <ele>168.6</ele>
        <time>2023-07-04T09:16:53Z</time>
      </trkpt>
      <trkpt lat="43.96717" lon="0.46771">
        <ele>169</ele>
        <time>2023-07-04T09:17:02Z</time>
      </trkpt>
      <trkpt lat="43.96717" lon="0.46771">
        <ele>169</ele>
        <time>2023-07-04T09:17:07Z</time>
      </trkpt>
      <trkpt lat="43.96717" lon="0.46771">
        <ele>168.8</ele>
        <time>2023-07-04T09:17:09Z</time>
      </trkpt>
      <trkpt lat="43.96717" lon="0.46772">
        <ele>168.6</ele>
        <time>2023-07-04T09:17:15Z</time>
      </trkpt>
      <trkpt lat="43.96716" lon="0.46773">
        <ele>168.4</ele>
        <time>2023-07-04T09:17:17Z</time>
      </trkpt>
      <trkpt lat="43.96705" lon="0.46782">
        <ele>169</ele>
        <time>2023-07-04T09:17:25Z</time>
      </trkpt>
      <trkpt lat="43.96698" lon="0.46788">
        <ele>169</ele>
        <time>2023-07-04T09:17:32Z</time>
      </trkpt>
      <trkpt lat="43.96696" lon="0.4679">
        <ele>169</ele>
        <time>2023-07-04T09:17:34Z</time>
      </trkpt>
      <trkpt lat="43.96689" lon="0.46797">
        <ele>169.2</ele>
        <time>2023-07-04T09:17:40Z</time>
      </trkpt>
      <trkpt lat="43.96684" lon="0.468">
        <ele>169.4</ele>
        <time>2023-07-04T09:17:44Z</time>
      </trkpt>
      <trkpt lat="43.96677" lon="0.46805">
        <ele>169.8</ele>
        <time>2023-07-04T09:17:49Z</time>
      </trkpt>
      <trkpt lat="43.96668" lon="0.46811">
        <ele>169.6</ele>
        <time>2023-07-04T09:17:56Z</time>
      </trkpt>
      <trkpt lat="43.96659" lon="0.46822">
        <ele>170.4</ele>
        <time>2023-07-04T09:18:05Z</time>
      </trkpt>
      <trkpt lat="43.96656" lon="0.4683">
        <ele>170.6</ele>
        <time>2023-07-04T09:18:10Z</time>
      </trkpt>
      <trkpt lat="43.96654" lon="0.46832">
        <ele>170.6</ele>
        <time>2023-07-04T09:18:12Z</time>
      </trkpt>
      <trkpt lat="43.96647" lon="0.46841">
        <ele>170.8</ele>
        <time>2023-07-04T09:18:20Z</time>
      </trkpt>
      <trkpt lat="43.96639" lon="0.46848">
        <ele>170.8</ele>
        <time>2023-07-04T09:18:27Z</time>
      </trkpt>
      <trkpt lat="43.96637" lon="0.4685">
        <ele>171</ele>
        <time>2023-07-04T09:18:29Z</time>
      </trkpt>
      <trkpt lat="43.96635" lon="0.46853">
        <ele>171</ele>
        <time>2023-07-04T09:18:31Z</time>
      </trkpt>
      <trkpt lat="43.96634" lon="0.46854">
        <ele>171.2</ele>
        <time>2023-07-04T09:18:32Z</time>
      </trkpt>
      <trkpt lat="43.96633" lon="0.46856">
        <ele>171.2</ele>
        <time>2023-07-04T09:18:33Z</time>
      </trkpt>
      <trkpt lat="43.96632" lon="0.46857">
        <ele>171.4</ele>
        <time>2023-07-04T09:18:34Z</time>
      </trkpt>
      <trkpt lat="43.96631" lon="0.46858">
        <ele>171.4</ele>
        <time>2023-07-04T09:18:35Z</time>
      </trkpt>
      <trkpt lat="43.9663" lon="0.4686">
        <ele>171.4</ele>
        <time>2023-07-04T09:18:36Z</time>
      </trkpt>
      <trkpt lat="43.96627" lon="0.46862">
        <ele>171.6</ele>
        <time>2023-07-04T09:18:38Z</time>
      </trkpt>
      <trkpt lat="43.96624" lon="0.46866">
        <ele>171.6</ele>
        <time>2023-07-04T09:18:41Z</time>
      </trkpt>
      <trkpt lat="43.96623" lon="0.46868">
        <ele>171.6</ele>
        <time>2023-07-04T09:18:43Z</time>
      </trkpt>
      <trkpt lat="43.9662" lon="0.46872">
        <ele>171.6</ele>
        <time>2023-07-04T09:18:46Z</time>
      </trkpt>
      <trkpt lat="43.96611" lon="0.46884">
        <ele>171.6</ele>
        <time>2023-07-04T09:18:55Z</time>
      </trkpt>
      <trkpt lat="43.96605" lon="0.46894">
        <ele>171.8</ele>
        <time>2023-07-04T09:19:02Z</time>
      </trkpt>
      <trkpt lat="43.96601" lon="0.469">
        <ele>172.2</ele>
        <time>2023-07-04T09:19:06Z</time>
      </trkpt>
      <trkpt lat="43.96597" lon="0.46903">
        <ele>172.4</ele>
        <time>2023-07-04T09:19:09Z</time>
      </trkpt>
      <trkpt lat="43.96587" lon="0.46912">
        <ele>172.6</ele>
        <time>2023-07-04T09:19:17Z</time>
      </trkpt>
      <trkpt lat="43.96586" lon="0.46913">
        <ele>172.8</ele>
        <time>2023-07-04T09:19:18Z</time>
      </trkpt>
      <trkpt lat="43.9658" lon="0.4692">
        <ele>173</ele>
        <time>2023-07-04T09:19:25Z</time>
      </trkpt>
      <trkpt lat="43.96575" lon="0.46924">
        <ele>173.4</ele>
        <time>2023-07-04T09:19:29Z</time>
      </trkpt>
      <trkpt lat="43.96572" lon="0.46927">
        <ele>173.4</ele>
        <time>2023-07-04T09:19:31Z</time>
      </trkpt>
      <trkpt lat="43.96571" lon="0.46929">
        <ele>173.4</ele>
        <time>2023-07-04T09:19:32Z</time>
      </trkpt>
      <trkpt lat="43.96564" lon="0.46933">
        <ele>173.6</ele>
        <time>2023-07-04T09:19:37Z</time>
      </trkpt>
      <trkpt lat="43.96559" lon="0.46935">
        <ele>174</ele>
        <time>2023-07-04T09:19:41Z</time>
      </trkpt>
      <trkpt lat="43.96555" lon="0.46938">
        <ele>174.6</ele>
        <time>2023-07-04T09:19:45Z</time>
      </trkpt>
      <trkpt lat="43.96548" lon="0.46941">
        <ele>174.8</ele>
        <time>2023-07-04T09:19:51Z</time>
      </trkpt>
      <trkpt lat="43.96547" lon="0.46941">
        <ele>174.8</ele>
        <time>2023-07-04T09:19:52Z</time>
      </trkpt>
      <trkpt lat="43.96542" lon="0.46939">
        <ele>175.2</ele>
        <time>2023-07-04T09:19:56Z</time>
      </trkpt>
      <trkpt lat="43.96539" lon="0.46939">
        <ele>175.2</ele>
        <time>2023-07-04T09:19:58Z</time>
      </trkpt>
      <trkpt lat="43.96534" lon="0.46938">
        <ele>175.8</ele>
        <time>2023-07-04T09:20:02Z</time>
      </trkpt>
      <trkpt lat="43.96525" lon="0.46939">
        <ele>176.6</ele>
        <time>2023-07-04T09:20:10Z</time>
      </trkpt>
      <trkpt lat="43.96524" lon="0.46939">
        <ele>176.8</ele>
        <time>2023-07-04T09:20:11Z</time>
      </trkpt>
      <trkpt lat="43.96515" lon="0.46941">
        <ele>177.8</ele>
        <time>2023-07-04T09:20:19Z</time>
      </trkpt>
      <trkpt lat="43.96513" lon="0.46942">
        <ele>178</ele>
        <time>2023-07-04T09:20:21Z</time>
      </trkpt>
      <trkpt lat="43.9651" lon="0.46946">
        <ele>178.6</ele>
        <time>2023-07-04T09:20:24Z</time>
      </trkpt>
      <trkpt lat="43.96509" lon="0.46949">
        <ele>179</ele>
        <time>2023-07-04T09:20:26Z</time>
      </trkpt>
      <trkpt lat="43.96508" lon="0.46951">
        <ele>179.2</ele>
        <time>2023-07-04T09:20:27Z</time>
      </trkpt>
      <trkpt lat="43.96499" lon="0.46965">
        <ele>179</ele>
        <time>2023-07-04T09:20:36Z</time>
      </trkpt>
      <trkpt lat="43.96496" lon="0.46969">
        <ele>179</ele>
        <time>2023-07-04T09:20:39Z</time>
      </trkpt>
      <trkpt lat="43.96493" lon="0.46983">
        <ele>179.2</ele>
        <time>2023-07-04T09:20:44Z</time>
      </trkpt>
      <trkpt lat="43.96495" lon="0.46995">
        <ele>179.4</ele>
        <time>2023-07-04T09:20:48Z</time>
      </trkpt>
      <trkpt lat="43.96494" lon="0.47001">
        <ele>179.4</ele>
        <time>2023-07-04T09:20:51Z</time>
      </trkpt>
      <trkpt lat="43.96494" lon="0.47003">
        <ele>179.4</ele>
        <time>2023-07-04T09:20:52Z</time>
      </trkpt>
      <trkpt lat="43.96493" lon="0.47017">
        <ele>179</ele>
        <time>2023-07-04T09:21:00Z</time>
      </trkpt>
      <trkpt lat="43.9649" lon="0.47026">
        <ele>179</ele>
        <time>2023-07-04T09:21:05Z</time>
      </trkpt>
      <trkpt lat="43.96489" lon="0.47029">
        <ele>179</ele>
        <time>2023-07-04T09:21:06Z</time>
      </trkpt>
      <trkpt lat="43.96485" lon="0.47045">
        <ele>178.6</ele>
        <time>2023-07-04T09:21:15Z</time>
      </trkpt>
      <trkpt lat="43.96485" lon="0.47047">
        <ele>178.8</ele>
        <time>2023-07-04T09:21:16Z</time>
      </trkpt>
      <trkpt lat="43.96484" lon="0.47054">
        <ele>178.6</ele>
        <time>2023-07-04T09:21:19Z</time>
      </trkpt>
      <trkpt lat="43.96481" lon="0.47064">
        <ele>178</ele>
        <time>2023-07-04T09:21:25Z</time>
      </trkpt>
      <trkpt lat="43.96478" lon="0.47079">
        <ele>177.6</ele>
        <time>2023-07-04T09:21:33Z</time>
      </trkpt>
      <trkpt lat="43.96476" lon="0.47091">
        <ele>177.4</ele>
        <time>2023-07-04T09:21:39Z</time>
      </trkpt>
      <trkpt lat="43.96475" lon="0.47092">
        <ele>177.4</ele>
        <time>2023-07-04T09:21:40Z</time>
      </trkpt>
      <trkpt lat="43.96474" lon="0.47094">
        <ele>177.4</ele>
        <time>2023-07-04T09:21:41Z</time>
      </trkpt>
      <trkpt lat="43.96471" lon="0.47101">
        <ele>177.6</ele>
        <time>2023-07-04T09:21:45Z</time>
      </trkpt>
      <trkpt lat="43.96467" lon="0.47107">
        <ele>177.6</ele>
        <time>2023-07-04T09:21:49Z</time>
      </trkpt>
      <trkpt lat="43.96459" lon="0.47124">
        <ele>177.4</ele>
        <time>2023-07-04T09:21:59Z</time>
      </trkpt>
      <trkpt lat="43.96455" lon="0.47133">
        <ele>177.2</ele>
        <time>2023-07-04T09:22:05Z</time>
      </trkpt>
      <trkpt lat="43.96452" lon="0.47138">
        <ele>177.2</ele>
        <time>2023-07-04T09:22:08Z</time>
      </trkpt>
      <trkpt lat="43.96445" lon="0.47154">
        <ele>177.2</ele>
        <time>2023-07-04T09:22:18Z</time>
      </trkpt>
      <trkpt lat="43.96441" lon="0.47162">
        <ele>177</ele>
        <time>2023-07-04T09:22:24Z</time>
      </trkpt>
      <trkpt lat="43.96435" lon="0.47179">
        <ele>176.8</ele>
        <time>2023-07-04T09:22:33Z</time>
      </trkpt>
      <trkpt lat="43.96431" lon="0.47189">
        <ele>177</ele>
        <time>2023-07-04T09:22:38Z</time>
      </trkpt>
      <trkpt lat="43.9643" lon="0.47191">
        <ele>177</ele>
        <time>2023-07-04T09:22:39Z</time>
      </trkpt>
      <trkpt lat="43.96426" lon="0.47197">
        <ele>177</ele>
        <time>2023-07-04T09:22:43Z</time>
      </trkpt>
      <trkpt lat="43.96423" lon="0.47205">
        <ele>177.2</ele>
        <time>2023-07-04T09:22:48Z</time>
      </trkpt>
      <trkpt lat="43.96421" lon="0.4721">
        <ele>177</ele>
        <time>2023-07-04T09:22:51Z</time>
      </trkpt>
      <trkpt lat="43.96416" lon="0.47223">
        <ele>177</ele>
        <time>2023-07-04T09:22:58Z</time>
      </trkpt>
      <trkpt lat="43.96409" lon="0.47235">
        <ele>177.4</ele>
        <time>2023-07-04T09:23:06Z</time>
      </trkpt>
      <trkpt lat="43.96409" lon="0.47236">
        <ele>177.4</ele>
        <time>2023-07-04T09:23:07Z</time>
      </trkpt>
      <trkpt lat="43.96405" lon="0.47242">
        <ele>177.6</ele>
        <time>2023-07-04T09:23:11Z</time>
      </trkpt>
      <trkpt lat="43.96402" lon="0.47248">
        <ele>178</ele>
        <time>2023-07-04T09:23:14Z</time>
      </trkpt>
      <trkpt lat="43.96401" lon="0.47249">
        <ele>178</ele>
        <time>2023-07-04T09:23:15Z</time>
      </trkpt>
      <trkpt lat="43.96397" lon="0.47259">
        <ele>178</ele>
        <time>2023-07-04T09:23:22Z</time>
      </trkpt>
      <trkpt lat="43.9639" lon="0.47271">
        <ele>178.4</ele>
        <time>2023-07-04T09:23:29Z</time>
      </trkpt>
      <trkpt lat="43.96389" lon="0.47272">
        <ele>178.6</ele>
        <time>2023-07-04T09:23:30Z</time>
      </trkpt>
      <trkpt lat="43.96386" lon="0.47278">
        <ele>178.4</ele>
        <time>2023-07-04T09:23:34Z</time>
      </trkpt>
      <trkpt lat="43.96382" lon="0.47284">
        <ele>178.4</ele>
        <time>2023-07-04T09:23:38Z</time>
      </trkpt>
      <trkpt lat="43.96381" lon="0.47286">
        <ele>178.4</ele>
        <time>2023-07-04T09:23:40Z</time>
      </trkpt>
      <trkpt lat="43.96376" lon="0.47293">
        <ele>178.6</ele>
        <time>2023-07-04T09:23:45Z</time>
      </trkpt>
      <trkpt lat="43.96374" lon="0.47295">
        <ele>178.6</ele>
        <time>2023-07-04T09:23:47Z</time>
      </trkpt>
      <trkpt lat="43.96368" lon="0.47302">
        <ele>179</ele>
        <time>2023-07-04T09:23:53Z</time>
      </trkpt>
      <trkpt lat="43.96367" lon="0.47303">
        <ele>179</ele>
        <time>2023-07-04T09:23:54Z</time>
      </trkpt>
      <trkpt lat="43.9636" lon="0.47311">
        <ele>179.2</ele>
        <time>2023-07-04T09:24:00Z</time>
      </trkpt>
      <trkpt lat="43.96353" lon="0.47317">
        <ele>179.2</ele>
        <time>2023-07-04T09:24:05Z</time>
      </trkpt>
      <trkpt lat="43.96352" lon="0.47318">
        <ele>179</ele>
        <time>2023-07-04T09:24:06Z</time>
      </trkpt>
      <trkpt lat="43.96349" lon="0.4732">
        <ele>179</ele>
        <time>2023-07-04T09:24:08Z</time>
      </trkpt>
      <trkpt lat="43.96343" lon="0.47324">
        <ele>179.2</ele>
        <time>2023-07-04T09:24:13Z</time>
      </trkpt>
      <trkpt lat="43.96338" lon="0.47328">
        <ele>179.2</ele>
        <time>2023-07-04T09:24:17Z</time>
      </trkpt>
      <trkpt lat="43.96334" lon="0.47331">
        <ele>179.2</ele>
        <time>2023-07-04T09:24:20Z</time>
      </trkpt>
      <trkpt lat="43.96322" lon="0.47339">
        <ele>178.8</ele>
        <time>2023-07-04T09:24:29Z</time>
      </trkpt>
      <trkpt lat="43.96307" lon="0.47349">
        <ele>178.6</ele>
        <time>2023-07-04T09:24:39Z</time>
      </trkpt>
      <trkpt lat="43.96297" lon="0.47355">
        <ele>178.4</ele>
        <time>2023-07-04T09:24:47Z</time>
      </trkpt>
      <trkpt lat="43.96293" lon="0.47357">
        <ele>178.2</ele>
        <time>2023-07-04T09:24:50Z</time>
      </trkpt>
      <trkpt lat="43.96289" lon="0.4736">
        <ele>178.4</ele>
        <time>2023-07-04T09:24:53Z</time>
      </trkpt>
      <trkpt lat="43.96288" lon="0.47361">
        <ele>178.4</ele>
        <time>2023-07-04T09:24:54Z</time>
      </trkpt>
      <trkpt lat="43.96281" lon="0.47366">
        <ele>178.4</ele>
        <time>2023-07-04T09:25:00Z</time>
      </trkpt>
      <trkpt lat="43.96277" lon="0.47369">
        <ele>178</ele>
        <time>2023-07-04T09:25:03Z</time>
      </trkpt>
      <trkpt lat="43.96271" lon="0.47375">
        <ele>177.8</ele>
        <time>2023-07-04T09:25:08Z</time>
      </trkpt>
      <trkpt lat="43.96269" lon="0.47377">
        <ele>177.8</ele>
        <time>2023-07-04T09:25:10Z</time>
      </trkpt>
      <trkpt lat="43.96263" lon="0.47383">
        <ele>177.8</ele>
        <time>2023-07-04T09:25:15Z</time>
      </trkpt>
      <trkpt lat="43.96258" lon="0.47388">
        <ele>177.8</ele>
        <time>2023-07-04T09:25:19Z</time>
      </trkpt>
      <trkpt lat="43.9625" lon="0.47398">
        <ele>178.4</ele>
        <time>2023-07-04T09:25:27Z</time>
      </trkpt>
      <trkpt lat="43.96244" lon="0.47413">
        <ele>178.2</ele>
        <time>2023-07-04T09:25:35Z</time>
      </trkpt>
      <trkpt lat="43.9624" lon="0.47422">
        <ele>177.8</ele>
        <time>2023-07-04T09:25:40Z</time>
      </trkpt>
      <trkpt lat="43.9624" lon="0.47424">
        <ele>177.8</ele>
        <time>2023-07-04T09:25:41Z</time>
      </trkpt>
      <trkpt lat="43.96239" lon="0.47428">
        <ele>178</ele>
        <time>2023-07-04T09:25:43Z</time>
      </trkpt>
      <trkpt lat="43.96234" lon="0.47442">
        <ele>178</ele>
        <time>2023-07-04T09:25:51Z</time>
      </trkpt>
      <trkpt lat="43.96232" lon="0.4745">
        <ele>178</ele>
        <time>2023-07-04T09:25:55Z</time>
      </trkpt>
      <trkpt lat="43.96228" lon="0.47463">
        <ele>177.8</ele>
        <time>2023-07-04T09:26:01Z</time>
      </trkpt>
      <trkpt lat="43.96225" lon="0.47474">
        <ele>177.8</ele>
        <time>2023-07-04T09:26:07Z</time>
      </trkpt>
      <trkpt lat="43.96225" lon="0.47476">
        <ele>177.8</ele>
        <time>2023-07-04T09:26:08Z</time>
      </trkpt>
      <trkpt lat="43.96223" lon="0.47492">
        <ele>177.6</ele>
        <time>2023-07-04T09:26:16Z</time>
      </trkpt>
      <trkpt lat="43.96218" lon="0.47511">
        <ele>177.6</ele>
        <time>2023-07-04T09:26:25Z</time>
      </trkpt>
      <trkpt lat="43.96215" lon="0.47523">
        <ele>177.8</ele>
        <time>2023-07-04T09:26:31Z</time>
      </trkpt>
      <trkpt lat="43.96214" lon="0.47531">
        <ele>177.8</ele>
        <time>2023-07-04T09:26:35Z</time>
      </trkpt>
      <trkpt lat="43.96212" lon="0.47546">
        <ele>178</ele>
        <time>2023-07-04T09:26:44Z</time>
      </trkpt>
      <trkpt lat="43.96209" lon="0.47556">
        <ele>178.4</ele>
        <time>2023-07-04T09:26:49Z</time>
      </trkpt>
      <trkpt lat="43.96208" lon="0.47565">
        <ele>178.4</ele>
        <time>2023-07-04T09:26:54Z</time>
      </trkpt>
      <trkpt lat="43.96206" lon="0.47575">
        <ele>178.6</ele>
        <time>2023-07-04T09:27:00Z</time>
      </trkpt>
      <trkpt lat="43.96198" lon="0.47581">
        <ele>178.8</ele>
        <time>2023-07-04T09:27:07Z</time>
      </trkpt>
      <trkpt lat="43.96188" lon="0.47579">
        <ele>178.4</ele>
        <time>2023-07-04T09:27:14Z</time>
      </trkpt>
      <trkpt lat="43.96182" lon="0.47575">
        <ele>177.8</ele>
        <time>2023-07-04T09:27:18Z</time>
      </trkpt>
      <trkpt lat="43.96177" lon="0.47572">
        <ele>177.4</ele>
        <time>2023-07-04T09:27:22Z</time>
      </trkpt>
      <trkpt lat="43.96176" lon="0.47571">
        <ele>177.2</ele>
        <time>2023-07-04T09:27:23Z</time>
      </trkpt>
      <trkpt lat="43.96174" lon="0.4757">
        <ele>177</ele>
        <time>2023-07-04T09:27:24Z</time>
      </trkpt>
      <trkpt lat="43.96173" lon="0.47569">
        <ele>177</ele>
        <time>2023-07-04T09:27:25Z</time>
      </trkpt>
      <trkpt lat="43.96164" lon="0.47564">
        <ele>176.2</ele>
        <time>2023-07-04T09:27:31Z</time>
      </trkpt>
      <trkpt lat="43.96163" lon="0.47564">
        <ele>176</ele>
        <time>2023-07-04T09:27:32Z</time>
      </trkpt>
      <trkpt lat="43.96155" lon="0.4756">
        <ele>174.8</ele>
        <time>2023-07-04T09:27:38Z</time>
      </trkpt>
      <trkpt lat="43.96151" lon="0.47557">
        <ele>174.6</ele>
        <time>2023-07-04T09:27:41Z</time>
      </trkpt>
      <trkpt lat="43.96143" lon="0.47553">
        <ele>173.8</ele>
        <time>2023-07-04T09:27:47Z</time>
      </trkpt>
      <trkpt lat="43.9614" lon="0.47552">
        <ele>173.4</ele>
        <time>2023-07-04T09:27:49Z</time>
      </trkpt>
      <trkpt lat="43.96131" lon="0.47548">
        <ele>172.6</ele>
        <time>2023-07-04T09:27:56Z</time>
      </trkpt>
      <trkpt lat="43.96128" lon="0.47546">
        <ele>172.4</ele>
        <time>2023-07-04T09:27:58Z</time>
      </trkpt>
      <trkpt lat="43.96122" lon="0.47542">
        <ele>171.6</ele>
        <time>2023-07-04T09:28:03Z</time>
      </trkpt>
      <trkpt lat="43.96116" lon="0.47538">
        <ele>171.2</ele>
        <time>2023-07-04T09:28:07Z</time>
      </trkpt>
      <trkpt lat="43.96115" lon="0.47538">
        <ele>171.2</ele>
        <time>2023-07-04T09:28:08Z</time>
      </trkpt>
      <trkpt lat="43.96105" lon="0.47532">
        <ele>170.6</ele>
        <time>2023-07-04T09:28:15Z</time>
      </trkpt>
      <trkpt lat="43.96103" lon="0.4753">
        <ele>170.6</ele>
        <time>2023-07-04T09:28:17Z</time>
      </trkpt>
      <trkpt lat="43.96102" lon="0.47529">
        <ele>170.4</ele>
        <time>2023-07-04T09:28:18Z</time>
      </trkpt>
      <trkpt lat="43.961" lon="0.47528">
        <ele>170.6</ele>
        <time>2023-07-04T09:28:19Z</time>
      </trkpt>
      <trkpt lat="43.96093" lon="0.47522">
        <ele>170.4</ele>
        <time>2023-07-04T09:28:25Z</time>
      </trkpt>
      <trkpt lat="43.96084" lon="0.47514">
        <ele>169.8</ele>
        <time>2023-07-04T09:28:32Z</time>
      </trkpt>
      <trkpt lat="43.9608" lon="0.4751">
        <ele>169.4</ele>
        <time>2023-07-04T09:28:37Z</time>
      </trkpt>
      <trkpt lat="43.96077" lon="0.47507">
        <ele>169.4</ele>
        <time>2023-07-04T09:28:39Z</time>
      </trkpt>
      <trkpt lat="43.96074" lon="0.47505">
        <ele>169.2</ele>
        <time>2023-07-04T09:28:41Z</time>
      </trkpt>
      <trkpt lat="43.96073" lon="0.47503">
        <ele>169.2</ele>
        <time>2023-07-04T09:28:42Z</time>
      </trkpt>
      <trkpt lat="43.96066" lon="0.47497">
        <ele>168.8</ele>
        <time>2023-07-04T09:28:47Z</time>
      </trkpt>
      <trkpt lat="43.96058" lon="0.47486">
        <ele>168.6</ele>
        <time>2023-07-04T09:28:55Z</time>
      </trkpt>
      <trkpt lat="43.96051" lon="0.47477">
        <ele>168.6</ele>
        <time>2023-07-04T09:29:02Z</time>
      </trkpt>
      <trkpt lat="43.9605" lon="0.47475">
        <ele>168.4</ele>
        <time>2023-07-04T09:29:03Z</time>
      </trkpt>
      <trkpt lat="43.96044" lon="0.47466">
        <ele>168.4</ele>
        <time>2023-07-04T09:29:10Z</time>
      </trkpt>
      <trkpt lat="43.96043" lon="0.47465">
        <ele>168.6</ele>
        <time>2023-07-04T09:29:11Z</time>
      </trkpt>
      <trkpt lat="43.96034" lon="0.47456">
        <ele>169</ele>
        <time>2023-07-04T09:29:20Z</time>
      </trkpt>
      <trkpt lat="43.96026" lon="0.47451">
        <ele>169</ele>
        <time>2023-07-04T09:29:26Z</time>
      </trkpt>
      <trkpt lat="43.96021" lon="0.47448">
        <ele>169.2</ele>
        <time>2023-07-04T09:29:31Z</time>
      </trkpt>
      <trkpt lat="43.96018" lon="0.47448">
        <ele>169</ele>
        <time>2023-07-04T09:29:34Z</time>
      </trkpt>
      <trkpt lat="43.9601" lon="0.47453">
        <ele>168.8</ele>
        <time>2023-07-04T09:29:40Z</time>
      </trkpt>
      <trkpt lat="43.96007" lon="0.47454">
        <ele>168.6</ele>
        <time>2023-07-04T09:29:42Z</time>
      </trkpt>
      <trkpt lat="43.96004" lon="0.47456">
        <ele>168</ele>
        <time>2023-07-04T09:29:44Z</time>
      </trkpt>
      <trkpt lat="43.95997" lon="0.47462">
        <ele>167.6</ele>
        <time>2023-07-04T09:29:49Z</time>
      </trkpt>
      <trkpt lat="43.95994" lon="0.47464">
        <ele>167.6</ele>
        <time>2023-07-04T09:29:51Z</time>
      </trkpt>
      <trkpt lat="43.95993" lon="0.47465">
        <ele>167.2</ele>
        <time>2023-07-04T09:29:52Z</time>
      </trkpt>
      <trkpt lat="43.95985" lon="0.47472">
        <ele>166.6</ele>
        <time>2023-07-04T09:29:59Z</time>
      </trkpt>
      <trkpt lat="43.95985" lon="0.47472">
        <ele>166.6</ele>
        <time>2023-07-04T09:30:00Z</time>
      </trkpt>
      <trkpt lat="43.9598" lon="0.47476">
        <ele>166.2</ele>
        <time>2023-07-04T09:30:04Z</time>
      </trkpt>
      <trkpt lat="43.95975" lon="0.47479">
        <ele>165.6</ele>
        <time>2023-07-04T09:30:08Z</time>
      </trkpt>
      <trkpt lat="43.95967" lon="0.47487">
        <ele>165.2</ele>
        <time>2023-07-04T09:30:15Z</time>
      </trkpt>
      <trkpt lat="43.95965" lon="0.47489">
        <ele>165</ele>
        <time>2023-07-04T09:30:17Z</time>
      </trkpt>
      <trkpt lat="43.95956" lon="0.47497">
        <ele>164.2</ele>
        <time>2023-07-04T09:30:24Z</time>
      </trkpt>
      <trkpt lat="43.95955" lon="0.47498">
        <ele>164</ele>
        <time>2023-07-04T09:30:25Z</time>
      </trkpt>
      <trkpt lat="43.95954" lon="0.47499">
        <ele>163.8</ele>
        <time>2023-07-04T09:30:26Z</time>
      </trkpt>
      <trkpt lat="43.95951" lon="0.47501">
        <ele>163.4</ele>
        <time>2023-07-04T09:30:28Z</time>
      </trkpt>
      <trkpt lat="43.95948" lon="0.47503">
        <ele>163</ele>
        <time>2023-07-04T09:30:31Z</time>
      </trkpt>
      <trkpt lat="43.95943" lon="0.47507">
        <ele>162.8</ele>
        <time>2023-07-04T09:30:35Z</time>
      </trkpt>
      <trkpt lat="43.95935" lon="0.47512">
        <ele>162.4</ele>
        <time>2023-07-04T09:30:42Z</time>
      </trkpt>
      <trkpt lat="43.95929" lon="0.47517">
        <ele>162</ele>
        <time>2023-07-04T09:30:47Z</time>
      </trkpt>
      <trkpt lat="43.95926" lon="0.4752">
        <ele>161.6</ele>
        <time>2023-07-04T09:30:50Z</time>
      </trkpt>
      <trkpt lat="43.95922" lon="0.47525">
        <ele>161.4</ele>
        <time>2023-07-04T09:30:53Z</time>
      </trkpt>
      <trkpt lat="43.95916" lon="0.47532">
        <ele>161</ele>
        <time>2023-07-04T09:30:58Z</time>
      </trkpt>
      <trkpt lat="43.95914" lon="0.47535">
        <ele>161</ele>
        <time>2023-07-04T09:31:00Z</time>
      </trkpt>
      <trkpt lat="43.95911" lon="0.47537">
        <ele>161</ele>
        <time>2023-07-04T09:31:03Z</time>
      </trkpt>
      <trkpt lat="43.95906" lon="0.47541">
        <ele>160.6</ele>
        <time>2023-07-04T09:31:07Z</time>
      </trkpt>
      <trkpt lat="43.95904" lon="0.47544">
        <ele>160.4</ele>
        <time>2023-07-04T09:31:09Z</time>
      </trkpt>
      <trkpt lat="43.95901" lon="0.47547">
        <ele>160.4</ele>
        <time>2023-07-04T09:31:12Z</time>
      </trkpt>
      <trkpt lat="43.95899" lon="0.47549">
        <ele>160.2</ele>
        <time>2023-07-04T09:31:14Z</time>
      </trkpt>
      <trkpt lat="43.95896" lon="0.47552">
        <ele>160</ele>
        <time>2023-07-04T09:31:16Z</time>
      </trkpt>
      <trkpt lat="43.95894" lon="0.47554">
        <ele>159.8</ele>
        <time>2023-07-04T09:31:18Z</time>
      </trkpt>
      <trkpt lat="43.95892" lon="0.47556">
        <ele>159.8</ele>
        <time>2023-07-04T09:31:20Z</time>
      </trkpt>
      <trkpt lat="43.95887" lon="0.47561">
        <ele>159.6</ele>
        <time>2023-07-04T09:31:25Z</time>
      </trkpt>
      <trkpt lat="43.95875" lon="0.47569">
        <ele>159.4</ele>
        <time>2023-07-04T09:31:34Z</time>
      </trkpt>
      <trkpt lat="43.95867" lon="0.47578">
        <ele>159</ele>
        <time>2023-07-04T09:31:41Z</time>
      </trkpt>
      <trkpt lat="43.95866" lon="0.47579">
        <ele>159</ele>
        <time>2023-07-04T09:31:42Z</time>
      </trkpt>
      <trkpt lat="43.95857" lon="0.47588">
        <ele>158.6</ele>
        <time>2023-07-04T09:31:49Z</time>
      </trkpt>
      <trkpt lat="43.95848" lon="0.47598">
        <ele>158</ele>
        <time>2023-07-04T09:31:57Z</time>
      </trkpt>
      <trkpt lat="43.95842" lon="0.47604">
        <ele>157.8</ele>
        <time>2023-07-04T09:32:02Z</time>
      </trkpt>
      <trkpt lat="43.95835" lon="0.47612">
        <ele>157.4</ele>
        <time>2023-07-04T09:32:09Z</time>
      </trkpt>
      <trkpt lat="43.9583" lon="0.47617">
        <ele>156.6</ele>
        <time>2023-07-04T09:32:13Z</time>
      </trkpt>
      <trkpt lat="43.95826" lon="0.47622">
        <ele>156.2</ele>
        <time>2023-07-04T09:32:17Z</time>
      </trkpt>
      <trkpt lat="43.95822" lon="0.47625">
        <ele>156.2</ele>
        <time>2023-07-04T09:32:20Z</time>
      </trkpt>
      <trkpt lat="43.95816" lon="0.47632">
        <ele>156</ele>
        <time>2023-07-04T09:32:26Z</time>
      </trkpt>
      <trkpt lat="43.95812" lon="0.47635">
        <ele>155.6</ele>
        <time>2023-07-04T09:32:29Z</time>
      </trkpt>
      <trkpt lat="43.9581" lon="0.47638">
        <ele>155.4</ele>
        <time>2023-07-04T09:32:31Z</time>
      </trkpt>
      <trkpt lat="43.95806" lon="0.47641">
        <ele>155.2</ele>
        <time>2023-07-04T09:32:35Z</time>
      </trkpt>
      <trkpt lat="43.95805" lon="0.47642">
        <ele>155.2</ele>
        <time>2023-07-04T09:32:36Z</time>
      </trkpt>
      <trkpt lat="43.95795" lon="0.47651">
        <ele>155</ele>
        <time>2023-07-04T09:32:45Z</time>
      </trkpt>
      <trkpt lat="43.95789" lon="0.47658">
        <ele>154.4</ele>
        <time>2023-07-04T09:32:50Z</time>
      </trkpt>
      <trkpt lat="43.95785" lon="0.47662">
        <ele>154.2</ele>
        <time>2023-07-04T09:32:54Z</time>
      </trkpt>
      <trkpt lat="43.95777" lon="0.47673">
        <ele>154.2</ele>
        <time>2023-07-04T09:33:02Z</time>
      </trkpt>
      <trkpt lat="43.9577" lon="0.47683">
        <ele>153.4</ele>
        <time>2023-07-04T09:33:09Z</time>
      </trkpt>
      <trkpt lat="43.95769" lon="0.47684">
        <ele>153.2</ele>
        <time>2023-07-04T09:33:10Z</time>
      </trkpt>
      <trkpt lat="43.95758" lon="0.47696">
        <ele>152.4</ele>
        <time>2023-07-04T09:33:19Z</time>
      </trkpt>
      <trkpt lat="43.95756" lon="0.47698">
        <ele>152.4</ele>
        <time>2023-07-04T09:33:21Z</time>
      </trkpt>
      <trkpt lat="43.95752" lon="0.47701">
        <ele>152.2</ele>
        <time>2023-07-04T09:33:24Z</time>
      </trkpt>
      <trkpt lat="43.95751" lon="0.47702">
        <ele>152.2</ele>
        <time>2023-07-04T09:33:25Z</time>
      </trkpt>
      <trkpt lat="43.95749" lon="0.47704">
        <ele>152</ele>
        <time>2023-07-04T09:33:27Z</time>
      </trkpt>
      <trkpt lat="43.95747" lon="0.47705">
        <ele>151.8</ele>
        <time>2023-07-04T09:33:28Z</time>
      </trkpt>
      <trkpt lat="43.9574" lon="0.47711">
        <ele>151.2</ele>
        <time>2023-07-04T09:33:34Z</time>
      </trkpt>
      <trkpt lat="43.95733" lon="0.47715">
        <ele>151.2</ele>
        <time>2023-07-04T09:33:39Z</time>
      </trkpt>
      <trkpt lat="43.95732" lon="0.47716">
        <ele>151.2</ele>
        <time>2023-07-04T09:33:40Z</time>
      </trkpt>
      <trkpt lat="43.95726" lon="0.47718">
        <ele>151.2</ele>
        <time>2023-07-04T09:33:44Z</time>
      </trkpt>
      <trkpt lat="43.95725" lon="0.47719">
        <ele>151</ele>
        <time>2023-07-04T09:33:45Z</time>
      </trkpt>
      <trkpt lat="43.95722" lon="0.4772">
        <ele>150.6</ele>
        <time>2023-07-04T09:33:47Z</time>
      </trkpt>
      <trkpt lat="43.95718" lon="0.47721">
        <ele>150.2</ele>
        <time>2023-07-04T09:33:50Z</time>
      </trkpt>
      <trkpt lat="43.95717" lon="0.47722">
        <ele>150.2</ele>
        <time>2023-07-04T09:33:51Z</time>
      </trkpt>
      <trkpt lat="43.95714" lon="0.47722">
        <ele>150</ele>
        <time>2023-07-04T09:33:53Z</time>
      </trkpt>
      <trkpt lat="43.95707" lon="0.47725">
        <ele>149.2</ele>
        <time>2023-07-04T09:33:58Z</time>
      </trkpt>
      <trkpt lat="43.95699" lon="0.47728">
        <ele>148.8</ele>
        <time>2023-07-04T09:34:03Z</time>
      </trkpt>
      <trkpt lat="43.95692" lon="0.47732">
        <ele>148.2</ele>
        <time>2023-07-04T09:34:08Z</time>
      </trkpt>
      <trkpt lat="43.95686" lon="0.47733">
        <ele>148</ele>
        <time>2023-07-04T09:34:12Z</time>
      </trkpt>
      <trkpt lat="43.95682" lon="0.47734">
        <ele>147.6</ele>
        <time>2023-07-04T09:34:15Z</time>
      </trkpt>
      <trkpt lat="43.95677" lon="0.47736">
        <ele>147</ele>
        <time>2023-07-04T09:34:19Z</time>
      </trkpt>
      <trkpt lat="43.95675" lon="0.47736">
        <ele>146.8</ele>
        <time>2023-07-04T09:34:20Z</time>
      </trkpt>
      <trkpt lat="43.95674" lon="0.47737">
        <ele>146.8</ele>
        <time>2023-07-04T09:34:21Z</time>
      </trkpt>
      <trkpt lat="43.95665" lon="0.47739">
        <ele>146.4</ele>
        <time>2023-07-04T09:34:27Z</time>
      </trkpt>
      <trkpt lat="43.95662" lon="0.4774">
        <ele>145.8</ele>
        <time>2023-07-04T09:34:30Z</time>
      </trkpt>
      <trkpt lat="43.95656" lon="0.47741">
        <ele>145.2</ele>
        <time>2023-07-04T09:34:34Z</time>
      </trkpt>
      <trkpt lat="43.95655" lon="0.47741">
        <ele>145</ele>
        <time>2023-07-04T09:34:35Z</time>
      </trkpt>
      <trkpt lat="43.95652" lon="0.47742">
        <ele>144.6</ele>
        <time>2023-07-04T09:34:37Z</time>
      </trkpt>
      <trkpt lat="43.95643" lon="0.47744">
        <ele>143.8</ele>
        <time>2023-07-04T09:34:43Z</time>
      </trkpt>
      <trkpt lat="43.95642" lon="0.47744">
        <ele>143.6</ele>
        <time>2023-07-04T09:34:44Z</time>
      </trkpt>
      <trkpt lat="43.95638" lon="0.47744">
        <ele>143</ele>
        <time>2023-07-04T09:34:47Z</time>
      </trkpt>
      <trkpt lat="43.95634" lon="0.47744">
        <ele>142.6</ele>
        <time>2023-07-04T09:34:50Z</time>
      </trkpt>
      <trkpt lat="43.95633" lon="0.47744">
        <ele>142.4</ele>
        <time>2023-07-04T09:34:51Z</time>
      </trkpt>
      <trkpt lat="43.95629" lon="0.47744">
        <ele>142.2</ele>
        <time>2023-07-04T09:34:53Z</time>
      </trkpt>
      <trkpt lat="43.95628" lon="0.47744">
        <ele>142.2</ele>
        <time>2023-07-04T09:34:54Z</time>
      </trkpt>
      <trkpt lat="43.95627" lon="0.47743">
        <ele>142.2</ele>
        <time>2023-07-04T09:34:55Z</time>
      </trkpt>
      <trkpt lat="43.95626" lon="0.47743">
        <ele>142</ele>
        <time>2023-07-04T09:34:56Z</time>
      </trkpt>
      <trkpt lat="43.95621" lon="0.47742">
        <ele>141.4</ele>
        <time>2023-07-04T09:34:59Z</time>
      </trkpt>
      <trkpt lat="43.95618" lon="0.47743">
        <ele>141</ele>
        <time>2023-07-04T09:35:02Z</time>
      </trkpt>
      <trkpt lat="43.95615" lon="0.47742">
        <ele>140.8</ele>
        <time>2023-07-04T09:35:04Z</time>
      </trkpt>
      <trkpt lat="43.95613" lon="0.47742">
        <ele>140.2</ele>
        <time>2023-07-04T09:35:06Z</time>
      </trkpt>
      <trkpt lat="43.9561" lon="0.47742">
        <ele>139.8</ele>
        <time>2023-07-04T09:35:08Z</time>
      </trkpt>
      <trkpt lat="43.95603" lon="0.47743">
        <ele>139.2</ele>
        <time>2023-07-04T09:35:13Z</time>
      </trkpt>
      <trkpt lat="43.95599" lon="0.47743">
        <ele>138.8</ele>
        <time>2023-07-04T09:35:16Z</time>
      </trkpt>
      <trkpt lat="43.95595" lon="0.47744">
        <ele>138</ele>
        <time>2023-07-04T09:35:19Z</time>
      </trkpt>
      <trkpt lat="43.95585" lon="0.47746">
        <ele>137</ele>
        <time>2023-07-04T09:35:25Z</time>
      </trkpt>
      <trkpt lat="43.95582" lon="0.47747">
        <ele>137</ele>
        <time>2023-07-04T09:35:27Z</time>
      </trkpt>
      <trkpt lat="43.95573" lon="0.47749">
        <ele>135.6</ele>
        <time>2023-07-04T09:35:33Z</time>
      </trkpt>
      <trkpt lat="43.9557" lon="0.47749">
        <ele>135.4</ele>
        <time>2023-07-04T09:35:35Z</time>
      </trkpt>
      <trkpt lat="43.95564" lon="0.4775">
        <ele>134.6</ele>
        <time>2023-07-04T09:35:40Z</time>
      </trkpt>
      <trkpt lat="43.95561" lon="0.4775">
        <ele>134</ele>
        <time>2023-07-04T09:35:42Z</time>
      </trkpt>
      <trkpt lat="43.95555" lon="0.47752">
        <ele>133.2</ele>
        <time>2023-07-04T09:35:46Z</time>
      </trkpt>
      <trkpt lat="43.95548" lon="0.47755">
        <ele>132.2</ele>
        <time>2023-07-04T09:35:51Z</time>
      </trkpt>
      <trkpt lat="43.95547" lon="0.47755">
        <ele>132.2</ele>
        <time>2023-07-04T09:35:52Z</time>
      </trkpt>
      <trkpt lat="43.95546" lon="0.47756">
        <ele>132</ele>
        <time>2023-07-04T09:35:53Z</time>
      </trkpt>
      <trkpt lat="43.95539" lon="0.47759">
        <ele>131.4</ele>
        <time>2023-07-04T09:35:58Z</time>
      </trkpt>
      <trkpt lat="43.95536" lon="0.4776">
        <ele>131</ele>
        <time>2023-07-04T09:36:00Z</time>
      </trkpt>
      <trkpt lat="43.95529" lon="0.47763">
        <ele>130</ele>
        <time>2023-07-04T09:36:05Z</time>
      </trkpt>
      <trkpt lat="43.95526" lon="0.47764">
        <ele>129.8</ele>
        <time>2023-07-04T09:36:07Z</time>
      </trkpt>
      <trkpt lat="43.95519" lon="0.47768">
        <ele>128.8</ele>
        <time>2023-07-04T09:36:12Z</time>
      </trkpt>
      <trkpt lat="43.95512" lon="0.47772">
        <ele>127.8</ele>
        <time>2023-07-04T09:36:17Z</time>
      </trkpt>
      <trkpt lat="43.95511" lon="0.47773">
        <ele>127.6</ele>
        <time>2023-07-04T09:36:18Z</time>
      </trkpt>
      <trkpt lat="43.95499" lon="0.47779">
        <ele>127</ele>
        <time>2023-07-04T09:36:27Z</time>
      </trkpt>
      <trkpt lat="43.95498" lon="0.47779">
        <ele>126.8</ele>
        <time>2023-07-04T09:36:28Z</time>
      </trkpt>
      <trkpt lat="43.95493" lon="0.47783">
        <ele>125.8</ele>
        <time>2023-07-04T09:36:32Z</time>
      </trkpt>
      <trkpt lat="43.9549" lon="0.47786">
        <ele>125.8</ele>
        <time>2023-07-04T09:36:34Z</time>
      </trkpt>
      <trkpt lat="43.95488" lon="0.47789">
        <ele>125.8</ele>
        <time>2023-07-04T09:36:36Z</time>
      </trkpt>
      <trkpt lat="43.95481" lon="0.47797">
        <ele>125.8</ele>
        <time>2023-07-04T09:36:41Z</time>
      </trkpt>
      <trkpt lat="43.95474" lon="0.47808">
        <ele>125.4</ele>
        <time>2023-07-04T09:36:49Z</time>
      </trkpt>
      <trkpt lat="43.95469" lon="0.47817">
        <ele>125.6</ele>
        <time>2023-07-04T09:36:55Z</time>
      </trkpt>
      <trkpt lat="43.95465" lon="0.47825">
        <ele>125.6</ele>
        <time>2023-07-04T09:37:01Z</time>
      </trkpt>
      <trkpt lat="43.95465" lon="0.47826">
        <ele>125.6</ele>
        <time>2023-07-04T09:37:02Z</time>
      </trkpt>
      <trkpt lat="43.9546" lon="0.47837">
        <ele>125.8</ele>
        <time>2023-07-04T09:37:11Z</time>
      </trkpt>
      <trkpt lat="43.95458" lon="0.47841">
        <ele>126</ele>
        <time>2023-07-04T09:37:13Z</time>
      </trkpt>
      <trkpt lat="43.95458" lon="0.47842">
        <ele>126</ele>
        <time>2023-07-04T09:37:14Z</time>
      </trkpt>
      <trkpt lat="43.95455" lon="0.47847">
        <ele>126.2</ele>
        <time>2023-07-04T09:37:19Z</time>
      </trkpt>
      <trkpt lat="43.95454" lon="0.47848">
        <ele>126.4</ele>
        <time>2023-07-04T09:37:21Z</time>
      </trkpt>
      <trkpt lat="43.95453" lon="0.47852">
        <ele>126.6</ele>
        <time>2023-07-04T09:37:26Z</time>
      </trkpt>
      <trkpt lat="43.95452" lon="0.47853">
        <ele>126.8</ele>
        <time>2023-07-04T09:37:27Z</time>
      </trkpt>
      <trkpt lat="43.95448" lon="0.4786">
        <ele>127.4</ele>
        <time>2023-07-04T09:37:34Z</time>
      </trkpt>
      <trkpt lat="43.95444" lon="0.4787">
        <ele>127.6</ele>
        <time>2023-07-04T09:37:38Z</time>
      </trkpt>
      <trkpt lat="43.95443" lon="0.47872">
        <ele>127.6</ele>
        <time>2023-07-04T09:37:39Z</time>
      </trkpt>
      <trkpt lat="43.95442" lon="0.47873">
        <ele>127.8</ele>
        <time>2023-07-04T09:37:40Z</time>
      </trkpt>
      <trkpt lat="43.95442" lon="0.47874">
        <ele>128.2</ele>
        <time>2023-07-04T09:37:41Z</time>
      </trkpt>
      <trkpt lat="43.9544" lon="0.47876">
        <ele>128.4</ele>
        <time>2023-07-04T09:37:43Z</time>
      </trkpt>
      <trkpt lat="43.95437" lon="0.4788">
        <ele>129.2</ele>
        <time>2023-07-04T09:37:48Z</time>
      </trkpt>
      <trkpt lat="43.95435" lon="0.47884">
        <ele>129.6</ele>
        <time>2023-07-04T09:37:52Z</time>
      </trkpt>
      <trkpt lat="43.9543" lon="0.47891">
        <ele>130.4</ele>
        <time>2023-07-04T09:37:59Z</time>
      </trkpt>
      <trkpt lat="43.95427" lon="0.47894">
        <ele>130.6</ele>
        <time>2023-07-04T09:38:01Z</time>
      </trkpt>
      <trkpt lat="43.95422" lon="0.479">
        <ele>131.4</ele>
        <time>2023-07-04T09:38:06Z</time>
      </trkpt>
      <trkpt lat="43.9542" lon="0.47902">
        <ele>131.8</ele>
        <time>2023-07-04T09:38:09Z</time>
      </trkpt>
      <trkpt lat="43.95418" lon="0.47904">
        <ele>132</ele>
        <time>2023-07-04T09:38:11Z</time>
      </trkpt>
      <trkpt lat="43.95414" lon="0.47906">
        <ele>132.6</ele>
        <time>2023-07-04T09:38:14Z</time>
      </trkpt>
      <trkpt lat="43.95412" lon="0.47907">
        <ele>133</ele>
        <time>2023-07-04T09:38:16Z</time>
      </trkpt>
      <trkpt lat="43.95406" lon="0.4791">
        <ele>133.6</ele>
        <time>2023-07-04T09:38:22Z</time>
      </trkpt>
      <trkpt lat="43.95405" lon="0.4791">
        <ele>133.6</ele>
        <time>2023-07-04T09:38:23Z</time>
      </trkpt>
      <trkpt lat="43.95397" lon="0.47914">
        <ele>134.8</ele>
        <time>2023-07-04T09:38:31Z</time>
      </trkpt>
      <trkpt lat="43.95395" lon="0.47915">
        <ele>135.4</ele>
        <time>2023-07-04T09:38:34Z</time>
      </trkpt>
      <trkpt lat="43.95388" lon="0.47918">
        <ele>135.8</ele>
        <time>2023-07-04T09:38:40Z</time>
      </trkpt>
      <trkpt lat="43.95384" lon="0.4792">
        <ele>136.6</ele>
        <time>2023-07-04T09:38:44Z</time>
      </trkpt>
      <trkpt lat="43.95382" lon="0.47921">
        <ele>137</ele>
        <time>2023-07-04T09:38:46Z</time>
      </trkpt>
      <trkpt lat="43.95379" lon="0.47921">
        <ele>137.4</ele>
        <time>2023-07-04T09:38:49Z</time>
      </trkpt>
      <trkpt lat="43.95374" lon="0.47922">
        <ele>137.8</ele>
        <time>2023-07-04T09:38:53Z</time>
      </trkpt>
      <trkpt lat="43.9537" lon="0.47922">
        <ele>138.2</ele>
        <time>2023-07-04T09:38:56Z</time>
      </trkpt>
      <trkpt lat="43.95367" lon="0.47923">
        <ele>138.4</ele>
        <time>2023-07-04T09:38:59Z</time>
      </trkpt>
      <trkpt lat="43.95362" lon="0.47923">
        <ele>139.2</ele>
        <time>2023-07-04T09:39:04Z</time>
      </trkpt>
      <trkpt lat="43.95359" lon="0.47923">
        <ele>139.2</ele>
        <time>2023-07-04T09:39:07Z</time>
      </trkpt>
      <trkpt lat="43.95358" lon="0.47923">
        <ele>139.2</ele>
        <time>2023-07-04T09:39:08Z</time>
      </trkpt>
      <trkpt lat="43.95353" lon="0.47923">
        <ele>139.8</ele>
        <time>2023-07-04T09:39:12Z</time>
      </trkpt>
      <trkpt lat="43.95351" lon="0.47922">
        <ele>140</ele>
        <time>2023-07-04T09:39:14Z</time>
      </trkpt>
      <trkpt lat="43.9535" lon="0.47921">
        <ele>140.2</ele>
        <time>2023-07-04T09:39:15Z</time>
      </trkpt>
      <trkpt lat="43.95349" lon="0.4792">
        <ele>140.4</ele>
        <time>2023-07-04T09:39:16Z</time>
      </trkpt>
      <trkpt lat="43.95343" lon="0.47919">
        <ele>140.8</ele>
        <time>2023-07-04T09:39:21Z</time>
      </trkpt>
      <trkpt lat="43.95338" lon="0.47918">
        <ele>141.2</ele>
        <time>2023-07-04T09:39:25Z</time>
      </trkpt>
      <trkpt lat="43.95331" lon="0.47916">
        <ele>141.4</ele>
        <time>2023-07-04T09:39:30Z</time>
      </trkpt>
      <trkpt lat="43.95326" lon="0.47916">
        <ele>141.8</ele>
        <time>2023-07-04T09:39:34Z</time>
      </trkpt>
      <trkpt lat="43.95319" lon="0.47916">
        <ele>142.2</ele>
        <time>2023-07-04T09:39:40Z</time>
      </trkpt>
      <trkpt lat="43.95316" lon="0.47916">
        <ele>142.4</ele>
        <time>2023-07-04T09:39:42Z</time>
      </trkpt>
      <trkpt lat="43.95315" lon="0.47917">
        <ele>142.6</ele>
        <time>2023-07-04T09:39:43Z</time>
      </trkpt>
      <trkpt lat="43.95306" lon="0.4792">
        <ele>143.2</ele>
        <time>2023-07-04T09:39:51Z</time>
      </trkpt>
      <trkpt lat="43.95301" lon="0.47922">
        <ele>143.6</ele>
        <time>2023-07-04T09:39:55Z</time>
      </trkpt>
      <trkpt lat="43.95296" lon="0.47926">
        <ele>144.2</ele>
        <time>2023-07-04T09:40:00Z</time>
      </trkpt>
      <trkpt lat="43.95294" lon="0.47928">
        <ele>144.2</ele>
        <time>2023-07-04T09:40:01Z</time>
      </trkpt>
      <trkpt lat="43.9529" lon="0.47934">
        <ele>144.8</ele>
        <time>2023-07-04T09:40:06Z</time>
      </trkpt>
      <trkpt lat="43.95286" lon="0.47937">
        <ele>145.2</ele>
        <time>2023-07-04T09:40:11Z</time>
      </trkpt>
      <trkpt lat="43.95279" lon="0.47945">
        <ele>145.8</ele>
        <time>2023-07-04T09:40:17Z</time>
      </trkpt>
      <trkpt lat="43.95277" lon="0.47946">
        <ele>145.8</ele>
        <time>2023-07-04T09:40:19Z</time>
      </trkpt>
      <trkpt lat="43.95275" lon="0.47948">
        <ele>145.8</ele>
        <time>2023-07-04T09:40:21Z</time>
      </trkpt>
      <trkpt lat="43.95273" lon="0.47949">
        <ele>146</ele>
        <time>2023-07-04T09:40:22Z</time>
      </trkpt>
      <trkpt lat="43.95268" lon="0.47955">
        <ele>146.2</ele>
        <time>2023-07-04T09:40:27Z</time>
      </trkpt>
      <trkpt lat="43.95258" lon="0.47962">
        <ele>146.6</ele>
        <time>2023-07-04T09:40:37Z</time>
      </trkpt>
      <trkpt lat="43.95254" lon="0.47966">
        <ele>147</ele>
        <time>2023-07-04T09:40:41Z</time>
      </trkpt>
      <trkpt lat="43.95253" lon="0.47967">
        <ele>147</ele>
        <time>2023-07-04T09:40:42Z</time>
      </trkpt>
      <trkpt lat="43.95251" lon="0.4797">
        <ele>147.4</ele>
        <time>2023-07-04T09:40:44Z</time>
      </trkpt>
      <trkpt lat="43.95249" lon="0.47972">
        <ele>147.6</ele>
        <time>2023-07-04T09:40:46Z</time>
      </trkpt>
      <trkpt lat="43.95246" lon="0.47974">
        <ele>148</ele>
        <time>2023-07-04T09:40:49Z</time>
      </trkpt>
      <trkpt lat="43.95241" lon="0.47977">
        <ele>148.4</ele>
        <time>2023-07-04T09:40:54Z</time>
      </trkpt>
      <trkpt lat="43.9524" lon="0.47978">
        <ele>148.4</ele>
        <time>2023-07-04T09:40:55Z</time>
      </trkpt>
      <trkpt lat="43.95232" lon="0.47983">
        <ele>149</ele>
        <time>2023-07-04T09:41:03Z</time>
      </trkpt>
      <trkpt lat="43.95232" lon="0.47984">
        <ele>149</ele>
        <time>2023-07-04T09:41:04Z</time>
      </trkpt>
      <trkpt lat="43.95228" lon="0.47987">
        <ele>149.2</ele>
        <time>2023-07-04T09:41:08Z</time>
      </trkpt>
      <trkpt lat="43.95224" lon="0.47991">
        <ele>150</ele>
        <time>2023-07-04T09:41:12Z</time>
      </trkpt>
      <trkpt lat="43.95221" lon="0.47995">
        <ele>150.4</ele>
        <time>2023-07-04T09:41:15Z</time>
      </trkpt>
      <trkpt lat="43.95219" lon="0.47997">
        <ele>150.6</ele>
        <time>2023-07-04T09:41:17Z</time>
      </trkpt>
      <trkpt lat="43.95212" lon="0.48004">
        <ele>151.2</ele>
        <time>2023-07-04T09:41:24Z</time>
      </trkpt>
      <trkpt lat="43.95211" lon="0.48005">
        <ele>151.2</ele>
        <time>2023-07-04T09:41:25Z</time>
      </trkpt>
      <trkpt lat="43.95203" lon="0.48015">
        <ele>152</ele>
        <time>2023-07-04T09:41:34Z</time>
      </trkpt>
      <trkpt lat="43.95201" lon="0.48017">
        <ele>152.2</ele>
        <time>2023-07-04T09:41:36Z</time>
      </trkpt>
      <trkpt lat="43.95199" lon="0.48019">
        <ele>152.4</ele>
        <time>2023-07-04T09:41:38Z</time>
      </trkpt>
      <trkpt lat="43.95198" lon="0.4802">
        <ele>152.4</ele>
        <time>2023-07-04T09:41:39Z</time>
      </trkpt>
      <trkpt lat="43.95196" lon="0.48021">
        <ele>152.6</ele>
        <time>2023-07-04T09:41:41Z</time>
      </trkpt>
      <trkpt lat="43.95194" lon="0.48023">
        <ele>152.8</ele>
        <time>2023-07-04T09:41:43Z</time>
      </trkpt>
      <trkpt lat="43.95187" lon="0.48029">
        <ele>153.2</ele>
        <time>2023-07-04T09:41:49Z</time>
      </trkpt>
      <trkpt lat="43.95186" lon="0.4803">
        <ele>153.2</ele>
        <time>2023-07-04T09:41:50Z</time>
      </trkpt>
      <trkpt lat="43.95185" lon="0.48031">
        <ele>153.2</ele>
        <time>2023-07-04T09:41:51Z</time>
      </trkpt>
      <trkpt lat="43.95183" lon="0.48032">
        <ele>153.4</ele>
        <time>2023-07-04T09:41:52Z</time>
      </trkpt>
      <trkpt lat="43.95181" lon="0.48034">
        <ele>153.4</ele>
        <time>2023-07-04T09:41:54Z</time>
      </trkpt>
      <trkpt lat="43.95178" lon="0.48036">
        <ele>153.6</ele>
        <time>2023-07-04T09:41:58Z</time>
      </trkpt>
      <trkpt lat="43.95169" lon="0.48042">
        <ele>153.6</ele>
        <time>2023-07-04T09:42:06Z</time>
      </trkpt>
      <trkpt lat="43.95163" lon="0.48046">
        <ele>153.6</ele>
        <time>2023-07-04T09:42:12Z</time>
      </trkpt>
      <trkpt lat="43.95162" lon="0.48047">
        <ele>153.6</ele>
        <time>2023-07-04T09:42:13Z</time>
      </trkpt>
      <trkpt lat="43.95154" lon="0.4805">
        <ele>153.4</ele>
        <time>2023-07-04T09:42:20Z</time>
      </trkpt>
      <trkpt lat="43.95142" lon="0.48056">
        <ele>153.2</ele>
        <time>2023-07-04T09:42:29Z</time>
      </trkpt>
      <trkpt lat="43.95131" lon="0.48063">
        <ele>153.6</ele>
        <time>2023-07-04T09:42:38Z</time>
      </trkpt>
      <trkpt lat="43.95122" lon="0.4807">
        <ele>153.6</ele>
        <time>2023-07-04T09:42:46Z</time>
      </trkpt>
      <trkpt lat="43.95116" lon="0.48075">
        <ele>153.4</ele>
        <time>2023-07-04T09:42:52Z</time>
      </trkpt>
      <trkpt lat="43.95114" lon="0.48076">
        <ele>153.4</ele>
        <time>2023-07-04T09:42:54Z</time>
      </trkpt>
      <trkpt lat="43.95107" lon="0.48083">
        <ele>153.6</ele>
        <time>2023-07-04T09:43:00Z</time>
      </trkpt>
      <trkpt lat="43.95105" lon="0.48084">
        <ele>153.6</ele>
        <time>2023-07-04T09:43:01Z</time>
      </trkpt>
      <trkpt lat="43.95104" lon="0.48085">
        <ele>153.6</ele>
        <time>2023-07-04T09:43:02Z</time>
      </trkpt>
      <trkpt lat="43.95095" lon="0.48094">
        <ele>154</ele>
        <time>2023-07-04T09:43:10Z</time>
      </trkpt>
      <trkpt lat="43.95086" lon="0.48106">
        <ele>153.6</ele>
        <time>2023-07-04T09:43:19Z</time>
      </trkpt>
      <trkpt lat="43.9508" lon="0.48115">
        <ele>154</ele>
        <time>2023-07-04T09:43:25Z</time>
      </trkpt>
      <trkpt lat="43.95079" lon="0.48117">
        <ele>153.8</ele>
        <time>2023-07-04T09:43:26Z</time>
      </trkpt>
      <trkpt lat="43.95072" lon="0.48132">
        <ele>153.4</ele>
        <time>2023-07-04T09:43:35Z</time>
      </trkpt>
      <trkpt lat="43.95066" lon="0.48145">
        <ele>153.6</ele>
        <time>2023-07-04T09:43:43Z</time>
      </trkpt>
      <trkpt lat="43.95062" lon="0.48155">
        <ele>153.4</ele>
        <time>2023-07-04T09:43:49Z</time>
      </trkpt>
      <trkpt lat="43.95062" lon="0.48157">
        <ele>153.6</ele>
        <time>2023-07-04T09:43:50Z</time>
      </trkpt>
      <trkpt lat="43.95061" lon="0.48159">
        <ele>153.8</ele>
        <time>2023-07-04T09:43:51Z</time>
      </trkpt>
      <trkpt lat="43.9506" lon="0.48161">
        <ele>153.8</ele>
        <time>2023-07-04T09:43:52Z</time>
      </trkpt>
      <trkpt lat="43.95059" lon="0.48164">
        <ele>153.8</ele>
        <time>2023-07-04T09:43:54Z</time>
      </trkpt>
      <trkpt lat="43.95058" lon="0.48168">
        <ele>153.8</ele>
        <time>2023-07-04T09:43:56Z</time>
      </trkpt>
      <trkpt lat="43.95056" lon="0.48172">
        <ele>153.6</ele>
        <time>2023-07-04T09:43:58Z</time>
      </trkpt>
      <trkpt lat="43.95055" lon="0.48173">
        <ele>153.4</ele>
        <time>2023-07-04T09:43:59Z</time>
      </trkpt>
      <trkpt lat="43.95054" lon="0.48176">
        <ele>153.4</ele>
        <time>2023-07-04T09:44:01Z</time>
      </trkpt>
      <trkpt lat="43.9505" lon="0.48187">
        <ele>153.4</ele>
        <time>2023-07-04T09:44:08Z</time>
      </trkpt>
      <trkpt lat="43.9505" lon="0.48189">
        <ele>153.2</ele>
        <time>2023-07-04T09:44:09Z</time>
      </trkpt>
      <trkpt lat="43.95049" lon="0.4819">
        <ele>153.2</ele>
        <time>2023-07-04T09:44:10Z</time>
      </trkpt>
      <trkpt lat="43.95045" lon="0.48198">
        <ele>153.2</ele>
        <time>2023-07-04T09:44:15Z</time>
      </trkpt>
      <trkpt lat="43.95043" lon="0.48203">
        <ele>153.4</ele>
        <time>2023-07-04T09:44:18Z</time>
      </trkpt>
      <trkpt lat="43.95037" lon="0.48214">
        <ele>153.4</ele>
        <time>2023-07-04T09:44:25Z</time>
      </trkpt>
      <trkpt lat="43.95036" lon="0.48216">
        <ele>153.2</ele>
        <time>2023-07-04T09:44:26Z</time>
      </trkpt>
      <trkpt lat="43.95034" lon="0.4822">
        <ele>153.2</ele>
        <time>2023-07-04T09:44:29Z</time>
      </trkpt>
      <trkpt lat="43.95032" lon="0.48226">
        <ele>153</ele>
        <time>2023-07-04T09:44:32Z</time>
      </trkpt>
      <trkpt lat="43.95029" lon="0.48234">
        <ele>153</ele>
        <time>2023-07-04T09:44:37Z</time>
      </trkpt>
      <trkpt lat="43.95021" lon="0.48257">
        <ele>153</ele>
        <time>2023-07-04T09:44:50Z</time>
      </trkpt>
      <trkpt lat="43.95019" lon="0.48262">
        <ele>153</ele>
        <time>2023-07-04T09:44:53Z</time>
      </trkpt>
      <trkpt lat="43.95016" lon="0.48271">
        <ele>152.8</ele>
        <time>2023-07-04T09:44:59Z</time>
      </trkpt>
      <trkpt lat="43.95014" lon="0.48275">
        <ele>152.6</ele>
        <time>2023-07-04T09:45:02Z</time>
      </trkpt>
      <trkpt lat="43.95011" lon="0.48286">
        <ele>152.6</ele>
        <time>2023-07-04T09:45:09Z</time>
      </trkpt>
      <trkpt lat="43.95009" lon="0.48291">
        <ele>152.8</ele>
        <time>2023-07-04T09:45:12Z</time>
      </trkpt>
      <trkpt lat="43.95006" lon="0.483">
        <ele>152.8</ele>
        <time>2023-07-04T09:45:18Z</time>
      </trkpt>
      <trkpt lat="43.95005" lon="0.48301">
        <ele>153</ele>
        <time>2023-07-04T09:45:19Z</time>
      </trkpt>
      <trkpt lat="43.95004" lon="0.48305">
        <ele>152.8</ele>
        <time>2023-07-04T09:45:21Z</time>
      </trkpt>
      <trkpt lat="43.95003" lon="0.48311">
        <ele>153</ele>
        <time>2023-07-04T09:45:25Z</time>
      </trkpt>
      <trkpt lat="43.95002" lon="0.48314">
        <ele>153</ele>
        <time>2023-07-04T09:45:27Z</time>
      </trkpt>
      <trkpt lat="43.94998" lon="0.48327">
        <ele>153.6</ele>
        <time>2023-07-04T09:45:34Z</time>
      </trkpt>
      <trkpt lat="43.94992" lon="0.4834">
        <ele>153.8</ele>
        <time>2023-07-04T09:45:42Z</time>
      </trkpt>
      <trkpt lat="43.94988" lon="0.48348">
        <ele>154.4</ele>
        <time>2023-07-04T09:45:47Z</time>
      </trkpt>
      <trkpt lat="43.94985" lon="0.48354">
        <ele>154.8</ele>
        <time>2023-07-04T09:45:51Z</time>
      </trkpt>
      <trkpt lat="43.94985" lon="0.48355">
        <ele>155</ele>
        <time>2023-07-04T09:45:52Z</time>
      </trkpt>
      <trkpt lat="43.94983" lon="0.48362">
        <ele>155.2</ele>
        <time>2023-07-04T09:45:57Z</time>
      </trkpt>
      <trkpt lat="43.94981" lon="0.48366">
        <ele>155.2</ele>
        <time>2023-07-04T09:46:00Z</time>
      </trkpt>
      <trkpt lat="43.94979" lon="0.48372">
        <ele>155.4</ele>
        <time>2023-07-04T09:46:05Z</time>
      </trkpt>
      <trkpt lat="43.94978" lon="0.48377">
        <ele>155.6</ele>
        <time>2023-07-04T09:46:08Z</time>
      </trkpt>
      <trkpt lat="43.94975" lon="0.48384">
        <ele>155.6</ele>
        <time>2023-07-04T09:46:13Z</time>
      </trkpt>
      <trkpt lat="43.94971" lon="0.48396">
        <ele>156</ele>
        <time>2023-07-04T09:46:20Z</time>
      </trkpt>
      <trkpt lat="43.94968" lon="0.48409">
        <ele>156.4</ele>
        <time>2023-07-04T09:46:27Z</time>
      </trkpt>
      <trkpt lat="43.94966" lon="0.48414">
        <ele>156.6</ele>
        <time>2023-07-04T09:46:30Z</time>
      </trkpt>
      <trkpt lat="43.94963" lon="0.48421">
        <ele>156.8</ele>
        <time>2023-07-04T09:46:34Z</time>
      </trkpt>
      <trkpt lat="43.94961" lon="0.48426">
        <ele>156.8</ele>
        <time>2023-07-04T09:46:37Z</time>
      </trkpt>
      <trkpt lat="43.9496" lon="0.48432">
        <ele>156.8</ele>
        <time>2023-07-04T09:46:41Z</time>
      </trkpt>
      <trkpt lat="43.94958" lon="0.48435">
        <ele>157</ele>
        <time>2023-07-04T09:46:43Z</time>
      </trkpt>
      <trkpt lat="43.94957" lon="0.48438">
        <ele>157.2</ele>
        <time>2023-07-04T09:46:46Z</time>
      </trkpt>
      <trkpt lat="43.94956" lon="0.48442">
        <ele>157.4</ele>
        <time>2023-07-04T09:46:50Z</time>
      </trkpt>
      <trkpt lat="43.94955" lon="0.48443">
        <ele>157.6</ele>
        <time>2023-07-04T09:46:51Z</time>
      </trkpt>
      <trkpt lat="43.94953" lon="0.48451">
        <ele>157.6</ele>
        <time>2023-07-04T09:46:57Z</time>
      </trkpt>
      <trkpt lat="43.94949" lon="0.48458">
        <ele>157.8</ele>
        <time>2023-07-04T09:47:02Z</time>
      </trkpt>
      <trkpt lat="43.94944" lon="0.48473">
        <ele>158.2</ele>
        <time>2023-07-04T09:47:11Z</time>
      </trkpt>
      <trkpt lat="43.94943" lon="0.48475">
        <ele>158.2</ele>
        <time>2023-07-04T09:47:12Z</time>
      </trkpt>
      <trkpt lat="43.9494" lon="0.48481">
        <ele>158.6</ele>
        <time>2023-07-04T09:47:15Z</time>
      </trkpt>
      <trkpt lat="43.94938" lon="0.48487">
        <ele>158.6</ele>
        <time>2023-07-04T09:47:18Z</time>
      </trkpt>
      <trkpt lat="43.94933" lon="0.485">
        <ele>158.6</ele>
        <time>2023-07-04T09:47:27Z</time>
      </trkpt>
      <trkpt lat="43.94932" lon="0.48503">
        <ele>158.6</ele>
        <time>2023-07-04T09:47:29Z</time>
      </trkpt>
      <trkpt lat="43.94931" lon="0.48505">
        <ele>158.8</ele>
        <time>2023-07-04T09:47:30Z</time>
      </trkpt>
      <trkpt lat="43.9493" lon="0.48507">
        <ele>158.8</ele>
        <time>2023-07-04T09:47:31Z</time>
      </trkpt>
      <trkpt lat="43.94929" lon="0.48511">
        <ele>159</ele>
        <time>2023-07-04T09:47:34Z</time>
      </trkpt>
      <trkpt lat="43.94927" lon="0.48514">
        <ele>159.4</ele>
        <time>2023-07-04T09:47:37Z</time>
      </trkpt>
      <trkpt lat="43.94927" lon="0.48515">
        <ele>159.6</ele>
        <time>2023-07-04T09:47:38Z</time>
      </trkpt>
      <trkpt lat="43.94926" lon="0.48517">
        <ele>159.8</ele>
        <time>2023-07-04T09:47:40Z</time>
      </trkpt>
      <trkpt lat="43.94924" lon="0.48519">
        <ele>159.8</ele>
        <time>2023-07-04T09:47:43Z</time>
      </trkpt>
      <trkpt lat="43.94919" lon="0.48518">
        <ele>160</ele>
        <time>2023-07-04T09:47:48Z</time>
      </trkpt>
      <trkpt lat="43.94918" lon="0.48517">
        <ele>160.2</ele>
        <time>2023-07-04T09:47:49Z</time>
      </trkpt>
      <trkpt lat="43.94915" lon="0.48517">
        <ele>160.4</ele>
        <time>2023-07-04T09:47:51Z</time>
      </trkpt>
      <trkpt lat="43.94912" lon="0.48516">
        <ele>161</ele>
        <time>2023-07-04T09:47:55Z</time>
      </trkpt>
      <trkpt lat="43.94912" lon="0.48516">
        <ele>161</ele>
        <time>2023-07-04T09:47:56Z</time>
      </trkpt>
      <trkpt lat="43.94906" lon="0.48513">
        <ele>161.4</ele>
        <time>2023-07-04T09:48:02Z</time>
      </trkpt>
      <trkpt lat="43.94902" lon="0.48512">
        <ele>161.8</ele>
        <time>2023-07-04T09:48:06Z</time>
      </trkpt>
      <trkpt lat="43.94899" lon="0.48511">
        <ele>162</ele>
        <time>2023-07-04T09:48:09Z</time>
      </trkpt>
      <trkpt lat="43.94898" lon="0.4851">
        <ele>162</ele>
        <time>2023-07-04T09:48:10Z</time>
      </trkpt>
      <trkpt lat="43.94895" lon="0.48508">
        <ele>162.2</ele>
        <time>2023-07-04T09:48:14Z</time>
      </trkpt>
      <trkpt lat="43.94894" lon="0.48507">
        <ele>162.2</ele>
        <time>2023-07-04T09:48:15Z</time>
      </trkpt>
      <trkpt lat="43.94893" lon="0.48507">
        <ele>162.4</ele>
        <time>2023-07-04T09:48:16Z</time>
      </trkpt>
      <trkpt lat="43.94892" lon="0.48507">
        <ele>162.4</ele>
        <time>2023-07-04T09:48:17Z</time>
      </trkpt>
      <trkpt lat="43.94889" lon="0.48505">
        <ele>162.8</ele>
        <time>2023-07-04T09:48:20Z</time>
      </trkpt>
      <trkpt lat="43.94888" lon="0.48504">
        <ele>163</ele>
        <time>2023-07-04T09:48:21Z</time>
      </trkpt>
      <trkpt lat="43.94883" lon="0.48501">
        <ele>163.4</ele>
        <time>2023-07-04T09:48:26Z</time>
      </trkpt>
      <trkpt lat="43.94878" lon="0.485">
        <ele>163.8</ele>
        <time>2023-07-04T09:48:30Z</time>
      </trkpt>
      <trkpt lat="43.94877" lon="0.485">
        <ele>163.8</ele>
        <time>2023-07-04T09:48:31Z</time>
      </trkpt>
      <trkpt lat="43.94874" lon="0.485">
        <ele>164</ele>
        <time>2023-07-04T09:48:33Z</time>
      </trkpt>
      <trkpt lat="43.94872" lon="0.48499">
        <ele>164.2</ele>
        <time>2023-07-04T09:48:35Z</time>
      </trkpt>
      <trkpt lat="43.94867" lon="0.48497">
        <ele>164.8</ele>
        <time>2023-07-04T09:48:40Z</time>
      </trkpt>
      <trkpt lat="43.94865" lon="0.48496">
        <ele>165.2</ele>
        <time>2023-07-04T09:48:42Z</time>
      </trkpt>
      <trkpt lat="43.94861" lon="0.48495">
        <ele>165.4</ele>
        <time>2023-07-04T09:48:46Z</time>
      </trkpt>
      <trkpt lat="43.94858" lon="0.48495">
        <ele>165.4</ele>
        <time>2023-07-04T09:48:49Z</time>
      </trkpt>
      <trkpt lat="43.94851" lon="0.48493">
        <ele>166.2</ele>
        <time>2023-07-04T09:48:56Z</time>
      </trkpt>
      <trkpt lat="43.94847" lon="0.48494">
        <ele>166.8</ele>
        <time>2023-07-04T09:48:59Z</time>
      </trkpt>
      <trkpt lat="43.94838" lon="0.48497">
        <ele>167.2</ele>
        <time>2023-07-04T09:49:07Z</time>
      </trkpt>
      <trkpt lat="43.94838" lon="0.48498">
        <ele>167.2</ele>
        <time>2023-07-04T09:49:08Z</time>
      </trkpt>
      <trkpt lat="43.94836" lon="0.48499">
        <ele>167.4</ele>
        <time>2023-07-04T09:49:10Z</time>
      </trkpt>
      <trkpt lat="43.94833" lon="0.485">
        <ele>167.8</ele>
        <time>2023-07-04T09:49:14Z</time>
      </trkpt>
      <trkpt lat="43.94831" lon="0.48502">
        <ele>168</ele>
        <time>2023-07-04T09:49:16Z</time>
      </trkpt>
      <trkpt lat="43.94829" lon="0.48508">
        <ele>168.2</ele>
        <time>2023-07-04T09:49:19Z</time>
      </trkpt>
      <trkpt lat="43.94827" lon="0.48511">
        <ele>168.2</ele>
        <time>2023-07-04T09:49:21Z</time>
      </trkpt>
      <trkpt lat="43.94826" lon="0.48513">
        <ele>168.2</ele>
        <time>2023-07-04T09:49:22Z</time>
      </trkpt>
      <trkpt lat="43.94822" lon="0.48525">
        <ele>168.6</ele>
        <time>2023-07-04T09:49:30Z</time>
      </trkpt>
      <trkpt lat="43.94819" lon="0.48534">
        <ele>169</ele>
        <time>2023-07-04T09:49:35Z</time>
      </trkpt>
      <trkpt lat="43.94818" lon="0.48536">
        <ele>169</ele>
        <time>2023-07-04T09:49:36Z</time>
      </trkpt>
      <trkpt lat="43.94815" lon="0.48555">
        <ele>168.8</ele>
        <time>2023-07-04T09:49:46Z</time>
      </trkpt>
      <trkpt lat="43.94813" lon="0.48567">
        <ele>168.2</ele>
        <time>2023-07-04T09:49:53Z</time>
      </trkpt>
      <trkpt lat="43.94812" lon="0.48573">
        <ele>168.4</ele>
        <time>2023-07-04T09:49:57Z</time>
      </trkpt>
      <trkpt lat="43.94811" lon="0.48575">
        <ele>168.6</ele>
        <time>2023-07-04T09:49:58Z</time>
      </trkpt>
      <trkpt lat="43.94809" lon="0.48581">
        <ele>168.6</ele>
        <time>2023-07-04T09:50:01Z</time>
      </trkpt>
      <trkpt lat="43.94807" lon="0.48585">
        <ele>168.6</ele>
        <time>2023-07-04T09:50:04Z</time>
      </trkpt>
      <trkpt lat="43.94803" lon="0.48592">
        <ele>168.4</ele>
        <time>2023-07-04T09:50:10Z</time>
      </trkpt>
      <trkpt lat="43.94799" lon="0.48602">
        <ele>168.2</ele>
        <time>2023-07-04T09:50:18Z</time>
      </trkpt>
      <trkpt lat="43.94793" lon="0.48616">
        <ele>168.4</ele>
        <time>2023-07-04T09:50:27Z</time>
      </trkpt>
      <trkpt lat="43.94788" lon="0.48628">
        <ele>168</ele>
        <time>2023-07-04T09:50:35Z</time>
      </trkpt>
      <trkpt lat="43.94779" lon="0.48646">
        <ele>168.2</ele>
        <time>2023-07-04T09:50:45Z</time>
      </trkpt>
      <trkpt lat="43.94773" lon="0.48655">
        <ele>168.2</ele>
        <time>2023-07-04T09:50:52Z</time>
      </trkpt>
      <trkpt lat="43.94772" lon="0.48658">
        <ele>168</ele>
        <time>2023-07-04T09:50:54Z</time>
      </trkpt>
      <trkpt lat="43.9477" lon="0.48664">
        <ele>168</ele>
        <time>2023-07-04T09:50:57Z</time>
      </trkpt>
      <trkpt lat="43.94769" lon="0.48667">
        <ele>168.2</ele>
        <time>2023-07-04T09:50:59Z</time>
      </trkpt>
      <trkpt lat="43.94767" lon="0.4867">
        <ele>168.2</ele>
        <time>2023-07-04T09:51:01Z</time>
      </trkpt>
      <trkpt lat="43.94766" lon="0.48674">
        <ele>168.4</ele>
        <time>2023-07-04T09:51:03Z</time>
      </trkpt>
      <trkpt lat="43.94765" lon="0.48679">
        <ele>168.6</ele>
        <time>2023-07-04T09:51:06Z</time>
      </trkpt>
      <trkpt lat="43.94764" lon="0.48682">
        <ele>168.6</ele>
        <time>2023-07-04T09:51:08Z</time>
      </trkpt>
      <trkpt lat="43.94762" lon="0.48687">
        <ele>168.4</ele>
        <time>2023-07-04T09:51:11Z</time>
      </trkpt>
      <trkpt lat="43.9476" lon="0.4869">
        <ele>168.4</ele>
        <time>2023-07-04T09:51:13Z</time>
      </trkpt>
      <trkpt lat="43.94754" lon="0.48703">
        <ele>168.6</ele>
        <time>2023-07-04T09:51:21Z</time>
      </trkpt>
      <trkpt lat="43.9475" lon="0.4871">
        <ele>168.6</ele>
        <time>2023-07-04T09:51:25Z</time>
      </trkpt>
      <trkpt lat="43.9475" lon="0.48712">
        <ele>168.6</ele>
        <time>2023-07-04T09:51:26Z</time>
      </trkpt>
      <trkpt lat="43.94747" lon="0.48716">
        <ele>168.6</ele>
        <time>2023-07-04T09:51:29Z</time>
      </trkpt>
      <trkpt lat="43.94747" lon="0.48718">
        <ele>168.4</ele>
        <time>2023-07-04T09:51:30Z</time>
      </trkpt>
      <trkpt lat="43.94744" lon="0.48724">
        <ele>169</ele>
        <time>2023-07-04T09:51:34Z</time>
      </trkpt>
      <trkpt lat="43.94743" lon="0.48728">
        <ele>169.2</ele>
        <time>2023-07-04T09:51:36Z</time>
      </trkpt>
      <trkpt lat="43.94742" lon="0.4873">
        <ele>169.4</ele>
        <time>2023-07-04T09:51:37Z</time>
      </trkpt>
      <trkpt lat="43.94742" lon="0.48731">
        <ele>169.4</ele>
        <time>2023-07-04T09:51:38Z</time>
      </trkpt>
      <trkpt lat="43.94741" lon="0.48734">
        <ele>169.4</ele>
        <time>2023-07-04T09:51:40Z</time>
      </trkpt>
      <trkpt lat="43.9474" lon="0.48736">
        <ele>169.4</ele>
        <time>2023-07-04T09:51:41Z</time>
      </trkpt>
      <trkpt lat="43.94738" lon="0.48739">
        <ele>169.2</ele>
        <time>2023-07-04T09:51:44Z</time>
      </trkpt>
      <trkpt lat="43.94735" lon="0.48747">
        <ele>169</ele>
        <time>2023-07-04T09:51:49Z</time>
      </trkpt>
      <trkpt lat="43.94733" lon="0.4875">
        <ele>169</ele>
        <time>2023-07-04T09:51:51Z</time>
      </trkpt>
      <trkpt lat="43.94728" lon="0.48759">
        <ele>169.2</ele>
        <time>2023-07-04T09:51:57Z</time>
      </trkpt>
      <trkpt lat="43.94727" lon="0.48761">
        <ele>169.2</ele>
        <time>2023-07-04T09:51:59Z</time>
      </trkpt>
      <trkpt lat="43.94721" lon="0.48773">
        <ele>169.4</ele>
        <time>2023-07-04T09:52:06Z</time>
      </trkpt>
      <trkpt lat="43.9472" lon="0.48779">
        <ele>169.6</ele>
        <time>2023-07-04T09:52:09Z</time>
      </trkpt>
      <trkpt lat="43.94718" lon="0.48784">
        <ele>169.6</ele>
        <time>2023-07-04T09:52:12Z</time>
      </trkpt>
      <trkpt lat="43.94718" lon="0.48789">
        <ele>169.6</ele>
        <time>2023-07-04T09:52:15Z</time>
      </trkpt>
      <trkpt lat="43.94717" lon="0.48806">
        <ele>170</ele>
        <time>2023-07-04T09:52:25Z</time>
      </trkpt>
      <trkpt lat="43.94717" lon="0.4881">
        <ele>170</ele>
        <time>2023-07-04T09:52:28Z</time>
      </trkpt>
      <trkpt lat="43.94716" lon="0.48819">
        <ele>170.2</ele>
        <time>2023-07-04T09:52:34Z</time>
      </trkpt>
      <trkpt lat="43.94716" lon="0.48821">
        <ele>170.4</ele>
        <time>2023-07-04T09:52:35Z</time>
      </trkpt>
      <trkpt lat="43.94714" lon="0.4883">
        <ele>171</ele>
        <time>2023-07-04T09:52:42Z</time>
      </trkpt>
      <trkpt lat="43.94714" lon="0.48837">
        <ele>171.4</ele>
        <time>2023-07-04T09:52:46Z</time>
      </trkpt>
      <trkpt lat="43.94714" lon="0.48838">
        <ele>171.4</ele>
        <time>2023-07-04T09:52:47Z</time>
      </trkpt>
      <trkpt lat="43.94714" lon="0.48842">
        <ele>171.6</ele>
        <time>2023-07-04T09:52:49Z</time>
      </trkpt>
      <trkpt lat="43.94713" lon="0.48844">
        <ele>171.6</ele>
        <time>2023-07-04T09:52:51Z</time>
      </trkpt>
      <trkpt lat="43.9471" lon="0.48844">
        <ele>171.4</ele>
        <time>2023-07-04T09:52:57Z</time>
      </trkpt>
      <trkpt lat="43.9471" lon="0.48845">
        <ele>171.4</ele>
        <time>2023-07-04T09:52:58Z</time>
      </trkpt>
      <trkpt lat="43.9471" lon="0.48848">
        <ele>171.2</ele>
        <time>2023-07-04T09:53:00Z</time>
      </trkpt>
      <trkpt lat="43.9471" lon="0.48854">
        <ele>171</ele>
        <time>2023-07-04T09:53:03Z</time>
      </trkpt>
      <trkpt lat="43.94709" lon="0.48858">
        <ele>171</ele>
        <time>2023-07-04T09:53:05Z</time>
      </trkpt>
      <trkpt lat="43.94709" lon="0.48863">
        <ele>171.2</ele>
        <time>2023-07-04T09:53:08Z</time>
      </trkpt>
      <trkpt lat="43.94709" lon="0.48865">
        <ele>171.2</ele>
        <time>2023-07-04T09:53:09Z</time>
      </trkpt>
      <trkpt lat="43.94706" lon="0.48871">
        <ele>171.2</ele>
        <time>2023-07-04T09:53:13Z</time>
      </trkpt>
      <trkpt lat="43.94706" lon="0.48876">
        <ele>171</ele>
        <time>2023-07-04T09:53:16Z</time>
      </trkpt>
      <trkpt lat="43.94705" lon="0.48881">
        <ele>171.2</ele>
        <time>2023-07-04T09:53:19Z</time>
      </trkpt>
      <trkpt lat="43.94705" lon="0.48885">
        <ele>171.2</ele>
        <time>2023-07-04T09:53:21Z</time>
      </trkpt>
      <trkpt lat="43.94704" lon="0.48887">
        <ele>171.2</ele>
        <time>2023-07-04T09:53:22Z</time>
      </trkpt>
      <trkpt lat="43.94704" lon="0.48888">
        <ele>171.2</ele>
        <time>2023-07-04T09:53:23Z</time>
      </trkpt>
      <trkpt lat="43.94704" lon="0.48892">
        <ele>171.2</ele>
        <time>2023-07-04T09:53:26Z</time>
      </trkpt>
      <trkpt lat="43.94704" lon="0.48897">
        <ele>170.8</ele>
        <time>2023-07-04T09:53:29Z</time>
      </trkpt>
      <trkpt lat="43.94702" lon="0.48907">
        <ele>170.4</ele>
        <time>2023-07-04T09:53:35Z</time>
      </trkpt>
      <trkpt lat="43.94702" lon="0.48909">
        <ele>170.6</ele>
        <time>2023-07-04T09:53:36Z</time>
      </trkpt>
      <trkpt lat="43.94701" lon="0.48915">
        <ele>170.8</ele>
        <time>2023-07-04T09:53:40Z</time>
      </trkpt>
      <trkpt lat="43.94699" lon="0.48921">
        <ele>170.4</ele>
        <time>2023-07-04T09:53:44Z</time>
      </trkpt>
      <trkpt lat="43.947" lon="0.48924">
        <ele>170.2</ele>
        <time>2023-07-04T09:53:45Z</time>
      </trkpt>
      <trkpt lat="43.94698" lon="0.48937">
        <ele>170.6</ele>
        <time>2023-07-04T09:53:52Z</time>
      </trkpt>
      <trkpt lat="43.94696" lon="0.48949">
        <ele>170.8</ele>
        <time>2023-07-04T09:53:59Z</time>
      </trkpt>
      <trkpt lat="43.94699" lon="0.48962">
        <ele>171.2</ele>
        <time>2023-07-04T09:54:07Z</time>
      </trkpt>
      <trkpt lat="43.947" lon="0.48967">
        <ele>171.2</ele>
        <time>2023-07-04T09:54:10Z</time>
      </trkpt>
      <trkpt lat="43.94699" lon="0.4898">
        <ele>171</ele>
        <time>2023-07-04T09:54:17Z</time>
      </trkpt>
      <trkpt lat="43.947" lon="0.48984">
        <ele>171.2</ele>
        <time>2023-07-04T09:54:19Z</time>
      </trkpt>
      <trkpt lat="43.947" lon="0.48995">
        <ele>171</ele>
        <time>2023-07-04T09:54:26Z</time>
      </trkpt>
      <trkpt lat="43.947" lon="0.48998">
        <ele>170.8</ele>
        <time>2023-07-04T09:54:28Z</time>
      </trkpt>
      <trkpt lat="43.94701" lon="0.4901">
        <ele>171</ele>
        <time>2023-07-04T09:54:35Z</time>
      </trkpt>
      <trkpt lat="43.94701" lon="0.49012">
        <ele>171</ele>
        <time>2023-07-04T09:54:36Z</time>
      </trkpt>
      <trkpt lat="43.947" lon="0.49023">
        <ele>170.8</ele>
        <time>2023-07-04T09:54:42Z</time>
      </trkpt>
      <trkpt lat="43.94699" lon="0.49031">
        <ele>171.2</ele>
        <time>2023-07-04T09:54:47Z</time>
      </trkpt>
      <trkpt lat="43.947" lon="0.49038">
        <ele>171</ele>
        <time>2023-07-04T09:54:51Z</time>
      </trkpt>
      <trkpt lat="43.947" lon="0.49039">
        <ele>171</ele>
        <time>2023-07-04T09:54:52Z</time>
      </trkpt>
      <trkpt lat="43.947" lon="0.49044">
        <ele>171</ele>
        <time>2023-07-04T09:54:55Z</time>
      </trkpt>
      <trkpt lat="43.947" lon="0.49047">
        <ele>171</ele>
        <time>2023-07-04T09:54:57Z</time>
      </trkpt>
      <trkpt lat="43.94699" lon="0.49056">
        <ele>171</ele>
        <time>2023-07-04T09:55:02Z</time>
      </trkpt>
      <trkpt lat="43.94699" lon="0.49062">
        <ele>171</ele>
        <time>2023-07-04T09:55:05Z</time>
      </trkpt>
      <trkpt lat="43.94699" lon="0.49067">
        <ele>171.2</ele>
        <time>2023-07-04T09:55:08Z</time>
      </trkpt>
      <trkpt lat="43.94699" lon="0.49077">
        <ele>171.4</ele>
        <time>2023-07-04T09:55:14Z</time>
      </trkpt>
      <trkpt lat="43.94698" lon="0.49082">
        <ele>171.6</ele>
        <time>2023-07-04T09:55:17Z</time>
      </trkpt>
      <trkpt lat="43.94698" lon="0.49084">
        <ele>171.6</ele>
        <time>2023-07-04T09:55:18Z</time>
      </trkpt>
      <trkpt lat="43.94697" lon="0.49086">
        <ele>171.6</ele>
        <time>2023-07-04T09:55:19Z</time>
      </trkpt>
      <trkpt lat="43.94697" lon="0.49088">
        <ele>171.6</ele>
        <time>2023-07-04T09:55:20Z</time>
      </trkpt>
      <trkpt lat="43.94695" lon="0.491">
        <ele>171.6</ele>
        <time>2023-07-04T09:55:27Z</time>
      </trkpt>
      <trkpt lat="43.94695" lon="0.49103">
        <ele>171.6</ele>
        <time>2023-07-04T09:55:29Z</time>
      </trkpt>
      <trkpt lat="43.94694" lon="0.49108">
        <ele>171.8</ele>
        <time>2023-07-04T09:55:32Z</time>
      </trkpt>
      <trkpt lat="43.94694" lon="0.49112">
        <ele>171.8</ele>
        <time>2023-07-04T09:55:34Z</time>
      </trkpt>
      <trkpt lat="43.94695" lon="0.49114">
        <ele>172</ele>
        <time>2023-07-04T09:55:35Z</time>
      </trkpt>
      <trkpt lat="43.94695" lon="0.49118">
        <ele>172</ele>
        <time>2023-07-04T09:55:37Z</time>
      </trkpt>
      <trkpt lat="43.94693" lon="0.49129">
        <ele>172.4</ele>
        <time>2023-07-04T09:55:43Z</time>
      </trkpt>
      <trkpt lat="43.94693" lon="0.49131">
        <ele>172.4</ele>
        <time>2023-07-04T09:55:44Z</time>
      </trkpt>
      <trkpt lat="43.94693" lon="0.49133">
        <ele>172.4</ele>
        <time>2023-07-04T09:55:45Z</time>
      </trkpt>
      <trkpt lat="43.94692" lon="0.49141">
        <ele>172.6</ele>
        <time>2023-07-04T09:55:50Z</time>
      </trkpt>
      <trkpt lat="43.9469" lon="0.49149">
        <ele>172.6</ele>
        <time>2023-07-04T09:55:55Z</time>
      </trkpt>
      <trkpt lat="43.94688" lon="0.49163">
        <ele>172.4</ele>
        <time>2023-07-04T09:56:04Z</time>
      </trkpt>
      <trkpt lat="43.94687" lon="0.49168">
        <ele>172.4</ele>
        <time>2023-07-04T09:56:07Z</time>
      </trkpt>
      <trkpt lat="43.94684" lon="0.4918">
        <ele>172.6</ele>
        <time>2023-07-04T09:56:15Z</time>
      </trkpt>
      <trkpt lat="43.94684" lon="0.49182">
        <ele>172.4</ele>
        <time>2023-07-04T09:56:16Z</time>
      </trkpt>
      <trkpt lat="43.94682" lon="0.49191">
        <ele>172.6</ele>
        <time>2023-07-04T09:56:23Z</time>
      </trkpt>
      <trkpt lat="43.94681" lon="0.49196">
        <ele>172.6</ele>
        <time>2023-07-04T09:56:26Z</time>
      </trkpt>
      <trkpt lat="43.94678" lon="0.49208">
        <ele>172.8</ele>
        <time>2023-07-04T09:56:33Z</time>
      </trkpt>
      <trkpt lat="43.94676" lon="0.49217">
        <ele>173</ele>
        <time>2023-07-04T09:56:38Z</time>
      </trkpt>
      <trkpt lat="43.94674" lon="0.49227">
        <ele>173</ele>
        <time>2023-07-04T09:56:45Z</time>
      </trkpt>
      <trkpt lat="43.94672" lon="0.49231">
        <ele>173.4</ele>
        <time>2023-07-04T09:56:48Z</time>
      </trkpt>
      <trkpt lat="43.94669" lon="0.49241">
        <ele>173.8</ele>
        <time>2023-07-04T09:56:55Z</time>
      </trkpt>
      <trkpt lat="43.94664" lon="0.49254">
        <ele>174.4</ele>
        <time>2023-07-04T09:57:04Z</time>
      </trkpt>
      <trkpt lat="43.94664" lon="0.49257">
        <ele>174.6</ele>
        <time>2023-07-04T09:57:06Z</time>
      </trkpt>
      <trkpt lat="43.94661" lon="0.49268">
        <ele>174.6</ele>
        <time>2023-07-04T09:57:14Z</time>
      </trkpt>
      <trkpt lat="43.9466" lon="0.49269">
        <ele>174.6</ele>
        <time>2023-07-04T09:57:16Z</time>
      </trkpt>
      <trkpt lat="43.94658" lon="0.49272">
        <ele>175</ele>
        <time>2023-07-04T09:57:21Z</time>
      </trkpt>
      <trkpt lat="43.94657" lon="0.49276">
        <ele>175.2</ele>
        <time>2023-07-04T09:57:27Z</time>
      </trkpt>
      <trkpt lat="43.94657" lon="0.49277">
        <ele>175.2</ele>
        <time>2023-07-04T09:57:28Z</time>
      </trkpt>
      <trkpt lat="43.94654" lon="0.49285">
        <ele>175.6</ele>
        <time>2023-07-04T09:57:34Z</time>
      </trkpt>
      <trkpt lat="43.94653" lon="0.49287">
        <ele>175.8</ele>
        <time>2023-07-04T09:57:36Z</time>
      </trkpt>
      <trkpt lat="43.94651" lon="0.4929">
        <ele>176</ele>
        <time>2023-07-04T09:57:39Z</time>
      </trkpt>
      <trkpt lat="43.94648" lon="0.49299">
        <ele>176</ele>
        <time>2023-07-04T09:57:44Z</time>
      </trkpt>
      <trkpt lat="43.94648" lon="0.493">
        <ele>176</ele>
        <time>2023-07-04T09:57:45Z</time>
      </trkpt>
      <trkpt lat="43.94646" lon="0.49305">
        <ele>175.8</ele>
        <time>2023-07-04T09:57:49Z</time>
      </trkpt>
      <trkpt lat="43.94644" lon="0.49308">
        <ele>175.8</ele>
        <time>2023-07-04T09:57:52Z</time>
      </trkpt>
      <trkpt lat="43.94644" lon="0.49309">
        <ele>175.8</ele>
        <time>2023-07-04T09:57:53Z</time>
      </trkpt>
      <trkpt lat="43.9464" lon="0.49322">
        <ele>176</ele>
        <time>2023-07-04T09:58:01Z</time>
      </trkpt>
      <trkpt lat="43.94637" lon="0.4933">
        <ele>176</ele>
        <time>2023-07-04T09:58:04Z</time>
      </trkpt>
      <trkpt lat="43.94635" lon="0.49336">
        <ele>175.8</ele>
        <time>2023-07-04T09:58:07Z</time>
      </trkpt>
      <trkpt lat="43.94633" lon="0.4934">
        <ele>175.6</ele>
        <time>2023-07-04T09:58:09Z</time>
      </trkpt>
      <trkpt lat="43.9463" lon="0.49348">
        <ele>175.6</ele>
        <time>2023-07-04T09:58:13Z</time>
      </trkpt>
      <trkpt lat="43.94628" lon="0.49352">
        <ele>175.6</ele>
        <time>2023-07-04T09:58:15Z</time>
      </trkpt>
      <trkpt lat="43.94626" lon="0.49356">
        <ele>175.6</ele>
        <time>2023-07-04T09:58:17Z</time>
      </trkpt>
      <trkpt lat="43.94625" lon="0.49358">
        <ele>175.6</ele>
        <time>2023-07-04T09:58:18Z</time>
      </trkpt>
      <trkpt lat="43.94624" lon="0.49359">
        <ele>175.6</ele>
        <time>2023-07-04T09:58:19Z</time>
      </trkpt>
      <trkpt lat="43.94623" lon="0.49368">
        <ele>175.8</ele>
        <time>2023-07-04T09:58:25Z</time>
      </trkpt>
      <trkpt lat="43.94613" lon="0.49385">
        <ele>175.8</ele>
        <time>2023-07-04T09:58:35Z</time>
      </trkpt>
      <trkpt lat="43.9461" lon="0.49392">
        <ele>175.6</ele>
        <time>2023-07-04T09:58:39Z</time>
      </trkpt>
      <trkpt lat="43.94607" lon="0.494">
        <ele>175.6</ele>
        <time>2023-07-04T09:58:43Z</time>
      </trkpt>
      <trkpt lat="43.94604" lon="0.49412">
        <ele>175.6</ele>
        <time>2023-07-04T09:58:50Z</time>
      </trkpt>
      <trkpt lat="43.946" lon="0.49423">
        <ele>175.6</ele>
        <time>2023-07-04T09:58:57Z</time>
      </trkpt>
      <trkpt lat="43.94593" lon="0.49441">
        <ele>175.2</ele>
        <time>2023-07-04T09:59:07Z</time>
      </trkpt>
      <trkpt lat="43.94588" lon="0.49454">
        <ele>175</ele>
        <time>2023-07-04T09:59:15Z</time>
      </trkpt>
      <trkpt lat="43.94584" lon="0.49467">
        <ele>175.6</ele>
        <time>2023-07-04T09:59:22Z</time>
      </trkpt>
      <trkpt lat="43.9458" lon="0.49483">
        <ele>175.6</ele>
        <time>2023-07-04T09:59:31Z</time>
      </trkpt>
      <trkpt lat="43.94577" lon="0.49493">
        <ele>175.8</ele>
        <time>2023-07-04T09:59:37Z</time>
      </trkpt>
      <trkpt lat="43.94574" lon="0.49497">
        <ele>175.8</ele>
        <time>2023-07-04T09:59:40Z</time>
      </trkpt>
      <trkpt lat="43.94573" lon="0.49498">
        <ele>175.8</ele>
        <time>2023-07-04T09:59:41Z</time>
      </trkpt>
      <trkpt lat="43.94573" lon="0.495">
        <ele>176</ele>
        <time>2023-07-04T09:59:42Z</time>
      </trkpt>
      <trkpt lat="43.94572" lon="0.49502">
        <ele>176</ele>
        <time>2023-07-04T09:59:43Z</time>
      </trkpt>
      <trkpt lat="43.94571" lon="0.49503">
        <ele>176</ele>
        <time>2023-07-04T09:59:44Z</time>
      </trkpt>
      <trkpt lat="43.94571" lon="0.49504">
        <ele>176</ele>
        <time>2023-07-04T09:59:45Z</time>
      </trkpt>
      <trkpt lat="43.9457" lon="0.49506">
        <ele>176</ele>
        <time>2023-07-04T09:59:46Z</time>
      </trkpt>
      <trkpt lat="43.94568" lon="0.4951">
        <ele>176.2</ele>
        <time>2023-07-04T09:59:49Z</time>
      </trkpt>
      <trkpt lat="43.94567" lon="0.49512">
        <ele>176.4</ele>
        <time>2023-07-04T09:59:51Z</time>
      </trkpt>
      <trkpt lat="43.94567" lon="0.49514">
        <ele>176.4</ele>
        <time>2023-07-04T09:59:52Z</time>
      </trkpt>
      <trkpt lat="43.94566" lon="0.49515">
        <ele>176.4</ele>
        <time>2023-07-04T09:59:53Z</time>
      </trkpt>
      <trkpt lat="43.94566" lon="0.49517">
        <ele>176.6</ele>
        <time>2023-07-04T09:59:55Z</time>
      </trkpt>
      <trkpt lat="43.94566" lon="0.49519">
        <ele>176.6</ele>
        <time>2023-07-04T09:59:56Z</time>
      </trkpt>
      <trkpt lat="43.94564" lon="0.49522">
        <ele>176.6</ele>
        <time>2023-07-04T09:59:58Z</time>
      </trkpt>
      <trkpt lat="43.94562" lon="0.49531">
        <ele>176.6</ele>
        <time>2023-07-04T10:00:05Z</time>
      </trkpt>
      <trkpt lat="43.94561" lon="0.49533">
        <ele>176.8</ele>
        <time>2023-07-04T10:00:06Z</time>
      </trkpt>
      <trkpt lat="43.94559" lon="0.4954">
        <ele>176.8</ele>
        <time>2023-07-04T10:00:10Z</time>
      </trkpt>
      <trkpt lat="43.94559" lon="0.49542">
        <ele>176.8</ele>
        <time>2023-07-04T10:00:12Z</time>
      </trkpt>
      <trkpt lat="43.94557" lon="0.49545">
        <ele>176.8</ele>
        <time>2023-07-04T10:00:14Z</time>
      </trkpt>
      <trkpt lat="43.94554" lon="0.49553">
        <ele>177.2</ele>
        <time>2023-07-04T10:00:19Z</time>
      </trkpt>
      <trkpt lat="43.94551" lon="0.49559">
        <ele>177.2</ele>
        <time>2023-07-04T10:00:23Z</time>
      </trkpt>
      <trkpt lat="43.94549" lon="0.49563">
        <ele>177.2</ele>
        <time>2023-07-04T10:00:26Z</time>
      </trkpt>
      <trkpt lat="43.94544" lon="0.49571">
        <ele>177.6</ele>
        <time>2023-07-04T10:00:31Z</time>
      </trkpt>
      <trkpt lat="43.9454" lon="0.49587">
        <ele>177.4</ele>
        <time>2023-07-04T10:00:39Z</time>
      </trkpt>
      <trkpt lat="43.94535" lon="0.49595">
        <ele>177.8</ele>
        <time>2023-07-04T10:00:44Z</time>
      </trkpt>
      <trkpt lat="43.94534" lon="0.49596">
        <ele>177.6</ele>
        <time>2023-07-04T10:00:45Z</time>
      </trkpt>
      <trkpt lat="43.94533" lon="0.49599">
        <ele>178</ele>
        <time>2023-07-04T10:00:47Z</time>
      </trkpt>
      <trkpt lat="43.94529" lon="0.49608">
        <ele>178</ele>
        <time>2023-07-04T10:00:52Z</time>
      </trkpt>
      <trkpt lat="43.94527" lon="0.49617">
        <ele>178</ele>
        <time>2023-07-04T10:00:57Z</time>
      </trkpt>
      <trkpt lat="43.94527" lon="0.49619">
        <ele>178</ele>
        <time>2023-07-04T10:00:58Z</time>
      </trkpt>
      <trkpt lat="43.94526" lon="0.49622">
        <ele>178</ele>
        <time>2023-07-04T10:01:00Z</time>
      </trkpt>
      <trkpt lat="43.94526" lon="0.49625">
        <ele>178</ele>
        <time>2023-07-04T10:01:02Z</time>
      </trkpt>
      <trkpt lat="43.94523" lon="0.49635">
        <ele>178.2</ele>
        <time>2023-07-04T10:01:09Z</time>
      </trkpt>
      <trkpt lat="43.9452" lon="0.49643">
        <ele>178.4</ele>
        <time>2023-07-04T10:01:15Z</time>
      </trkpt>
      <trkpt lat="43.94519" lon="0.49647">
        <ele>178.6</ele>
        <time>2023-07-04T10:01:17Z</time>
      </trkpt>
      <trkpt lat="43.94516" lon="0.49659">
        <ele>178.8</ele>
        <time>2023-07-04T10:01:25Z</time>
      </trkpt>
      <trkpt lat="43.94516" lon="0.49661">
        <ele>178.8</ele>
        <time>2023-07-04T10:01:26Z</time>
      </trkpt>
      <trkpt lat="43.94512" lon="0.49672">
        <ele>178.4</ele>
        <time>2023-07-04T10:01:33Z</time>
      </trkpt>
      <trkpt lat="43.94511" lon="0.49674">
        <ele>178.4</ele>
        <time>2023-07-04T10:01:34Z</time>
      </trkpt>
      <trkpt lat="43.94509" lon="0.49679">
        <ele>178.4</ele>
        <time>2023-07-04T10:01:37Z</time>
      </trkpt>
      <trkpt lat="43.94508" lon="0.49684">
        <ele>178.6</ele>
        <time>2023-07-04T10:01:40Z</time>
      </trkpt>
      <trkpt lat="43.94508" lon="0.49687">
        <ele>178.6</ele>
        <time>2023-07-04T10:01:43Z</time>
      </trkpt>
      <trkpt lat="43.94508" lon="0.4969">
        <ele>178.4</ele>
        <time>2023-07-04T10:01:45Z</time>
      </trkpt>
      <trkpt lat="43.94506" lon="0.49694">
        <ele>178.4</ele>
        <time>2023-07-04T10:01:47Z</time>
      </trkpt>
      <trkpt lat="43.94504" lon="0.497">
        <ele>178.4</ele>
        <time>2023-07-04T10:01:50Z</time>
      </trkpt>
      <trkpt lat="43.94501" lon="0.49707">
        <ele>178</ele>
        <time>2023-07-04T10:01:54Z</time>
      </trkpt>
      <trkpt lat="43.94497" lon="0.4972">
        <ele>178</ele>
        <time>2023-07-04T10:02:02Z</time>
      </trkpt>
      <trkpt lat="43.94497" lon="0.49723">
        <ele>178</ele>
        <time>2023-07-04T10:02:04Z</time>
      </trkpt>
      <trkpt lat="43.94494" lon="0.49733">
        <ele>177.8</ele>
        <time>2023-07-04T10:02:09Z</time>
      </trkpt>
      <trkpt lat="43.94493" lon="0.49738">
        <ele>177.8</ele>
        <time>2023-07-04T10:02:12Z</time>
      </trkpt>
      <trkpt lat="43.94492" lon="0.49744">
        <ele>177.6</ele>
        <time>2023-07-04T10:02:16Z</time>
      </trkpt>
      <trkpt lat="43.94489" lon="0.49756">
        <ele>177.6</ele>
        <time>2023-07-04T10:02:23Z</time>
      </trkpt>
      <trkpt lat="43.94488" lon="0.49768">
        <ele>177</ele>
        <time>2023-07-04T10:02:31Z</time>
      </trkpt>
      <trkpt lat="43.94484" lon="0.49785">
        <ele>177</ele>
        <time>2023-07-04T10:02:40Z</time>
      </trkpt>
      <trkpt lat="43.94483" lon="0.498">
        <ele>176.8</ele>
        <time>2023-07-04T10:02:48Z</time>
      </trkpt>
      <trkpt lat="43.94483" lon="0.49802">
        <ele>176.8</ele>
        <time>2023-07-04T10:02:49Z</time>
      </trkpt>
      <trkpt lat="43.9448" lon="0.49816">
        <ele>176.8</ele>
        <time>2023-07-04T10:02:57Z</time>
      </trkpt>
      <trkpt lat="43.9448" lon="0.49818">
        <ele>176.6</ele>
        <time>2023-07-04T10:02:58Z</time>
      </trkpt>
      <trkpt lat="43.9448" lon="0.49822">
        <ele>176.6</ele>
        <time>2023-07-04T10:03:00Z</time>
      </trkpt>
      <trkpt lat="43.9448" lon="0.49824">
        <ele>176.6</ele>
        <time>2023-07-04T10:03:01Z</time>
      </trkpt>
      <trkpt lat="43.9448" lon="0.49825">
        <ele>176.6</ele>
        <time>2023-07-04T10:03:02Z</time>
      </trkpt>
      <trkpt lat="43.94479" lon="0.49831">
        <ele>176.8</ele>
        <time>2023-07-04T10:03:06Z</time>
      </trkpt>
      <trkpt lat="43.94476" lon="0.49841">
        <ele>176.6</ele>
        <time>2023-07-04T10:03:13Z</time>
      </trkpt>
      <trkpt lat="43.94476" lon="0.49843">
        <ele>176.6</ele>
        <time>2023-07-04T10:03:14Z</time>
      </trkpt>
      <trkpt lat="43.94475" lon="0.49846">
        <ele>176.6</ele>
        <time>2023-07-04T10:03:16Z</time>
      </trkpt>
      <trkpt lat="43.94474" lon="0.49849">
        <ele>176.6</ele>
        <time>2023-07-04T10:03:18Z</time>
      </trkpt>
      <trkpt lat="43.94474" lon="0.49851">
        <ele>176.6</ele>
        <time>2023-07-04T10:03:19Z</time>
      </trkpt>
      <trkpt lat="43.94471" lon="0.49861">
        <ele>176.6</ele>
        <time>2023-07-04T10:03:25Z</time>
      </trkpt>
      <trkpt lat="43.9447" lon="0.49871">
        <ele>176.4</ele>
        <time>2023-07-04T10:03:32Z</time>
      </trkpt>
      <trkpt lat="43.9447" lon="0.49873">
        <ele>176.4</ele>
        <time>2023-07-04T10:03:33Z</time>
      </trkpt>
      <trkpt lat="43.94469" lon="0.49884">
        <ele>176.4</ele>
        <time>2023-07-04T10:03:40Z</time>
      </trkpt>
      <trkpt lat="43.94468" lon="0.49888">
        <ele>176.6</ele>
        <time>2023-07-04T10:03:43Z</time>
      </trkpt>
      <trkpt lat="43.94467" lon="0.49891">
        <ele>176.8</ele>
        <time>2023-07-04T10:03:45Z</time>
      </trkpt>
      <trkpt lat="43.94467" lon="0.49893">
        <ele>176.8</ele>
        <time>2023-07-04T10:03:46Z</time>
      </trkpt>
      <trkpt lat="43.94465" lon="0.49896">
        <ele>176.4</ele>
        <time>2023-07-04T10:03:48Z</time>
      </trkpt>
      <trkpt lat="43.94464" lon="0.49901">
        <ele>176.2</ele>
        <time>2023-07-04T10:03:51Z</time>
      </trkpt>
      <trkpt lat="43.94462" lon="0.4991">
        <ele>176.4</ele>
        <time>2023-07-04T10:03:56Z</time>
      </trkpt>
      <trkpt lat="43.94458" lon="0.49923">
        <ele>176.4</ele>
        <time>2023-07-04T10:04:04Z</time>
      </trkpt>
      <trkpt lat="43.94456" lon="0.49932">
        <ele>176.8</ele>
        <time>2023-07-04T10:04:10Z</time>
      </trkpt>
      <trkpt lat="43.94454" lon="0.49937">
        <ele>176.6</ele>
        <time>2023-07-04T10:04:13Z</time>
      </trkpt>
      <trkpt lat="43.94452" lon="0.49941">
        <ele>176.4</ele>
        <time>2023-07-04T10:04:16Z</time>
      </trkpt>
      <trkpt lat="43.9445" lon="0.49945">
        <ele>176.4</ele>
        <time>2023-07-04T10:04:19Z</time>
      </trkpt>
      <trkpt lat="43.9445" lon="0.49947">
        <ele>176.4</ele>
        <time>2023-07-04T10:04:21Z</time>
      </trkpt>
      <trkpt lat="43.94443" lon="0.49957">
        <ele>176.2</ele>
        <time>2023-07-04T10:04:29Z</time>
      </trkpt>
      <trkpt lat="43.94438" lon="0.49967">
        <ele>176</ele>
        <time>2023-07-04T10:04:36Z</time>
      </trkpt>
      <trkpt lat="43.94437" lon="0.49969">
        <ele>176.2</ele>
        <time>2023-07-04T10:04:37Z</time>
      </trkpt>
      <trkpt lat="43.94433" lon="0.49979">
        <ele>176.2</ele>
        <time>2023-07-04T10:04:43Z</time>
      </trkpt>
      <trkpt lat="43.94429" lon="0.49982">
        <ele>176</ele>
        <time>2023-07-04T10:04:47Z</time>
      </trkpt>
      <trkpt lat="43.94426" lon="0.49987">
        <ele>175.8</ele>
        <time>2023-07-04T10:04:51Z</time>
      </trkpt>
      <trkpt lat="43.94424" lon="0.4999">
        <ele>175.6</ele>
        <time>2023-07-04T10:04:53Z</time>
      </trkpt>
      <trkpt lat="43.94424" lon="0.49992">
        <ele>175.8</ele>
        <time>2023-07-04T10:04:54Z</time>
      </trkpt>
      <trkpt lat="43.94423" lon="0.49994">
        <ele>175.6</ele>
        <time>2023-07-04T10:04:55Z</time>
      </trkpt>
      <trkpt lat="43.94416" lon="0.50007">
        <ele>175.6</ele>
        <time>2023-07-04T10:05:04Z</time>
      </trkpt>
      <trkpt lat="43.94408" lon="0.50021">
        <ele>175.8</ele>
        <time>2023-07-04T10:05:13Z</time>
      </trkpt>
      <trkpt lat="43.94407" lon="0.50022">
        <ele>175.8</ele>
        <time>2023-07-04T10:05:14Z</time>
      </trkpt>
      <trkpt lat="43.94403" lon="0.50033">
        <ele>175.8</ele>
        <time>2023-07-04T10:05:21Z</time>
      </trkpt>
      <trkpt lat="43.94399" lon="0.50045">
        <ele>175.8</ele>
        <time>2023-07-04T10:05:28Z</time>
      </trkpt>
      <trkpt lat="43.94398" lon="0.50047">
        <ele>175.8</ele>
        <time>2023-07-04T10:05:29Z</time>
      </trkpt>
      <trkpt lat="43.94395" lon="0.50056">
        <ele>176</ele>
        <time>2023-07-04T10:05:36Z</time>
      </trkpt>
      <trkpt lat="43.94395" lon="0.50057">
        <ele>176</ele>
        <time>2023-07-04T10:05:37Z</time>
      </trkpt>
      <trkpt lat="43.94389" lon="0.50066">
        <ele>175.6</ele>
        <time>2023-07-04T10:05:44Z</time>
      </trkpt>
      <trkpt lat="43.94387" lon="0.50069">
        <ele>175.6</ele>
        <time>2023-07-04T10:05:46Z</time>
      </trkpt>
      <trkpt lat="43.9438" lon="0.5008">
        <ele>175.2</ele>
        <time>2023-07-04T10:05:54Z</time>
      </trkpt>
      <trkpt lat="43.94377" lon="0.50089">
        <ele>175.6</ele>
        <time>2023-07-04T10:06:01Z</time>
      </trkpt>
      <trkpt lat="43.94374" lon="0.50102">
        <ele>175.2</ele>
        <time>2023-07-04T10:06:10Z</time>
      </trkpt>
      <trkpt lat="43.94371" lon="0.50112">
        <ele>175.6</ele>
        <time>2023-07-04T10:06:15Z</time>
      </trkpt>
      <trkpt lat="43.94369" lon="0.50117">
        <ele>175.6</ele>
        <time>2023-07-04T10:06:18Z</time>
      </trkpt>
      <trkpt lat="43.94367" lon="0.50125">
        <ele>175.6</ele>
        <time>2023-07-04T10:06:22Z</time>
      </trkpt>
      <trkpt lat="43.94365" lon="0.50133">
        <ele>175.4</ele>
        <time>2023-07-04T10:06:27Z</time>
      </trkpt>
      <trkpt lat="43.94362" lon="0.50146">
        <ele>175.4</ele>
        <time>2023-07-04T10:06:35Z</time>
      </trkpt>
      <trkpt lat="43.94362" lon="0.50147">
        <ele>175.6</ele>
        <time>2023-07-04T10:06:36Z</time>
      </trkpt>
      <trkpt lat="43.94361" lon="0.50155">
        <ele>175.4</ele>
        <time>2023-07-04T10:06:41Z</time>
      </trkpt>
      <trkpt lat="43.9436" lon="0.50158">
        <ele>175.2</ele>
        <time>2023-07-04T10:06:43Z</time>
      </trkpt>
      <trkpt lat="43.9436" lon="0.50159">
        <ele>175</ele>
        <time>2023-07-04T10:06:44Z</time>
      </trkpt>
      <trkpt lat="43.9436" lon="0.50166">
        <ele>174.8</ele>
        <time>2023-07-04T10:06:48Z</time>
      </trkpt>
      <trkpt lat="43.9436" lon="0.50167">
        <ele>174.8</ele>
        <time>2023-07-04T10:06:49Z</time>
      </trkpt>
      <trkpt lat="43.94359" lon="0.5017">
        <ele>174.8</ele>
        <time>2023-07-04T10:06:51Z</time>
      </trkpt>
      <trkpt lat="43.94358" lon="0.50174">
        <ele>174.6</ele>
        <time>2023-07-04T10:06:53Z</time>
      </trkpt>
      <trkpt lat="43.94355" lon="0.50185">
        <ele>174.6</ele>
        <time>2023-07-04T10:06:59Z</time>
      </trkpt>
      <trkpt lat="43.94353" lon="0.5019">
        <ele>174.6</ele>
        <time>2023-07-04T10:07:02Z</time>
      </trkpt>
      <trkpt lat="43.94352" lon="0.50196">
        <ele>174.2</ele>
        <time>2023-07-04T10:07:05Z</time>
      </trkpt>
      <trkpt lat="43.9435" lon="0.50198">
        <ele>174</ele>
        <time>2023-07-04T10:07:07Z</time>
      </trkpt>
      <trkpt lat="43.94347" lon="0.50211">
        <ele>174</ele>
        <time>2023-07-04T10:07:15Z</time>
      </trkpt>
      <trkpt lat="43.94346" lon="0.50215">
        <ele>174</ele>
        <time>2023-07-04T10:07:17Z</time>
      </trkpt>
      <trkpt lat="43.94344" lon="0.50225">
        <ele>174</ele>
        <time>2023-07-04T10:07:23Z</time>
      </trkpt>
      <trkpt lat="43.94344" lon="0.5023">
        <ele>174.2</ele>
        <time>2023-07-04T10:07:26Z</time>
      </trkpt>
      <trkpt lat="43.94339" lon="0.50248">
        <ele>174</ele>
        <time>2023-07-04T10:07:36Z</time>
      </trkpt>
      <trkpt lat="43.94338" lon="0.50258">
        <ele>174</ele>
        <time>2023-07-04T10:07:43Z</time>
      </trkpt>
      <trkpt lat="43.94335" lon="0.50273">
        <ele>174.4</ele>
        <time>2023-07-04T10:07:52Z</time>
      </trkpt>
      <trkpt lat="43.94333" lon="0.50281">
        <ele>174.4</ele>
        <time>2023-07-04T10:07:56Z</time>
      </trkpt>
      <trkpt lat="43.94332" lon="0.50288">
        <ele>174.2</ele>
        <time>2023-07-04T10:08:00Z</time>
      </trkpt>
      <trkpt lat="43.9433" lon="0.50303">
        <ele>174.2</ele>
        <time>2023-07-04T10:08:08Z</time>
      </trkpt>
      <trkpt lat="43.94329" lon="0.50305">
        <ele>174.2</ele>
        <time>2023-07-04T10:08:09Z</time>
      </trkpt>
      <trkpt lat="43.94328" lon="0.50308">
        <ele>174.2</ele>
        <time>2023-07-04T10:08:11Z</time>
      </trkpt>
      <trkpt lat="43.94327" lon="0.50314">
        <ele>174.2</ele>
        <time>2023-07-04T10:08:15Z</time>
      </trkpt>
      <trkpt lat="43.94326" lon="0.50321">
        <ele>174.2</ele>
        <time>2023-07-04T10:08:19Z</time>
      </trkpt>
      <trkpt lat="43.94323" lon="0.50333">
        <ele>173.6</ele>
        <time>2023-07-04T10:08:25Z</time>
      </trkpt>
      <trkpt lat="43.94322" lon="0.50347">
        <ele>173.6</ele>
        <time>2023-07-04T10:08:34Z</time>
      </trkpt>
      <trkpt lat="43.94319" lon="0.50358">
        <ele>173</ele>
        <time>2023-07-04T10:08:41Z</time>
      </trkpt>
      <trkpt lat="43.94315" lon="0.50372">
        <ele>172.8</ele>
        <time>2023-07-04T10:08:49Z</time>
      </trkpt>
      <trkpt lat="43.94313" lon="0.50386">
        <ele>173.2</ele>
        <time>2023-07-04T10:08:57Z</time>
      </trkpt>
      <trkpt lat="43.94311" lon="0.50391">
        <ele>173.2</ele>
        <time>2023-07-04T10:09:00Z</time>
      </trkpt>
      <trkpt lat="43.9431" lon="0.50394">
        <ele>173.2</ele>
        <time>2023-07-04T10:09:01Z</time>
      </trkpt>
      <trkpt lat="43.94309" lon="0.50397">
        <ele>173.2</ele>
        <time>2023-07-04T10:09:03Z</time>
      </trkpt>
      <trkpt lat="43.94304" lon="0.50402">
        <ele>173.4</ele>
        <time>2023-07-04T10:09:07Z</time>
      </trkpt>
      <trkpt lat="43.94303" lon="0.50405">
        <ele>173.4</ele>
        <time>2023-07-04T10:09:09Z</time>
      </trkpt>
      <trkpt lat="43.94302" lon="0.50407">
        <ele>173.2</ele>
        <time>2023-07-04T10:09:11Z</time>
      </trkpt>
      <trkpt lat="43.94302" lon="0.50408">
        <ele>173.2</ele>
        <time>2023-07-04T10:09:12Z</time>
      </trkpt>
      <trkpt lat="43.94298" lon="0.50419">
        <ele>173.4</ele>
        <time>2023-07-04T10:09:20Z</time>
      </trkpt>
      <trkpt lat="43.94299" lon="0.5042">
        <ele>173.4</ele>
        <time>2023-07-04T10:09:22Z</time>
      </trkpt>
      <trkpt lat="43.94298" lon="0.50427">
        <ele>173</ele>
        <time>2023-07-04T10:09:27Z</time>
      </trkpt>
      <trkpt lat="43.94297" lon="0.50433">
        <ele>172.6</ele>
        <time>2023-07-04T10:09:31Z</time>
      </trkpt>
      <trkpt lat="43.94295" lon="0.50439">
        <ele>172.6</ele>
        <time>2023-07-04T10:09:35Z</time>
      </trkpt>
      <trkpt lat="43.94295" lon="0.5044">
        <ele>172.4</ele>
        <time>2023-07-04T10:09:36Z</time>
      </trkpt>
      <trkpt lat="43.94291" lon="0.50452">
        <ele>171.8</ele>
        <time>2023-07-04T10:09:42Z</time>
      </trkpt>
      <trkpt lat="43.94291" lon="0.50453">
        <ele>171.8</ele>
        <time>2023-07-04T10:09:43Z</time>
      </trkpt>
      <trkpt lat="43.9429" lon="0.50456">
        <ele>171.8</ele>
        <time>2023-07-04T10:09:44Z</time>
      </trkpt>
      <trkpt lat="43.94288" lon="0.50464">
        <ele>172</ele>
        <time>2023-07-04T10:09:49Z</time>
      </trkpt>
      <trkpt lat="43.94286" lon="0.50471">
        <ele>172</ele>
        <time>2023-07-04T10:09:53Z</time>
      </trkpt>
      <trkpt lat="43.94285" lon="0.50481">
        <ele>172.6</ele>
        <time>2023-07-04T10:24:49Z</time>
      </trkpt>
      <trkpt lat="43.94284" lon="0.50481">
        <ele>172.6</ele>
        <time>2023-07-04T10:24:50Z</time>
      </trkpt>
      <trkpt lat="43.94284" lon="0.50482">
        <ele>173</ele>
        <time>2023-07-04T10:24:51Z</time>
      </trkpt>
      <trkpt lat="43.94279" lon="0.50488">
        <ele>173</ele>
        <time>2023-07-04T10:24:59Z</time>
      </trkpt>
      <trkpt lat="43.94277" lon="0.50492">
        <ele>173</ele>
        <time>2023-07-04T10:25:02Z</time>
      </trkpt>
      <trkpt lat="43.94275" lon="0.50498">
        <ele>173</ele>
        <time>2023-07-04T10:25:04Z</time>
      </trkpt>
      <trkpt lat="43.94273" lon="0.50501">
        <ele>173</ele>
        <time>2023-07-04T10:25:05Z</time>
      </trkpt>
      <trkpt lat="43.94269" lon="0.50511">
        <ele>172.4</ele>
        <time>2023-07-04T10:25:12Z</time>
      </trkpt>
      <trkpt lat="43.94268" lon="0.50513">
        <ele>172.4</ele>
        <time>2023-07-04T10:25:14Z</time>
      </trkpt>
      <trkpt lat="43.94264" lon="0.50518">
        <ele>172.2</ele>
        <time>2023-07-04T10:25:19Z</time>
      </trkpt>
      <trkpt lat="43.94264" lon="0.50519">
        <ele>172</ele>
        <time>2023-07-04T10:25:22Z</time>
      </trkpt>
      <trkpt lat="43.94264" lon="0.50522">
        <ele>172</ele>
        <time>2023-07-04T10:25:24Z</time>
      </trkpt>
      <trkpt lat="43.94263" lon="0.50525">
        <ele>172</ele>
        <time>2023-07-04T10:25:27Z</time>
      </trkpt>
      <trkpt lat="43.94261" lon="0.50533">
        <ele>171.8</ele>
        <time>2023-07-04T10:25:32Z</time>
      </trkpt>
      <trkpt lat="43.94259" lon="0.50535">
        <ele>171.6</ele>
        <time>2023-07-04T10:25:34Z</time>
      </trkpt>
      <trkpt lat="43.94259" lon="0.50536">
        <ele>171.6</ele>
        <time>2023-07-04T10:25:35Z</time>
      </trkpt>
      <trkpt lat="43.94256" lon="0.50541">
        <ele>171.6</ele>
        <time>2023-07-04T10:25:39Z</time>
      </trkpt>
      <trkpt lat="43.94253" lon="0.50546">
        <ele>171.4</ele>
        <time>2023-07-04T10:25:44Z</time>
      </trkpt>
      <trkpt lat="43.94247" lon="0.50557">
        <ele>171</ele>
        <time>2023-07-04T10:25:52Z</time>
      </trkpt>
      <trkpt lat="43.94244" lon="0.50563">
        <ele>170.4</ele>
        <time>2023-07-04T10:25:57Z</time>
      </trkpt>
      <trkpt lat="43.94242" lon="0.50564">
        <ele>170.4</ele>
        <time>2023-07-04T10:25:59Z</time>
      </trkpt>
      <trkpt lat="43.94242" lon="0.50564">
        <ele>170.4</ele>
        <time>2023-07-04T10:26:00Z</time>
      </trkpt>
      <trkpt lat="43.94239" lon="0.50571">
        <ele>169.8</ele>
        <time>2023-07-04T10:26:06Z</time>
      </trkpt>
      <trkpt lat="43.94237" lon="0.50575">
        <ele>169.6</ele>
        <time>2023-07-04T10:26:09Z</time>
      </trkpt>
      <trkpt lat="43.94234" lon="0.50582">
        <ele>169.4</ele>
        <time>2023-07-04T10:26:13Z</time>
      </trkpt>
      <trkpt lat="43.94233" lon="0.50586">
        <ele>169</ele>
        <time>2023-07-04T10:26:15Z</time>
      </trkpt>
      <trkpt lat="43.94227" lon="0.50596">
        <ele>168.4</ele>
        <time>2023-07-04T10:26:24Z</time>
      </trkpt>
      <trkpt lat="43.94226" lon="0.50596">
        <ele>168.4</ele>
        <time>2023-07-04T10:26:25Z</time>
      </trkpt>
      <trkpt lat="43.94219" lon="0.50602">
        <ele>168.4</ele>
        <time>2023-07-04T10:26:31Z</time>
      </trkpt>
      <trkpt lat="43.94218" lon="0.50604">
        <ele>168.2</ele>
        <time>2023-07-04T10:26:33Z</time>
      </trkpt>
      <trkpt lat="43.94214" lon="0.50609">
        <ele>167.6</ele>
        <time>2023-07-04T10:26:38Z</time>
      </trkpt>
      <trkpt lat="43.94211" lon="0.50613">
        <ele>167.4</ele>
        <time>2023-07-04T10:26:42Z</time>
      </trkpt>
      <trkpt lat="43.9421" lon="0.50614">
        <ele>167.2</ele>
        <time>2023-07-04T10:26:43Z</time>
      </trkpt>
      <trkpt lat="43.9421" lon="0.50614">
        <ele>167.2</ele>
        <time>2023-07-04T10:26:44Z</time>
      </trkpt>
      <trkpt lat="43.94209" lon="0.50615">
        <ele>167.2</ele>
        <time>2023-07-04T10:26:45Z</time>
      </trkpt>
      <trkpt lat="43.94205" lon="0.50626">
        <ele>166.6</ele>
        <time>2023-07-04T10:26:52Z</time>
      </trkpt>
      <trkpt lat="43.94202" lon="0.50635">
        <ele>166.2</ele>
        <time>2023-07-04T10:26:58Z</time>
      </trkpt>
      <trkpt lat="43.94201" lon="0.50636">
        <ele>166.2</ele>
        <time>2023-07-04T10:26:59Z</time>
      </trkpt>
      <trkpt lat="43.942" lon="0.50645">
        <ele>165.6</ele>
        <time>2023-07-04T10:27:07Z</time>
      </trkpt>
      <trkpt lat="43.942" lon="0.50648">
        <ele>165.2</ele>
        <time>2023-07-04T10:27:09Z</time>
      </trkpt>
      <trkpt lat="43.942" lon="0.5065">
        <ele>164.8</ele>
        <time>2023-07-04T10:27:11Z</time>
      </trkpt>
      <trkpt lat="43.942" lon="0.50651">
        <ele>164.8</ele>
        <time>2023-07-04T10:27:12Z</time>
      </trkpt>
      <trkpt lat="43.942" lon="0.50652">
        <ele>164.8</ele>
        <time>2023-07-04T10:27:13Z</time>
      </trkpt>
      <trkpt lat="43.942" lon="0.50652">
        <ele>164.8</ele>
        <time>2023-07-04T10:27:14Z</time>
      </trkpt>
      <trkpt lat="43.942" lon="0.50656">
        <ele>164.6</ele>
        <time>2023-07-04T10:27:17Z</time>
      </trkpt>
      <trkpt lat="43.94197" lon="0.50663">
        <ele>164.6</ele>
        <time>2023-07-04T10:27:21Z</time>
      </trkpt>
      <trkpt lat="43.94195" lon="0.50667">
        <ele>164.2</ele>
        <time>2023-07-04T10:27:24Z</time>
      </trkpt>
      <trkpt lat="43.94194" lon="0.50671">
        <ele>164</ele>
        <time>2023-07-04T10:27:26Z</time>
      </trkpt>
      <trkpt lat="43.94192" lon="0.50675">
        <ele>164</ele>
        <time>2023-07-04T10:27:28Z</time>
      </trkpt>
      <trkpt lat="43.94193" lon="0.50676">
        <ele>164</ele>
        <time>2023-07-04T10:27:29Z</time>
      </trkpt>
      <trkpt lat="43.94192" lon="0.50682">
        <ele>163.6</ele>
        <time>2023-07-04T10:27:33Z</time>
      </trkpt>
      <trkpt lat="43.9419" lon="0.50687">
        <ele>163.4</ele>
        <time>2023-07-04T10:27:37Z</time>
      </trkpt>
      <trkpt lat="43.94188" lon="0.50692">
        <ele>163</ele>
        <time>2023-07-04T10:27:40Z</time>
      </trkpt>
      <trkpt lat="43.94184" lon="0.50699">
        <ele>163</ele>
        <time>2023-07-04T10:27:44Z</time>
      </trkpt>
      <trkpt lat="43.94183" lon="0.50701">
        <ele>163</ele>
        <time>2023-07-04T10:27:45Z</time>
      </trkpt>
      <trkpt lat="43.94178" lon="0.50711">
        <ele>163</ele>
        <time>2023-07-04T10:27:52Z</time>
      </trkpt>
      <trkpt lat="43.94175" lon="0.50715">
        <ele>162.6</ele>
        <time>2023-07-04T10:27:57Z</time>
      </trkpt>
      <trkpt lat="43.94172" lon="0.50722">
        <ele>162.4</ele>
        <time>2023-07-04T10:28:03Z</time>
      </trkpt>
      <trkpt lat="43.94172" lon="0.50725">
        <ele>162.6</ele>
        <time>2023-07-04T10:28:05Z</time>
      </trkpt>
      <trkpt lat="43.94171" lon="0.50728">
        <ele>162.6</ele>
        <time>2023-07-04T10:28:08Z</time>
      </trkpt>
      <trkpt lat="43.94171" lon="0.50731">
        <ele>163</ele>
        <time>2023-07-04T10:28:12Z</time>
      </trkpt>
      <trkpt lat="43.9417" lon="0.50733">
        <ele>163.2</ele>
        <time>2023-07-04T10:28:16Z</time>
      </trkpt>
      <trkpt lat="43.94169" lon="0.50735">
        <ele>163.2</ele>
        <time>2023-07-04T10:28:19Z</time>
      </trkpt>
      <trkpt lat="43.94169" lon="0.50735">
        <ele>163.2</ele>
        <time>2023-07-04T10:28:20Z</time>
      </trkpt>
      <trkpt lat="43.94166" lon="0.50738">
        <ele>163</ele>
        <time>2023-07-04T10:28:25Z</time>
      </trkpt>
      <trkpt lat="43.94164" lon="0.50743">
        <ele>162.8</ele>
        <time>2023-07-04T10:28:29Z</time>
      </trkpt>
      <trkpt lat="43.94163" lon="0.5075">
        <ele>163.2</ele>
        <time>2023-07-04T10:28:33Z</time>
      </trkpt>
      <trkpt lat="43.94161" lon="0.50757">
        <ele>163.4</ele>
        <time>2023-07-04T10:28:39Z</time>
      </trkpt>
      <trkpt lat="43.94159" lon="0.50766">
        <ele>164</ele>
        <time>2023-07-04T10:28:46Z</time>
      </trkpt>
      <trkpt lat="43.94158" lon="0.50767">
        <ele>164.2</ele>
        <time>2023-07-04T10:28:47Z</time>
      </trkpt>
      <trkpt lat="43.94158" lon="0.5077">
        <ele>164.6</ele>
        <time>2023-07-04T10:28:49Z</time>
      </trkpt>
      <trkpt lat="43.94157" lon="0.50775">
        <ele>165</ele>
        <time>2023-07-04T10:28:53Z</time>
      </trkpt>
      <trkpt lat="43.94157" lon="0.50776">
        <ele>165.2</ele>
        <time>2023-07-04T10:28:54Z</time>
      </trkpt>
      <trkpt lat="43.94156" lon="0.50778">
        <ele>165.4</ele>
        <time>2023-07-04T10:28:56Z</time>
      </trkpt>
      <trkpt lat="43.94154" lon="0.50783">
        <ele>165.8</ele>
        <time>2023-07-04T10:29:01Z</time>
      </trkpt>
      <trkpt lat="43.94153" lon="0.50785">
        <ele>166</ele>
        <time>2023-07-04T10:29:03Z</time>
      </trkpt>
      <trkpt lat="43.94153" lon="0.50788">
        <ele>166.2</ele>
        <time>2023-07-04T10:29:05Z</time>
      </trkpt>
      <trkpt lat="43.94152" lon="0.50788">
        <ele>166.4</ele>
        <time>2023-07-04T10:29:06Z</time>
      </trkpt>
      <trkpt lat="43.94152" lon="0.50792">
        <ele>166.8</ele>
        <time>2023-07-04T10:29:08Z</time>
      </trkpt>
      <trkpt lat="43.94151" lon="0.50795">
        <ele>167</ele>
        <time>2023-07-04T10:29:10Z</time>
      </trkpt>
      <trkpt lat="43.9415" lon="0.50796">
        <ele>167.2</ele>
        <time>2023-07-04T10:29:12Z</time>
      </trkpt>
      <trkpt lat="43.94149" lon="0.50796">
        <ele>167.2</ele>
        <time>2023-07-04T10:29:13Z</time>
      </trkpt>
      <trkpt lat="43.94148" lon="0.50798">
        <ele>167.4</ele>
        <time>2023-07-04T10:29:15Z</time>
      </trkpt>
      <trkpt lat="43.94147" lon="0.50801">
        <ele>167.4</ele>
        <time>2023-07-04T10:29:17Z</time>
      </trkpt>
      <trkpt lat="43.94142" lon="0.50809">
        <ele>168</ele>
        <time>2023-07-04T10:29:25Z</time>
      </trkpt>
      <trkpt lat="43.94141" lon="0.50811">
        <ele>168.2</ele>
        <time>2023-07-04T10:29:27Z</time>
      </trkpt>
      <trkpt lat="43.94138" lon="0.50822">
        <ele>168.6</ele>
        <time>2023-07-04T10:29:35Z</time>
      </trkpt>
      <trkpt lat="43.94133" lon="0.50831">
        <ele>168.8</ele>
        <time>2023-07-04T10:29:43Z</time>
      </trkpt>
      <trkpt lat="43.94128" lon="0.50839">
        <ele>168.8</ele>
        <time>2023-07-04T10:29:49Z</time>
      </trkpt>
      <trkpt lat="43.94127" lon="0.5084">
        <ele>168.8</ele>
        <time>2023-07-04T10:29:51Z</time>
      </trkpt>
      <trkpt lat="43.94127" lon="0.50841">
        <ele>169</ele>
        <time>2023-07-04T10:29:54Z</time>
      </trkpt>
      <trkpt lat="43.94125" lon="0.50842">
        <ele>169.2</ele>
        <time>2023-07-04T10:29:56Z</time>
      </trkpt>
      <trkpt lat="43.94122" lon="0.50845">
        <ele>169</ele>
        <time>2023-07-04T10:30:00Z</time>
      </trkpt>
      <trkpt lat="43.94119" lon="0.50847">
        <ele>169</ele>
        <time>2023-07-04T10:30:03Z</time>
      </trkpt>
      <trkpt lat="43.94118" lon="0.50848">
        <ele>169.2</ele>
        <time>2023-07-04T10:30:04Z</time>
      </trkpt>
      <trkpt lat="43.94116" lon="0.5085">
        <ele>169.4</ele>
        <time>2023-07-04T10:30:06Z</time>
      </trkpt>
      <trkpt lat="43.9411" lon="0.50856">
        <ele>169.4</ele>
        <time>2023-07-04T10:30:12Z</time>
      </trkpt>
      <trkpt lat="43.94102" lon="0.50863">
        <ele>169.2</ele>
        <time>2023-07-04T10:30:21Z</time>
      </trkpt>
      <trkpt lat="43.94096" lon="0.50871">
        <ele>169.6</ele>
        <time>2023-07-04T10:30:27Z</time>
      </trkpt>
      <trkpt lat="43.94094" lon="0.50877">
        <ele>169.6</ele>
        <time>2023-07-04T10:30:30Z</time>
      </trkpt>
      <trkpt lat="43.9409" lon="0.50884">
        <ele>170</ele>
        <time>2023-07-04T10:30:36Z</time>
      </trkpt>
      <trkpt lat="43.94087" lon="0.50887">
        <ele>170</ele>
        <time>2023-07-04T10:30:39Z</time>
      </trkpt>
      <trkpt lat="43.94083" lon="0.50894">
        <ele>170.6</ele>
        <time>2023-07-04T10:30:44Z</time>
      </trkpt>
      <trkpt lat="43.94081" lon="0.50897">
        <ele>170.8</ele>
        <time>2023-07-04T10:30:47Z</time>
      </trkpt>
      <trkpt lat="43.94074" lon="0.50907">
        <ele>171.2</ele>
        <time>2023-07-04T10:30:56Z</time>
      </trkpt>
      <trkpt lat="43.94069" lon="0.50912">
        <ele>171.6</ele>
        <time>2023-07-04T10:31:02Z</time>
      </trkpt>
      <trkpt lat="43.94066" lon="0.50916">
        <ele>171.8</ele>
        <time>2023-07-04T10:31:05Z</time>
      </trkpt>
      <trkpt lat="43.94061" lon="0.50926">
        <ele>172.2</ele>
        <time>2023-07-04T10:31:13Z</time>
      </trkpt>
      <trkpt lat="43.9406" lon="0.50927">
        <ele>172.2</ele>
        <time>2023-07-04T10:31:14Z</time>
      </trkpt>
      <trkpt lat="43.94057" lon="0.50932">
        <ele>172.4</ele>
        <time>2023-07-04T10:31:18Z</time>
      </trkpt>
      <trkpt lat="43.94056" lon="0.50934">
        <ele>172.6</ele>
        <time>2023-07-04T10:31:20Z</time>
      </trkpt>
      <trkpt lat="43.94055" lon="0.50935">
        <ele>172.8</ele>
        <time>2023-07-04T10:31:21Z</time>
      </trkpt>
      <trkpt lat="43.94055" lon="0.50937">
        <ele>172.8</ele>
        <time>2023-07-04T10:31:22Z</time>
      </trkpt>
      <trkpt lat="43.94054" lon="0.50939">
        <ele>173.2</ele>
        <time>2023-07-04T10:31:24Z</time>
      </trkpt>
      <trkpt lat="43.94051" lon="0.50942">
        <ele>173.6</ele>
        <time>2023-07-04T10:31:27Z</time>
      </trkpt>
      <trkpt lat="43.9405" lon="0.50944">
        <ele>173.6</ele>
        <time>2023-07-04T10:31:29Z</time>
      </trkpt>
      <trkpt lat="43.94049" lon="0.50945">
        <ele>173.8</ele>
        <time>2023-07-04T10:31:30Z</time>
      </trkpt>
      <trkpt lat="43.94047" lon="0.50947">
        <ele>174.2</ele>
        <time>2023-07-04T10:31:33Z</time>
      </trkpt>
      <trkpt lat="43.94045" lon="0.50951">
        <ele>174.4</ele>
        <time>2023-07-04T10:31:36Z</time>
      </trkpt>
      <trkpt lat="43.94043" lon="0.50955">
        <ele>174.6</ele>
        <time>2023-07-04T10:31:40Z</time>
      </trkpt>
      <trkpt lat="43.94041" lon="0.50958">
        <ele>175</ele>
        <time>2023-07-04T10:31:43Z</time>
      </trkpt>
      <trkpt lat="43.94038" lon="0.50961">
        <ele>175.2</ele>
        <time>2023-07-04T10:31:47Z</time>
      </trkpt>
      <trkpt lat="43.94036" lon="0.50963">
        <ele>175.8</ele>
        <time>2023-07-04T10:31:50Z</time>
      </trkpt>
      <trkpt lat="43.94034" lon="0.50967">
        <ele>176</ele>
        <time>2023-07-04T10:31:53Z</time>
      </trkpt>
      <trkpt lat="43.94032" lon="0.50971">
        <ele>176.6</ele>
        <time>2023-07-04T10:31:56Z</time>
      </trkpt>
      <trkpt lat="43.9403" lon="0.50974">
        <ele>177.2</ele>
        <time>2023-07-04T10:32:00Z</time>
      </trkpt>
      <trkpt lat="43.94026" lon="0.5098">
        <ele>177.6</ele>
        <time>2023-07-04T10:32:06Z</time>
      </trkpt>
      <trkpt lat="43.94024" lon="0.50981">
        <ele>177.8</ele>
        <time>2023-07-04T10:32:08Z</time>
      </trkpt>
      <trkpt lat="43.94022" lon="0.50986">
        <ele>178.4</ele>
        <time>2023-07-04T10:32:13Z</time>
      </trkpt>
      <trkpt lat="43.94021" lon="0.50987">
        <ele>178.6</ele>
        <time>2023-07-04T10:32:14Z</time>
      </trkpt>
      <trkpt lat="43.9402" lon="0.50987">
        <ele>178.6</ele>
        <time>2023-07-04T10:32:15Z</time>
      </trkpt>
      <trkpt lat="43.94016" lon="0.50991">
        <ele>179.6</ele>
        <time>2023-07-04T10:32:21Z</time>
      </trkpt>
      <trkpt lat="43.94014" lon="0.50993">
        <ele>180</ele>
        <time>2023-07-04T10:32:24Z</time>
      </trkpt>
      <trkpt lat="43.94013" lon="0.50994">
        <ele>180.2</ele>
        <time>2023-07-04T10:32:26Z</time>
      </trkpt>
      <trkpt lat="43.94011" lon="0.50996">
        <ele>180.4</ele>
        <time>2023-07-04T10:32:29Z</time>
      </trkpt>
      <trkpt lat="43.94011" lon="0.50997">
        <ele>180.6</ele>
        <time>2023-07-04T10:32:30Z</time>
      </trkpt>
      <trkpt lat="43.94009" lon="0.51">
        <ele>181.6</ele>
        <time>2023-07-04T10:32:34Z</time>
      </trkpt>
      <trkpt lat="43.94008" lon="0.51001">
        <ele>181.6</ele>
        <time>2023-07-04T10:32:35Z</time>
      </trkpt>
      <trkpt lat="43.94003" lon="0.51007">
        <ele>182.4</ele>
        <time>2023-07-04T10:32:42Z</time>
      </trkpt>
      <trkpt lat="43.94002" lon="0.51008">
        <ele>182.6</ele>
        <time>2023-07-04T10:32:43Z</time>
      </trkpt>
      <trkpt lat="43.94002" lon="0.51008">
        <ele>182.6</ele>
        <time>2023-07-04T10:32:44Z</time>
      </trkpt>
      <trkpt lat="43.93998" lon="0.51014">
        <ele>183.4</ele>
        <time>2023-07-04T10:32:50Z</time>
      </trkpt>
      <trkpt lat="43.93997" lon="0.51015">
        <ele>183.8</ele>
        <time>2023-07-04T10:32:52Z</time>
      </trkpt>
      <trkpt lat="43.93996" lon="0.51017">
        <ele>184.4</ele>
        <time>2023-07-04T10:32:54Z</time>
      </trkpt>
      <trkpt lat="43.93993" lon="0.5102">
        <ele>184.6</ele>
        <time>2023-07-04T10:32:58Z</time>
      </trkpt>
      <trkpt lat="43.93992" lon="0.51022">
        <ele>185</ele>
        <time>2023-07-04T10:33:00Z</time>
      </trkpt>
      <trkpt lat="43.9399" lon="0.51025">
        <ele>185.4</ele>
        <time>2023-07-04T10:33:03Z</time>
      </trkpt>
      <trkpt lat="43.93987" lon="0.51028">
        <ele>185.8</ele>
        <time>2023-07-04T10:33:07Z</time>
      </trkpt>
      <trkpt lat="43.93986" lon="0.51029">
        <ele>186</ele>
        <time>2023-07-04T10:33:08Z</time>
      </trkpt>
      <trkpt lat="43.93986" lon="0.51031">
        <ele>186.4</ele>
        <time>2023-07-04T10:33:10Z</time>
      </trkpt>
      <trkpt lat="43.93984" lon="0.51035">
        <ele>187</ele>
        <time>2023-07-04T10:33:14Z</time>
      </trkpt>
      <trkpt lat="43.93983" lon="0.51037">
        <ele>187.2</ele>
        <time>2023-07-04T10:33:15Z</time>
      </trkpt>
      <trkpt lat="43.93982" lon="0.5104">
        <ele>187.6</ele>
        <time>2023-07-04T10:33:18Z</time>
      </trkpt>
      <trkpt lat="43.93981" lon="0.51042">
        <ele>188</ele>
        <time>2023-07-04T10:33:20Z</time>
      </trkpt>
      <trkpt lat="43.9398" lon="0.51044">
        <ele>188.2</ele>
        <time>2023-07-04T10:33:22Z</time>
      </trkpt>
      <trkpt lat="43.93979" lon="0.51046">
        <ele>188.2</ele>
        <time>2023-07-04T10:33:24Z</time>
      </trkpt>
      <trkpt lat="43.93977" lon="0.51053">
        <ele>189.2</ele>
        <time>2023-07-04T10:33:31Z</time>
      </trkpt>
      <trkpt lat="43.93976" lon="0.51057">
        <ele>189.8</ele>
        <time>2023-07-04T10:33:34Z</time>
      </trkpt>
      <trkpt lat="43.93975" lon="0.51059">
        <ele>190</ele>
        <time>2023-07-04T10:33:35Z</time>
      </trkpt>
      <trkpt lat="43.93975" lon="0.5106">
        <ele>190.2</ele>
        <time>2023-07-04T10:33:36Z</time>
      </trkpt>
      <trkpt lat="43.93974" lon="0.51062">
        <ele>190.4</ele>
        <time>2023-07-04T10:33:37Z</time>
      </trkpt>
      <trkpt lat="43.93974" lon="0.51063">
        <ele>190.6</ele>
        <time>2023-07-04T10:33:38Z</time>
      </trkpt>
      <trkpt lat="43.93972" lon="0.51068">
        <ele>190.8</ele>
        <time>2023-07-04T10:33:42Z</time>
      </trkpt>
      <trkpt lat="43.93968" lon="0.51078">
        <ele>191.4</ele>
        <time>2023-07-04T10:33:50Z</time>
      </trkpt>
      <trkpt lat="43.93966" lon="0.51082">
        <ele>191.4</ele>
        <time>2023-07-04T10:33:53Z</time>
      </trkpt>
      <trkpt lat="43.93965" lon="0.51089">
        <ele>191.8</ele>
        <time>2023-07-04T10:33:57Z</time>
      </trkpt>
      <trkpt lat="43.93963" lon="0.51095">
        <ele>191.8</ele>
        <time>2023-07-04T10:34:01Z</time>
      </trkpt>
      <trkpt lat="43.9396" lon="0.51104">
        <ele>191.8</ele>
        <time>2023-07-04T10:34:07Z</time>
      </trkpt>
      <trkpt lat="43.93959" lon="0.51109">
        <ele>192</ele>
        <time>2023-07-04T10:34:10Z</time>
      </trkpt>
      <trkpt lat="43.93958" lon="0.51111">
        <ele>192</ele>
        <time>2023-07-04T10:34:11Z</time>
      </trkpt>
      <trkpt lat="43.93954" lon="0.51124">
        <ele>191.8</ele>
        <time>2023-07-04T10:34:19Z</time>
      </trkpt>
      <trkpt lat="43.93953" lon="0.51127">
        <ele>191.8</ele>
        <time>2023-07-04T10:34:21Z</time>
      </trkpt>
      <trkpt lat="43.9395" lon="0.51135">
        <ele>191.6</ele>
        <time>2023-07-04T10:34:27Z</time>
      </trkpt>
      <trkpt lat="43.9395" lon="0.51136">
        <ele>191.6</ele>
        <time>2023-07-04T10:34:28Z</time>
      </trkpt>
      <trkpt lat="43.9395" lon="0.51136">
        <ele>191.6</ele>
        <time>2023-07-04T10:34:29Z</time>
      </trkpt>
      <trkpt lat="43.9395" lon="0.51136">
        <ele>191.6</ele>
        <time>2023-07-04T10:34:30Z</time>
      </trkpt>
      <trkpt lat="43.93951" lon="0.51136">
        <ele>191.6</ele>
        <time>2023-07-04T10:34:32Z</time>
      </trkpt>
      <trkpt lat="43.9395" lon="0.51137">
        <ele>191.6</ele>
        <time>2023-07-04T10:34:34Z</time>
      </trkpt>
      <trkpt lat="43.93949" lon="0.51138">
        <ele>191.6</ele>
        <time>2023-07-04T10:34:35Z</time>
      </trkpt>
      <trkpt lat="43.93948" lon="0.51141">
        <ele>191.4</ele>
        <time>2023-07-04T10:34:37Z</time>
      </trkpt>
      <trkpt lat="43.93946" lon="0.51146">
        <ele>191.4</ele>
        <time>2023-07-04T10:34:40Z</time>
      </trkpt>
      <trkpt lat="43.93943" lon="0.51152">
        <ele>191.4</ele>
        <time>2023-07-04T10:34:44Z</time>
      </trkpt>
      <trkpt lat="43.93943" lon="0.51154">
        <ele>191.4</ele>
        <time>2023-07-04T10:34:45Z</time>
      </trkpt>
      <trkpt lat="43.93942" lon="0.51155">
        <ele>191.4</ele>
        <time>2023-07-04T10:34:46Z</time>
      </trkpt>
      <trkpt lat="43.93941" lon="0.51158">
        <ele>191.4</ele>
        <time>2023-07-04T10:34:48Z</time>
      </trkpt>
      <trkpt lat="43.93939" lon="0.51163">
        <ele>191.4</ele>
        <time>2023-07-04T10:34:51Z</time>
      </trkpt>
      <trkpt lat="43.93938" lon="0.51165">
        <ele>191.4</ele>
        <time>2023-07-04T10:34:53Z</time>
      </trkpt>
      <trkpt lat="43.93933" lon="0.51174">
        <ele>191.6</ele>
        <time>2023-07-04T10:34:59Z</time>
      </trkpt>
      <trkpt lat="43.93931" lon="0.51178">
        <ele>191.6</ele>
        <time>2023-07-04T10:35:02Z</time>
      </trkpt>
      <trkpt lat="43.93923" lon="0.51193">
        <ele>191.4</ele>
        <time>2023-07-04T10:35:13Z</time>
      </trkpt>
      <trkpt lat="43.93918" lon="0.51204">
        <ele>191.6</ele>
        <time>2023-07-04T10:35:21Z</time>
      </trkpt>
      <trkpt lat="43.93913" lon="0.51211">
        <ele>192</ele>
        <time>2023-07-04T10:35:26Z</time>
      </trkpt>
      <trkpt lat="43.93912" lon="0.51214">
        <ele>192</ele>
        <time>2023-07-04T10:35:28Z</time>
      </trkpt>
      <trkpt lat="43.93911" lon="0.51219">
        <ele>192.4</ele>
        <time>2023-07-04T10:35:32Z</time>
      </trkpt>
      <trkpt lat="43.9391" lon="0.51222">
        <ele>192.4</ele>
        <time>2023-07-04T10:35:34Z</time>
      </trkpt>
      <trkpt lat="43.93909" lon="0.51225">
        <ele>192.4</ele>
        <time>2023-07-04T10:35:36Z</time>
      </trkpt>
      <trkpt lat="43.93907" lon="0.51229">
        <ele>192.4</ele>
        <time>2023-07-04T10:35:40Z</time>
      </trkpt>
      <trkpt lat="43.93906" lon="0.51232">
        <ele>192.6</ele>
        <time>2023-07-04T10:35:42Z</time>
      </trkpt>
      <trkpt lat="43.93905" lon="0.51235">
        <ele>192.6</ele>
        <time>2023-07-04T10:35:44Z</time>
      </trkpt>
      <trkpt lat="43.93903" lon="0.51238">
        <ele>193.2</ele>
        <time>2023-07-04T10:35:46Z</time>
      </trkpt>
      <trkpt lat="43.93902" lon="0.51241">
        <ele>193.4</ele>
        <time>2023-07-04T10:35:48Z</time>
      </trkpt>
      <trkpt lat="43.93899" lon="0.51249">
        <ele>193.6</ele>
        <time>2023-07-04T10:35:54Z</time>
      </trkpt>
      <trkpt lat="43.93892" lon="0.51264">
        <ele>194.2</ele>
        <time>2023-07-04T10:36:04Z</time>
      </trkpt>
      <trkpt lat="43.9389" lon="0.51267">
        <ele>194.2</ele>
        <time>2023-07-04T10:36:06Z</time>
      </trkpt>
      <trkpt lat="43.93889" lon="0.5127">
        <ele>194.4</ele>
        <time>2023-07-04T10:36:08Z</time>
      </trkpt>
      <trkpt lat="43.93886" lon="0.51276">
        <ele>195</ele>
        <time>2023-07-04T10:36:12Z</time>
      </trkpt>
      <trkpt lat="43.93879" lon="0.51285">
        <ele>195.4</ele>
        <time>2023-07-04T10:36:21Z</time>
      </trkpt>
      <trkpt lat="43.93878" lon="0.51286">
        <ele>195.4</ele>
        <time>2023-07-04T10:36:22Z</time>
      </trkpt>
      <trkpt lat="43.93876" lon="0.51289">
        <ele>195.4</ele>
        <time>2023-07-04T10:36:24Z</time>
      </trkpt>
      <trkpt lat="43.93873" lon="0.51294">
        <ele>195.6</ele>
        <time>2023-07-04T10:36:29Z</time>
      </trkpt>
      <trkpt lat="43.93872" lon="0.51296">
        <ele>195.6</ele>
        <time>2023-07-04T10:36:31Z</time>
      </trkpt>
      <trkpt lat="43.93869" lon="0.51304">
        <ele>195.8</ele>
        <time>2023-07-04T10:36:36Z</time>
      </trkpt>
      <trkpt lat="43.93867" lon="0.51309">
        <ele>195.8</ele>
        <time>2023-07-04T10:36:39Z</time>
      </trkpt>
      <trkpt lat="43.93866" lon="0.51311">
        <ele>195.8</ele>
        <time>2023-07-04T10:36:40Z</time>
      </trkpt>
      <trkpt lat="43.93861" lon="0.5132">
        <ele>195.6</ele>
        <time>2023-07-04T10:36:47Z</time>
      </trkpt>
      <trkpt lat="43.93856" lon="0.51327">
        <ele>195.4</ele>
        <time>2023-07-04T10:36:52Z</time>
      </trkpt>
      <trkpt lat="43.93854" lon="0.5133">
        <ele>195.4</ele>
        <time>2023-07-04T10:36:54Z</time>
      </trkpt>
      <trkpt lat="43.93853" lon="0.51331">
        <ele>195.4</ele>
        <time>2023-07-04T10:36:55Z</time>
      </trkpt>
      <trkpt lat="43.93847" lon="0.51342">
        <ele>195.4</ele>
        <time>2023-07-04T10:37:02Z</time>
      </trkpt>
      <trkpt lat="43.93845" lon="0.51345">
        <ele>195.4</ele>
        <time>2023-07-04T10:37:04Z</time>
      </trkpt>
      <trkpt lat="43.93844" lon="0.51348">
        <ele>195.2</ele>
        <time>2023-07-04T10:37:06Z</time>
      </trkpt>
      <trkpt lat="43.9384" lon="0.51356">
        <ele>195.2</ele>
        <time>2023-07-04T10:37:11Z</time>
      </trkpt>
      <trkpt lat="43.93837" lon="0.51362">
        <ele>194.8</ele>
        <time>2023-07-04T10:37:14Z</time>
      </trkpt>
      <trkpt lat="43.93835" lon="0.51369">
        <ele>194.8</ele>
        <time>2023-07-04T10:37:19Z</time>
      </trkpt>
      <trkpt lat="43.93835" lon="0.5137">
        <ele>194.8</ele>
        <time>2023-07-04T10:37:20Z</time>
      </trkpt>
      <trkpt lat="43.93834" lon="0.51371">
        <ele>194.8</ele>
        <time>2023-07-04T10:37:22Z</time>
      </trkpt>
      <trkpt lat="43.9383" lon="0.51378">
        <ele>195.2</ele>
        <time>2023-07-04T10:37:27Z</time>
      </trkpt>
      <trkpt lat="43.93828" lon="0.51386">
        <ele>195</ele>
        <time>2023-07-04T10:37:31Z</time>
      </trkpt>
      <trkpt lat="43.93826" lon="0.51396">
        <ele>194.6</ele>
        <time>2023-07-04T10:37:37Z</time>
      </trkpt>
      <trkpt lat="43.93824" lon="0.5141">
        <ele>194.4</ele>
        <time>2023-07-04T10:37:46Z</time>
      </trkpt>
      <trkpt lat="43.93824" lon="0.51412">
        <ele>194.4</ele>
        <time>2023-07-04T10:37:47Z</time>
      </trkpt>
      <trkpt lat="43.93824" lon="0.51427">
        <ele>194.6</ele>
        <time>2023-07-04T10:37:55Z</time>
      </trkpt>
      <trkpt lat="43.93825" lon="0.51442">
        <ele>194.6</ele>
        <time>2023-07-04T10:38:03Z</time>
      </trkpt>
      <trkpt lat="43.93825" lon="0.51444">
        <ele>194.4</ele>
        <time>2023-07-04T10:38:04Z</time>
      </trkpt>
      <trkpt lat="43.93825" lon="0.51451">
        <ele>194.4</ele>
        <time>2023-07-04T10:38:08Z</time>
      </trkpt>
      <trkpt lat="43.93825" lon="0.51454">
        <ele>194.6</ele>
        <time>2023-07-04T10:38:10Z</time>
      </trkpt>
      <trkpt lat="43.93826" lon="0.51456">
        <ele>194.6</ele>
        <time>2023-07-04T10:38:12Z</time>
      </trkpt>
      <trkpt lat="43.93827" lon="0.51465">
        <ele>194.2</ele>
        <time>2023-07-04T10:38:18Z</time>
      </trkpt>
      <trkpt lat="43.93827" lon="0.51471">
        <ele>194</ele>
        <time>2023-07-04T10:38:21Z</time>
      </trkpt>
      <trkpt lat="43.93826" lon="0.51474">
        <ele>193.8</ele>
        <time>2023-07-04T10:38:23Z</time>
      </trkpt>
      <trkpt lat="43.93825" lon="0.5148">
        <ele>193.6</ele>
        <time>2023-07-04T10:38:26Z</time>
      </trkpt>
      <trkpt lat="43.93824" lon="0.51486">
        <ele>193.4</ele>
        <time>2023-07-04T10:38:29Z</time>
      </trkpt>
      <trkpt lat="43.93824" lon="0.51494">
        <ele>193</ele>
        <time>2023-07-04T10:38:33Z</time>
      </trkpt>
      <trkpt lat="43.93828" lon="0.51502">
        <ele>192.8</ele>
        <time>2023-07-04T10:38:38Z</time>
      </trkpt>
      <trkpt lat="43.93829" lon="0.51503">
        <ele>192.8</ele>
        <time>2023-07-04T10:38:39Z</time>
      </trkpt>
      <trkpt lat="43.93831" lon="0.51513">
        <ele>192.6</ele>
        <time>2023-07-04T10:38:45Z</time>
      </trkpt>
      <trkpt lat="43.93832" lon="0.51523">
        <ele>192.2</ele>
        <time>2023-07-04T10:38:50Z</time>
      </trkpt>
      <trkpt lat="43.93832" lon="0.51528">
        <ele>192.2</ele>
        <time>2023-07-04T10:38:53Z</time>
      </trkpt>
      <trkpt lat="43.93833" lon="0.51538">
        <ele>191.2</ele>
        <time>2023-07-04T10:38:58Z</time>
      </trkpt>
      <trkpt lat="43.93833" lon="0.5154">
        <ele>191.2</ele>
        <time>2023-07-04T10:38:59Z</time>
      </trkpt>
      <trkpt lat="43.9383" lon="0.51558">
        <ele>190.4</ele>
        <time>2023-07-04T10:39:08Z</time>
      </trkpt>
      <trkpt lat="43.93828" lon="0.51571">
        <ele>190.2</ele>
        <time>2023-07-04T10:39:15Z</time>
      </trkpt>
      <trkpt lat="43.93828" lon="0.51573">
        <ele>190</ele>
        <time>2023-07-04T10:39:16Z</time>
      </trkpt>
      <trkpt lat="43.93827" lon="0.51587">
        <ele>189.2</ele>
        <time>2023-07-04T10:39:24Z</time>
      </trkpt>
      <trkpt lat="43.93826" lon="0.51597">
        <ele>189</ele>
        <time>2023-07-04T10:39:30Z</time>
      </trkpt>
      <trkpt lat="43.93825" lon="0.516">
        <ele>188.8</ele>
        <time>2023-07-04T10:39:32Z</time>
      </trkpt>
      <trkpt lat="43.93825" lon="0.51611">
        <ele>188.4</ele>
        <time>2023-07-04T10:39:38Z</time>
      </trkpt>
      <trkpt lat="43.93824" lon="0.51614">
        <ele>188.2</ele>
        <time>2023-07-04T10:39:40Z</time>
      </trkpt>
      <trkpt lat="43.93823" lon="0.51629">
        <ele>188.2</ele>
        <time>2023-07-04T10:39:49Z</time>
      </trkpt>
      <trkpt lat="43.93822" lon="0.51641">
        <ele>188</ele>
        <time>2023-07-04T10:39:55Z</time>
      </trkpt>
      <trkpt lat="43.93821" lon="0.51644">
        <ele>188</ele>
        <time>2023-07-04T10:39:57Z</time>
      </trkpt>
      <trkpt lat="43.93819" lon="0.51655">
        <ele>188</ele>
        <time>2023-07-04T10:40:03Z</time>
      </trkpt>
      <trkpt lat="43.93818" lon="0.51659">
        <ele>187.8</ele>
        <time>2023-07-04T10:40:05Z</time>
      </trkpt>
      <trkpt lat="43.93816" lon="0.51666">
        <ele>187.8</ele>
        <time>2023-07-04T10:40:09Z</time>
      </trkpt>
      <trkpt lat="43.93815" lon="0.51672">
        <ele>187.8</ele>
        <time>2023-07-04T10:40:13Z</time>
      </trkpt>
      <trkpt lat="43.93815" lon="0.51681">
        <ele>188</ele>
        <time>2023-07-04T10:40:19Z</time>
      </trkpt>
      <trkpt lat="43.93815" lon="0.51683">
        <ele>187.8</ele>
        <time>2023-07-04T10:40:20Z</time>
      </trkpt>
      <trkpt lat="43.93815" lon="0.51684">
        <ele>187.6</ele>
        <time>2023-07-04T10:40:21Z</time>
      </trkpt>
      <trkpt lat="43.93815" lon="0.51686">
        <ele>187.6</ele>
        <time>2023-07-04T10:40:22Z</time>
      </trkpt>
      <trkpt lat="43.93816" lon="0.51687">
        <ele>187.6</ele>
        <time>2023-07-04T10:40:23Z</time>
      </trkpt>
      <trkpt lat="43.93816" lon="0.51689">
        <ele>187.6</ele>
        <time>2023-07-04T10:40:24Z</time>
      </trkpt>
      <trkpt lat="43.93816" lon="0.5169">
        <ele>187.6</ele>
        <time>2023-07-04T10:40:25Z</time>
      </trkpt>
      <trkpt lat="43.93816" lon="0.51694">
        <ele>187.6</ele>
        <time>2023-07-04T10:40:27Z</time>
      </trkpt>
      <trkpt lat="43.93815" lon="0.51696">
        <ele>187.6</ele>
        <time>2023-07-04T10:40:28Z</time>
      </trkpt>
      <trkpt lat="43.93815" lon="0.51698">
        <ele>187.4</ele>
        <time>2023-07-04T10:40:29Z</time>
      </trkpt>
      <trkpt lat="43.93815" lon="0.517">
        <ele>187.4</ele>
        <time>2023-07-04T10:40:30Z</time>
      </trkpt>
      <trkpt lat="43.93814" lon="0.51703">
        <ele>187.6</ele>
        <time>2023-07-04T10:40:32Z</time>
      </trkpt>
      <trkpt lat="43.93814" lon="0.51707">
        <ele>187.4</ele>
        <time>2023-07-04T10:40:34Z</time>
      </trkpt>
      <trkpt lat="43.93814" lon="0.51714">
        <ele>187.2</ele>
        <time>2023-07-04T10:40:38Z</time>
      </trkpt>
      <trkpt lat="43.93813" lon="0.51718">
        <ele>187.2</ele>
        <time>2023-07-04T10:40:41Z</time>
      </trkpt>
      <trkpt lat="43.93812" lon="0.51722">
        <ele>187.2</ele>
        <time>2023-07-04T10:40:43Z</time>
      </trkpt>
      <trkpt lat="43.93811" lon="0.51729">
        <ele>187.4</ele>
        <time>2023-07-04T10:40:47Z</time>
      </trkpt>
      <trkpt lat="43.93811" lon="0.51736">
        <ele>187.2</ele>
        <time>2023-07-04T10:40:51Z</time>
      </trkpt>
      <trkpt lat="43.93811" lon="0.5174">
        <ele>187</ele>
        <time>2023-07-04T10:40:53Z</time>
      </trkpt>
      <trkpt lat="43.93811" lon="0.51744">
        <ele>186.8</ele>
        <time>2023-07-04T10:40:56Z</time>
      </trkpt>
      <trkpt lat="43.93811" lon="0.51748">
        <ele>186.4</ele>
        <time>2023-07-04T10:40:58Z</time>
      </trkpt>
      <trkpt lat="43.93808" lon="0.51762">
        <ele>186.4</ele>
        <time>2023-07-04T10:41:06Z</time>
      </trkpt>
      <trkpt lat="43.93805" lon="0.51779">
        <ele>185.8</ele>
        <time>2023-07-04T10:41:16Z</time>
      </trkpt>
      <trkpt lat="43.93805" lon="0.51784">
        <ele>185.6</ele>
        <time>2023-07-04T10:41:19Z</time>
      </trkpt>
      <trkpt lat="43.93804" lon="0.5179">
        <ele>185.4</ele>
        <time>2023-07-04T10:41:23Z</time>
      </trkpt>
      <trkpt lat="43.93803" lon="0.51799">
        <ele>184.6</ele>
        <time>2023-07-04T10:41:28Z</time>
      </trkpt>
      <trkpt lat="43.93802" lon="0.51802">
        <ele>184.2</ele>
        <time>2023-07-04T10:41:30Z</time>
      </trkpt>
      <trkpt lat="43.93802" lon="0.5181">
        <ele>184</ele>
        <time>2023-07-04T10:41:34Z</time>
      </trkpt>
      <trkpt lat="43.93801" lon="0.51818">
        <ele>183.4</ele>
        <time>2023-07-04T10:41:39Z</time>
      </trkpt>
      <trkpt lat="43.938" lon="0.51824">
        <ele>183</ele>
        <time>2023-07-04T10:41:43Z</time>
      </trkpt>
      <trkpt lat="43.93799" lon="0.51829">
        <ele>182.8</ele>
        <time>2023-07-04T10:41:45Z</time>
      </trkpt>
      <trkpt lat="43.93799" lon="0.51833">
        <ele>182.8</ele>
        <time>2023-07-04T10:41:47Z</time>
      </trkpt>
      <trkpt lat="43.93798" lon="0.51841">
        <ele>182.4</ele>
        <time>2023-07-04T10:41:52Z</time>
      </trkpt>
      <trkpt lat="43.93799" lon="0.51846">
        <ele>182.2</ele>
        <time>2023-07-04T10:41:55Z</time>
      </trkpt>
      <trkpt lat="43.93798" lon="0.5185">
        <ele>182</ele>
        <time>2023-07-04T10:41:57Z</time>
      </trkpt>
      <trkpt lat="43.93799" lon="0.51853">
        <ele>181.8</ele>
        <time>2023-07-04T10:41:59Z</time>
      </trkpt>
      <trkpt lat="43.938" lon="0.51855">
        <ele>181.8</ele>
        <time>2023-07-04T10:42:00Z</time>
      </trkpt>
      <trkpt lat="43.93801" lon="0.5186">
        <ele>181.6</ele>
        <time>2023-07-04T10:42:03Z</time>
      </trkpt>
      <trkpt lat="43.93802" lon="0.51873">
        <ele>181.4</ele>
        <time>2023-07-04T10:42:11Z</time>
      </trkpt>
      <trkpt lat="43.93808" lon="0.51883">
        <ele>181.4</ele>
        <time>2023-07-04T10:42:18Z</time>
      </trkpt>
      <trkpt lat="43.93809" lon="0.51884">
        <ele>181.4</ele>
        <time>2023-07-04T10:42:19Z</time>
      </trkpt>
      <trkpt lat="43.9381" lon="0.51886">
        <ele>181.6</ele>
        <time>2023-07-04T10:42:21Z</time>
      </trkpt>
      <trkpt lat="43.93816" lon="0.51891">
        <ele>182</ele>
        <time>2023-07-04T10:42:26Z</time>
      </trkpt>
      <trkpt lat="43.93825" lon="0.51899">
        <ele>182.6</ele>
        <time>2023-07-04T10:42:34Z</time>
      </trkpt>
      <trkpt lat="43.9383" lon="0.51907">
        <ele>182.6</ele>
        <time>2023-07-04T10:42:41Z</time>
      </trkpt>
      <trkpt lat="43.93838" lon="0.51915">
        <ele>181.8</ele>
        <time>2023-07-04T10:42:50Z</time>
      </trkpt>
      <trkpt lat="43.93842" lon="0.51919">
        <ele>181.4</ele>
        <time>2023-07-04T10:42:54Z</time>
      </trkpt>
      <trkpt lat="43.93843" lon="0.51922">
        <ele>181</ele>
        <time>2023-07-04T10:42:58Z</time>
      </trkpt>
      <trkpt lat="43.93847" lon="0.51927">
        <ele>180.8</ele>
        <time>2023-07-04T10:43:03Z</time>
      </trkpt>
      <trkpt lat="43.9385" lon="0.51931">
        <ele>180</ele>
        <time>2023-07-04T10:43:07Z</time>
      </trkpt>
      <trkpt lat="43.93851" lon="0.51933">
        <ele>179.8</ele>
        <time>2023-07-04T10:43:09Z</time>
      </trkpt>
      <trkpt lat="43.93851" lon="0.51934">
        <ele>179.8</ele>
        <time>2023-07-04T10:43:10Z</time>
      </trkpt>
      <trkpt lat="43.93852" lon="0.51935">
        <ele>179.6</ele>
        <time>2023-07-04T10:43:11Z</time>
      </trkpt>
      <trkpt lat="43.93853" lon="0.51937">
        <ele>179.6</ele>
        <time>2023-07-04T10:43:12Z</time>
      </trkpt>
      <trkpt lat="43.93854" lon="0.51938">
        <ele>179.4</ele>
        <time>2023-07-04T10:43:13Z</time>
      </trkpt>
      <trkpt lat="43.93859" lon="0.5194">
        <ele>179</ele>
        <time>2023-07-04T10:43:16Z</time>
      </trkpt>
      <trkpt lat="43.93867" lon="0.51945">
        <ele>178</ele>
        <time>2023-07-04T10:43:23Z</time>
      </trkpt>
      <trkpt lat="43.93867" lon="0.51946">
        <ele>177.8</ele>
        <time>2023-07-04T10:43:24Z</time>
      </trkpt>
      <trkpt lat="43.93875" lon="0.51949">
        <ele>176.6</ele>
        <time>2023-07-04T10:43:28Z</time>
      </trkpt>
      <trkpt lat="43.93878" lon="0.51952">
        <ele>176.2</ele>
        <time>2023-07-04T10:43:31Z</time>
      </trkpt>
      <trkpt lat="43.9388" lon="0.51955">
        <ele>175.4</ele>
        <time>2023-07-04T10:43:34Z</time>
      </trkpt>
      <trkpt lat="43.93882" lon="0.5196">
        <ele>174.8</ele>
        <time>2023-07-04T10:43:38Z</time>
      </trkpt>
      <trkpt lat="43.93885" lon="0.51961">
        <ele>174.2</ele>
        <time>2023-07-04T10:43:40Z</time>
      </trkpt>
      <trkpt lat="43.93887" lon="0.51962">
        <ele>174</ele>
        <time>2023-07-04T10:43:41Z</time>
      </trkpt>
      <trkpt lat="43.93891" lon="0.51965">
        <ele>173.2</ele>
        <time>2023-07-04T10:43:44Z</time>
      </trkpt>
      <trkpt lat="43.93893" lon="0.51967">
        <ele>173</ele>
        <time>2023-07-04T10:43:46Z</time>
      </trkpt>
      <trkpt lat="43.93897" lon="0.51971">
        <ele>172.2</ele>
        <time>2023-07-04T10:43:50Z</time>
      </trkpt>
      <trkpt lat="43.93899" lon="0.51976">
        <ele>171.4</ele>
        <time>2023-07-04T10:43:54Z</time>
      </trkpt>
      <trkpt lat="43.93901" lon="0.51978">
        <ele>171</ele>
        <time>2023-07-04T10:43:56Z</time>
      </trkpt>
      <trkpt lat="43.93908" lon="0.51983">
        <ele>170</ele>
        <time>2023-07-04T10:44:01Z</time>
      </trkpt>
      <trkpt lat="43.9391" lon="0.51984">
        <ele>169.8</ele>
        <time>2023-07-04T10:44:02Z</time>
      </trkpt>
      <trkpt lat="43.93913" lon="0.51988">
        <ele>169</ele>
        <time>2023-07-04T10:44:06Z</time>
      </trkpt>
      <trkpt lat="43.93919" lon="0.51994">
        <ele>168.4</ele>
        <time>2023-07-04T10:44:12Z</time>
      </trkpt>
      <trkpt lat="43.93923" lon="0.51999">
        <ele>167.8</ele>
        <time>2023-07-04T10:44:17Z</time>
      </trkpt>
      <trkpt lat="43.93926" lon="0.52003">
        <ele>167.4</ele>
        <time>2023-07-04T10:44:20Z</time>
      </trkpt>
      <trkpt lat="43.93929" lon="0.52005">
        <ele>166.6</ele>
        <time>2023-07-04T10:44:23Z</time>
      </trkpt>
      <trkpt lat="43.93934" lon="0.52011">
        <ele>165.8</ele>
        <time>2023-07-04T10:44:28Z</time>
      </trkpt>
      <trkpt lat="43.93937" lon="0.52014">
        <ele>165.4</ele>
        <time>2023-07-04T10:44:31Z</time>
      </trkpt>
      <trkpt lat="43.93942" lon="0.5202">
        <ele>164.6</ele>
        <time>2023-07-04T10:44:37Z</time>
      </trkpt>
      <trkpt lat="43.93943" lon="0.52021">
        <ele>164.4</ele>
        <time>2023-07-04T10:44:38Z</time>
      </trkpt>
      <trkpt lat="43.9395" lon="0.52028">
        <ele>163.4</ele>
        <time>2023-07-04T10:44:45Z</time>
      </trkpt>
      <trkpt lat="43.93953" lon="0.52032">
        <ele>162.6</ele>
        <time>2023-07-04T10:44:48Z</time>
      </trkpt>
      <trkpt lat="43.93955" lon="0.52033">
        <ele>162.2</ele>
        <time>2023-07-04T10:44:50Z</time>
      </trkpt>
      <trkpt lat="43.93962" lon="0.5204">
        <ele>161.2</ele>
        <time>2023-07-04T10:44:57Z</time>
      </trkpt>
      <trkpt lat="43.93964" lon="0.52041">
        <ele>161</ele>
        <time>2023-07-04T10:44:58Z</time>
      </trkpt>
      <trkpt lat="43.93971" lon="0.52049">
        <ele>160.4</ele>
        <time>2023-07-04T10:45:06Z</time>
      </trkpt>
      <trkpt lat="43.93973" lon="0.52051">
        <ele>160</ele>
        <time>2023-07-04T10:45:08Z</time>
      </trkpt>
      <trkpt lat="43.93978" lon="0.52056">
        <ele>159</ele>
        <time>2023-07-04T10:45:13Z</time>
      </trkpt>
      <trkpt lat="43.93979" lon="0.52057">
        <ele>158.8</ele>
        <time>2023-07-04T10:45:14Z</time>
      </trkpt>
      <trkpt lat="43.93987" lon="0.52064">
        <ele>158</ele>
        <time>2023-07-04T10:45:21Z</time>
      </trkpt>
      <trkpt lat="43.9399" lon="0.52067">
        <ele>158</ele>
        <time>2023-07-04T10:45:24Z</time>
      </trkpt>
      <trkpt lat="43.93996" lon="0.52074">
        <ele>157</ele>
        <time>2023-07-04T10:45:30Z</time>
      </trkpt>
      <trkpt lat="43.93997" lon="0.52076">
        <ele>156.8</ele>
        <time>2023-07-04T10:45:31Z</time>
      </trkpt>
      <trkpt lat="43.94005" lon="0.52082">
        <ele>155.8</ele>
        <time>2023-07-04T10:45:38Z</time>
      </trkpt>
      <trkpt lat="43.94008" lon="0.52084">
        <ele>155.4</ele>
        <time>2023-07-04T10:45:40Z</time>
      </trkpt>
      <trkpt lat="43.94017" lon="0.52098">
        <ele>154.8</ele>
        <time>2023-07-04T10:45:51Z</time>
      </trkpt>
      <trkpt lat="43.94018" lon="0.521">
        <ele>154.8</ele>
        <time>2023-07-04T10:45:53Z</time>
      </trkpt>
      <trkpt lat="43.94018" lon="0.52111">
        <ele>154.6</ele>
        <time>2023-07-04T10:45:59Z</time>
      </trkpt>
      <trkpt lat="43.94016" lon="0.52124">
        <ele>153.6</ele>
        <time>2023-07-04T10:46:07Z</time>
      </trkpt>
      <trkpt lat="43.94015" lon="0.5213">
        <ele>153</ele>
        <time>2023-07-04T10:46:11Z</time>
      </trkpt>
      <trkpt lat="43.94016" lon="0.52142">
        <ele>152.6</ele>
        <time>2023-07-04T10:46:18Z</time>
      </trkpt>
      <trkpt lat="43.94016" lon="0.52146">
        <ele>152.2</ele>
        <time>2023-07-04T10:46:20Z</time>
      </trkpt>
      <trkpt lat="43.94016" lon="0.52159">
        <ele>151.6</ele>
        <time>2023-07-04T10:46:27Z</time>
      </trkpt>
      <trkpt lat="43.94016" lon="0.52161">
        <ele>151.4</ele>
        <time>2023-07-04T10:46:28Z</time>
      </trkpt>
      <trkpt lat="43.94015" lon="0.52169">
        <ele>150.8</ele>
        <time>2023-07-04T10:46:34Z</time>
      </trkpt>
      <trkpt lat="43.94015" lon="0.52183">
        <ele>150.4</ele>
        <time>2023-07-04T10:46:41Z</time>
      </trkpt>
      <trkpt lat="43.94015" lon="0.52185">
        <ele>150.4</ele>
        <time>2023-07-04T10:46:42Z</time>
      </trkpt>
      <trkpt lat="43.94012" lon="0.52198">
        <ele>149.4</ele>
        <time>2023-07-04T10:46:50Z</time>
      </trkpt>
      <trkpt lat="43.94011" lon="0.52212">
        <ele>148.8</ele>
        <time>2023-07-04T10:46:58Z</time>
      </trkpt>
      <trkpt lat="43.9401" lon="0.52219">
        <ele>148.2</ele>
        <time>2023-07-04T10:47:02Z</time>
      </trkpt>
      <trkpt lat="43.94009" lon="0.52228">
        <ele>147.6</ele>
        <time>2023-07-04T10:47:07Z</time>
      </trkpt>
      <trkpt lat="43.94009" lon="0.5224">
        <ele>147.2</ele>
        <time>2023-07-04T10:47:15Z</time>
      </trkpt>
      <trkpt lat="43.94009" lon="0.52242">
        <ele>147</ele>
        <time>2023-07-04T10:47:16Z</time>
      </trkpt>
      <trkpt lat="43.94007" lon="0.52252">
        <ele>146.4</ele>
        <time>2023-07-04T10:47:22Z</time>
      </trkpt>
      <trkpt lat="43.94005" lon="0.52263">
        <ele>146.2</ele>
        <time>2023-07-04T10:47:28Z</time>
      </trkpt>
      <trkpt lat="43.94005" lon="0.52264">
        <ele>146</ele>
        <time>2023-07-04T10:47:29Z</time>
      </trkpt>
      <trkpt lat="43.94003" lon="0.52275">
        <ele>145.4</ele>
        <time>2023-07-04T10:47:36Z</time>
      </trkpt>
      <trkpt lat="43.94001" lon="0.52281">
        <ele>145</ele>
        <time>2023-07-04T10:47:39Z</time>
      </trkpt>
      <trkpt lat="43.93999" lon="0.52287">
        <ele>145</ele>
        <time>2023-07-04T10:47:43Z</time>
      </trkpt>
      <trkpt lat="43.93997" lon="0.52301">
        <ele>144.2</ele>
        <time>2023-07-04T10:47:50Z</time>
      </trkpt>
      <trkpt lat="43.93996" lon="0.52311">
        <ele>144.2</ele>
        <time>2023-07-04T10:47:56Z</time>
      </trkpt>
      <trkpt lat="43.93995" lon="0.52314">
        <ele>143.8</ele>
        <time>2023-07-04T10:47:58Z</time>
      </trkpt>
      <trkpt lat="43.93995" lon="0.52321">
        <ele>143.4</ele>
        <time>2023-07-04T10:48:03Z</time>
      </trkpt>
      <trkpt lat="43.93995" lon="0.52323">
        <ele>143.2</ele>
        <time>2023-07-04T10:48:04Z</time>
      </trkpt>
      <trkpt lat="43.93995" lon="0.52335">
        <ele>142.8</ele>
        <time>2023-07-04T10:48:11Z</time>
      </trkpt>
      <trkpt lat="43.93995" lon="0.52336">
        <ele>142.6</ele>
        <time>2023-07-04T10:48:12Z</time>
      </trkpt>
      <trkpt lat="43.93995" lon="0.52339">
        <ele>142.6</ele>
        <time>2023-07-04T10:48:14Z</time>
      </trkpt>
      <trkpt lat="43.93994" lon="0.52344">
        <ele>142.6</ele>
        <time>2023-07-04T10:48:17Z</time>
      </trkpt>
      <trkpt lat="43.93993" lon="0.52354">
        <ele>142.2</ele>
        <time>2023-07-04T10:48:22Z</time>
      </trkpt>
      <trkpt lat="43.93993" lon="0.52357">
        <ele>142.2</ele>
        <time>2023-07-04T10:48:24Z</time>
      </trkpt>
      <trkpt lat="43.93992" lon="0.5236">
        <ele>142</ele>
        <time>2023-07-04T10:48:26Z</time>
      </trkpt>
      <trkpt lat="43.93992" lon="0.52364">
        <ele>141.8</ele>
        <time>2023-07-04T10:48:29Z</time>
      </trkpt>
      <trkpt lat="43.93992" lon="0.52366">
        <ele>141.6</ele>
        <time>2023-07-04T10:48:30Z</time>
      </trkpt>
      <trkpt lat="43.93991" lon="0.52369">
        <ele>141.4</ele>
        <time>2023-07-04T10:48:32Z</time>
      </trkpt>
      <trkpt lat="43.93991" lon="0.5237">
        <ele>141.4</ele>
        <time>2023-07-04T10:48:33Z</time>
      </trkpt>
      <trkpt lat="43.93991" lon="0.52377">
        <ele>141.4</ele>
        <time>2023-07-04T10:48:37Z</time>
      </trkpt>
      <trkpt lat="43.93991" lon="0.52381">
        <ele>141.4</ele>
        <time>2023-07-04T10:48:39Z</time>
      </trkpt>
      <trkpt lat="43.93991" lon="0.52385">
        <ele>141.4</ele>
        <time>2023-07-04T10:48:41Z</time>
      </trkpt>
      <trkpt lat="43.93992" lon="0.5239">
        <ele>141.2</ele>
        <time>2023-07-04T10:48:45Z</time>
      </trkpt>
      <trkpt lat="43.93992" lon="0.52392">
        <ele>141</ele>
        <time>2023-07-04T10:48:47Z</time>
      </trkpt>
      <trkpt lat="43.93991" lon="0.52395">
        <ele>140.8</ele>
        <time>2023-07-04T10:48:50Z</time>
      </trkpt>
      <trkpt lat="43.93992" lon="0.52396">
        <ele>140.8</ele>
        <time>2023-07-04T10:48:51Z</time>
      </trkpt>
      <trkpt lat="43.93992" lon="0.52399">
        <ele>140.6</ele>
        <time>2023-07-04T10:48:53Z</time>
      </trkpt>
      <trkpt lat="43.93992" lon="0.52404">
        <ele>140.4</ele>
        <time>2023-07-04T10:48:56Z</time>
      </trkpt>
      <trkpt lat="43.93994" lon="0.52419">
        <ele>139.8</ele>
        <time>2023-07-04T10:49:04Z</time>
      </trkpt>
      <trkpt lat="43.93994" lon="0.52422">
        <ele>139.6</ele>
        <time>2023-07-04T10:49:06Z</time>
      </trkpt>
      <trkpt lat="43.93995" lon="0.52425">
        <ele>139.4</ele>
        <time>2023-07-04T10:49:09Z</time>
      </trkpt>
      <trkpt lat="43.93997" lon="0.52428">
        <ele>139.4</ele>
        <time>2023-07-04T10:49:11Z</time>
      </trkpt>
      <trkpt lat="43.93998" lon="0.52434">
        <ele>139.2</ele>
        <time>2023-07-04T10:49:16Z</time>
      </trkpt>
      <trkpt lat="43.93999" lon="0.52436">
        <ele>139.2</ele>
        <time>2023-07-04T10:49:18Z</time>
      </trkpt>
      <trkpt lat="43.93999" lon="0.52439">
        <ele>139.2</ele>
        <time>2023-07-04T10:49:22Z</time>
      </trkpt>
      <trkpt lat="43.94" lon="0.52441">
        <ele>139</ele>
        <time>2023-07-04T10:49:24Z</time>
      </trkpt>
      <trkpt lat="43.94001" lon="0.52443">
        <ele>139</ele>
        <time>2023-07-04T10:49:25Z</time>
      </trkpt>
      <trkpt lat="43.94002" lon="0.52445">
        <ele>139</ele>
        <time>2023-07-04T10:49:26Z</time>
      </trkpt>
      <trkpt lat="43.94004" lon="0.52454">
        <ele>138.6</ele>
        <time>2023-07-04T10:49:31Z</time>
      </trkpt>
      <trkpt lat="43.94005" lon="0.52456">
        <ele>138.4</ele>
        <time>2023-07-04T10:49:33Z</time>
      </trkpt>
      <trkpt lat="43.94006" lon="0.5246">
        <ele>138.2</ele>
        <time>2023-07-04T10:49:36Z</time>
      </trkpt>
      <trkpt lat="43.94009" lon="0.52465">
        <ele>138</ele>
        <time>2023-07-04T10:49:39Z</time>
      </trkpt>
      <trkpt lat="43.94009" lon="0.52466">
        <ele>138</ele>
        <time>2023-07-04T10:49:40Z</time>
      </trkpt>
      <trkpt lat="43.9401" lon="0.52469">
        <ele>138</ele>
        <time>2023-07-04T10:49:42Z</time>
      </trkpt>
      <trkpt lat="43.9401" lon="0.52474">
        <ele>138</ele>
        <time>2023-07-04T10:49:45Z</time>
      </trkpt>
      <trkpt lat="43.9401" lon="0.52478">
        <ele>137.8</ele>
        <time>2023-07-04T10:49:47Z</time>
      </trkpt>
      <trkpt lat="43.94011" lon="0.52483">
        <ele>137.4</ele>
        <time>2023-07-04T10:49:50Z</time>
      </trkpt>
      <trkpt lat="43.94013" lon="0.5249">
        <ele>137</ele>
        <time>2023-07-04T10:49:53Z</time>
      </trkpt>
      <trkpt lat="43.94015" lon="0.52495">
        <ele>136.8</ele>
        <time>2023-07-04T10:49:57Z</time>
      </trkpt>
      <trkpt lat="43.94017" lon="0.52499">
        <ele>136.4</ele>
        <time>2023-07-04T10:50:00Z</time>
      </trkpt>
      <trkpt lat="43.94019" lon="0.525">
        <ele>136.4</ele>
        <time>2023-07-04T10:50:01Z</time>
      </trkpt>
      <trkpt lat="43.9402" lon="0.52504">
        <ele>136</ele>
        <time>2023-07-04T10:50:03Z</time>
      </trkpt>
      <trkpt lat="43.94022" lon="0.52512">
        <ele>136</ele>
        <time>2023-07-04T10:50:07Z</time>
      </trkpt>
      <trkpt lat="43.94023" lon="0.52516">
        <ele>135.8</ele>
        <time>2023-07-04T10:50:09Z</time>
      </trkpt>
      <trkpt lat="43.94025" lon="0.52521">
        <ele>135.6</ele>
        <time>2023-07-04T10:50:12Z</time>
      </trkpt>
      <trkpt lat="43.94027" lon="0.52523">
        <ele>135.4</ele>
        <time>2023-07-04T10:50:14Z</time>
      </trkpt>
      <trkpt lat="43.94029" lon="0.52528">
        <ele>135</ele>
        <time>2023-07-04T10:50:17Z</time>
      </trkpt>
      <trkpt lat="43.94036" lon="0.52538">
        <ele>134.8</ele>
        <time>2023-07-04T10:50:24Z</time>
      </trkpt>
      <trkpt lat="43.94042" lon="0.5255">
        <ele>134.4</ele>
        <time>2023-07-04T10:50:32Z</time>
      </trkpt>
      <trkpt lat="43.94044" lon="0.52553">
        <ele>134.2</ele>
        <time>2023-07-04T10:50:34Z</time>
      </trkpt>
      <trkpt lat="43.94047" lon="0.5256">
        <ele>133.8</ele>
        <time>2023-07-04T10:50:38Z</time>
      </trkpt>
      <trkpt lat="43.9405" lon="0.5257">
        <ele>133.4</ele>
        <time>2023-07-04T10:50:45Z</time>
      </trkpt>
      <trkpt lat="43.94051" lon="0.52571">
        <ele>133.2</ele>
        <time>2023-07-04T10:50:46Z</time>
      </trkpt>
      <trkpt lat="43.94053" lon="0.52579">
        <ele>133</ele>
        <time>2023-07-04T10:50:52Z</time>
      </trkpt>
      <trkpt lat="43.94054" lon="0.52582">
        <ele>132.8</ele>
        <time>2023-07-04T10:50:54Z</time>
      </trkpt>
      <trkpt lat="43.94054" lon="0.52585">
        <ele>132.4</ele>
        <time>2023-07-04T10:50:56Z</time>
      </trkpt>
      <trkpt lat="43.94054" lon="0.52587">
        <ele>132.2</ele>
        <time>2023-07-04T10:50:57Z</time>
      </trkpt>
      <trkpt lat="43.94055" lon="0.5259">
        <ele>132.2</ele>
        <time>2023-07-04T10:50:59Z</time>
      </trkpt>
      <trkpt lat="43.94057" lon="0.52595">
        <ele>131.6</ele>
        <time>2023-07-04T10:51:02Z</time>
      </trkpt>
      <trkpt lat="43.94059" lon="0.52601">
        <ele>131.2</ele>
        <time>2023-07-04T10:51:05Z</time>
      </trkpt>
      <trkpt lat="43.94061" lon="0.52606">
        <ele>131.2</ele>
        <time>2023-07-04T10:51:08Z</time>
      </trkpt>
      <trkpt lat="43.94061" lon="0.52613">
        <ele>131.2</ele>
        <time>2023-07-04T10:51:12Z</time>
      </trkpt>
      <trkpt lat="43.94063" lon="0.52621">
        <ele>130.6</ele>
        <time>2023-07-04T10:51:17Z</time>
      </trkpt>
      <trkpt lat="43.94063" lon="0.52622">
        <ele>130.6</ele>
        <time>2023-07-04T10:51:18Z</time>
      </trkpt>
      <trkpt lat="43.94064" lon="0.52625">
        <ele>130.4</ele>
        <time>2023-07-04T10:51:20Z</time>
      </trkpt>
      <trkpt lat="43.94065" lon="0.52628">
        <ele>130</ele>
        <time>2023-07-04T10:51:22Z</time>
      </trkpt>
      <trkpt lat="43.94066" lon="0.52631">
        <ele>129.8</ele>
        <time>2023-07-04T10:51:24Z</time>
      </trkpt>
      <trkpt lat="43.94066" lon="0.52633">
        <ele>129.6</ele>
        <time>2023-07-04T10:51:26Z</time>
      </trkpt>
      <trkpt lat="43.94068" lon="0.52637">
        <ele>129.2</ele>
        <time>2023-07-04T10:51:29Z</time>
      </trkpt>
      <trkpt lat="43.94069" lon="0.52639">
        <ele>129</ele>
        <time>2023-07-04T10:51:30Z</time>
      </trkpt>
      <trkpt lat="43.9407" lon="0.52649">
        <ele>128.4</ele>
        <time>2023-07-04T10:51:37Z</time>
      </trkpt>
      <trkpt lat="43.94071" lon="0.52656">
        <ele>128.2</ele>
        <time>2023-07-04T10:51:40Z</time>
      </trkpt>
      <trkpt lat="43.94071" lon="0.52658">
        <ele>128</ele>
        <time>2023-07-04T10:51:41Z</time>
      </trkpt>
      <trkpt lat="43.94073" lon="0.5267">
        <ele>128</ele>
        <time>2023-07-04T10:51:47Z</time>
      </trkpt>
      <trkpt lat="43.94074" lon="0.52672">
        <ele>127.8</ele>
        <time>2023-07-04T10:51:48Z</time>
      </trkpt>
      <trkpt lat="43.94076" lon="0.52686">
        <ele>128</ele>
        <time>2023-07-04T10:51:56Z</time>
      </trkpt>
      <trkpt lat="43.9408" lon="0.527">
        <ele>127.8</ele>
        <time>2023-07-04T10:52:04Z</time>
      </trkpt>
      <trkpt lat="43.94081" lon="0.52702">
        <ele>127.8</ele>
        <time>2023-07-04T10:52:05Z</time>
      </trkpt>
      <trkpt lat="43.94082" lon="0.52705">
        <ele>127.8</ele>
        <time>2023-07-04T10:52:07Z</time>
      </trkpt>
      <trkpt lat="43.94082" lon="0.52708">
        <ele>127.6</ele>
        <time>2023-07-04T10:52:09Z</time>
      </trkpt>
      <trkpt lat="43.94083" lon="0.52713">
        <ele>127.2</ele>
        <time>2023-07-04T10:52:12Z</time>
      </trkpt>
      <trkpt lat="43.94084" lon="0.52718">
        <ele>127</ele>
        <time>2023-07-04T10:52:15Z</time>
      </trkpt>
      <trkpt lat="43.94084" lon="0.5272">
        <ele>127</ele>
        <time>2023-07-04T10:52:16Z</time>
      </trkpt>
      <trkpt lat="43.94085" lon="0.52725">
        <ele>127</ele>
        <time>2023-07-04T10:52:19Z</time>
      </trkpt>
      <trkpt lat="43.94087" lon="0.52732">
        <ele>127</ele>
        <time>2023-07-04T10:52:23Z</time>
      </trkpt>
      <trkpt lat="43.94092" lon="0.52743">
        <ele>126.8</ele>
        <time>2023-07-04T10:52:31Z</time>
      </trkpt>
      <trkpt lat="43.94093" lon="0.52745">
        <ele>126.8</ele>
        <time>2023-07-04T10:52:32Z</time>
      </trkpt>
      <trkpt lat="43.94098" lon="0.52759">
        <ele>126.6</ele>
        <time>2023-07-04T10:52:42Z</time>
      </trkpt>
      <trkpt lat="43.94099" lon="0.5276">
        <ele>126.6</ele>
        <time>2023-07-04T10:52:43Z</time>
      </trkpt>
      <trkpt lat="43.94101" lon="0.52766">
        <ele>126.8</ele>
        <time>2023-07-04T10:52:47Z</time>
      </trkpt>
      <trkpt lat="43.94103" lon="0.52774">
        <ele>126.8</ele>
        <time>2023-07-04T10:52:51Z</time>
      </trkpt>
      <trkpt lat="43.94105" lon="0.52779">
        <ele>126.8</ele>
        <time>2023-07-04T10:52:54Z</time>
      </trkpt>
      <trkpt lat="43.94107" lon="0.52783">
        <ele>126.6</ele>
        <time>2023-07-04T10:52:57Z</time>
      </trkpt>
      <trkpt lat="43.94109" lon="0.52789">
        <ele>126.6</ele>
        <time>2023-07-04T10:53:01Z</time>
      </trkpt>
      <trkpt lat="43.94114" lon="0.52796">
        <ele>125.8</ele>
        <time>2023-07-04T10:53:09Z</time>
      </trkpt>
      <trkpt lat="43.94115" lon="0.52797">
        <ele>125.8</ele>
        <time>2023-07-04T10:53:10Z</time>
      </trkpt>
      <trkpt lat="43.94118" lon="0.528">
        <ele>124.4</ele>
        <time>2023-07-04T10:53:15Z</time>
      </trkpt>
      <trkpt lat="43.94121" lon="0.52802">
        <ele>123.4</ele>
        <time>2023-07-04T10:53:18Z</time>
      </trkpt>
      <trkpt lat="43.94124" lon="0.52807">
        <ele>122.6</ele>
        <time>2023-07-04T10:53:22Z</time>
      </trkpt>
      <trkpt lat="43.94127" lon="0.52809">
        <ele>122.6</ele>
        <time>2023-07-04T10:53:25Z</time>
      </trkpt>
      <trkpt lat="43.94129" lon="0.52814">
        <ele>122.4</ele>
        <time>2023-07-04T10:53:28Z</time>
      </trkpt>
      <trkpt lat="43.94132" lon="0.52821">
        <ele>122</ele>
        <time>2023-07-04T10:53:32Z</time>
      </trkpt>
      <trkpt lat="43.94133" lon="0.52834">
        <ele>121.2</ele>
        <time>2023-07-04T10:53:39Z</time>
      </trkpt>
      <trkpt lat="43.94133" lon="0.5284">
        <ele>121</ele>
        <time>2023-07-04T10:53:43Z</time>
      </trkpt>
      <trkpt lat="43.94133" lon="0.52842">
        <ele>121</ele>
        <time>2023-07-04T10:53:44Z</time>
      </trkpt>
      <trkpt lat="43.94134" lon="0.52848">
        <ele>120.8</ele>
        <time>2023-07-04T10:53:47Z</time>
      </trkpt>
      <trkpt lat="43.94136" lon="0.5286">
        <ele>120.4</ele>
        <time>2023-07-04T10:53:54Z</time>
      </trkpt>
      <trkpt lat="43.94137" lon="0.52864">
        <ele>120.2</ele>
        <time>2023-07-04T10:53:56Z</time>
      </trkpt>
      <trkpt lat="43.94138" lon="0.5287">
        <ele>119.8</ele>
        <time>2023-07-04T10:54:00Z</time>
      </trkpt>
      <trkpt lat="43.94139" lon="0.52873">
        <ele>119.6</ele>
        <time>2023-07-04T10:54:02Z</time>
      </trkpt>
      <trkpt lat="43.94138" lon="0.52887">
        <ele>119</ele>
        <time>2023-07-04T10:54:09Z</time>
      </trkpt>
      <trkpt lat="43.94136" lon="0.52896">
        <ele>118.2</ele>
        <time>2023-07-04T10:54:14Z</time>
      </trkpt>
      <trkpt lat="43.94134" lon="0.52899">
        <ele>118</ele>
        <time>2023-07-04T10:54:16Z</time>
      </trkpt>
      <trkpt lat="43.94133" lon="0.52903">
        <ele>117.6</ele>
        <time>2023-07-04T10:54:18Z</time>
      </trkpt>
      <trkpt lat="43.94124" lon="0.52912">
        <ele>117.2</ele>
        <time>2023-07-04T10:54:26Z</time>
      </trkpt>
      <trkpt lat="43.94122" lon="0.52914">
        <ele>117.2</ele>
        <time>2023-07-04T10:54:28Z</time>
      </trkpt>
      <trkpt lat="43.9412" lon="0.52916">
        <ele>117</ele>
        <time>2023-07-04T10:54:30Z</time>
      </trkpt>
      <trkpt lat="43.9412" lon="0.52917">
        <ele>117</ele>
        <time>2023-07-04T10:54:31Z</time>
      </trkpt>
      <trkpt lat="43.94119" lon="0.52919">
        <ele>117</ele>
        <time>2023-07-04T10:54:32Z</time>
      </trkpt>
      <trkpt lat="43.94118" lon="0.52923">
        <ele>116.6</ele>
        <time>2023-07-04T10:54:35Z</time>
      </trkpt>
      <trkpt lat="43.94118" lon="0.52925">
        <ele>116.6</ele>
        <time>2023-07-04T10:54:36Z</time>
      </trkpt>
      <trkpt lat="43.94119" lon="0.5294">
        <ele>116.4</ele>
        <time>2023-07-04T10:54:44Z</time>
      </trkpt>
      <trkpt lat="43.94124" lon="0.52954">
        <ele>116.2</ele>
        <time>2023-07-04T10:54:53Z</time>
      </trkpt>
      <trkpt lat="43.94125" lon="0.52957">
        <ele>116</ele>
        <time>2023-07-04T10:54:55Z</time>
      </trkpt>
      <trkpt lat="43.94125" lon="0.52958">
        <ele>116</ele>
        <time>2023-07-04T10:54:56Z</time>
      </trkpt>
      <trkpt lat="43.94129" lon="0.52971">
        <ele>115.4</ele>
        <time>2023-07-04T10:55:05Z</time>
      </trkpt>
      <trkpt lat="43.9413" lon="0.52975">
        <ele>115.4</ele>
        <time>2023-07-04T10:55:08Z</time>
      </trkpt>
      <trkpt lat="43.94133" lon="0.52985">
        <ele>115.2</ele>
        <time>2023-07-04T10:55:14Z</time>
      </trkpt>
      <trkpt lat="43.94134" lon="0.52988">
        <ele>115</ele>
        <time>2023-07-04T10:55:16Z</time>
      </trkpt>
      <trkpt lat="43.94134" lon="0.52991">
        <ele>114.8</ele>
        <time>2023-07-04T10:55:18Z</time>
      </trkpt>
      <trkpt lat="43.94138" lon="0.53003">
        <ele>114.6</ele>
        <time>2023-07-04T10:55:26Z</time>
      </trkpt>
      <trkpt lat="43.94138" lon="0.53006">
        <ele>114.6</ele>
        <time>2023-07-04T10:55:28Z</time>
      </trkpt>
      <trkpt lat="43.94138" lon="0.53007">
        <ele>114.6</ele>
        <time>2023-07-04T10:55:29Z</time>
      </trkpt>
      <trkpt lat="43.9414" lon="0.53014">
        <ele>114.2</ele>
        <time>2023-07-04T10:55:33Z</time>
      </trkpt>
      <trkpt lat="43.94141" lon="0.53017">
        <ele>114</ele>
        <time>2023-07-04T10:55:35Z</time>
      </trkpt>
      <trkpt lat="43.94142" lon="0.53017">
        <ele>114</ele>
        <time>2023-07-04T10:55:37Z</time>
      </trkpt>
      <trkpt lat="43.94142" lon="0.53018">
        <ele>114</ele>
        <time>2023-07-04T10:55:38Z</time>
      </trkpt>
      <trkpt lat="43.94144" lon="0.53024">
        <ele>114</ele>
        <time>2023-07-04T10:55:42Z</time>
      </trkpt>
      <trkpt lat="43.94144" lon="0.53025">
        <ele>114</ele>
        <time>2023-07-04T10:55:43Z</time>
      </trkpt>
      <trkpt lat="43.94145" lon="0.53027">
        <ele>114</ele>
        <time>2023-07-04T10:55:44Z</time>
      </trkpt>
      <trkpt lat="43.94145" lon="0.5303">
        <ele>114</ele>
        <time>2023-07-04T10:55:46Z</time>
      </trkpt>
      <trkpt lat="43.94146" lon="0.53031">
        <ele>113.8</ele>
        <time>2023-07-04T10:55:47Z</time>
      </trkpt>
      <trkpt lat="43.94148" lon="0.53039">
        <ele>113.4</ele>
        <time>2023-07-04T10:55:53Z</time>
      </trkpt>
      <trkpt lat="43.94148" lon="0.53039">
        <ele>113.4</ele>
        <time>2023-07-04T10:55:54Z</time>
      </trkpt>
      <trkpt lat="43.94149" lon="0.53049">
        <ele>113.2</ele>
        <time>2023-07-04T10:56:00Z</time>
      </trkpt>
      <trkpt lat="43.94152" lon="0.5306">
        <ele>113</ele>
        <time>2023-07-04T10:56:07Z</time>
      </trkpt>
      <trkpt lat="43.94153" lon="0.53063">
        <ele>113</ele>
        <time>2023-07-04T10:56:09Z</time>
      </trkpt>
      <trkpt lat="43.94155" lon="0.53067">
        <ele>113.2</ele>
        <time>2023-07-04T10:56:11Z</time>
      </trkpt>
      <trkpt lat="43.94155" lon="0.53068">
        <ele>113.2</ele>
        <time>2023-07-04T10:56:12Z</time>
      </trkpt>
      <trkpt lat="43.94157" lon="0.53074">
        <ele>113.2</ele>
        <time>2023-07-04T10:56:16Z</time>
      </trkpt>
      <trkpt lat="43.94157" lon="0.53077">
        <ele>113.4</ele>
        <time>2023-07-04T10:56:18Z</time>
      </trkpt>
      <trkpt lat="43.9416" lon="0.53088">
        <ele>113</ele>
        <time>2023-07-04T10:56:26Z</time>
      </trkpt>
      <trkpt lat="43.94161" lon="0.53091">
        <ele>113</ele>
        <time>2023-07-04T10:56:28Z</time>
      </trkpt>
      <trkpt lat="43.94161" lon="0.53093">
        <ele>113</ele>
        <time>2023-07-04T10:56:29Z</time>
      </trkpt>
      <trkpt lat="43.94162" lon="0.53094">
        <ele>113</ele>
        <time>2023-07-04T10:56:30Z</time>
      </trkpt>
      <trkpt lat="43.94163" lon="0.53095">
        <ele>112.8</ele>
        <time>2023-07-04T10:56:31Z</time>
      </trkpt>
      <trkpt lat="43.94163" lon="0.53097">
        <ele>113</ele>
        <time>2023-07-04T10:56:32Z</time>
      </trkpt>
      <trkpt lat="43.94164" lon="0.53098">
        <ele>113</ele>
        <time>2023-07-04T10:56:33Z</time>
      </trkpt>
      <trkpt lat="43.94165" lon="0.53101">
        <ele>113</ele>
        <time>2023-07-04T10:56:35Z</time>
      </trkpt>
      <trkpt lat="43.94166" lon="0.53104">
        <ele>112.8</ele>
        <time>2023-07-04T10:56:37Z</time>
      </trkpt>
      <trkpt lat="43.94167" lon="0.53106">
        <ele>112.8</ele>
        <time>2023-07-04T10:56:38Z</time>
      </trkpt>
      <trkpt lat="43.94167" lon="0.53107">
        <ele>112.8</ele>
        <time>2023-07-04T10:56:39Z</time>
      </trkpt>
      <trkpt lat="43.94168" lon="0.53109">
        <ele>112.6</ele>
        <time>2023-07-04T10:56:40Z</time>
      </trkpt>
      <trkpt lat="43.94169" lon="0.53114">
        <ele>112.6</ele>
        <time>2023-07-04T10:56:43Z</time>
      </trkpt>
      <trkpt lat="43.94171" lon="0.53119">
        <ele>112.4</ele>
        <time>2023-07-04T10:56:46Z</time>
      </trkpt>
      <trkpt lat="43.94174" lon="0.53132">
        <ele>112.6</ele>
        <time>2023-07-04T10:56:54Z</time>
      </trkpt>
      <trkpt lat="43.94175" lon="0.53137">
        <ele>112.8</ele>
        <time>2023-07-04T10:56:57Z</time>
      </trkpt>
      <trkpt lat="43.94177" lon="0.53145">
        <ele>112.2</ele>
        <time>2023-07-04T10:57:02Z</time>
      </trkpt>
      <trkpt lat="43.9418" lon="0.53152">
        <ele>112.2</ele>
        <time>2023-07-04T10:57:06Z</time>
      </trkpt>
      <trkpt lat="43.9418" lon="0.53155">
        <ele>112.2</ele>
        <time>2023-07-04T10:57:08Z</time>
      </trkpt>
      <trkpt lat="43.94184" lon="0.53161">
        <ele>112</ele>
        <time>2023-07-04T10:57:13Z</time>
      </trkpt>
      <trkpt lat="43.94185" lon="0.53161">
        <ele>112</ele>
        <time>2023-07-04T10:57:15Z</time>
      </trkpt>
      <trkpt lat="43.94187" lon="0.53162">
        <ele>111.8</ele>
        <time>2023-07-04T10:57:17Z</time>
      </trkpt>
      <trkpt lat="43.94196" lon="0.53164">
        <ele>111.8</ele>
        <time>2023-07-04T10:57:24Z</time>
      </trkpt>
      <trkpt lat="43.942" lon="0.53163">
        <ele>112.2</ele>
        <time>2023-07-04T10:57:28Z</time>
      </trkpt>
      <trkpt lat="43.94201" lon="0.53164">
        <ele>112.2</ele>
        <time>2023-07-04T10:57:29Z</time>
      </trkpt>
      <trkpt lat="43.94203" lon="0.53164">
        <ele>112</ele>
        <time>2023-07-04T10:57:31Z</time>
      </trkpt>
      <trkpt lat="43.9421" lon="0.53162">
        <ele>112</ele>
        <time>2023-07-04T10:57:36Z</time>
      </trkpt>
      <trkpt lat="43.94212" lon="0.53163">
        <ele>112</ele>
        <time>2023-07-04T10:57:38Z</time>
      </trkpt>
      <trkpt lat="43.94214" lon="0.53164">
        <ele>112.2</ele>
        <time>2023-07-04T10:57:40Z</time>
      </trkpt>
      <trkpt lat="43.94215" lon="0.53165">
        <ele>112.2</ele>
        <time>2023-07-04T10:57:41Z</time>
      </trkpt>
      <trkpt lat="43.94216" lon="0.53166">
        <ele>112.2</ele>
        <time>2023-07-04T10:57:42Z</time>
      </trkpt>
      <trkpt lat="43.94217" lon="0.53169">
        <ele>112.6</ele>
        <time>2023-07-04T10:57:44Z</time>
      </trkpt>
      <trkpt lat="43.94219" lon="0.53174">
        <ele>112.6</ele>
        <time>2023-07-04T10:57:48Z</time>
      </trkpt>
      <trkpt lat="43.94219" lon="0.53176">
        <ele>112.6</ele>
        <time>2023-07-04T10:57:49Z</time>
      </trkpt>
      <trkpt lat="43.94223" lon="0.53185">
        <ele>112.4</ele>
        <time>2023-07-04T10:57:55Z</time>
      </trkpt>
      <trkpt lat="43.94224" lon="0.53188">
        <ele>112.6</ele>
        <time>2023-07-04T10:57:57Z</time>
      </trkpt>
      <trkpt lat="43.94229" lon="0.53201">
        <ele>112.2</ele>
        <time>2023-07-04T10:58:05Z</time>
      </trkpt>
      <trkpt lat="43.94234" lon="0.5321">
        <ele>112</ele>
        <time>2023-07-04T10:58:12Z</time>
      </trkpt>
      <trkpt lat="43.94235" lon="0.53212">
        <ele>112</ele>
        <time>2023-07-04T10:58:13Z</time>
      </trkpt>
      <trkpt lat="43.94235" lon="0.53214">
        <ele>112</ele>
        <time>2023-07-04T10:58:15Z</time>
      </trkpt>
      <trkpt lat="43.94236" lon="0.53216">
        <ele>112</ele>
        <time>2023-07-04T10:58:16Z</time>
      </trkpt>
      <trkpt lat="43.94236" lon="0.53217">
        <ele>112</ele>
        <time>2023-07-04T10:58:17Z</time>
      </trkpt>
      <trkpt lat="43.94236" lon="0.53219">
        <ele>112</ele>
        <time>2023-07-04T10:58:18Z</time>
      </trkpt>
      <trkpt lat="43.94237" lon="0.5322">
        <ele>112</ele>
        <time>2023-07-04T10:58:19Z</time>
      </trkpt>
      <trkpt lat="43.94237" lon="0.53222">
        <ele>112</ele>
        <time>2023-07-04T10:58:20Z</time>
      </trkpt>
      <trkpt lat="43.94238" lon="0.53223">
        <ele>112</ele>
        <time>2023-07-04T10:58:21Z</time>
      </trkpt>
      <trkpt lat="43.94239" lon="0.53226">
        <ele>111.8</ele>
        <time>2023-07-04T10:58:23Z</time>
      </trkpt>
      <trkpt lat="43.9424" lon="0.53229">
        <ele>111.8</ele>
        <time>2023-07-04T10:58:25Z</time>
      </trkpt>
      <trkpt lat="43.94241" lon="0.53232">
        <ele>111.8</ele>
        <time>2023-07-04T10:58:27Z</time>
      </trkpt>
      <trkpt lat="43.94244" lon="0.53237">
        <ele>111.6</ele>
        <time>2023-07-04T10:58:30Z</time>
      </trkpt>
      <trkpt lat="43.94247" lon="0.53244">
        <ele>111.4</ele>
        <time>2023-07-04T10:58:34Z</time>
      </trkpt>
      <trkpt lat="43.94248" lon="0.53247">
        <ele>111.4</ele>
        <time>2023-07-04T10:58:36Z</time>
      </trkpt>
      <trkpt lat="43.9425" lon="0.53256">
        <ele>111.2</ele>
        <time>2023-07-04T10:58:41Z</time>
      </trkpt>
      <trkpt lat="43.94251" lon="0.53261">
        <ele>110.8</ele>
        <time>2023-07-04T10:58:44Z</time>
      </trkpt>
      <trkpt lat="43.94252" lon="0.53262">
        <ele>110.6</ele>
        <time>2023-07-04T10:58:45Z</time>
      </trkpt>
      <trkpt lat="43.94255" lon="0.53268">
        <ele>110</ele>
        <time>2023-07-04T10:58:49Z</time>
      </trkpt>
      <trkpt lat="43.94257" lon="0.53272">
        <ele>110</ele>
        <time>2023-07-04T10:58:52Z</time>
      </trkpt>
      <trkpt lat="43.94258" lon="0.53275">
        <ele>109.6</ele>
        <time>2023-07-04T10:58:54Z</time>
      </trkpt>
      <trkpt lat="43.94259" lon="0.53278">
        <ele>109.2</ele>
        <time>2023-07-04T10:58:56Z</time>
      </trkpt>
      <trkpt lat="43.94261" lon="0.53283">
        <ele>108.6</ele>
        <time>2023-07-04T10:58:59Z</time>
      </trkpt>
      <trkpt lat="43.94261" lon="0.53286">
        <ele>108.4</ele>
        <time>2023-07-04T10:59:01Z</time>
      </trkpt>
      <trkpt lat="43.94261" lon="0.53288">
        <ele>108.2</ele>
        <time>2023-07-04T10:59:02Z</time>
      </trkpt>
      <trkpt lat="43.94262" lon="0.53294">
        <ele>107.6</ele>
        <time>2023-07-04T10:59:05Z</time>
      </trkpt>
      <trkpt lat="43.94262" lon="0.53299">
        <ele>107.6</ele>
        <time>2023-07-04T10:59:35Z</time>
      </trkpt>
      <trkpt lat="43.94262" lon="0.533">
        <ele>107.6</ele>
        <time>2023-07-04T10:59:36Z</time>
      </trkpt>
      <trkpt lat="43.94261" lon="0.53306">
        <ele>107.4</ele>
        <time>2023-07-04T10:59:41Z</time>
      </trkpt>
      <trkpt lat="43.94261" lon="0.5331">
        <ele>107.2</ele>
        <time>2023-07-04T10:59:43Z</time>
      </trkpt>
      <trkpt lat="43.94263" lon="0.53313">
        <ele>107.2</ele>
        <time>2023-07-04T10:59:45Z</time>
      </trkpt>
      <trkpt lat="43.94265" lon="0.5332">
        <ele>107</ele>
        <time>2023-07-04T10:59:50Z</time>
      </trkpt>
      <trkpt lat="43.94268" lon="0.5333">
        <ele>106.8</ele>
        <time>2023-07-04T10:59:55Z</time>
      </trkpt>
      <trkpt lat="43.94271" lon="0.53334">
        <ele>106.6</ele>
        <time>2023-07-04T10:59:58Z</time>
      </trkpt>
      <trkpt lat="43.94275" lon="0.53345">
        <ele>106.4</ele>
        <time>2023-07-04T11:00:05Z</time>
      </trkpt>
      <trkpt lat="43.94275" lon="0.53347">
        <ele>106.4</ele>
        <time>2023-07-04T11:00:06Z</time>
      </trkpt>
      <trkpt lat="43.94279" lon="0.53356">
        <ele>106.2</ele>
        <time>2023-07-04T11:00:12Z</time>
      </trkpt>
      <trkpt lat="43.94281" lon="0.53364">
        <ele>106.2</ele>
        <time>2023-07-04T11:00:17Z</time>
      </trkpt>
      <trkpt lat="43.94284" lon="0.53368">
        <ele>106.4</ele>
        <time>2023-07-04T11:00:20Z</time>
      </trkpt>
      <trkpt lat="43.94288" lon="0.53376">
        <ele>106</ele>
        <time>2023-07-04T11:00:25Z</time>
      </trkpt>
      <trkpt lat="43.94288" lon="0.53378">
        <ele>106</ele>
        <time>2023-07-04T11:00:26Z</time>
      </trkpt>
      <trkpt lat="43.94293" lon="0.53388">
        <ele>106.2</ele>
        <time>2023-07-04T11:00:33Z</time>
      </trkpt>
      <trkpt lat="43.94297" lon="0.53399">
        <ele>105.8</ele>
        <time>2023-07-04T11:00:41Z</time>
      </trkpt>
      <trkpt lat="43.94298" lon="0.534">
        <ele>105.8</ele>
        <time>2023-07-04T11:00:42Z</time>
      </trkpt>
      <trkpt lat="43.94298" lon="0.53406">
        <ele>106</ele>
        <time>2023-07-04T11:00:46Z</time>
      </trkpt>
      <trkpt lat="43.94299" lon="0.5341">
        <ele>106.2</ele>
        <time>2023-07-04T11:00:49Z</time>
      </trkpt>
      <trkpt lat="43.943" lon="0.53416">
        <ele>106.2</ele>
        <time>2023-07-04T11:00:53Z</time>
      </trkpt>
      <trkpt lat="43.943" lon="0.53418">
        <ele>106.4</ele>
        <time>2023-07-04T11:00:54Z</time>
      </trkpt>
      <trkpt lat="43.94303" lon="0.53428">
        <ele>106.6</ele>
        <time>2023-07-04T11:01:00Z</time>
      </trkpt>
      <trkpt lat="43.94304" lon="0.53431">
        <ele>106.6</ele>
        <time>2023-07-04T11:01:02Z</time>
      </trkpt>
      <trkpt lat="43.94304" lon="0.53433">
        <ele>106.8</ele>
        <time>2023-07-04T11:01:03Z</time>
      </trkpt>
      <trkpt lat="43.94305" lon="0.53434">
        <ele>106.6</ele>
        <time>2023-07-04T11:01:04Z</time>
      </trkpt>
      <trkpt lat="43.94306" lon="0.53436">
        <ele>106.6</ele>
        <time>2023-07-04T11:01:05Z</time>
      </trkpt>
      <trkpt lat="43.94306" lon="0.53439">
        <ele>106.6</ele>
        <time>2023-07-04T11:01:07Z</time>
      </trkpt>
      <trkpt lat="43.9431" lon="0.5345">
        <ele>107</ele>
        <time>2023-07-04T11:01:15Z</time>
      </trkpt>
      <trkpt lat="43.9431" lon="0.53451">
        <ele>107</ele>
        <time>2023-07-04T11:01:16Z</time>
      </trkpt>
      <trkpt lat="43.94311" lon="0.53457">
        <ele>107</ele>
        <time>2023-07-04T11:01:20Z</time>
      </trkpt>
      <trkpt lat="43.94312" lon="0.53458">
        <ele>107.2</ele>
        <time>2023-07-04T11:01:21Z</time>
      </trkpt>
      <trkpt lat="43.94314" lon="0.53465">
        <ele>107.4</ele>
        <time>2023-07-04T11:01:26Z</time>
      </trkpt>
      <trkpt lat="43.94314" lon="0.53469">
        <ele>107.8</ele>
        <time>2023-07-04T11:01:29Z</time>
      </trkpt>
      <trkpt lat="43.94314" lon="0.5347">
        <ele>108</ele>
        <time>2023-07-04T11:01:30Z</time>
      </trkpt>
      <trkpt lat="43.94316" lon="0.53477">
        <ele>108.4</ele>
        <time>2023-07-04T11:01:35Z</time>
      </trkpt>
      <trkpt lat="43.94316" lon="0.53478">
        <ele>108.4</ele>
        <time>2023-07-04T11:01:36Z</time>
      </trkpt>
      <trkpt lat="43.94319" lon="0.53483">
        <ele>108.8</ele>
        <time>2023-07-04T11:01:40Z</time>
      </trkpt>
      <trkpt lat="43.94322" lon="0.53487">
        <ele>109.4</ele>
        <time>2023-07-04T11:01:44Z</time>
      </trkpt>
      <trkpt lat="43.94323" lon="0.53488">
        <ele>109.6</ele>
        <time>2023-07-04T11:01:45Z</time>
      </trkpt>
      <trkpt lat="43.94325" lon="0.53491">
        <ele>110</ele>
        <time>2023-07-04T11:01:48Z</time>
      </trkpt>
      <trkpt lat="43.94325" lon="0.53492">
        <ele>110</ele>
        <time>2023-07-04T11:01:49Z</time>
      </trkpt>
      <trkpt lat="43.94327" lon="0.53496">
        <ele>110.4</ele>
        <time>2023-07-04T11:01:53Z</time>
      </trkpt>
      <trkpt lat="43.94327" lon="0.53498">
        <ele>110.6</ele>
        <time>2023-07-04T11:01:54Z</time>
      </trkpt>
      <trkpt lat="43.94327" lon="0.535">
        <ele>111</ele>
        <time>2023-07-04T11:01:56Z</time>
      </trkpt>
      <trkpt lat="43.94331" lon="0.53506">
        <ele>111.6</ele>
        <time>2023-07-04T11:02:01Z</time>
      </trkpt>
      <trkpt lat="43.94332" lon="0.53508">
        <ele>111.6</ele>
        <time>2023-07-04T11:02:02Z</time>
      </trkpt>
      <trkpt lat="43.94335" lon="0.53514">
        <ele>112.4</ele>
        <time>2023-07-04T11:02:06Z</time>
      </trkpt>
      <trkpt lat="43.94336" lon="0.53516">
        <ele>112.6</ele>
        <time>2023-07-04T11:02:08Z</time>
      </trkpt>
      <trkpt lat="43.94338" lon="0.53523">
        <ele>113.6</ele>
        <time>2023-07-04T11:02:13Z</time>
      </trkpt>
      <trkpt lat="43.94338" lon="0.53524">
        <ele>113.8</ele>
        <time>2023-07-04T11:02:14Z</time>
      </trkpt>
      <trkpt lat="43.94339" lon="0.53527">
        <ele>114.2</ele>
        <time>2023-07-04T11:02:17Z</time>
      </trkpt>
      <trkpt lat="43.94339" lon="0.53531">
        <ele>114.8</ele>
        <time>2023-07-04T11:02:20Z</time>
      </trkpt>
      <trkpt lat="43.9434" lon="0.53533">
        <ele>115</ele>
        <time>2023-07-04T11:02:22Z</time>
      </trkpt>
      <trkpt lat="43.94342" lon="0.53538">
        <ele>115.4</ele>
        <time>2023-07-04T11:02:26Z</time>
      </trkpt>
      <trkpt lat="43.94343" lon="0.5354">
        <ele>115.6</ele>
        <time>2023-07-04T11:02:27Z</time>
      </trkpt>
      <trkpt lat="43.94346" lon="0.53549">
        <ele>115.8</ele>
        <time>2023-07-04T11:02:35Z</time>
      </trkpt>
      <trkpt lat="43.94346" lon="0.53551">
        <ele>115.8</ele>
        <time>2023-07-04T11:02:36Z</time>
      </trkpt>
      <trkpt lat="43.9435" lon="0.53556">
        <ele>116.8</ele>
        <time>2023-07-04T11:02:41Z</time>
      </trkpt>
      <trkpt lat="43.9435" lon="0.53557">
        <ele>117</ele>
        <time>2023-07-04T11:02:42Z</time>
      </trkpt>
      <trkpt lat="43.94353" lon="0.53564">
        <ele>117.6</ele>
        <time>2023-07-04T11:02:50Z</time>
      </trkpt>
      <trkpt lat="43.94353" lon="0.53565">
        <ele>117.8</ele>
        <time>2023-07-04T11:02:52Z</time>
      </trkpt>
      <trkpt lat="43.94353" lon="0.53567">
        <ele>118</ele>
        <time>2023-07-04T11:02:54Z</time>
      </trkpt>
      <trkpt lat="43.94353" lon="0.53568">
        <ele>118.2</ele>
        <time>2023-07-04T11:02:55Z</time>
      </trkpt>
      <trkpt lat="43.94353" lon="0.53569">
        <ele>118.4</ele>
        <time>2023-07-04T11:02:56Z</time>
      </trkpt>
      <trkpt lat="43.94353" lon="0.5357">
        <ele>118.6</ele>
        <time>2023-07-04T11:02:57Z</time>
      </trkpt>
      <trkpt lat="43.94354" lon="0.53571">
        <ele>118.6</ele>
        <time>2023-07-04T11:02:58Z</time>
      </trkpt>
      <trkpt lat="43.94354" lon="0.53572">
        <ele>118.8</ele>
        <time>2023-07-04T11:02:59Z</time>
      </trkpt>
      <trkpt lat="43.94355" lon="0.53573">
        <ele>119</ele>
        <time>2023-07-04T11:03:00Z</time>
      </trkpt>
      <trkpt lat="43.94355" lon="0.53574">
        <ele>119.2</ele>
        <time>2023-07-04T11:03:01Z</time>
      </trkpt>
      <trkpt lat="43.94356" lon="0.53575">
        <ele>119.2</ele>
        <time>2023-07-04T11:03:02Z</time>
      </trkpt>
      <trkpt lat="43.94357" lon="0.53576">
        <ele>119.4</ele>
        <time>2023-07-04T11:03:03Z</time>
      </trkpt>
      <trkpt lat="43.94357" lon="0.53578">
        <ele>119.6</ele>
        <time>2023-07-04T11:03:05Z</time>
      </trkpt>
      <trkpt lat="43.94358" lon="0.5358">
        <ele>119.6</ele>
        <time>2023-07-04T11:03:07Z</time>
      </trkpt>
      <trkpt lat="43.9436" lon="0.53581">
        <ele>120</ele>
        <time>2023-07-04T11:03:09Z</time>
      </trkpt>
      <trkpt lat="43.94361" lon="0.53583">
        <ele>120.2</ele>
        <time>2023-07-04T11:03:11Z</time>
      </trkpt>
      <trkpt lat="43.94361" lon="0.53584">
        <ele>120.2</ele>
        <time>2023-07-04T11:03:12Z</time>
      </trkpt>
      <trkpt lat="43.94361" lon="0.53586">
        <ele>120.2</ele>
        <time>2023-07-04T11:03:13Z</time>
      </trkpt>
      <trkpt lat="43.94361" lon="0.53587">
        <ele>120.4</ele>
        <time>2023-07-04T11:03:14Z</time>
      </trkpt>
      <trkpt lat="43.94363" lon="0.53591">
        <ele>121.2</ele>
        <time>2023-07-04T11:03:18Z</time>
      </trkpt>
      <trkpt lat="43.94365" lon="0.53594">
        <ele>121.4</ele>
        <time>2023-07-04T11:03:21Z</time>
      </trkpt>
      <trkpt lat="43.94366" lon="0.53602">
        <ele>122.2</ele>
        <time>2023-07-04T11:03:29Z</time>
      </trkpt>
      <trkpt lat="43.94366" lon="0.53604">
        <ele>122.2</ele>
        <time>2023-07-04T11:03:30Z</time>
      </trkpt>
      <trkpt lat="43.94365" lon="0.53606">
        <ele>122.4</ele>
        <time>2023-07-04T11:03:32Z</time>
      </trkpt>
      <trkpt lat="43.94366" lon="0.5361">
        <ele>123</ele>
        <time>2023-07-04T11:03:36Z</time>
      </trkpt>
      <trkpt lat="43.94364" lon="0.53613">
        <ele>123.4</ele>
        <time>2023-07-04T11:03:38Z</time>
      </trkpt>
      <trkpt lat="43.94363" lon="0.53617">
        <ele>123.6</ele>
        <time>2023-07-04T11:03:41Z</time>
      </trkpt>
      <trkpt lat="43.94364" lon="0.53619">
        <ele>123.8</ele>
        <time>2023-07-04T11:03:45Z</time>
      </trkpt>
      <trkpt lat="43.94366" lon="0.53618">
        <ele>124.2</ele>
        <time>2023-07-04T11:03:50Z</time>
      </trkpt>
      <trkpt lat="43.94365" lon="0.53619">
        <ele>124.8</ele>
        <time>2023-07-04T11:04:00Z</time>
      </trkpt>
      <trkpt lat="43.94366" lon="0.53621">
        <ele>124.8</ele>
        <time>2023-07-04T11:04:02Z</time>
      </trkpt>
      <trkpt lat="43.94366" lon="0.53629">
        <ele>125.2</ele>
        <time>2023-07-04T11:04:07Z</time>
      </trkpt>
      <trkpt lat="43.94366" lon="0.53633">
        <ele>125.6</ele>
        <time>2023-07-04T11:04:10Z</time>
      </trkpt>
      <trkpt lat="43.94366" lon="0.53636">
        <ele>125.8</ele>
        <time>2023-07-04T11:04:12Z</time>
      </trkpt>
      <trkpt lat="43.94366" lon="0.53642">
        <ele>126.4</ele>
        <time>2023-07-04T11:04:16Z</time>
      </trkpt>
      <trkpt lat="43.94366" lon="0.53647">
        <ele>126.6</ele>
        <time>2023-07-04T11:04:19Z</time>
      </trkpt>
      <trkpt lat="43.94365" lon="0.53648">
        <ele>126.6</ele>
        <time>2023-07-04T11:04:20Z</time>
      </trkpt>
      <trkpt lat="43.94365" lon="0.53652">
        <ele>126.8</ele>
        <time>2023-07-04T11:04:23Z</time>
      </trkpt>
      <trkpt lat="43.94364" lon="0.53653">
        <ele>127</ele>
        <time>2023-07-04T11:04:24Z</time>
      </trkpt>
      <trkpt lat="43.94364" lon="0.53659">
        <ele>127.6</ele>
        <time>2023-07-04T11:04:28Z</time>
      </trkpt>
      <trkpt lat="43.94363" lon="0.53662">
        <ele>127.8</ele>
        <time>2023-07-04T11:04:30Z</time>
      </trkpt>
      <trkpt lat="43.94363" lon="0.53666">
        <ele>128</ele>
        <time>2023-07-04T11:04:33Z</time>
      </trkpt>
      <trkpt lat="43.94361" lon="0.53672">
        <ele>128.6</ele>
        <time>2023-07-04T11:04:38Z</time>
      </trkpt>
      <trkpt lat="43.94361" lon="0.53674">
        <ele>128.8</ele>
        <time>2023-07-04T11:04:39Z</time>
      </trkpt>
      <trkpt lat="43.94361" lon="0.53676">
        <ele>129</ele>
        <time>2023-07-04T11:04:41Z</time>
      </trkpt>
      <trkpt lat="43.94357" lon="0.53687">
        <ele>129.8</ele>
        <time>2023-07-04T11:04:50Z</time>
      </trkpt>
      <trkpt lat="43.94356" lon="0.53693">
        <ele>130</ele>
        <time>2023-07-04T11:04:53Z</time>
      </trkpt>
      <trkpt lat="43.94355" lon="0.53703">
        <ele>131</ele>
        <time>2023-07-04T11:04:59Z</time>
      </trkpt>
      <trkpt lat="43.94355" lon="0.53705">
        <ele>131.2</ele>
        <time>2023-07-04T11:05:00Z</time>
      </trkpt>
      <trkpt lat="43.94353" lon="0.53715">
        <ele>131.8</ele>
        <time>2023-07-04T11:05:07Z</time>
      </trkpt>
      <trkpt lat="43.94352" lon="0.53719">
        <ele>132.2</ele>
        <time>2023-07-04T11:05:10Z</time>
      </trkpt>
      <trkpt lat="43.94351" lon="0.53724">
        <ele>132.4</ele>
        <time>2023-07-04T11:05:14Z</time>
      </trkpt>
      <trkpt lat="43.94349" lon="0.5373">
        <ele>133.2</ele>
        <time>2023-07-04T11:05:19Z</time>
      </trkpt>
      <trkpt lat="43.94349" lon="0.53731">
        <ele>133.4</ele>
        <time>2023-07-04T11:05:20Z</time>
      </trkpt>
      <trkpt lat="43.94348" lon="0.53732">
        <ele>133.6</ele>
        <time>2023-07-04T11:05:21Z</time>
      </trkpt>
      <trkpt lat="43.94348" lon="0.53733">
        <ele>133.6</ele>
        <time>2023-07-04T11:05:22Z</time>
      </trkpt>
      <trkpt lat="43.94348" lon="0.53734">
        <ele>133.6</ele>
        <time>2023-07-04T11:05:23Z</time>
      </trkpt>
      <trkpt lat="43.94347" lon="0.53738">
        <ele>134</ele>
        <time>2023-07-04T11:05:26Z</time>
      </trkpt>
      <trkpt lat="43.94346" lon="0.53743">
        <ele>134.6</ele>
        <time>2023-07-04T11:05:29Z</time>
      </trkpt>
      <trkpt lat="43.94345" lon="0.53747">
        <ele>135</ele>
        <time>2023-07-04T11:05:31Z</time>
      </trkpt>
      <trkpt lat="43.94344" lon="0.53755">
        <ele>135.8</ele>
        <time>2023-07-04T11:05:37Z</time>
      </trkpt>
      <trkpt lat="43.94343" lon="0.53761">
        <ele>136.6</ele>
        <time>2023-07-04T11:05:42Z</time>
      </trkpt>
      <trkpt lat="43.94342" lon="0.53762">
        <ele>136.8</ele>
        <time>2023-07-04T11:05:43Z</time>
      </trkpt>
      <trkpt lat="43.94342" lon="0.53764">
        <ele>137</ele>
        <time>2023-07-04T11:05:45Z</time>
      </trkpt>
      <trkpt lat="43.94341" lon="0.53769">
        <ele>137.6</ele>
        <time>2023-07-04T11:05:49Z</time>
      </trkpt>
      <trkpt lat="43.9434" lon="0.53772">
        <ele>137.8</ele>
        <time>2023-07-04T11:05:51Z</time>
      </trkpt>
      <trkpt lat="43.9434" lon="0.53773">
        <ele>138</ele>
        <time>2023-07-04T11:05:52Z</time>
      </trkpt>
      <trkpt lat="43.94338" lon="0.53781">
        <ele>138.8</ele>
        <time>2023-07-04T11:05:58Z</time>
      </trkpt>
      <trkpt lat="43.94338" lon="0.53784">
        <ele>139.2</ele>
        <time>2023-07-04T11:06:00Z</time>
      </trkpt>
      <trkpt lat="43.94337" lon="0.53788">
        <ele>139.4</ele>
        <time>2023-07-04T11:06:03Z</time>
      </trkpt>
      <trkpt lat="43.94336" lon="0.53795">
        <ele>140.2</ele>
        <time>2023-07-04T11:06:09Z</time>
      </trkpt>
      <trkpt lat="43.94336" lon="0.53798">
        <ele>140.4</ele>
        <time>2023-07-04T11:06:11Z</time>
      </trkpt>
      <trkpt lat="43.94336" lon="0.53801">
        <ele>140.6</ele>
        <time>2023-07-04T11:06:13Z</time>
      </trkpt>
      <trkpt lat="43.94335" lon="0.53802">
        <ele>140.8</ele>
        <time>2023-07-04T11:06:14Z</time>
      </trkpt>
      <trkpt lat="43.94335" lon="0.53805">
        <ele>141</ele>
        <time>2023-07-04T11:06:16Z</time>
      </trkpt>
      <trkpt lat="43.94334" lon="0.53807">
        <ele>141.4</ele>
        <time>2023-07-04T11:06:18Z</time>
      </trkpt>
      <trkpt lat="43.94334" lon="0.53809">
        <ele>141.6</ele>
        <time>2023-07-04T11:06:19Z</time>
      </trkpt>
      <trkpt lat="43.94333" lon="0.5381">
        <ele>142</ele>
        <time>2023-07-04T11:06:21Z</time>
      </trkpt>
      <trkpt lat="43.94331" lon="0.53816">
        <ele>142.6</ele>
        <time>2023-07-04T11:06:25Z</time>
      </trkpt>
      <trkpt lat="43.94331" lon="0.53816">
        <ele>142.8</ele>
        <time>2023-07-04T11:06:26Z</time>
      </trkpt>
      <trkpt lat="43.94331" lon="0.53817">
        <ele>143.2</ele>
        <time>2023-07-04T11:06:27Z</time>
      </trkpt>
      <trkpt lat="43.94331" lon="0.5382">
        <ele>143.4</ele>
        <time>2023-07-04T11:06:29Z</time>
      </trkpt>
      <trkpt lat="43.9433" lon="0.53824">
        <ele>143.6</ele>
        <time>2023-07-04T11:06:32Z</time>
      </trkpt>
      <trkpt lat="43.94328" lon="0.53829">
        <ele>144.6</ele>
        <time>2023-07-04T11:06:37Z</time>
      </trkpt>
      <trkpt lat="43.94328" lon="0.53829">
        <ele>144.8</ele>
        <time>2023-07-04T11:06:38Z</time>
      </trkpt>
      <trkpt lat="43.94327" lon="0.53832">
        <ele>145.2</ele>
        <time>2023-07-04T11:06:41Z</time>
      </trkpt>
      <trkpt lat="43.94327" lon="0.53833">
        <ele>145.4</ele>
        <time>2023-07-04T11:06:42Z</time>
      </trkpt>
      <trkpt lat="43.94326" lon="0.53836">
        <ele>145.6</ele>
        <time>2023-07-04T11:06:45Z</time>
      </trkpt>
      <trkpt lat="43.94326" lon="0.5384">
        <ele>146</ele>
        <time>2023-07-04T11:06:48Z</time>
      </trkpt>
      <trkpt lat="43.94326" lon="0.53843">
        <ele>146.4</ele>
        <time>2023-07-04T11:06:51Z</time>
      </trkpt>
      <trkpt lat="43.94326" lon="0.53846">
        <ele>146.8</ele>
        <time>2023-07-04T11:06:53Z</time>
      </trkpt>
      <trkpt lat="43.94325" lon="0.53848">
        <ele>146.8</ele>
        <time>2023-07-04T11:06:55Z</time>
      </trkpt>
      <trkpt lat="43.94325" lon="0.53851">
        <ele>147</ele>
        <time>2023-07-04T11:06:57Z</time>
      </trkpt>
      <trkpt lat="43.94325" lon="0.53852">
        <ele>147.2</ele>
        <time>2023-07-04T11:06:58Z</time>
      </trkpt>
      <trkpt lat="43.94324" lon="0.53855">
        <ele>147.6</ele>
        <time>2023-07-04T11:07:00Z</time>
      </trkpt>
      <trkpt lat="43.94324" lon="0.53858">
        <ele>148.2</ele>
        <time>2023-07-04T11:07:03Z</time>
      </trkpt>
      <trkpt lat="43.94324" lon="0.53861">
        <ele>148.8</ele>
        <time>2023-07-04T11:07:06Z</time>
      </trkpt>
      <trkpt lat="43.94323" lon="0.53864">
        <ele>149.4</ele>
        <time>2023-07-04T11:07:09Z</time>
      </trkpt>
      <trkpt lat="43.94323" lon="0.53868">
        <ele>149.6</ele>
        <time>2023-07-04T11:07:12Z</time>
      </trkpt>
      <trkpt lat="43.94322" lon="0.53873">
        <ele>150.4</ele>
        <time>2023-07-04T11:07:16Z</time>
      </trkpt>
      <trkpt lat="43.94322" lon="0.53878">
        <ele>151.2</ele>
        <time>2023-07-04T11:07:20Z</time>
      </trkpt>
      <trkpt lat="43.94321" lon="0.53878">
        <ele>151.4</ele>
        <time>2023-07-04T11:07:21Z</time>
      </trkpt>
      <trkpt lat="43.94321" lon="0.5388">
        <ele>151.4</ele>
        <time>2023-07-04T11:07:22Z</time>
      </trkpt>
      <trkpt lat="43.9432" lon="0.53882">
        <ele>151.6</ele>
        <time>2023-07-04T11:07:24Z</time>
      </trkpt>
      <trkpt lat="43.9432" lon="0.53887">
        <ele>152.2</ele>
        <time>2023-07-04T11:07:28Z</time>
      </trkpt>
      <trkpt lat="43.9432" lon="0.5389">
        <ele>152.4</ele>
        <time>2023-07-04T11:07:30Z</time>
      </trkpt>
      <trkpt lat="43.9432" lon="0.53892">
        <ele>152.6</ele>
        <time>2023-07-04T11:07:31Z</time>
      </trkpt>
      <trkpt lat="43.9432" lon="0.53893">
        <ele>152.8</ele>
        <time>2023-07-04T11:07:32Z</time>
      </trkpt>
      <trkpt lat="43.94322" lon="0.53896">
        <ele>153</ele>
        <time>2023-07-04T11:07:35Z</time>
      </trkpt>
      <trkpt lat="43.94322" lon="0.53898">
        <ele>153</ele>
        <time>2023-07-04T11:07:36Z</time>
      </trkpt>
      <trkpt lat="43.94322" lon="0.539">
        <ele>153.2</ele>
        <time>2023-07-04T11:07:38Z</time>
      </trkpt>
      <trkpt lat="43.94322" lon="0.53901">
        <ele>153.8</ele>
        <time>2023-07-04T11:07:39Z</time>
      </trkpt>
      <trkpt lat="43.94322" lon="0.53904">
        <ele>154.2</ele>
        <time>2023-07-04T11:07:42Z</time>
      </trkpt>
      <trkpt lat="43.94323" lon="0.53908">
        <ele>154.8</ele>
        <time>2023-07-04T11:07:46Z</time>
      </trkpt>
      <trkpt lat="43.94323" lon="0.5391">
        <ele>155.2</ele>
        <time>2023-07-04T11:07:48Z</time>
      </trkpt>
      <trkpt lat="43.94323" lon="0.53911">
        <ele>155.4</ele>
        <time>2023-07-04T11:07:49Z</time>
      </trkpt>
      <trkpt lat="43.94324" lon="0.53913">
        <ele>155.6</ele>
        <time>2023-07-04T11:07:50Z</time>
      </trkpt>
      <trkpt lat="43.94325" lon="0.53915">
        <ele>155.8</ele>
        <time>2023-07-04T11:07:52Z</time>
      </trkpt>
      <trkpt lat="43.94327" lon="0.53919">
        <ele>156.2</ele>
        <time>2023-07-04T11:07:55Z</time>
      </trkpt>
      <trkpt lat="43.94327" lon="0.53922">
        <ele>156.6</ele>
        <time>2023-07-04T11:07:57Z</time>
      </trkpt>
      <trkpt lat="43.94328" lon="0.53924">
        <ele>157</ele>
        <time>2023-07-04T11:07:59Z</time>
      </trkpt>
      <trkpt lat="43.94328" lon="0.53927">
        <ele>157.2</ele>
        <time>2023-07-04T11:08:02Z</time>
      </trkpt>
      <trkpt lat="43.94329" lon="0.53931">
        <ele>157.4</ele>
        <time>2023-07-04T11:08:05Z</time>
      </trkpt>
      <trkpt lat="43.94329" lon="0.53933">
        <ele>158</ele>
        <time>2023-07-04T11:08:07Z</time>
      </trkpt>
      <trkpt lat="43.94329" lon="0.53936">
        <ele>158.8</ele>
        <time>2023-07-04T11:08:10Z</time>
      </trkpt>
      <trkpt lat="43.94329" lon="0.53939">
        <ele>159</ele>
        <time>2023-07-04T11:08:13Z</time>
      </trkpt>
      <trkpt lat="43.94329" lon="0.53941">
        <ele>159.2</ele>
        <time>2023-07-04T11:08:14Z</time>
      </trkpt>
      <trkpt lat="43.94334" lon="0.53948">
        <ele>160</ele>
        <time>2023-07-04T11:08:21Z</time>
      </trkpt>
      <trkpt lat="43.94335" lon="0.53949">
        <ele>160.2</ele>
        <time>2023-07-04T11:08:22Z</time>
      </trkpt>
      <trkpt lat="43.94337" lon="0.53949">
        <ele>160.4</ele>
        <time>2023-07-04T11:08:23Z</time>
      </trkpt>
      <trkpt lat="43.94332" lon="0.53955">
        <ele>161</ele>
        <time>2023-07-04T11:08:27Z</time>
      </trkpt>
      <trkpt lat="43.94332" lon="0.53956">
        <ele>161.4</ele>
        <time>2023-07-04T11:08:28Z</time>
      </trkpt>
      <trkpt lat="43.94332" lon="0.53958">
        <ele>161.6</ele>
        <time>2023-07-04T11:08:29Z</time>
      </trkpt>
      <trkpt lat="43.94333" lon="0.53961">
        <ele>162</ele>
        <time>2023-07-04T11:08:32Z</time>
      </trkpt>
      <trkpt lat="43.94333" lon="0.53965">
        <ele>162.2</ele>
        <time>2023-07-04T11:08:35Z</time>
      </trkpt>
      <trkpt lat="43.94334" lon="0.53968">
        <ele>162.4</ele>
        <time>2023-07-04T11:08:37Z</time>
      </trkpt>
      <trkpt lat="43.94335" lon="0.53973">
        <ele>163.2</ele>
        <time>2023-07-04T11:08:40Z</time>
      </trkpt>
      <trkpt lat="43.94335" lon="0.53974">
        <ele>163.2</ele>
        <time>2023-07-04T11:08:41Z</time>
      </trkpt>
      <trkpt lat="43.94335" lon="0.53977">
        <ele>163.4</ele>
        <time>2023-07-04T11:08:43Z</time>
      </trkpt>
      <trkpt lat="43.94334" lon="0.5398">
        <ele>164.2</ele>
        <time>2023-07-04T11:08:47Z</time>
      </trkpt>
      <trkpt lat="43.94334" lon="0.53981">
        <ele>164.4</ele>
        <time>2023-07-04T11:08:48Z</time>
      </trkpt>
      <trkpt lat="43.94334" lon="0.53984">
        <ele>164.8</ele>
        <time>2023-07-04T11:08:52Z</time>
      </trkpt>
      <trkpt lat="43.94332" lon="0.53987">
        <ele>165.4</ele>
        <time>2023-07-04T11:08:56Z</time>
      </trkpt>
      <trkpt lat="43.94328" lon="0.5399">
        <ele>166.4</ele>
        <time>2023-07-04T11:09:02Z</time>
      </trkpt>
      <trkpt lat="43.94327" lon="0.53991">
        <ele>166.6</ele>
        <time>2023-07-04T11:09:03Z</time>
      </trkpt>
      <trkpt lat="43.94319" lon="0.5399">
        <ele>167</ele>
        <time>2023-07-04T11:09:09Z</time>
      </trkpt>
      <trkpt lat="43.94315" lon="0.53988">
        <ele>166.8</ele>
        <time>2023-07-04T11:09:14Z</time>
      </trkpt>
      <trkpt lat="43.94314" lon="0.53988">
        <ele>166.8</ele>
        <time>2023-07-04T11:09:15Z</time>
      </trkpt>
      <trkpt lat="43.94314" lon="0.53988">
        <ele>166.6</ele>
        <time>2023-07-04T11:09:16Z</time>
      </trkpt>
      <trkpt lat="43.94313" lon="0.53988">
        <ele>166.4</ele>
        <time>2023-07-04T11:09:18Z</time>
      </trkpt>
      <trkpt lat="43.9431" lon="0.53988">
        <ele>166.2</ele>
        <time>2023-07-04T11:09:21Z</time>
      </trkpt>
      <trkpt lat="43.94308" lon="0.53989">
        <ele>166</ele>
        <time>2023-07-04T11:09:22Z</time>
      </trkpt>
      <trkpt lat="43.94305" lon="0.5399">
        <ele>166</ele>
        <time>2023-07-04T11:09:24Z</time>
      </trkpt>
      <trkpt lat="43.943" lon="0.53993">
        <ele>165.6</ele>
        <time>2023-07-04T11:09:28Z</time>
      </trkpt>
      <trkpt lat="43.94296" lon="0.53995">
        <ele>165.4</ele>
        <time>2023-07-04T11:09:30Z</time>
      </trkpt>
      <trkpt lat="43.94293" lon="0.53997">
        <ele>165.2</ele>
        <time>2023-07-04T11:09:32Z</time>
      </trkpt>
      <trkpt lat="43.94294" lon="0.53999">
        <ele>165.2</ele>
        <time>2023-07-04T11:09:33Z</time>
      </trkpt>
      <trkpt lat="43.94293" lon="0.54002">
        <ele>165</ele>
        <time>2023-07-04T11:09:35Z</time>
      </trkpt>
      <trkpt lat="43.94292" lon="0.54003">
        <ele>165</ele>
        <time>2023-07-04T11:09:36Z</time>
      </trkpt>
      <trkpt lat="43.94292" lon="0.54003">
        <ele>164.8</ele>
        <time>2023-07-04T11:09:37Z</time>
      </trkpt>
      <trkpt lat="43.94291" lon="0.54004">
        <ele>164.8</ele>
        <time>2023-07-04T11:09:38Z</time>
      </trkpt>
      <trkpt lat="43.94291" lon="0.54004">
        <ele>164.8</ele>
        <time>2023-07-04T11:09:39Z</time>
      </trkpt>
      <trkpt lat="43.94288" lon="0.54002">
        <ele>164.8</ele>
        <time>2023-07-04T11:09:42Z</time>
      </trkpt>
      <trkpt lat="43.94286" lon="0.54">
        <ele>164.6</ele>
        <time>2023-07-04T11:09:45Z</time>
      </trkpt>
      <trkpt lat="43.94284" lon="0.53997">
        <ele>164.6</ele>
        <time>2023-07-04T11:09:48Z</time>
      </trkpt>
      <trkpt lat="43.94285" lon="0.53995">
        <ele>164.4</ele>
        <time>2023-07-04T11:09:50Z</time>
      </trkpt>
      <trkpt lat="43.94285" lon="0.53994">
        <ele>164.4</ele>
        <time>2023-07-04T11:09:51Z</time>
      </trkpt>
      <trkpt lat="43.94285" lon="0.53992">
        <ele>164.4</ele>
        <time>2023-07-04T11:09:55Z</time>
      </trkpt>
      <trkpt lat="43.94286" lon="0.53989">
        <ele>164.4</ele>
        <time>2023-07-04T11:09:57Z</time>
      </trkpt>
      <trkpt lat="43.94287" lon="0.53988">
        <ele>164.4</ele>
        <time>2023-07-04T11:09:58Z</time>
      </trkpt>
      <trkpt lat="43.94286" lon="0.53987">
        <ele>164.4</ele>
        <time>2023-07-04T11:09:59Z</time>
      </trkpt>
      <trkpt lat="43.94286" lon="0.53985">
        <ele>164.4</ele>
        <time>2023-07-04T11:10:00Z</time>
      </trkpt>
      <trkpt lat="43.94286" lon="0.53984">
        <ele>164.4</ele>
        <time>2023-07-04T11:10:01Z</time>
      </trkpt>
      <trkpt lat="43.94284" lon="0.53978">
        <ele>164</ele>
        <time>2023-07-04T11:10:04Z</time>
      </trkpt>
      <trkpt lat="43.94277" lon="0.53966">
        <ele>163.6</ele>
        <time>2023-07-04T11:10:11Z</time>
      </trkpt>
      <trkpt lat="43.94278" lon="0.53964">
        <ele>163.4</ele>
        <time>2023-07-04T11:10:12Z</time>
      </trkpt>
      <trkpt lat="43.94278" lon="0.53963">
        <ele>163.4</ele>
        <time>2023-07-04T11:10:13Z</time>
      </trkpt>
      <trkpt lat="43.94282" lon="0.54002">
        <ele>166</ele>
        <time>2023-07-04T12:51:57Z</time>
      </trkpt>
      <trkpt lat="43.94284" lon="0.54004">
        <ele>166.2</ele>
        <time>2023-07-04T12:51:59Z</time>
      </trkpt>
      <trkpt lat="43.94289" lon="0.54008">
        <ele>166.6</ele>
        <time>2023-07-04T12:52:04Z</time>
      </trkpt>
      <trkpt lat="43.94294" lon="0.54009">
        <ele>166.8</ele>
        <time>2023-07-04T12:52:06Z</time>
      </trkpt>
      <trkpt lat="43.94294" lon="0.54014">
        <ele>166.8</ele>
        <time>2023-07-04T12:52:08Z</time>
      </trkpt>
      <trkpt lat="43.94293" lon="0.54014">
        <ele>167</ele>
        <time>2023-07-04T12:52:12Z</time>
      </trkpt>
      <trkpt lat="43.94294" lon="0.54021">
        <ele>167.6</ele>
        <time>2023-07-04T12:52:20Z</time>
      </trkpt>
      <trkpt lat="43.94294" lon="0.54029">
        <ele>167.8</ele>
        <time>2023-07-04T12:52:25Z</time>
      </trkpt>
      <trkpt lat="43.94294" lon="0.54033">
        <ele>168</ele>
        <time>2023-07-04T12:52:30Z</time>
      </trkpt>
      <trkpt lat="43.94295" lon="0.54043">
        <ele>168.8</ele>
        <time>2023-07-04T12:52:39Z</time>
      </trkpt>
      <trkpt lat="43.94295" lon="0.54045">
        <ele>169</ele>
        <time>2023-07-04T12:52:40Z</time>
      </trkpt>
      <trkpt lat="43.94295" lon="0.54046">
        <ele>168.8</ele>
        <time>2023-07-04T12:52:41Z</time>
      </trkpt>
      <trkpt lat="43.94295" lon="0.54046">
        <ele>168.8</ele>
        <time>2023-07-04T12:52:42Z</time>
      </trkpt>
      <trkpt lat="43.94295" lon="0.54046">
        <ele>169</ele>
        <time>2023-07-04T12:52:43Z</time>
      </trkpt>
      <trkpt lat="43.94297" lon="0.54049">
        <ele>169</ele>
        <time>2023-07-04T12:52:45Z</time>
      </trkpt>
      <trkpt lat="43.94297" lon="0.54049">
        <ele>169.2</ele>
        <time>2023-07-04T12:52:46Z</time>
      </trkpt>
      <trkpt lat="43.94299" lon="0.54051">
        <ele>169.4</ele>
        <time>2023-07-04T12:52:48Z</time>
      </trkpt>
      <trkpt lat="43.94301" lon="0.54053">
        <ele>169.6</ele>
        <time>2023-07-04T12:52:50Z</time>
      </trkpt>
      <trkpt lat="43.94301" lon="0.54053">
        <ele>169.6</ele>
        <time>2023-07-04T12:52:51Z</time>
      </trkpt>
      <trkpt lat="43.94304" lon="0.54055">
        <ele>169.6</ele>
        <time>2023-07-04T12:52:53Z</time>
      </trkpt>
      <trkpt lat="43.94305" lon="0.54056">
        <ele>169.8</ele>
        <time>2023-07-04T12:52:55Z</time>
      </trkpt>
      <trkpt lat="43.94306" lon="0.54057">
        <ele>169.8</ele>
        <time>2023-07-04T12:52:56Z</time>
      </trkpt>
      <trkpt lat="43.94306" lon="0.54058">
        <ele>170</ele>
        <time>2023-07-04T12:52:57Z</time>
      </trkpt>
      <trkpt lat="43.94306" lon="0.54058">
        <ele>170</ele>
        <time>2023-07-04T12:52:58Z</time>
      </trkpt>
      <trkpt lat="43.94307" lon="0.5406">
        <ele>170.4</ele>
        <time>2023-07-04T12:53:01Z</time>
      </trkpt>
      <trkpt lat="43.94307" lon="0.54066">
        <ele>170.4</ele>
        <time>2023-07-04T12:53:06Z</time>
      </trkpt>
      <trkpt lat="43.94306" lon="0.54073">
        <ele>170.6</ele>
        <time>2023-07-04T12:53:12Z</time>
      </trkpt>
      <trkpt lat="43.9431" lon="0.54076">
        <ele>170.6</ele>
        <time>2023-07-04T12:53:14Z</time>
      </trkpt>
      <trkpt lat="43.9431" lon="0.54078">
        <ele>171</ele>
        <time>2023-07-04T12:53:16Z</time>
      </trkpt>
      <trkpt lat="43.94311" lon="0.5408">
        <ele>171.4</ele>
        <time>2023-07-04T12:53:19Z</time>
      </trkpt>
      <trkpt lat="43.94311" lon="0.54084">
        <ele>171.8</ele>
        <time>2023-07-04T12:53:25Z</time>
      </trkpt>
      <trkpt lat="43.94312" lon="0.54085">
        <ele>172</ele>
        <time>2023-07-04T12:53:28Z</time>
      </trkpt>
      <trkpt lat="43.94312" lon="0.54087">
        <ele>172</ele>
        <time>2023-07-04T12:53:29Z</time>
      </trkpt>
      <trkpt lat="43.94313" lon="0.54094">
        <ele>172</ele>
        <time>2023-07-04T12:53:35Z</time>
      </trkpt>
      <trkpt lat="43.94312" lon="0.54096">
        <ele>172.4</ele>
        <time>2023-07-04T12:53:37Z</time>
      </trkpt>
      <trkpt lat="43.9431" lon="0.54101">
        <ele>172.6</ele>
        <time>2023-07-04T12:53:42Z</time>
      </trkpt>
      <trkpt lat="43.94309" lon="0.54104">
        <ele>172.6</ele>
        <time>2023-07-04T12:53:44Z</time>
      </trkpt>
      <trkpt lat="43.94309" lon="0.54106">
        <ele>172.8</ele>
        <time>2023-07-04T12:53:46Z</time>
      </trkpt>
      <trkpt lat="43.94308" lon="0.54111">
        <ele>172.8</ele>
        <time>2023-07-04T12:53:50Z</time>
      </trkpt>
      <trkpt lat="43.94308" lon="0.54112">
        <ele>172.8</ele>
        <time>2023-07-04T12:53:51Z</time>
      </trkpt>
      <trkpt lat="43.94308" lon="0.54113">
        <ele>173</ele>
        <time>2023-07-04T12:53:52Z</time>
      </trkpt>
      <trkpt lat="43.94308" lon="0.54115">
        <ele>173</ele>
        <time>2023-07-04T12:53:54Z</time>
      </trkpt>
      <trkpt lat="43.94307" lon="0.54115">
        <ele>173</ele>
        <time>2023-07-04T12:53:55Z</time>
      </trkpt>
      <trkpt lat="43.94309" lon="0.54118">
        <ele>173.2</ele>
        <time>2023-07-04T12:53:59Z</time>
      </trkpt>
      <trkpt lat="43.94309" lon="0.5412">
        <ele>173.2</ele>
        <time>2023-07-04T12:54:00Z</time>
      </trkpt>
      <trkpt lat="43.9431" lon="0.54123">
        <ele>173</ele>
        <time>2023-07-04T12:54:02Z</time>
      </trkpt>
      <trkpt lat="43.9431" lon="0.54125">
        <ele>173</ele>
        <time>2023-07-04T12:54:04Z</time>
      </trkpt>
      <trkpt lat="43.9431" lon="0.54132">
        <ele>173.6</ele>
        <time>2023-07-04T12:54:09Z</time>
      </trkpt>
      <trkpt lat="43.94312" lon="0.54136">
        <ele>173.6</ele>
        <time>2023-07-04T12:54:12Z</time>
      </trkpt>
      <trkpt lat="43.94313" lon="0.54143">
        <ele>173.8</ele>
        <time>2023-07-04T12:54:19Z</time>
      </trkpt>
      <trkpt lat="43.94314" lon="0.54147">
        <ele>174</ele>
        <time>2023-07-04T12:54:21Z</time>
      </trkpt>
      <trkpt lat="43.94313" lon="0.54147">
        <ele>174</ele>
        <time>2023-07-04T12:54:22Z</time>
      </trkpt>
      <trkpt lat="43.94314" lon="0.54149">
        <ele>174</ele>
        <time>2023-07-04T12:54:24Z</time>
      </trkpt>
      <trkpt lat="43.94314" lon="0.54152">
        <ele>174</ele>
        <time>2023-07-04T12:54:26Z</time>
      </trkpt>
      <trkpt lat="43.94313" lon="0.54153">
        <ele>174</ele>
        <time>2023-07-04T12:54:28Z</time>
      </trkpt>
      <trkpt lat="43.94317" lon="0.54162">
        <ele>174.6</ele>
        <time>2023-07-04T12:54:38Z</time>
      </trkpt>
      <trkpt lat="43.94318" lon="0.54165">
        <ele>174.4</ele>
        <time>2023-07-04T12:54:41Z</time>
      </trkpt>
      <trkpt lat="43.94319" lon="0.54176">
        <ele>175</ele>
        <time>2023-07-04T12:54:49Z</time>
      </trkpt>
      <trkpt lat="43.94318" lon="0.54181">
        <ele>174.8</ele>
        <time>2023-07-04T12:54:51Z</time>
      </trkpt>
      <trkpt lat="43.94317" lon="0.54189">
        <ele>175</ele>
        <time>2023-07-04T12:54:57Z</time>
      </trkpt>
      <trkpt lat="43.94318" lon="0.54192">
        <ele>175.2</ele>
        <time>2023-07-04T12:54:59Z</time>
      </trkpt>
      <trkpt lat="43.94318" lon="0.54206">
        <ele>175.2</ele>
        <time>2023-07-04T12:55:09Z</time>
      </trkpt>
      <trkpt lat="43.9432" lon="0.5422">
        <ele>175.4</ele>
        <time>2023-07-04T12:55:21Z</time>
      </trkpt>
      <trkpt lat="43.94325" lon="0.54231">
        <ele>175</ele>
        <time>2023-07-04T12:55:31Z</time>
      </trkpt>
      <trkpt lat="43.94327" lon="0.54231">
        <ele>175</ele>
        <time>2023-07-04T12:55:32Z</time>
      </trkpt>
      <trkpt lat="43.94328" lon="0.54231">
        <ele>175</ele>
        <time>2023-07-04T12:55:33Z</time>
      </trkpt>
      <trkpt lat="43.94329" lon="0.54231">
        <ele>175</ele>
        <time>2023-07-04T12:55:35Z</time>
      </trkpt>
      <trkpt lat="43.94329" lon="0.54232">
        <ele>175.2</ele>
        <time>2023-07-04T12:55:38Z</time>
      </trkpt>
      <trkpt lat="43.94329" lon="0.54236">
        <ele>175.2</ele>
        <time>2023-07-04T12:55:41Z</time>
      </trkpt>
      <trkpt lat="43.94328" lon="0.54243">
        <ele>175.2</ele>
        <time>2023-07-04T12:55:46Z</time>
      </trkpt>
      <trkpt lat="43.94332" lon="0.54249">
        <ele>175.2</ele>
        <time>2023-07-04T12:55:52Z</time>
      </trkpt>
      <trkpt lat="43.94337" lon="0.54259">
        <ele>175</ele>
        <time>2023-07-04T12:56:03Z</time>
      </trkpt>
      <trkpt lat="43.94335" lon="0.54273">
        <ele>174.8</ele>
        <time>2023-07-04T12:56:13Z</time>
      </trkpt>
      <trkpt lat="43.94336" lon="0.54276">
        <ele>174.6</ele>
        <time>2023-07-04T12:56:16Z</time>
      </trkpt>
      <trkpt lat="43.94339" lon="0.54279">
        <ele>174.4</ele>
        <time>2023-07-04T12:56:23Z</time>
      </trkpt>
      <trkpt lat="43.94339" lon="0.54287">
        <ele>174.8</ele>
        <time>2023-07-04T12:56:31Z</time>
      </trkpt>
      <trkpt lat="43.94339" lon="0.54296">
        <ele>174.4</ele>
        <time>2023-07-04T12:56:43Z</time>
      </trkpt>
      <trkpt lat="43.94339" lon="0.54302">
        <ele>174.2</ele>
        <time>2023-07-04T12:56:47Z</time>
      </trkpt>
      <trkpt lat="43.94339" lon="0.54303">
        <ele>174</ele>
        <time>2023-07-04T12:56:48Z</time>
      </trkpt>
      <trkpt lat="43.9434" lon="0.5431">
        <ele>174</ele>
        <time>2023-07-04T12:56:53Z</time>
      </trkpt>
      <trkpt lat="43.94339" lon="0.54328">
        <ele>173.8</ele>
        <time>2023-07-04T12:57:05Z</time>
      </trkpt>
      <trkpt lat="43.94342" lon="0.5434">
        <ele>173.2</ele>
        <time>2023-07-04T12:57:16Z</time>
      </trkpt>
      <trkpt lat="43.94343" lon="0.5436">
        <ele>173.2</ele>
        <time>2023-07-04T12:57:32Z</time>
      </trkpt>
      <trkpt lat="43.94343" lon="0.54362">
        <ele>173</ele>
        <time>2023-07-04T12:57:33Z</time>
      </trkpt>
      <trkpt lat="43.94343" lon="0.54363">
        <ele>172.8</ele>
        <time>2023-07-04T12:57:34Z</time>
      </trkpt>
      <trkpt lat="43.94342" lon="0.54373">
        <ele>172.6</ele>
        <time>2023-07-04T12:57:44Z</time>
      </trkpt>
      <trkpt lat="43.94348" lon="0.54381">
        <ele>173.4</ele>
        <time>2023-07-04T12:58:15Z</time>
      </trkpt>
      <trkpt lat="43.94346" lon="0.54394">
        <ele>173.8</ele>
        <time>2023-07-04T12:58:24Z</time>
      </trkpt>
      <trkpt lat="43.94346" lon="0.54394">
        <ele>173.8</ele>
        <time>2023-07-04T12:58:25Z</time>
      </trkpt>
      <trkpt lat="43.94345" lon="0.54401">
        <ele>174</ele>
        <time>2023-07-04T12:58:28Z</time>
      </trkpt>
      <trkpt lat="43.94345" lon="0.54405">
        <ele>174</ele>
        <time>2023-07-04T12:58:31Z</time>
      </trkpt>
      <trkpt lat="43.94345" lon="0.54407">
        <ele>174.2</ele>
        <time>2023-07-04T12:58:34Z</time>
      </trkpt>
      <trkpt lat="43.94345" lon="0.54409">
        <ele>174.2</ele>
        <time>2023-07-04T12:58:35Z</time>
      </trkpt>
      <trkpt lat="43.94345" lon="0.54412">
        <ele>174.2</ele>
        <time>2023-07-04T12:58:37Z</time>
      </trkpt>
      <trkpt lat="43.94345" lon="0.54415">
        <ele>174.2</ele>
        <time>2023-07-04T12:58:39Z</time>
      </trkpt>
      <trkpt lat="43.94344" lon="0.54417">
        <ele>174.4</ele>
        <time>2023-07-04T12:58:40Z</time>
      </trkpt>
      <trkpt lat="43.94344" lon="0.5442">
        <ele>174.6</ele>
        <time>2023-07-04T12:58:42Z</time>
      </trkpt>
      <trkpt lat="43.94344" lon="0.5442">
        <ele>174.6</ele>
        <time>2023-07-04T12:58:43Z</time>
      </trkpt>
      <trkpt lat="43.94343" lon="0.54424">
        <ele>174.4</ele>
        <time>2023-07-04T12:58:45Z</time>
      </trkpt>
      <trkpt lat="43.94344" lon="0.54429">
        <ele>174.8</ele>
        <time>2023-07-04T12:58:51Z</time>
      </trkpt>
      <trkpt lat="43.94342" lon="0.54434">
        <ele>174.8</ele>
        <time>2023-07-04T12:58:55Z</time>
      </trkpt>
      <trkpt lat="43.94341" lon="0.54439">
        <ele>174.8</ele>
        <time>2023-07-04T12:58:57Z</time>
      </trkpt>
      <trkpt lat="43.94342" lon="0.5444">
        <ele>174.8</ele>
        <time>2023-07-04T12:58:58Z</time>
      </trkpt>
      <trkpt lat="43.94341" lon="0.54441">
        <ele>175</ele>
        <time>2023-07-04T12:59:00Z</time>
      </trkpt>
      <trkpt lat="43.94341" lon="0.54443">
        <ele>175</ele>
        <time>2023-07-04T12:59:01Z</time>
      </trkpt>
      <trkpt lat="43.94342" lon="0.54448">
        <ele>175.4</ele>
        <time>2023-07-04T12:59:04Z</time>
      </trkpt>
      <trkpt lat="43.94342" lon="0.54453">
        <ele>175.4</ele>
        <time>2023-07-04T12:59:08Z</time>
      </trkpt>
      <trkpt lat="43.94342" lon="0.54456">
        <ele>175.6</ele>
        <time>2023-07-04T12:59:11Z</time>
      </trkpt>
      <trkpt lat="43.94344" lon="0.54462">
        <ele>175.8</ele>
        <time>2023-07-04T12:59:16Z</time>
      </trkpt>
      <trkpt lat="43.94344" lon="0.54462">
        <ele>176</ele>
        <time>2023-07-04T12:59:17Z</time>
      </trkpt>
      <trkpt lat="43.94345" lon="0.54463">
        <ele>176</ele>
        <time>2023-07-04T12:59:18Z</time>
      </trkpt>
      <trkpt lat="43.94344" lon="0.54471">
        <ele>175.8</ele>
        <time>2023-07-04T12:59:24Z</time>
      </trkpt>
      <trkpt lat="43.94344" lon="0.54478">
        <ele>176</ele>
        <time>2023-07-04T12:59:29Z</time>
      </trkpt>
      <trkpt lat="43.94344" lon="0.54479">
        <ele>176</ele>
        <time>2023-07-04T12:59:30Z</time>
      </trkpt>
      <trkpt lat="43.94343" lon="0.54482">
        <ele>176.2</ele>
        <time>2023-07-04T12:59:31Z</time>
      </trkpt>
      <trkpt lat="43.94343" lon="0.54491">
        <ele>176.2</ele>
        <time>2023-07-04T12:59:39Z</time>
      </trkpt>
      <trkpt lat="43.94343" lon="0.54493">
        <ele>176.2</ele>
        <time>2023-07-04T12:59:40Z</time>
      </trkpt>
      <trkpt lat="43.94342" lon="0.54501">
        <ele>176.4</ele>
        <time>2023-07-04T12:59:46Z</time>
      </trkpt>
      <trkpt lat="43.94343" lon="0.54507">
        <ele>176.4</ele>
        <time>2023-07-04T12:59:49Z</time>
      </trkpt>
      <trkpt lat="43.94342" lon="0.54508">
        <ele>176.2</ele>
        <time>2023-07-04T12:59:51Z</time>
      </trkpt>
      <trkpt lat="43.94342" lon="0.54508">
        <ele>176.2</ele>
        <time>2023-07-04T12:59:52Z</time>
      </trkpt>
      <trkpt lat="43.94298" lon="0.54468">
        <ele>176</ele>
        <time>2023-07-04T13:01:46Z</time>
      </trkpt>
      <trkpt lat="43.94298" lon="0.54469">
        <ele>176</ele>
        <time>2023-07-04T13:01:47Z</time>
      </trkpt>
      <trkpt lat="43.943" lon="0.54472">
        <ele>175.8</ele>
        <time>2023-07-04T13:01:52Z</time>
      </trkpt>
      <trkpt lat="43.94305" lon="0.5448">
        <ele>175.6</ele>
        <time>2023-07-04T13:02:00Z</time>
      </trkpt>
      <trkpt lat="43.94305" lon="0.54481">
        <ele>175.6</ele>
        <time>2023-07-04T13:02:01Z</time>
      </trkpt>
      <trkpt lat="43.94306" lon="0.54482">
        <ele>175.6</ele>
        <time>2023-07-04T13:02:02Z</time>
      </trkpt>
      <trkpt lat="43.94312" lon="0.54489">
        <ele>175.6</ele>
        <time>2023-07-04T13:02:09Z</time>
      </trkpt>
      <trkpt lat="43.94317" lon="0.54494">
        <ele>175.8</ele>
        <time>2023-07-04T13:02:14Z</time>
      </trkpt>
      <trkpt lat="43.94319" lon="0.54495">
        <ele>176</ele>
        <time>2023-07-04T13:02:16Z</time>
      </trkpt>
      <trkpt lat="43.94324" lon="0.545">
        <ele>175.6</ele>
        <time>2023-07-04T13:02:21Z</time>
      </trkpt>
      <trkpt lat="43.94326" lon="0.54502">
        <ele>175.2</ele>
        <time>2023-07-04T13:02:24Z</time>
      </trkpt>
      <trkpt lat="43.9433" lon="0.54509">
        <ele>175.6</ele>
        <time>2023-07-04T13:02:32Z</time>
      </trkpt>
      <trkpt lat="43.94331" lon="0.5451">
        <ele>175.6</ele>
        <time>2023-07-04T13:02:33Z</time>
      </trkpt>
      <trkpt lat="43.94332" lon="0.54512">
        <ele>175.6</ele>
        <time>2023-07-04T13:02:34Z</time>
      </trkpt>
      <trkpt lat="43.94336" lon="0.54517">
        <ele>175.8</ele>
        <time>2023-07-04T13:02:38Z</time>
      </trkpt>
      <trkpt lat="43.94336" lon="0.54522">
        <ele>176.2</ele>
        <time>2023-07-04T13:02:43Z</time>
      </trkpt>
      <trkpt lat="43.94337" lon="0.54524">
        <ele>176.2</ele>
        <time>2023-07-04T13:02:44Z</time>
      </trkpt>
      <trkpt lat="43.94335" lon="0.54541">
        <ele>175.8</ele>
        <time>2023-07-04T13:02:54Z</time>
      </trkpt>
      <trkpt lat="43.94334" lon="0.54558">
        <ele>175.6</ele>
        <time>2023-07-04T13:03:06Z</time>
      </trkpt>
      <trkpt lat="43.94336" lon="0.54574">
        <ele>176</ele>
        <time>2023-07-04T13:03:17Z</time>
      </trkpt>
      <trkpt lat="43.94336" lon="0.54586">
        <ele>176.8</ele>
        <time>2023-07-04T13:03:24Z</time>
      </trkpt>
      <trkpt lat="43.94334" lon="0.54595">
        <ele>176.8</ele>
        <time>2023-07-04T13:03:30Z</time>
      </trkpt>
      <trkpt lat="43.94333" lon="0.54598">
        <ele>176.6</ele>
        <time>2023-07-04T13:03:32Z</time>
      </trkpt>
      <trkpt lat="43.94334" lon="0.54605">
        <ele>176.6</ele>
        <time>2023-07-04T13:03:35Z</time>
      </trkpt>
      <trkpt lat="43.94334" lon="0.54607">
        <ele>176.6</ele>
        <time>2023-07-04T13:03:38Z</time>
      </trkpt>
      <trkpt lat="43.94333" lon="0.54611">
        <ele>176.8</ele>
        <time>2023-07-04T13:03:41Z</time>
      </trkpt>
      <trkpt lat="43.94332" lon="0.54619">
        <ele>176.8</ele>
        <time>2023-07-04T13:03:46Z</time>
      </trkpt>
      <trkpt lat="43.94332" lon="0.54626">
        <ele>176.8</ele>
        <time>2023-07-04T13:03:50Z</time>
      </trkpt>
      <trkpt lat="43.94331" lon="0.54632">
        <ele>176.8</ele>
        <time>2023-07-04T13:03:54Z</time>
      </trkpt>
      <trkpt lat="43.94329" lon="0.54636">
        <ele>177</ele>
        <time>2023-07-04T13:03:56Z</time>
      </trkpt>
      <trkpt lat="43.94327" lon="0.54639">
        <ele>177</ele>
        <time>2023-07-04T13:03:57Z</time>
      </trkpt>
      <trkpt lat="43.94324" lon="0.54647">
        <ele>177.4</ele>
        <time>2023-07-04T13:04:04Z</time>
      </trkpt>
      <trkpt lat="43.94323" lon="0.5465">
        <ele>177.4</ele>
        <time>2023-07-04T13:04:06Z</time>
      </trkpt>
      <trkpt lat="43.9432" lon="0.54663">
        <ele>177.4</ele>
        <time>2023-07-04T13:04:16Z</time>
      </trkpt>
      <trkpt lat="43.94319" lon="0.54664">
        <ele>177.4</ele>
        <time>2023-07-04T13:04:17Z</time>
      </trkpt>
      <trkpt lat="43.94318" lon="0.54667">
        <ele>177.6</ele>
        <time>2023-07-04T13:04:19Z</time>
      </trkpt>
      <trkpt lat="43.94317" lon="0.54677">
        <ele>177.8</ele>
        <time>2023-07-04T13:04:25Z</time>
      </trkpt>
      <trkpt lat="43.94318" lon="0.54684">
        <ele>178.2</ele>
        <time>2023-07-04T13:04:30Z</time>
      </trkpt>
      <trkpt lat="43.94317" lon="0.5469">
        <ele>178.4</ele>
        <time>2023-07-04T13:04:33Z</time>
      </trkpt>
      <trkpt lat="43.94314" lon="0.547">
        <ele>178.2</ele>
        <time>2023-07-04T13:04:39Z</time>
      </trkpt>
      <trkpt lat="43.94312" lon="0.54704">
        <ele>178.4</ele>
        <time>2023-07-04T13:04:42Z</time>
      </trkpt>
      <trkpt lat="43.94312" lon="0.54706">
        <ele>178.6</ele>
        <time>2023-07-04T13:04:43Z</time>
      </trkpt>
      <trkpt lat="43.94311" lon="0.54708">
        <ele>178.6</ele>
        <time>2023-07-04T13:04:44Z</time>
      </trkpt>
      <trkpt lat="43.94311" lon="0.54711">
        <ele>178.6</ele>
        <time>2023-07-04T13:04:46Z</time>
      </trkpt>
      <trkpt lat="43.9431" lon="0.54714">
        <ele>178.6</ele>
        <time>2023-07-04T13:04:48Z</time>
      </trkpt>
      <trkpt lat="43.94308" lon="0.54719">
        <ele>178.6</ele>
        <time>2023-07-04T13:04:51Z</time>
      </trkpt>
      <trkpt lat="43.94306" lon="0.54724">
        <ele>178.6</ele>
        <time>2023-07-04T13:04:54Z</time>
      </trkpt>
      <trkpt lat="43.94304" lon="0.5473">
        <ele>178.6</ele>
        <time>2023-07-04T13:04:58Z</time>
      </trkpt>
      <trkpt lat="43.943" lon="0.54737">
        <ele>179</ele>
        <time>2023-07-04T13:05:03Z</time>
      </trkpt>
      <trkpt lat="43.94299" lon="0.54741">
        <ele>179</ele>
        <time>2023-07-04T13:05:05Z</time>
      </trkpt>
      <trkpt lat="43.94293" lon="0.54753">
        <ele>179.2</ele>
        <time>2023-07-04T13:05:13Z</time>
      </trkpt>
      <trkpt lat="43.94293" lon="0.54755">
        <ele>179.4</ele>
        <time>2023-07-04T13:05:14Z</time>
      </trkpt>
      <trkpt lat="43.94289" lon="0.54766">
        <ele>179</ele>
        <time>2023-07-04T13:05:21Z</time>
      </trkpt>
      <trkpt lat="43.94284" lon="0.54776">
        <ele>179</ele>
        <time>2023-07-04T13:05:27Z</time>
      </trkpt>
      <trkpt lat="43.9428" lon="0.54787">
        <ele>179.2</ele>
        <time>2023-07-04T13:05:34Z</time>
      </trkpt>
      <trkpt lat="43.94278" lon="0.54794">
        <ele>179.2</ele>
        <time>2023-07-04T13:05:39Z</time>
      </trkpt>
      <trkpt lat="43.94277" lon="0.54797">
        <ele>179.4</ele>
        <time>2023-07-04T13:05:41Z</time>
      </trkpt>
      <trkpt lat="43.94275" lon="0.54802">
        <ele>179.6</ele>
        <time>2023-07-04T13:05:44Z</time>
      </trkpt>
      <trkpt lat="43.94275" lon="0.54805">
        <ele>179.6</ele>
        <time>2023-07-04T13:05:46Z</time>
      </trkpt>
      <trkpt lat="43.94274" lon="0.54809">
        <ele>179.6</ele>
        <time>2023-07-04T13:05:48Z</time>
      </trkpt>
      <trkpt lat="43.94273" lon="0.54815">
        <ele>179.6</ele>
        <time>2023-07-04T13:05:52Z</time>
      </trkpt>
      <trkpt lat="43.94272" lon="0.54823">
        <ele>179.6</ele>
        <time>2023-07-04T13:05:56Z</time>
      </trkpt>
      <trkpt lat="43.9427" lon="0.54831">
        <ele>179.6</ele>
        <time>2023-07-04T13:06:00Z</time>
      </trkpt>
      <trkpt lat="43.94268" lon="0.54841">
        <ele>179.6</ele>
        <time>2023-07-04T13:06:05Z</time>
      </trkpt>
      <trkpt lat="43.94267" lon="0.54851">
        <ele>179.6</ele>
        <time>2023-07-04T13:06:09Z</time>
      </trkpt>
      <trkpt lat="43.94266" lon="0.54855">
        <ele>179.6</ele>
        <time>2023-07-04T13:06:12Z</time>
      </trkpt>
      <trkpt lat="43.94265" lon="0.54861">
        <ele>179.6</ele>
        <time>2023-07-04T13:06:15Z</time>
      </trkpt>
      <trkpt lat="43.94264" lon="0.54873">
        <ele>179.4</ele>
        <time>2023-07-04T13:06:21Z</time>
      </trkpt>
      <trkpt lat="43.94264" lon="0.54875">
        <ele>179.4</ele>
        <time>2023-07-04T13:06:22Z</time>
      </trkpt>
      <trkpt lat="43.94264" lon="0.54877">
        <ele>179.4</ele>
        <time>2023-07-04T13:06:23Z</time>
      </trkpt>
      <trkpt lat="43.94264" lon="0.54878">
        <ele>179.4</ele>
        <time>2023-07-04T13:06:24Z</time>
      </trkpt>
      <trkpt lat="43.94264" lon="0.5488">
        <ele>179.4</ele>
        <time>2023-07-04T13:06:25Z</time>
      </trkpt>
      <trkpt lat="43.94264" lon="0.54882">
        <ele>179.4</ele>
        <time>2023-07-04T13:06:26Z</time>
      </trkpt>
      <trkpt lat="43.94264" lon="0.54884">
        <ele>179.4</ele>
        <time>2023-07-04T13:06:27Z</time>
      </trkpt>
      <trkpt lat="43.94263" lon="0.54885">
        <ele>179.4</ele>
        <time>2023-07-04T13:06:28Z</time>
      </trkpt>
      <trkpt lat="43.94263" lon="0.54889">
        <ele>179.4</ele>
        <time>2023-07-04T13:06:30Z</time>
      </trkpt>
      <trkpt lat="43.94263" lon="0.54893">
        <ele>179.6</ele>
        <time>2023-07-04T13:06:32Z</time>
      </trkpt>
      <trkpt lat="43.94263" lon="0.54895">
        <ele>179.6</ele>
        <time>2023-07-04T13:06:33Z</time>
      </trkpt>
      <trkpt lat="43.94262" lon="0.54901">
        <ele>179.6</ele>
        <time>2023-07-04T13:06:36Z</time>
      </trkpt>
      <trkpt lat="43.94261" lon="0.54906">
        <ele>179.6</ele>
        <time>2023-07-04T13:06:39Z</time>
      </trkpt>
      <trkpt lat="43.9426" lon="0.54912">
        <ele>179.4</ele>
        <time>2023-07-04T13:06:42Z</time>
      </trkpt>
      <trkpt lat="43.9426" lon="0.54914">
        <ele>179.4</ele>
        <time>2023-07-04T13:06:43Z</time>
      </trkpt>
      <trkpt lat="43.9426" lon="0.54915">
        <ele>179.4</ele>
        <time>2023-07-04T13:06:44Z</time>
      </trkpt>
      <trkpt lat="43.94259" lon="0.54927">
        <ele>179.6</ele>
        <time>2023-07-04T13:06:50Z</time>
      </trkpt>
      <trkpt lat="43.94254" lon="0.54949">
        <ele>179.6</ele>
        <time>2023-07-04T13:07:02Z</time>
      </trkpt>
      <trkpt lat="43.94254" lon="0.54966">
        <ele>179.4</ele>
        <time>2023-07-04T13:07:11Z</time>
      </trkpt>
      <trkpt lat="43.94253" lon="0.54975">
        <ele>179.8</ele>
        <time>2023-07-04T13:07:17Z</time>
      </trkpt>
      <trkpt lat="43.94252" lon="0.54981">
        <ele>179.8</ele>
        <time>2023-07-04T13:07:20Z</time>
      </trkpt>
      <trkpt lat="43.94251" lon="0.54998">
        <ele>179.8</ele>
        <time>2023-07-04T13:07:29Z</time>
      </trkpt>
      <trkpt lat="43.94249" lon="0.5501">
        <ele>179.6</ele>
        <time>2023-07-04T13:07:36Z</time>
      </trkpt>
      <trkpt lat="43.94248" lon="0.55011">
        <ele>179.6</ele>
        <time>2023-07-04T13:07:37Z</time>
      </trkpt>
      <trkpt lat="43.94246" lon="0.5502">
        <ele>179.6</ele>
        <time>2023-07-04T13:07:42Z</time>
      </trkpt>
      <trkpt lat="43.94245" lon="0.55024">
        <ele>179.6</ele>
        <time>2023-07-04T13:07:44Z</time>
      </trkpt>
      <trkpt lat="43.9424" lon="0.55043">
        <ele>179.8</ele>
        <time>2023-07-04T13:07:54Z</time>
      </trkpt>
      <trkpt lat="43.94232" lon="0.55057">
        <ele>180</ele>
        <time>2023-07-04T13:08:03Z</time>
      </trkpt>
      <trkpt lat="43.94231" lon="0.55059">
        <ele>179.8</ele>
        <time>2023-07-04T13:08:04Z</time>
      </trkpt>
      <trkpt lat="43.94224" lon="0.55069">
        <ele>179.8</ele>
        <time>2023-07-04T13:08:11Z</time>
      </trkpt>
      <trkpt lat="43.94222" lon="0.55071">
        <ele>179.8</ele>
        <time>2023-07-04T13:08:13Z</time>
      </trkpt>
      <trkpt lat="43.94216" lon="0.55081">
        <ele>180</ele>
        <time>2023-07-04T13:08:19Z</time>
      </trkpt>
      <trkpt lat="43.94215" lon="0.55082">
        <ele>180.2</ele>
        <time>2023-07-04T13:08:20Z</time>
      </trkpt>
      <trkpt lat="43.94213" lon="0.55085">
        <ele>180.4</ele>
        <time>2023-07-04T13:08:22Z</time>
      </trkpt>
      <trkpt lat="43.94212" lon="0.55087">
        <ele>180.4</ele>
        <time>2023-07-04T13:08:23Z</time>
      </trkpt>
      <trkpt lat="43.9421" lon="0.55089">
        <ele>180.4</ele>
        <time>2023-07-04T13:08:25Z</time>
      </trkpt>
      <trkpt lat="43.94203" lon="0.551">
        <ele>180.2</ele>
        <time>2023-07-04T13:08:32Z</time>
      </trkpt>
      <trkpt lat="43.94201" lon="0.55105">
        <ele>180.6</ele>
        <time>2023-07-04T13:08:35Z</time>
      </trkpt>
      <trkpt lat="43.94197" lon="0.55113">
        <ele>180.8</ele>
        <time>2023-07-04T13:08:40Z</time>
      </trkpt>
      <trkpt lat="43.94196" lon="0.55117">
        <ele>180.8</ele>
        <time>2023-07-04T13:08:42Z</time>
      </trkpt>
      <trkpt lat="43.94191" lon="0.55126">
        <ele>180.6</ele>
        <time>2023-07-04T13:08:49Z</time>
      </trkpt>
      <trkpt lat="43.94187" lon="0.55136">
        <ele>180.8</ele>
        <time>2023-07-04T13:08:55Z</time>
      </trkpt>
      <trkpt lat="43.94186" lon="0.55137">
        <ele>180.8</ele>
        <time>2023-07-04T13:08:56Z</time>
      </trkpt>
      <trkpt lat="43.94185" lon="0.5514">
        <ele>180.8</ele>
        <time>2023-07-04T13:08:58Z</time>
      </trkpt>
      <trkpt lat="43.94184" lon="0.55141">
        <ele>180.8</ele>
        <time>2023-07-04T13:08:59Z</time>
      </trkpt>
      <trkpt lat="43.9418" lon="0.55146">
        <ele>181</ele>
        <time>2023-07-04T13:09:02Z</time>
      </trkpt>
      <trkpt lat="43.9418" lon="0.55146">
        <ele>181.2</ele>
        <time>2023-07-04T13:09:03Z</time>
      </trkpt>
      <trkpt lat="43.94179" lon="0.55147">
        <ele>181.2</ele>
        <time>2023-07-04T13:09:04Z</time>
      </trkpt>
      <trkpt lat="43.94177" lon="0.55152">
        <ele>181.4</ele>
        <time>2023-07-04T13:09:07Z</time>
      </trkpt>
      <trkpt lat="43.94174" lon="0.55159">
        <ele>181.2</ele>
        <time>2023-07-04T13:09:11Z</time>
      </trkpt>
      <trkpt lat="43.94174" lon="0.55161">
        <ele>181.2</ele>
        <time>2023-07-04T13:09:13Z</time>
      </trkpt>
      <trkpt lat="43.94172" lon="0.55165">
        <ele>181.4</ele>
        <time>2023-07-04T13:09:16Z</time>
      </trkpt>
      <trkpt lat="43.9417" lon="0.55168">
        <ele>181.4</ele>
        <time>2023-07-04T13:09:18Z</time>
      </trkpt>
      <trkpt lat="43.94169" lon="0.55171">
        <ele>181.4</ele>
        <time>2023-07-04T13:09:20Z</time>
      </trkpt>
      <trkpt lat="43.94165" lon="0.55181">
        <ele>181.2</ele>
        <time>2023-07-04T13:09:26Z</time>
      </trkpt>
      <trkpt lat="43.94163" lon="0.55185">
        <ele>181.2</ele>
        <time>2023-07-04T13:09:28Z</time>
      </trkpt>
      <trkpt lat="43.94159" lon="0.55192">
        <ele>180.8</ele>
        <time>2023-07-04T13:09:32Z</time>
      </trkpt>
      <trkpt lat="43.94156" lon="0.552">
        <ele>180.4</ele>
        <time>2023-07-04T13:09:37Z</time>
      </trkpt>
      <trkpt lat="43.94154" lon="0.55206">
        <ele>180.4</ele>
        <time>2023-07-04T13:09:40Z</time>
      </trkpt>
      <trkpt lat="43.94152" lon="0.55211">
        <ele>180.4</ele>
        <time>2023-07-04T13:09:42Z</time>
      </trkpt>
      <trkpt lat="43.94032" lon="0.55744">
        <ele>174.8</ele>
        <time>2023-07-04T13:15:05Z</time>
      </trkpt>
      <trkpt lat="43.94031" lon="0.55746">
        <ele>174.8</ele>
        <time>2023-07-04T13:15:06Z</time>
      </trkpt>
      <trkpt lat="43.94031" lon="0.55748">
        <ele>174.8</ele>
        <time>2023-07-04T13:15:07Z</time>
      </trkpt>
      <trkpt lat="43.9403" lon="0.55749">
        <ele>174.8</ele>
        <time>2023-07-04T13:15:08Z</time>
      </trkpt>
      <trkpt lat="43.94029" lon="0.55753">
        <ele>176</ele>
        <time>2023-07-04T13:15:10Z</time>
      </trkpt>
      <trkpt lat="43.94025" lon="0.55762">
        <ele>176.8</ele>
        <time>2023-07-04T13:15:15Z</time>
      </trkpt>
      <trkpt lat="43.94022" lon="0.5577">
        <ele>177.2</ele>
        <time>2023-07-04T13:15:20Z</time>
      </trkpt>
      <trkpt lat="43.94021" lon="0.55773">
        <ele>177.2</ele>
        <time>2023-07-04T13:15:22Z</time>
      </trkpt>
      <trkpt lat="43.9402" lon="0.55775">
        <ele>177.2</ele>
        <time>2023-07-04T13:15:23Z</time>
      </trkpt>
      <trkpt lat="43.94018" lon="0.55779">
        <ele>177.2</ele>
        <time>2023-07-04T13:15:26Z</time>
      </trkpt>
      <trkpt lat="43.94016" lon="0.55783">
        <ele>177.2</ele>
        <time>2023-07-04T13:15:28Z</time>
      </trkpt>
      <trkpt lat="43.94015" lon="0.55786">
        <ele>177.2</ele>
        <time>2023-07-04T13:15:30Z</time>
      </trkpt>
      <trkpt lat="43.94011" lon="0.558">
        <ele>177.4</ele>
        <time>2023-07-04T13:15:38Z</time>
      </trkpt>
      <trkpt lat="43.94007" lon="0.55808">
        <ele>177.2</ele>
        <time>2023-07-04T13:15:42Z</time>
      </trkpt>
      <trkpt lat="43.94006" lon="0.55812">
        <ele>177.4</ele>
        <time>2023-07-04T13:15:44Z</time>
      </trkpt>
      <trkpt lat="43.94004" lon="0.55815">
        <ele>177.4</ele>
        <time>2023-07-04T13:15:46Z</time>
      </trkpt>
      <trkpt lat="43.93999" lon="0.55827">
        <ele>177.8</ele>
        <time>2023-07-04T13:15:53Z</time>
      </trkpt>
      <trkpt lat="43.93998" lon="0.55831">
        <ele>177.6</ele>
        <time>2023-07-04T13:15:55Z</time>
      </trkpt>
      <trkpt lat="43.93992" lon="0.55844">
        <ele>177.6</ele>
        <time>2023-07-04T13:16:04Z</time>
      </trkpt>
      <trkpt lat="43.93988" lon="0.55857">
        <ele>178</ele>
        <time>2023-07-04T13:16:12Z</time>
      </trkpt>
      <trkpt lat="43.93986" lon="0.55862">
        <ele>178.2</ele>
        <time>2023-07-04T13:16:15Z</time>
      </trkpt>
      <trkpt lat="43.93982" lon="0.55872">
        <ele>178.2</ele>
        <time>2023-07-04T13:16:21Z</time>
      </trkpt>
      <trkpt lat="43.93976" lon="0.55886">
        <ele>178.2</ele>
        <time>2023-07-04T13:16:29Z</time>
      </trkpt>
      <trkpt lat="43.93969" lon="0.55901">
        <ele>178.4</ele>
        <time>2023-07-04T13:16:38Z</time>
      </trkpt>
      <trkpt lat="43.93966" lon="0.55911">
        <ele>178.6</ele>
        <time>2023-07-04T13:16:44Z</time>
      </trkpt>
      <trkpt lat="43.93964" lon="0.55917">
        <ele>178.6</ele>
        <time>2023-07-04T13:16:47Z</time>
      </trkpt>
      <trkpt lat="43.93959" lon="0.55931">
        <ele>178.6</ele>
        <time>2023-07-04T13:16:55Z</time>
      </trkpt>
      <trkpt lat="43.93957" lon="0.55947">
        <ele>179</ele>
        <time>2023-07-04T13:17:04Z</time>
      </trkpt>
      <trkpt lat="43.93953" lon="0.55957">
        <ele>179.2</ele>
        <time>2023-07-04T13:17:10Z</time>
      </trkpt>
      <trkpt lat="43.93951" lon="0.55965">
        <ele>179.2</ele>
        <time>2023-07-04T13:17:14Z</time>
      </trkpt>
      <trkpt lat="43.9395" lon="0.55969">
        <ele>179.2</ele>
        <time>2023-07-04T13:17:16Z</time>
      </trkpt>
      <trkpt lat="43.9395" lon="0.5597">
        <ele>179.2</ele>
        <time>2023-07-04T13:17:17Z</time>
      </trkpt>
      <trkpt lat="43.93946" lon="0.55985">
        <ele>179.6</ele>
        <time>2023-07-04T13:17:25Z</time>
      </trkpt>
      <trkpt lat="43.93943" lon="0.56007">
        <ele>180</ele>
        <time>2023-07-04T13:17:37Z</time>
      </trkpt>
      <trkpt lat="43.93941" lon="0.56015">
        <ele>180.2</ele>
        <time>2023-07-04T13:17:41Z</time>
      </trkpt>
      <trkpt lat="43.93943" lon="0.56032">
        <ele>180.6</ele>
        <time>2023-07-04T13:17:50Z</time>
      </trkpt>
      <trkpt lat="43.9394" lon="0.56047">
        <ele>181</ele>
        <time>2023-07-04T13:17:59Z</time>
      </trkpt>
      <trkpt lat="43.93939" lon="0.56053">
        <ele>181.2</ele>
        <time>2023-07-04T13:18:02Z</time>
      </trkpt>
      <trkpt lat="43.93937" lon="0.56064">
        <ele>181.4</ele>
        <time>2023-07-04T13:18:08Z</time>
      </trkpt>
      <trkpt lat="43.9393" lon="0.56084">
        <ele>181.4</ele>
        <time>2023-07-04T13:18:18Z</time>
      </trkpt>
      <trkpt lat="43.93926" lon="0.56106">
        <ele>181</ele>
        <time>2023-07-04T13:18:30Z</time>
      </trkpt>
      <trkpt lat="43.93921" lon="0.56127">
        <ele>181.2</ele>
        <time>2023-07-04T13:18:42Z</time>
      </trkpt>
      <trkpt lat="43.93917" lon="0.56144">
        <ele>181.6</ele>
        <time>2023-07-04T13:18:50Z</time>
      </trkpt>
      <trkpt lat="43.93913" lon="0.56155">
        <ele>181.2</ele>
        <time>2023-07-04T13:18:58Z</time>
      </trkpt>
      <trkpt lat="43.93912" lon="0.56156">
        <ele>181.2</ele>
        <time>2023-07-04T13:18:59Z</time>
      </trkpt>
      <trkpt lat="43.93906" lon="0.56172">
        <ele>181.2</ele>
        <time>2023-07-04T13:19:08Z</time>
      </trkpt>
      <trkpt lat="43.93906" lon="0.56177">
        <ele>181.2</ele>
        <time>2023-07-04T13:19:11Z</time>
      </trkpt>
      <trkpt lat="43.93903" lon="0.56186">
        <ele>180.8</ele>
        <time>2023-07-04T13:19:17Z</time>
      </trkpt>
      <trkpt lat="43.939" lon="0.56193">
        <ele>180.6</ele>
        <time>2023-07-04T13:19:22Z</time>
      </trkpt>
      <trkpt lat="43.939" lon="0.56195">
        <ele>180.6</ele>
        <time>2023-07-04T13:19:23Z</time>
      </trkpt>
      <trkpt lat="43.93899" lon="0.56198">
        <ele>180.6</ele>
        <time>2023-07-04T13:19:25Z</time>
      </trkpt>
      <trkpt lat="43.93898" lon="0.56199">
        <ele>180.6</ele>
        <time>2023-07-04T13:19:26Z</time>
      </trkpt>
      <trkpt lat="43.93896" lon="0.56202">
        <ele>180.4</ele>
        <time>2023-07-04T13:19:28Z</time>
      </trkpt>
      <trkpt lat="43.93895" lon="0.56205">
        <ele>180.2</ele>
        <time>2023-07-04T13:19:30Z</time>
      </trkpt>
      <trkpt lat="43.93893" lon="0.56208">
        <ele>180.2</ele>
        <time>2023-07-04T13:19:32Z</time>
      </trkpt>
      <trkpt lat="43.9389" lon="0.56221">
        <ele>180.2</ele>
        <time>2023-07-04T13:19:40Z</time>
      </trkpt>
      <trkpt lat="43.93886" lon="0.56234">
        <ele>179.8</ele>
        <time>2023-07-04T13:19:48Z</time>
      </trkpt>
      <trkpt lat="43.9388" lon="0.56251">
        <ele>179.4</ele>
        <time>2023-07-04T13:19:57Z</time>
      </trkpt>
      <trkpt lat="43.9388" lon="0.56255">
        <ele>179.2</ele>
        <time>2023-07-04T13:20:00Z</time>
      </trkpt>
      <trkpt lat="43.93878" lon="0.56263">
        <ele>178.8</ele>
        <time>2023-07-04T13:20:05Z</time>
      </trkpt>
      <trkpt lat="43.93874" lon="0.56277">
        <ele>178.2</ele>
        <time>2023-07-04T13:20:13Z</time>
      </trkpt>
      <trkpt lat="43.93874" lon="0.56279">
        <ele>178.2</ele>
        <time>2023-07-04T13:20:14Z</time>
      </trkpt>
      <trkpt lat="43.93869" lon="0.56294">
        <ele>177.2</ele>
        <time>2023-07-04T13:20:22Z</time>
      </trkpt>
      <trkpt lat="43.93864" lon="0.56305">
        <ele>176.2</ele>
        <time>2023-07-04T13:20:28Z</time>
      </trkpt>
      <trkpt lat="43.93864" lon="0.56307">
        <ele>176</ele>
        <time>2023-07-04T13:20:29Z</time>
      </trkpt>
      <trkpt lat="43.93863" lon="0.56311">
        <ele>175.6</ele>
        <time>2023-07-04T13:20:31Z</time>
      </trkpt>
      <trkpt lat="43.93861" lon="0.56314">
        <ele>175</ele>
        <time>2023-07-04T13:20:33Z</time>
      </trkpt>
      <trkpt lat="43.93861" lon="0.56321">
        <ele>174.2</ele>
        <time>2023-07-04T13:20:37Z</time>
      </trkpt>
      <trkpt lat="43.93861" lon="0.56322">
        <ele>174.2</ele>
        <time>2023-07-04T13:20:38Z</time>
      </trkpt>
      <trkpt lat="43.9386" lon="0.56325">
        <ele>173.8</ele>
        <time>2023-07-04T13:20:40Z</time>
      </trkpt>
      <trkpt lat="43.93856" lon="0.56333">
        <ele>172.8</ele>
        <time>2023-07-04T13:20:45Z</time>
      </trkpt>
      <trkpt lat="43.93856" lon="0.56335">
        <ele>172.6</ele>
        <time>2023-07-04T13:20:46Z</time>
      </trkpt>
      <trkpt lat="43.93854" lon="0.5634">
        <ele>172.4</ele>
        <time>2023-07-04T13:20:49Z</time>
      </trkpt>
      <trkpt lat="43.93851" lon="0.56347">
        <ele>172.2</ele>
        <time>2023-07-04T13:20:53Z</time>
      </trkpt>
      <trkpt lat="43.93848" lon="0.56352">
        <ele>171.6</ele>
        <time>2023-07-04T13:20:57Z</time>
      </trkpt>
      <trkpt lat="43.93846" lon="0.56359">
        <ele>171.2</ele>
        <time>2023-07-04T13:21:01Z</time>
      </trkpt>
      <trkpt lat="43.93845" lon="0.56366">
        <ele>170.4</ele>
        <time>2023-07-04T13:21:04Z</time>
      </trkpt>
      <trkpt lat="43.93843" lon="0.56371">
        <ele>170</ele>
        <time>2023-07-04T13:21:07Z</time>
      </trkpt>
      <trkpt lat="43.93837" lon="0.56384">
        <ele>169.4</ele>
        <time>2023-07-04T13:21:15Z</time>
      </trkpt>
      <trkpt lat="43.93833" lon="0.56397">
        <ele>168.8</ele>
        <time>2023-07-04T13:21:21Z</time>
      </trkpt>
      <trkpt lat="43.93828" lon="0.56406">
        <ele>168.4</ele>
        <time>2023-07-04T13:21:27Z</time>
      </trkpt>
      <trkpt lat="43.93828" lon="0.56407">
        <ele>168.4</ele>
        <time>2023-07-04T13:21:28Z</time>
      </trkpt>
      <trkpt lat="43.93827" lon="0.56407">
        <ele>168.4</ele>
        <time>2023-07-04T13:21:29Z</time>
      </trkpt>
      <trkpt lat="43.93826" lon="0.56409">
        <ele>168.2</ele>
        <time>2023-07-04T13:21:30Z</time>
      </trkpt>
      <trkpt lat="43.93825" lon="0.56411">
        <ele>168.2</ele>
        <time>2023-07-04T13:21:31Z</time>
      </trkpt>
      <trkpt lat="43.93823" lon="0.56414">
        <ele>168</ele>
        <time>2023-07-04T13:21:33Z</time>
      </trkpt>
      <trkpt lat="43.93822" lon="0.56417">
        <ele>168</ele>
        <time>2023-07-04T13:21:35Z</time>
      </trkpt>
      <trkpt lat="43.93821" lon="0.56419">
        <ele>168</ele>
        <time>2023-07-04T13:21:38Z</time>
      </trkpt>
      <trkpt lat="43.93821" lon="0.5642">
        <ele>168</ele>
        <time>2023-07-04T13:21:39Z</time>
      </trkpt>
      <trkpt lat="43.9382" lon="0.56423">
        <ele>167.8</ele>
        <time>2023-07-04T13:21:41Z</time>
      </trkpt>
      <trkpt lat="43.93818" lon="0.56427">
        <ele>167.8</ele>
        <time>2023-07-04T13:21:43Z</time>
      </trkpt>
      <trkpt lat="43.93814" lon="0.56436">
        <ele>167.4</ele>
        <time>2023-07-04T13:21:47Z</time>
      </trkpt>
      <trkpt lat="43.93813" lon="0.56438">
        <ele>167.4</ele>
        <time>2023-07-04T13:21:48Z</time>
      </trkpt>
      <trkpt lat="43.9381" lon="0.56445">
        <ele>167.2</ele>
        <time>2023-07-04T13:21:52Z</time>
      </trkpt>
      <trkpt lat="43.93806" lon="0.5645">
        <ele>167.2</ele>
        <time>2023-07-04T13:21:55Z</time>
      </trkpt>
      <trkpt lat="43.938" lon="0.56464">
        <ele>166.6</ele>
        <time>2023-07-04T13:22:02Z</time>
      </trkpt>
      <trkpt lat="43.93791" lon="0.56483">
        <ele>166.4</ele>
        <time>2023-07-04T13:22:12Z</time>
      </trkpt>
      <trkpt lat="43.93789" lon="0.56488">
        <ele>166</ele>
        <time>2023-07-04T13:22:15Z</time>
      </trkpt>
      <trkpt lat="43.93788" lon="0.5649">
        <ele>166</ele>
        <time>2023-07-04T13:22:16Z</time>
      </trkpt>
      <trkpt lat="43.93786" lon="0.56497">
        <ele>166</ele>
        <time>2023-07-04T13:22:20Z</time>
      </trkpt>
      <trkpt lat="43.93785" lon="0.56503">
        <ele>166</ele>
        <time>2023-07-04T13:22:23Z</time>
      </trkpt>
      <trkpt lat="43.93785" lon="0.56514">
        <ele>166</ele>
        <time>2023-07-04T13:22:28Z</time>
      </trkpt>
      <trkpt lat="43.93785" lon="0.56518">
        <ele>166.4</ele>
        <time>2023-07-04T13:22:30Z</time>
      </trkpt>
      <trkpt lat="43.93785" lon="0.56532">
        <ele>166.8</ele>
        <time>2023-07-04T13:22:37Z</time>
      </trkpt>
      <trkpt lat="43.93785" lon="0.56544">
        <ele>167.4</ele>
        <time>2023-07-04T13:22:43Z</time>
      </trkpt>
      <trkpt lat="43.93786" lon="0.56549">
        <ele>167.8</ele>
        <time>2023-07-04T13:22:46Z</time>
      </trkpt>
      <trkpt lat="43.9379" lon="0.56556">
        <ele>167.8</ele>
        <time>2023-07-04T13:22:50Z</time>
      </trkpt>
      <trkpt lat="43.9379" lon="0.56558">
        <ele>168</ele>
        <time>2023-07-04T13:22:51Z</time>
      </trkpt>
      <trkpt lat="43.9379" lon="0.56562">
        <ele>168.4</ele>
        <time>2023-07-04T13:22:53Z</time>
      </trkpt>
      <trkpt lat="43.9379" lon="0.56563">
        <ele>168.4</ele>
        <time>2023-07-04T13:22:54Z</time>
      </trkpt>
      <trkpt lat="43.93789" lon="0.56574">
        <ele>169</ele>
        <time>2023-07-04T13:23:01Z</time>
      </trkpt>
      <trkpt lat="43.93788" lon="0.5658">
        <ele>169.6</ele>
        <time>2023-07-04T13:23:06Z</time>
      </trkpt>
      <trkpt lat="43.93788" lon="0.56583">
        <ele>170</ele>
        <time>2023-07-04T13:23:08Z</time>
      </trkpt>
      <trkpt lat="43.93786" lon="0.5659">
        <ele>170.8</ele>
        <time>2023-07-04T13:23:13Z</time>
      </trkpt>
      <trkpt lat="43.93786" lon="0.56592">
        <ele>171</ele>
        <time>2023-07-04T13:23:14Z</time>
      </trkpt>
      <trkpt lat="43.93784" lon="0.56597">
        <ele>171.8</ele>
        <time>2023-07-04T13:23:17Z</time>
      </trkpt>
      <trkpt lat="43.93784" lon="0.566">
        <ele>172</ele>
        <time>2023-07-04T13:23:19Z</time>
      </trkpt>
      <trkpt lat="43.93784" lon="0.56604">
        <ele>172.2</ele>
        <time>2023-07-04T13:23:21Z</time>
      </trkpt>
      <trkpt lat="43.93781" lon="0.56616">
        <ele>172.8</ele>
        <time>2023-07-04T13:23:28Z</time>
      </trkpt>
      <trkpt lat="43.93781" lon="0.56621">
        <ele>173.6</ele>
        <time>2023-07-04T13:23:31Z</time>
      </trkpt>
      <trkpt lat="43.93781" lon="0.5663">
        <ele>174</ele>
        <time>2023-07-04T13:23:35Z</time>
      </trkpt>
      <trkpt lat="43.93783" lon="0.56632">
        <ele>174.2</ele>
        <time>2023-07-04T13:23:36Z</time>
      </trkpt>
      <trkpt lat="43.93782" lon="0.5665">
        <ele>174.6</ele>
        <time>2023-07-04T13:23:46Z</time>
      </trkpt>
      <trkpt lat="43.93782" lon="0.56661">
        <ele>175</ele>
        <time>2023-07-04T13:23:52Z</time>
      </trkpt>
      <trkpt lat="43.93783" lon="0.5667">
        <ele>175.6</ele>
        <time>2023-07-04T13:23:57Z</time>
      </trkpt>
      <trkpt lat="43.93784" lon="0.56691">
        <ele>176</ele>
        <time>2023-07-04T13:24:09Z</time>
      </trkpt>
      <trkpt lat="43.93785" lon="0.56697">
        <ele>176.2</ele>
        <time>2023-07-04T13:24:12Z</time>
      </trkpt>
      <trkpt lat="43.93785" lon="0.56699">
        <ele>176.2</ele>
        <time>2023-07-04T13:24:13Z</time>
      </trkpt>
      <trkpt lat="43.93785" lon="0.56707">
        <ele>176.2</ele>
        <time>2023-07-04T13:24:17Z</time>
      </trkpt>
      <trkpt lat="43.93786" lon="0.56728">
        <ele>176.8</ele>
        <time>2023-07-04T13:24:28Z</time>
      </trkpt>
      <trkpt lat="43.93787" lon="0.56735">
        <ele>177</ele>
        <time>2023-07-04T13:24:32Z</time>
      </trkpt>
      <trkpt lat="43.93788" lon="0.56744">
        <ele>177.2</ele>
        <time>2023-07-04T13:24:37Z</time>
      </trkpt>
      <trkpt lat="43.93787" lon="0.56758">
        <ele>178.2</ele>
        <time>2023-07-04T13:24:45Z</time>
      </trkpt>
      <trkpt lat="43.93787" lon="0.56764">
        <ele>178.4</ele>
        <time>2023-07-04T13:24:48Z</time>
      </trkpt>
      <trkpt lat="43.93786" lon="0.56769">
        <ele>178.4</ele>
        <time>2023-07-04T13:24:51Z</time>
      </trkpt>
      <trkpt lat="43.93784" lon="0.56775">
        <ele>179.2</ele>
        <time>2023-07-04T13:24:55Z</time>
      </trkpt>
      <trkpt lat="43.93785" lon="0.56777">
        <ele>179.4</ele>
        <time>2023-07-04T13:24:56Z</time>
      </trkpt>
      <trkpt lat="43.93783" lon="0.5679">
        <ele>179.8</ele>
        <time>2023-07-04T13:25:03Z</time>
      </trkpt>
      <trkpt lat="43.93783" lon="0.56792">
        <ele>179.8</ele>
        <time>2023-07-04T13:25:04Z</time>
      </trkpt>
      <trkpt lat="43.93782" lon="0.56796">
        <ele>180.2</ele>
        <time>2023-07-04T13:25:06Z</time>
      </trkpt>
      <trkpt lat="43.9378" lon="0.568">
        <ele>180.6</ele>
        <time>2023-07-04T13:25:09Z</time>
      </trkpt>
      <trkpt lat="43.9378" lon="0.56801">
        <ele>180.8</ele>
        <time>2023-07-04T13:25:10Z</time>
      </trkpt>
      <trkpt lat="43.93779" lon="0.56803">
        <ele>180.8</ele>
        <time>2023-07-04T13:25:11Z</time>
      </trkpt>
      <trkpt lat="43.93778" lon="0.5681">
        <ele>181.2</ele>
        <time>2023-07-04T13:25:16Z</time>
      </trkpt>
      <trkpt lat="43.93776" lon="0.56817">
        <ele>181.8</ele>
        <time>2023-07-04T13:25:20Z</time>
      </trkpt>
      <trkpt lat="43.93773" lon="0.56826">
        <ele>182.4</ele>
        <time>2023-07-04T13:25:26Z</time>
      </trkpt>
      <trkpt lat="43.93772" lon="0.56828">
        <ele>182.4</ele>
        <time>2023-07-04T13:25:27Z</time>
      </trkpt>
      <trkpt lat="43.93772" lon="0.56829">
        <ele>182.6</ele>
        <time>2023-07-04T13:25:28Z</time>
      </trkpt>
      <trkpt lat="43.93769" lon="0.56837">
        <ele>183</ele>
        <time>2023-07-04T13:25:33Z</time>
      </trkpt>
      <trkpt lat="43.93769" lon="0.56838">
        <ele>183.4</ele>
        <time>2023-07-04T13:25:34Z</time>
      </trkpt>
      <trkpt lat="43.93766" lon="0.56845">
        <ele>184.2</ele>
        <time>2023-07-04T13:25:38Z</time>
      </trkpt>
      <trkpt lat="43.93764" lon="0.5685">
        <ele>184.2</ele>
        <time>2023-07-04T13:25:41Z</time>
      </trkpt>
      <trkpt lat="43.93763" lon="0.56856">
        <ele>184.2</ele>
        <time>2023-07-04T13:25:44Z</time>
      </trkpt>
      <trkpt lat="43.93762" lon="0.5686">
        <ele>184.4</ele>
        <time>2023-07-04T13:25:47Z</time>
      </trkpt>
      <trkpt lat="43.93761" lon="0.56861">
        <ele>184.4</ele>
        <time>2023-07-04T13:25:48Z</time>
      </trkpt>
      <trkpt lat="43.93756" lon="0.56875">
        <ele>185</ele>
        <time>2023-07-04T13:25:56Z</time>
      </trkpt>
      <trkpt lat="43.93756" lon="0.56879">
        <ele>185</ele>
        <time>2023-07-04T13:25:58Z</time>
      </trkpt>
      <trkpt lat="43.93754" lon="0.56884">
        <ele>185.2</ele>
        <time>2023-07-04T13:26:01Z</time>
      </trkpt>
      <trkpt lat="43.93754" lon="0.56885">
        <ele>185.2</ele>
        <time>2023-07-04T13:26:02Z</time>
      </trkpt>
      <trkpt lat="43.93753" lon="0.56889">
        <ele>185.2</ele>
        <time>2023-07-04T13:26:04Z</time>
      </trkpt>
      <trkpt lat="43.93753" lon="0.56892">
        <ele>185.2</ele>
        <time>2023-07-04T13:26:06Z</time>
      </trkpt>
      <trkpt lat="43.9375" lon="0.56898">
        <ele>185.6</ele>
        <time>2023-07-04T13:26:10Z</time>
      </trkpt>
      <trkpt lat="43.93747" lon="0.5691">
        <ele>185.8</ele>
        <time>2023-07-04T13:26:17Z</time>
      </trkpt>
      <trkpt lat="43.93744" lon="0.5693">
        <ele>186.2</ele>
        <time>2023-07-04T13:26:28Z</time>
      </trkpt>
      <trkpt lat="43.9374" lon="0.56938">
        <ele>186</ele>
        <time>2023-07-04T13:26:33Z</time>
      </trkpt>
      <trkpt lat="43.9374" lon="0.5694">
        <ele>186</ele>
        <time>2023-07-04T13:26:34Z</time>
      </trkpt>
      <trkpt lat="43.93732" lon="0.56957">
        <ele>186.2</ele>
        <time>2023-07-04T13:26:44Z</time>
      </trkpt>
      <trkpt lat="43.93732" lon="0.56959">
        <ele>186.4</ele>
        <time>2023-07-04T13:26:45Z</time>
      </trkpt>
      <trkpt lat="43.93725" lon="0.56976">
        <ele>186</ele>
        <time>2023-07-04T13:26:55Z</time>
      </trkpt>
      <trkpt lat="43.93722" lon="0.56992">
        <ele>186</ele>
        <time>2023-07-04T13:27:04Z</time>
      </trkpt>
      <trkpt lat="43.93716" lon="0.57005">
        <ele>186.2</ele>
        <time>2023-07-04T13:27:12Z</time>
      </trkpt>
      <trkpt lat="43.93714" lon="0.57014">
        <ele>186</ele>
        <time>2023-07-04T13:27:17Z</time>
      </trkpt>
      <trkpt lat="43.93711" lon="0.57028">
        <ele>186.4</ele>
        <time>2023-07-04T13:27:25Z</time>
      </trkpt>
      <trkpt lat="43.9371" lon="0.5703">
        <ele>186.2</ele>
        <time>2023-07-04T13:27:26Z</time>
      </trkpt>
      <trkpt lat="43.93709" lon="0.57034">
        <ele>186.2</ele>
        <time>2023-07-04T13:27:28Z</time>
      </trkpt>
      <trkpt lat="43.93704" lon="0.57042">
        <ele>186.2</ele>
        <time>2023-07-04T13:27:33Z</time>
      </trkpt>
      <trkpt lat="43.93703" lon="0.57043">
        <ele>186.2</ele>
        <time>2023-07-04T13:27:34Z</time>
      </trkpt>
      <trkpt lat="43.93703" lon="0.57045">
        <ele>186.2</ele>
        <time>2023-07-04T13:27:35Z</time>
      </trkpt>
      <trkpt lat="43.93702" lon="0.57047">
        <ele>186.2</ele>
        <time>2023-07-04T13:27:36Z</time>
      </trkpt>
      <trkpt lat="43.93701" lon="0.57052">
        <ele>186.2</ele>
        <time>2023-07-04T13:27:39Z</time>
      </trkpt>
      <trkpt lat="43.937" lon="0.57055">
        <ele>186.2</ele>
        <time>2023-07-04T13:27:41Z</time>
      </trkpt>
      <trkpt lat="43.93695" lon="0.57065">
        <ele>186.2</ele>
        <time>2023-07-04T13:27:48Z</time>
      </trkpt>
      <trkpt lat="43.93694" lon="0.57067">
        <ele>186.2</ele>
        <time>2023-07-04T13:27:49Z</time>
      </trkpt>
      <trkpt lat="43.9369" lon="0.57076">
        <ele>186.2</ele>
        <time>2023-07-04T13:27:54Z</time>
      </trkpt>
      <trkpt lat="43.93685" lon="0.57088">
        <ele>186.6</ele>
        <time>2023-07-04T13:28:01Z</time>
      </trkpt>
      <trkpt lat="43.93685" lon="0.5709">
        <ele>186.8</ele>
        <time>2023-07-04T13:28:02Z</time>
      </trkpt>
      <trkpt lat="43.93682" lon="0.57098">
        <ele>186.8</ele>
        <time>2023-07-04T13:28:06Z</time>
      </trkpt>
      <trkpt lat="43.93679" lon="0.57104">
        <ele>187</ele>
        <time>2023-07-04T13:28:10Z</time>
      </trkpt>
      <trkpt lat="43.93677" lon="0.57109">
        <ele>187.2</ele>
        <time>2023-07-04T13:28:13Z</time>
      </trkpt>
      <trkpt lat="43.93677" lon="0.5711">
        <ele>187.2</ele>
        <time>2023-07-04T13:28:14Z</time>
      </trkpt>
      <trkpt lat="43.93676" lon="0.57114">
        <ele>187.2</ele>
        <time>2023-07-04T13:28:16Z</time>
      </trkpt>
      <trkpt lat="43.93673" lon="0.57124">
        <ele>187.4</ele>
        <time>2023-07-04T13:28:22Z</time>
      </trkpt>
      <trkpt lat="43.93672" lon="0.57127">
        <ele>187.6</ele>
        <time>2023-07-04T13:28:24Z</time>
      </trkpt>
      <trkpt lat="43.93669" lon="0.57136">
        <ele>187.4</ele>
        <time>2023-07-04T13:28:29Z</time>
      </trkpt>
      <trkpt lat="43.93664" lon="0.57146">
        <ele>187.6</ele>
        <time>2023-07-04T13:28:35Z</time>
      </trkpt>
      <trkpt lat="43.93662" lon="0.57151">
        <ele>187.6</ele>
        <time>2023-07-04T13:28:38Z</time>
      </trkpt>
      <trkpt lat="43.93656" lon="0.57166">
        <ele>187.8</ele>
        <time>2023-07-04T13:28:47Z</time>
      </trkpt>
      <trkpt lat="43.93655" lon="0.57167">
        <ele>187.8</ele>
        <time>2023-07-04T13:28:48Z</time>
      </trkpt>
      <trkpt lat="43.93655" lon="0.57169">
        <ele>187.6</ele>
        <time>2023-07-04T13:28:49Z</time>
      </trkpt>
      <trkpt lat="43.93651" lon="0.57187">
        <ele>187.2</ele>
        <time>2023-07-04T13:28:59Z</time>
      </trkpt>
      <trkpt lat="43.93648" lon="0.57198">
        <ele>186.8</ele>
        <time>2023-07-04T13:29:05Z</time>
      </trkpt>
      <trkpt lat="43.93647" lon="0.572">
        <ele>186.8</ele>
        <time>2023-07-04T13:29:06Z</time>
      </trkpt>
      <trkpt lat="43.93646" lon="0.57201">
        <ele>186.6</ele>
        <time>2023-07-04T13:29:07Z</time>
      </trkpt>
      <trkpt lat="43.93638" lon="0.57217">
        <ele>186.4</ele>
        <time>2023-07-04T13:29:17Z</time>
      </trkpt>
      <trkpt lat="43.93632" lon="0.57227">
        <ele>185.6</ele>
        <time>2023-07-04T13:29:24Z</time>
      </trkpt>
      <trkpt lat="43.93631" lon="0.5723">
        <ele>185.4</ele>
        <time>2023-07-04T13:29:26Z</time>
      </trkpt>
      <trkpt lat="43.93624" lon="0.57242">
        <ele>185.2</ele>
        <time>2023-07-04T13:29:34Z</time>
      </trkpt>
      <trkpt lat="43.93621" lon="0.57246">
        <ele>185.2</ele>
        <time>2023-07-04T13:29:37Z</time>
      </trkpt>
      <trkpt lat="43.93614" lon="0.57254">
        <ele>185</ele>
        <time>2023-07-04T13:29:43Z</time>
      </trkpt>
      <trkpt lat="43.93605" lon="0.57264">
        <ele>184.8</ele>
        <time>2023-07-04T13:29:51Z</time>
      </trkpt>
      <trkpt lat="43.93604" lon="0.57265">
        <ele>184.8</ele>
        <time>2023-07-04T13:29:52Z</time>
      </trkpt>
      <trkpt lat="43.93598" lon="0.5727">
        <ele>184.6</ele>
        <time>2023-07-04T13:29:58Z</time>
      </trkpt>
      <trkpt lat="43.93595" lon="0.57272">
        <ele>184.6</ele>
        <time>2023-07-04T13:30:00Z</time>
      </trkpt>
      <trkpt lat="43.93593" lon="0.57274">
        <ele>184.6</ele>
        <time>2023-07-04T13:30:02Z</time>
      </trkpt>
      <trkpt lat="43.93586" lon="0.5728">
        <ele>184.6</ele>
        <time>2023-07-04T13:30:08Z</time>
      </trkpt>
      <trkpt lat="43.93585" lon="0.57281">
        <ele>184.6</ele>
        <time>2023-07-04T13:30:09Z</time>
      </trkpt>
      <trkpt lat="43.93575" lon="0.57289">
        <ele>184.2</ele>
        <time>2023-07-04T13:30:17Z</time>
      </trkpt>
      <trkpt lat="43.93565" lon="0.57296">
        <ele>184.4</ele>
        <time>2023-07-04T13:30:25Z</time>
      </trkpt>
      <trkpt lat="43.93548" lon="0.57301">
        <ele>184.4</ele>
        <time>2023-07-04T13:30:37Z</time>
      </trkpt>
      <trkpt lat="43.93537" lon="0.57304">
        <ele>184.2</ele>
        <time>2023-07-04T13:30:46Z</time>
      </trkpt>
      <trkpt lat="43.9353" lon="0.57308">
        <ele>183.6</ele>
        <time>2023-07-04T13:30:51Z</time>
      </trkpt>
      <trkpt lat="43.93529" lon="0.57309">
        <ele>183.6</ele>
        <time>2023-07-04T13:30:52Z</time>
      </trkpt>
      <trkpt lat="43.93526" lon="0.57312">
        <ele>183.2</ele>
        <time>2023-07-04T13:30:55Z</time>
      </trkpt>
      <trkpt lat="43.93525" lon="0.57313">
        <ele>183.2</ele>
        <time>2023-07-04T13:30:56Z</time>
      </trkpt>
      <trkpt lat="43.93519" lon="0.57323">
        <ele>183</ele>
        <time>2023-07-04T13:31:03Z</time>
      </trkpt>
      <trkpt lat="43.93516" lon="0.57329">
        <ele>183.2</ele>
        <time>2023-07-04T13:31:07Z</time>
      </trkpt>
      <trkpt lat="43.93512" lon="0.57335">
        <ele>182.8</ele>
        <time>2023-07-04T13:31:12Z</time>
      </trkpt>
      <trkpt lat="43.9351" lon="0.5734">
        <ele>182.6</ele>
        <time>2023-07-04T13:31:16Z</time>
      </trkpt>
      <trkpt lat="43.93509" lon="0.57342">
        <ele>182.6</ele>
        <time>2023-07-04T13:31:17Z</time>
      </trkpt>
      <trkpt lat="43.93508" lon="0.57344">
        <ele>182.6</ele>
        <time>2023-07-04T13:31:19Z</time>
      </trkpt>
      <trkpt lat="43.93507" lon="0.57346">
        <ele>182.6</ele>
        <time>2023-07-04T13:31:20Z</time>
      </trkpt>
      <trkpt lat="43.93502" lon="0.5736">
        <ele>182.2</ele>
        <time>2023-07-04T13:31:28Z</time>
      </trkpt>
      <trkpt lat="43.93498" lon="0.57369">
        <ele>182.2</ele>
        <time>2023-07-04T13:31:33Z</time>
      </trkpt>
      <trkpt lat="43.93495" lon="0.57373">
        <ele>182</ele>
        <time>2023-07-04T13:31:36Z</time>
      </trkpt>
      <trkpt lat="43.9349" lon="0.57382">
        <ele>182</ele>
        <time>2023-07-04T13:31:42Z</time>
      </trkpt>
      <trkpt lat="43.93488" lon="0.57389">
        <ele>181.8</ele>
        <time>2023-07-04T13:31:46Z</time>
      </trkpt>
      <trkpt lat="43.93484" lon="0.57399">
        <ele>181.6</ele>
        <time>2023-07-04T13:31:53Z</time>
      </trkpt>
      <trkpt lat="43.93484" lon="0.574">
        <ele>181.4</ele>
        <time>2023-07-04T13:31:54Z</time>
      </trkpt>
      <trkpt lat="43.93479" lon="0.57411">
        <ele>181.6</ele>
        <time>2023-07-04T13:32:01Z</time>
      </trkpt>
      <trkpt lat="43.93474" lon="0.57421">
        <ele>181.2</ele>
        <time>2023-07-04T13:32:08Z</time>
      </trkpt>
      <trkpt lat="43.93468" lon="0.57435">
        <ele>181.2</ele>
        <time>2023-07-04T13:32:16Z</time>
      </trkpt>
      <trkpt lat="43.93465" lon="0.57442">
        <ele>181.2</ele>
        <time>2023-07-04T13:32:21Z</time>
      </trkpt>
      <trkpt lat="43.93465" lon="0.57445">
        <ele>181</ele>
        <time>2023-07-04T13:32:23Z</time>
      </trkpt>
      <trkpt lat="43.93464" lon="0.57446">
        <ele>181</ele>
        <time>2023-07-04T13:32:24Z</time>
      </trkpt>
      <trkpt lat="43.93459" lon="0.57459">
        <ele>180.8</ele>
        <time>2023-07-04T13:32:32Z</time>
      </trkpt>
      <trkpt lat="43.93457" lon="0.5747">
        <ele>180.8</ele>
        <time>2023-07-04T13:32:38Z</time>
      </trkpt>
      <trkpt lat="43.93455" lon="0.57474">
        <ele>180.2</ele>
        <time>2023-07-04T13:32:41Z</time>
      </trkpt>
      <trkpt lat="43.93453" lon="0.57479">
        <ele>180</ele>
        <time>2023-07-04T13:32:44Z</time>
      </trkpt>
      <trkpt lat="43.93446" lon="0.57496">
        <ele>179.6</ele>
        <time>2023-07-04T13:32:52Z</time>
      </trkpt>
      <trkpt lat="43.93445" lon="0.57501">
        <ele>179.2</ele>
        <time>2023-07-04T13:32:55Z</time>
      </trkpt>
      <trkpt lat="43.93444" lon="0.57508">
        <ele>179</ele>
        <time>2023-07-04T13:32:59Z</time>
      </trkpt>
      <trkpt lat="43.93443" lon="0.57515">
        <ele>178.8</ele>
        <time>2023-07-04T13:33:03Z</time>
      </trkpt>
      <trkpt lat="43.93443" lon="0.57518">
        <ele>178.6</ele>
        <time>2023-07-04T13:33:05Z</time>
      </trkpt>
      <trkpt lat="43.93443" lon="0.5752">
        <ele>178.6</ele>
        <time>2023-07-04T13:33:06Z</time>
      </trkpt>
      <trkpt lat="43.93443" lon="0.57523">
        <ele>178.4</ele>
        <time>2023-07-04T13:33:07Z</time>
      </trkpt>
      <trkpt lat="43.93441" lon="0.57531">
        <ele>178.2</ele>
        <time>2023-07-04T13:33:12Z</time>
      </trkpt>
      <trkpt lat="43.93438" lon="0.57534">
        <ele>177.8</ele>
        <time>2023-07-04T13:33:14Z</time>
      </trkpt>
      <trkpt lat="43.93436" lon="0.57539">
        <ele>177.4</ele>
        <time>2023-07-04T13:33:17Z</time>
      </trkpt>
      <trkpt lat="43.93435" lon="0.57542">
        <ele>177.2</ele>
        <time>2023-07-04T13:33:19Z</time>
      </trkpt>
      <trkpt lat="43.93434" lon="0.57545">
        <ele>177</ele>
        <time>2023-07-04T13:33:21Z</time>
      </trkpt>
      <trkpt lat="43.93432" lon="0.57548">
        <ele>177</ele>
        <time>2023-07-04T13:33:22Z</time>
      </trkpt>
      <trkpt lat="43.93429" lon="0.57567">
        <ele>176.2</ele>
        <time>2023-07-04T13:33:30Z</time>
      </trkpt>
      <trkpt lat="43.93427" lon="0.57573">
        <ele>176</ele>
        <time>2023-07-04T13:33:33Z</time>
      </trkpt>
      <trkpt lat="43.93425" lon="0.57581">
        <ele>176</ele>
        <time>2023-07-04T13:33:37Z</time>
      </trkpt>
      <trkpt lat="43.93424" lon="0.57583">
        <ele>176</ele>
        <time>2023-07-04T13:33:38Z</time>
      </trkpt>
      <trkpt lat="43.93424" lon="0.57585">
        <ele>176</ele>
        <time>2023-07-04T13:33:39Z</time>
      </trkpt>
      <trkpt lat="43.93423" lon="0.57589">
        <ele>175.8</ele>
        <time>2023-07-04T13:33:41Z</time>
      </trkpt>
      <trkpt lat="43.93418" lon="0.57599">
        <ele>175</ele>
        <time>2023-07-04T13:33:47Z</time>
      </trkpt>
      <trkpt lat="43.93418" lon="0.576">
        <ele>175</ele>
        <time>2023-07-04T13:33:48Z</time>
      </trkpt>
      <trkpt lat="43.93414" lon="0.57613">
        <ele>174.6</ele>
        <time>2023-07-04T13:33:55Z</time>
      </trkpt>
      <trkpt lat="43.9341" lon="0.57634">
        <ele>174</ele>
        <time>2023-07-04T13:34:06Z</time>
      </trkpt>
      <trkpt lat="43.93408" lon="0.57642">
        <ele>173.6</ele>
        <time>2023-07-04T13:34:11Z</time>
      </trkpt>
      <trkpt lat="43.93402" lon="0.57664">
        <ele>173</ele>
        <time>2023-07-04T13:34:23Z</time>
      </trkpt>
      <trkpt lat="43.934" lon="0.57669">
        <ele>172.8</ele>
        <time>2023-07-04T13:34:26Z</time>
      </trkpt>
      <trkpt lat="43.93398" lon="0.57681">
        <ele>172.8</ele>
        <time>2023-07-04T13:34:32Z</time>
      </trkpt>
      <trkpt lat="43.93397" lon="0.5769">
        <ele>172.4</ele>
        <time>2023-07-04T13:34:37Z</time>
      </trkpt>
      <trkpt lat="43.93396" lon="0.57696">
        <ele>172.2</ele>
        <time>2023-07-04T13:34:40Z</time>
      </trkpt>
      <trkpt lat="43.93395" lon="0.57701">
        <ele>172</ele>
        <time>2023-07-04T13:34:42Z</time>
      </trkpt>
      <trkpt lat="43.93395" lon="0.57703">
        <ele>171.8</ele>
        <time>2023-07-04T13:34:43Z</time>
      </trkpt>
      <trkpt lat="43.93392" lon="0.57718">
        <ele>171.6</ele>
        <time>2023-07-04T13:34:51Z</time>
      </trkpt>
      <trkpt lat="43.93401" lon="0.57733">
        <ele>171.6</ele>
        <time>2023-07-04T13:34:58Z</time>
      </trkpt>
      <trkpt lat="43.93399" lon="0.57746">
        <ele>171.2</ele>
        <time>2023-07-04T13:35:05Z</time>
      </trkpt>
      <trkpt lat="43.93402" lon="0.57759">
        <ele>171.2</ele>
        <time>2023-07-04T13:35:11Z</time>
      </trkpt>
      <trkpt lat="43.93402" lon="0.57763">
        <ele>171.2</ele>
        <time>2023-07-04T13:35:13Z</time>
      </trkpt>
      <trkpt lat="43.93401" lon="0.57769">
        <ele>170.8</ele>
        <time>2023-07-04T13:35:16Z</time>
      </trkpt>
      <trkpt lat="43.934" lon="0.57774">
        <ele>170.4</ele>
        <time>2023-07-04T13:35:19Z</time>
      </trkpt>
      <trkpt lat="43.93398" lon="0.57792">
        <ele>170.2</ele>
        <time>2023-07-04T13:35:28Z</time>
      </trkpt>
      <trkpt lat="43.93398" lon="0.57804">
        <ele>169.4</ele>
        <time>2023-07-04T13:35:34Z</time>
      </trkpt>
      <trkpt lat="43.93402" lon="0.57815">
        <ele>169.2</ele>
        <time>2023-07-04T13:35:39Z</time>
      </trkpt>
      <trkpt lat="43.934" lon="0.5783">
        <ele>169.2</ele>
        <time>2023-07-04T13:35:47Z</time>
      </trkpt>
      <trkpt lat="43.934" lon="0.57832">
        <ele>169.2</ele>
        <time>2023-07-04T13:35:48Z</time>
      </trkpt>
      <trkpt lat="43.93401" lon="0.57853">
        <ele>168.6</ele>
        <time>2023-07-04T13:35:58Z</time>
      </trkpt>
      <trkpt lat="43.934" lon="0.57869">
        <ele>168.6</ele>
        <time>2023-07-04T13:36:06Z</time>
      </trkpt>
      <trkpt lat="43.93401" lon="0.57871">
        <ele>168.4</ele>
        <time>2023-07-04T13:36:07Z</time>
      </trkpt>
      <trkpt lat="43.93401" lon="0.57887">
        <ele>168</ele>
        <time>2023-07-04T13:36:15Z</time>
      </trkpt>
      <trkpt lat="43.93404" lon="0.57904">
        <ele>167.4</ele>
        <time>2023-07-04T13:36:23Z</time>
      </trkpt>
      <trkpt lat="43.93405" lon="0.57906">
        <ele>167.4</ele>
        <time>2023-07-04T13:36:24Z</time>
      </trkpt>
      <trkpt lat="43.93409" lon="0.57924">
        <ele>166.6</ele>
        <time>2023-07-04T13:36:32Z</time>
      </trkpt>
      <trkpt lat="43.93413" lon="0.57936">
        <ele>166.2</ele>
        <time>2023-07-04T13:36:37Z</time>
      </trkpt>
      <trkpt lat="43.93413" lon="0.57942">
        <ele>165.8</ele>
        <time>2023-07-04T13:36:40Z</time>
      </trkpt>
      <trkpt lat="43.93413" lon="0.57953">
        <ele>165.2</ele>
        <time>2023-07-04T13:36:46Z</time>
      </trkpt>
      <trkpt lat="43.93413" lon="0.57958">
        <ele>165</ele>
        <time>2023-07-04T13:36:49Z</time>
      </trkpt>
      <trkpt lat="43.9342" lon="0.57974">
        <ele>165</ele>
        <time>2023-07-04T13:36:56Z</time>
      </trkpt>
      <trkpt lat="43.93421" lon="0.5799">
        <ele>164.4</ele>
        <time>2023-07-04T13:37:04Z</time>
      </trkpt>
      <trkpt lat="43.93421" lon="0.57994">
        <ele>164.2</ele>
        <time>2023-07-04T13:37:06Z</time>
      </trkpt>
      <trkpt lat="43.9342" lon="0.58012">
        <ele>163.6</ele>
        <time>2023-07-04T13:37:15Z</time>
      </trkpt>
      <trkpt lat="43.93422" lon="0.58033">
        <ele>163</ele>
        <time>2023-07-04T13:37:26Z</time>
      </trkpt>
      <trkpt lat="43.93424" lon="0.58053">
        <ele>162.6</ele>
        <time>2023-07-04T13:37:36Z</time>
      </trkpt>
      <trkpt lat="43.93427" lon="0.58077">
        <ele>162.6</ele>
        <time>2023-07-04T13:37:48Z</time>
      </trkpt>
      <trkpt lat="43.93428" lon="0.58092">
        <ele>162.4</ele>
        <time>2023-07-04T13:37:56Z</time>
      </trkpt>
      <trkpt lat="43.93435" lon="0.58114">
        <ele>162.2</ele>
        <time>2023-07-04T13:38:06Z</time>
      </trkpt>
      <trkpt lat="43.93435" lon="0.58118">
        <ele>162</ele>
        <time>2023-07-04T13:38:08Z</time>
      </trkpt>
      <trkpt lat="43.93434" lon="0.58133">
        <ele>161.8</ele>
        <time>2023-07-04T13:38:16Z</time>
      </trkpt>
      <trkpt lat="43.93434" lon="0.58148">
        <ele>161.6</ele>
        <time>2023-07-04T13:38:24Z</time>
      </trkpt>
      <trkpt lat="43.93433" lon="0.58163">
        <ele>161.8</ele>
        <time>2023-07-04T13:38:32Z</time>
      </trkpt>
      <trkpt lat="43.93433" lon="0.58169">
        <ele>161.8</ele>
        <time>2023-07-04T13:38:35Z</time>
      </trkpt>
      <trkpt lat="43.93433" lon="0.58183">
        <ele>161.6</ele>
        <time>2023-07-04T13:38:42Z</time>
      </trkpt>
      <trkpt lat="43.93433" lon="0.58188">
        <ele>161.6</ele>
        <time>2023-07-04T13:38:45Z</time>
      </trkpt>
      <trkpt lat="43.93432" lon="0.58194">
        <ele>161.6</ele>
        <time>2023-07-04T13:38:48Z</time>
      </trkpt>
      <trkpt lat="43.93432" lon="0.58218">
        <ele>161.8</ele>
        <time>2023-07-04T13:39:01Z</time>
      </trkpt>
      <trkpt lat="43.93432" lon="0.58237">
        <ele>162.2</ele>
        <time>2023-07-04T13:39:11Z</time>
      </trkpt>
      <trkpt lat="43.93432" lon="0.58239">
        <ele>162.2</ele>
        <time>2023-07-04T13:39:12Z</time>
      </trkpt>
      <trkpt lat="43.93439" lon="0.58254">
        <ele>162</ele>
        <time>2023-07-04T13:39:19Z</time>
      </trkpt>
      <trkpt lat="43.9344" lon="0.58265">
        <ele>161.8</ele>
        <time>2023-07-04T13:39:25Z</time>
      </trkpt>
      <trkpt lat="43.9344" lon="0.58268">
        <ele>161.8</ele>
        <time>2023-07-04T13:39:26Z</time>
      </trkpt>
      <trkpt lat="43.93442" lon="0.58279">
        <ele>161.6</ele>
        <time>2023-07-04T13:39:31Z</time>
      </trkpt>
      <trkpt lat="43.93441" lon="0.58281">
        <ele>161.4</ele>
        <time>2023-07-04T13:39:32Z</time>
      </trkpt>
      <trkpt lat="43.93437" lon="0.58291">
        <ele>161.2</ele>
        <time>2023-07-04T13:39:38Z</time>
      </trkpt>
      <trkpt lat="43.93435" lon="0.58302">
        <ele>161.2</ele>
        <time>2023-07-04T13:39:45Z</time>
      </trkpt>
      <trkpt lat="43.93436" lon="0.58308">
        <ele>161.4</ele>
        <time>2023-07-04T13:39:49Z</time>
      </trkpt>
      <trkpt lat="43.93437" lon="0.58315">
        <ele>161.2</ele>
        <time>2023-07-04T13:39:53Z</time>
      </trkpt>
      <trkpt lat="43.93437" lon="0.58331">
        <ele>161</ele>
        <time>2023-07-04T13:40:01Z</time>
      </trkpt>
      <trkpt lat="43.93438" lon="0.58336">
        <ele>160.8</ele>
        <time>2023-07-04T13:40:03Z</time>
      </trkpt>
      <trkpt lat="43.93442" lon="0.58348">
        <ele>160.6</ele>
        <time>2023-07-04T13:40:09Z</time>
      </trkpt>
      <trkpt lat="43.93443" lon="0.58354">
        <ele>160.6</ele>
        <time>2023-07-04T13:40:12Z</time>
      </trkpt>
      <trkpt lat="43.93449" lon="0.5836">
        <ele>160.4</ele>
        <time>2023-07-04T13:40:15Z</time>
      </trkpt>
      <trkpt lat="43.9345" lon="0.58361">
        <ele>160.2</ele>
        <time>2023-07-04T13:40:16Z</time>
      </trkpt>
      <trkpt lat="43.93449" lon="0.5837">
        <ele>160</ele>
        <time>2023-07-04T13:40:20Z</time>
      </trkpt>
      <trkpt lat="43.93449" lon="0.58374">
        <ele>160</ele>
        <time>2023-07-04T13:40:22Z</time>
      </trkpt>
      <trkpt lat="43.9345" lon="0.58384">
        <ele>160</ele>
        <time>2023-07-04T13:40:28Z</time>
      </trkpt>
      <trkpt lat="43.9345" lon="0.58386">
        <ele>160.2</ele>
        <time>2023-07-04T13:40:29Z</time>
      </trkpt>
      <trkpt lat="43.93451" lon="0.58396">
        <ele>159.8</ele>
        <time>2023-07-04T13:40:35Z</time>
      </trkpt>
      <trkpt lat="43.93451" lon="0.58398">
        <ele>159.8</ele>
        <time>2023-07-04T13:40:36Z</time>
      </trkpt>
      <trkpt lat="43.9346" lon="0.58416">
        <ele>159.4</ele>
        <time>2023-07-04T13:40:45Z</time>
      </trkpt>
      <trkpt lat="43.93464" lon="0.58431">
        <ele>159</ele>
        <time>2023-07-04T13:40:54Z</time>
      </trkpt>
      <trkpt lat="43.93467" lon="0.58443">
        <ele>158.6</ele>
        <time>2023-07-04T13:41:00Z</time>
      </trkpt>
      <trkpt lat="43.93468" lon="0.58446">
        <ele>158.4</ele>
        <time>2023-07-04T13:41:02Z</time>
      </trkpt>
      <trkpt lat="43.93468" lon="0.58451">
        <ele>158.2</ele>
        <time>2023-07-04T13:41:05Z</time>
      </trkpt>
      <trkpt lat="43.93468" lon="0.58456">
        <ele>158</ele>
        <time>2023-07-04T13:41:08Z</time>
      </trkpt>
      <trkpt lat="43.9347" lon="0.58465">
        <ele>157.8</ele>
        <time>2023-07-04T13:41:13Z</time>
      </trkpt>
      <trkpt lat="43.93471" lon="0.58466">
        <ele>157.6</ele>
        <time>2023-07-04T13:41:14Z</time>
      </trkpt>
      <trkpt lat="43.93478" lon="0.5848">
        <ele>157.8</ele>
        <time>2023-07-04T13:41:20Z</time>
      </trkpt>
      <trkpt lat="43.93483" lon="0.58493">
        <ele>157.6</ele>
        <time>2023-07-04T13:41:27Z</time>
      </trkpt>
      <trkpt lat="43.93483" lon="0.58497">
        <ele>157.4</ele>
        <time>2023-07-04T13:41:29Z</time>
      </trkpt>
      <trkpt lat="43.93486" lon="0.58501">
        <ele>157.4</ele>
        <time>2023-07-04T13:41:31Z</time>
      </trkpt>
      <trkpt lat="43.9349" lon="0.58505">
        <ele>157.4</ele>
        <time>2023-07-04T13:41:33Z</time>
      </trkpt>
      <trkpt lat="43.9349" lon="0.58506">
        <ele>157.4</ele>
        <time>2023-07-04T13:41:34Z</time>
      </trkpt>
      <trkpt lat="43.9349" lon="0.58522">
        <ele>157.2</ele>
        <time>2023-07-04T13:41:42Z</time>
      </trkpt>
      <trkpt lat="43.93489" lon="0.58529">
        <ele>157.2</ele>
        <time>2023-07-04T13:41:46Z</time>
      </trkpt>
      <trkpt lat="43.93487" lon="0.58537">
        <ele>157</ele>
        <time>2023-07-04T13:41:51Z</time>
      </trkpt>
      <trkpt lat="43.93487" lon="0.58554">
        <ele>156.8</ele>
        <time>2023-07-04T13:42:00Z</time>
      </trkpt>
      <trkpt lat="43.9349" lon="0.58567">
        <ele>156.6</ele>
        <time>2023-07-04T13:42:06Z</time>
      </trkpt>
      <trkpt lat="43.93491" lon="0.58568">
        <ele>156.6</ele>
        <time>2023-07-04T13:42:07Z</time>
      </trkpt>
      <trkpt lat="43.93491" lon="0.58577">
        <ele>156.8</ele>
        <time>2023-07-04T13:42:13Z</time>
      </trkpt>
      <trkpt lat="43.9349" lon="0.58587">
        <ele>157</ele>
        <time>2023-07-04T13:42:19Z</time>
      </trkpt>
      <trkpt lat="43.93492" lon="0.58601">
        <ele>157</ele>
        <time>2023-07-04T13:42:28Z</time>
      </trkpt>
      <trkpt lat="43.93493" lon="0.58613">
        <ele>157.2</ele>
        <time>2023-07-04T13:42:34Z</time>
      </trkpt>
      <trkpt lat="43.93493" lon="0.58615">
        <ele>157</ele>
        <time>2023-07-04T13:42:35Z</time>
      </trkpt>
      <trkpt lat="43.93494" lon="0.58619">
        <ele>156.8</ele>
        <time>2023-07-04T13:42:37Z</time>
      </trkpt>
      <trkpt lat="43.93494" lon="0.58621">
        <ele>156.8</ele>
        <time>2023-07-04T13:42:38Z</time>
      </trkpt>
      <trkpt lat="43.93494" lon="0.58625">
        <ele>156.6</ele>
        <time>2023-07-04T13:42:40Z</time>
      </trkpt>
      <trkpt lat="43.93497" lon="0.58632">
        <ele>156.6</ele>
        <time>2023-07-04T13:42:43Z</time>
      </trkpt>
      <trkpt lat="43.935" lon="0.58635">
        <ele>156.6</ele>
        <time>2023-07-04T13:42:44Z</time>
      </trkpt>
      <trkpt lat="43.93511" lon="0.5865">
        <ele>156.2</ele>
        <time>2023-07-04T13:44:03Z</time>
      </trkpt>
      <trkpt lat="43.93511" lon="0.58652">
        <ele>156.2</ele>
        <time>2023-07-04T13:44:04Z</time>
      </trkpt>
      <trkpt lat="43.93511" lon="0.58654">
        <ele>156.2</ele>
        <time>2023-07-04T13:44:05Z</time>
      </trkpt>
      <trkpt lat="43.93511" lon="0.58658">
        <ele>156.4</ele>
        <time>2023-07-04T13:44:07Z</time>
      </trkpt>
      <trkpt lat="43.93511" lon="0.5866">
        <ele>156.4</ele>
        <time>2023-07-04T13:44:08Z</time>
      </trkpt>
      <trkpt lat="43.93511" lon="0.58668">
        <ele>156.2</ele>
        <time>2023-07-04T13:44:12Z</time>
      </trkpt>
      <trkpt lat="43.93512" lon="0.5867">
        <ele>156.2</ele>
        <time>2023-07-04T13:44:13Z</time>
      </trkpt>
      <trkpt lat="43.93511" lon="0.58678">
        <ele>156.2</ele>
        <time>2023-07-04T13:44:17Z</time>
      </trkpt>
      <trkpt lat="43.93511" lon="0.58682">
        <ele>156</ele>
        <time>2023-07-04T13:44:19Z</time>
      </trkpt>
      <trkpt lat="43.9351" lon="0.58684">
        <ele>155.8</ele>
        <time>2023-07-04T13:44:20Z</time>
      </trkpt>
      <trkpt lat="43.9351" lon="0.58686">
        <ele>155.6</ele>
        <time>2023-07-04T13:44:21Z</time>
      </trkpt>
      <trkpt lat="43.9351" lon="0.58688">
        <ele>155.4</ele>
        <time>2023-07-04T13:44:22Z</time>
      </trkpt>
      <trkpt lat="43.9351" lon="0.5869">
        <ele>155.2</ele>
        <time>2023-07-04T13:44:23Z</time>
      </trkpt>
      <trkpt lat="43.93511" lon="0.58698">
        <ele>154.8</ele>
        <time>2023-07-04T13:44:27Z</time>
      </trkpt>
      <trkpt lat="43.93513" lon="0.58705">
        <ele>154.4</ele>
        <time>2023-07-04T13:44:31Z</time>
      </trkpt>
      <trkpt lat="43.93513" lon="0.58709">
        <ele>154.4</ele>
        <time>2023-07-04T13:44:33Z</time>
      </trkpt>
      <trkpt lat="43.93513" lon="0.5872">
        <ele>153.8</ele>
        <time>2023-07-04T13:44:39Z</time>
      </trkpt>
      <trkpt lat="43.93513" lon="0.58722">
        <ele>153.8</ele>
        <time>2023-07-04T13:44:40Z</time>
      </trkpt>
      <trkpt lat="43.93513" lon="0.58724">
        <ele>153.8</ele>
        <time>2023-07-04T13:44:41Z</time>
      </trkpt>
      <trkpt lat="43.93513" lon="0.58728">
        <ele>153.6</ele>
        <time>2023-07-04T13:44:43Z</time>
      </trkpt>
      <trkpt lat="43.93513" lon="0.58732">
        <ele>153.2</ele>
        <time>2023-07-04T13:44:45Z</time>
      </trkpt>
      <trkpt lat="43.93513" lon="0.5874">
        <ele>152.6</ele>
        <time>2023-07-04T13:44:49Z</time>
      </trkpt>
      <trkpt lat="43.93515" lon="0.58755">
        <ele>152.6</ele>
        <time>2023-07-04T13:44:57Z</time>
      </trkpt>
      <trkpt lat="43.93515" lon="0.58757">
        <ele>152.2</ele>
        <time>2023-07-04T13:44:58Z</time>
      </trkpt>
      <trkpt lat="43.93515" lon="0.58768">
        <ele>151.6</ele>
        <time>2023-07-04T13:45:04Z</time>
      </trkpt>
      <trkpt lat="43.93515" lon="0.58776">
        <ele>151.4</ele>
        <time>2023-07-04T13:45:07Z</time>
      </trkpt>
      <trkpt lat="43.93515" lon="0.58781">
        <ele>151.2</ele>
        <time>2023-07-04T13:45:10Z</time>
      </trkpt>
      <trkpt lat="43.93515" lon="0.58783">
        <ele>151</ele>
        <time>2023-07-04T13:45:11Z</time>
      </trkpt>
      <trkpt lat="43.93516" lon="0.58792">
        <ele>150.8</ele>
        <time>2023-07-04T13:45:16Z</time>
      </trkpt>
      <trkpt lat="43.93515" lon="0.588">
        <ele>150.4</ele>
        <time>2023-07-04T13:45:21Z</time>
      </trkpt>
      <trkpt lat="43.93521" lon="0.5881">
        <ele>150.2</ele>
        <time>2023-07-04T13:45:26Z</time>
      </trkpt>
      <trkpt lat="43.9352" lon="0.58811">
        <ele>150</ele>
        <time>2023-07-04T13:45:27Z</time>
      </trkpt>
      <trkpt lat="43.93518" lon="0.58823">
        <ele>149.6</ele>
        <time>2023-07-04T13:45:35Z</time>
      </trkpt>
      <trkpt lat="43.93515" lon="0.58829">
        <ele>149.2</ele>
        <time>2023-07-04T13:45:39Z</time>
      </trkpt>
      <trkpt lat="43.93515" lon="0.58831">
        <ele>149</ele>
        <time>2023-07-04T13:45:40Z</time>
      </trkpt>
      <trkpt lat="43.93515" lon="0.58837">
        <ele>148.8</ele>
        <time>2023-07-04T13:45:43Z</time>
      </trkpt>
      <trkpt lat="43.93514" lon="0.5884">
        <ele>148.8</ele>
        <time>2023-07-04T13:45:45Z</time>
      </trkpt>
      <trkpt lat="43.93517" lon="0.58851">
        <ele>148.4</ele>
        <time>2023-07-04T13:45:51Z</time>
      </trkpt>
      <trkpt lat="43.93516" lon="0.58853">
        <ele>148.4</ele>
        <time>2023-07-04T13:45:52Z</time>
      </trkpt>
      <trkpt lat="43.93514" lon="0.58866">
        <ele>148.4</ele>
        <time>2023-07-04T13:46:00Z</time>
      </trkpt>
      <trkpt lat="43.93514" lon="0.58869">
        <ele>148.4</ele>
        <time>2023-07-04T13:46:02Z</time>
      </trkpt>
      <trkpt lat="43.93512" lon="0.58881">
        <ele>148.4</ele>
        <time>2023-07-04T13:46:09Z</time>
      </trkpt>
      <trkpt lat="43.9351" lon="0.58897">
        <ele>148.6</ele>
        <time>2023-07-04T13:46:18Z</time>
      </trkpt>
      <trkpt lat="43.93514" lon="0.5891">
        <ele>148.6</ele>
        <time>2023-07-04T13:46:25Z</time>
      </trkpt>
      <trkpt lat="43.93512" lon="0.58923">
        <ele>148.6</ele>
        <time>2023-07-04T13:46:33Z</time>
      </trkpt>
      <trkpt lat="43.93519" lon="0.58936">
        <ele>148.4</ele>
        <time>2023-07-04T13:46:40Z</time>
      </trkpt>
      <trkpt lat="43.93519" lon="0.58953">
        <ele>148.6</ele>
        <time>2023-07-04T13:46:48Z</time>
      </trkpt>
      <trkpt lat="43.93521" lon="0.58968">
        <ele>148.2</ele>
        <time>2023-07-04T13:46:56Z</time>
      </trkpt>
      <trkpt lat="43.9352" lon="0.58974">
        <ele>148</ele>
        <time>2023-07-04T13:46:59Z</time>
      </trkpt>
      <trkpt lat="43.93519" lon="0.58978">
        <ele>147.8</ele>
        <time>2023-07-04T13:47:00Z</time>
      </trkpt>
      <trkpt lat="43.93519" lon="0.58981">
        <ele>147.6</ele>
        <time>2023-07-04T13:47:03Z</time>
      </trkpt>
      <trkpt lat="43.93519" lon="0.58983">
        <ele>147.4</ele>
        <time>2023-07-04T13:47:04Z</time>
      </trkpt>
      <trkpt lat="43.93518" lon="0.58988">
        <ele>147.2</ele>
        <time>2023-07-04T13:47:07Z</time>
      </trkpt>
      <trkpt lat="43.93515" lon="0.58998">
        <ele>147</ele>
        <time>2023-07-04T13:47:12Z</time>
      </trkpt>
      <trkpt lat="43.93513" lon="0.59003">
        <ele>146.6</ele>
        <time>2023-07-04T13:47:15Z</time>
      </trkpt>
      <trkpt lat="43.93512" lon="0.59013">
        <ele>145.8</ele>
        <time>2023-07-04T13:47:20Z</time>
      </trkpt>
      <trkpt lat="43.93511" lon="0.59017">
        <ele>145.4</ele>
        <time>2023-07-04T13:47:22Z</time>
      </trkpt>
      <trkpt lat="43.9351" lon="0.59023">
        <ele>145.4</ele>
        <time>2023-07-04T13:47:26Z</time>
      </trkpt>
      <trkpt lat="43.9351" lon="0.59025">
        <ele>145</ele>
        <time>2023-07-04T13:47:27Z</time>
      </trkpt>
      <trkpt lat="43.93512" lon="0.5903">
        <ele>144.8</ele>
        <time>2023-07-04T13:47:29Z</time>
      </trkpt>
      <trkpt lat="43.93512" lon="0.59031">
        <ele>144.6</ele>
        <time>2023-07-04T13:47:30Z</time>
      </trkpt>
      <trkpt lat="43.93509" lon="0.59043">
        <ele>143.8</ele>
        <time>2023-07-04T13:47:37Z</time>
      </trkpt>
      <trkpt lat="43.93509" lon="0.59045">
        <ele>143.6</ele>
        <time>2023-07-04T13:47:38Z</time>
      </trkpt>
      <trkpt lat="43.93508" lon="0.59046">
        <ele>143.4</ele>
        <time>2023-07-04T13:47:39Z</time>
      </trkpt>
      <trkpt lat="43.93505" lon="0.59052">
        <ele>142.8</ele>
        <time>2023-07-04T13:47:43Z</time>
      </trkpt>
      <trkpt lat="43.93501" lon="0.59056">
        <ele>142.6</ele>
        <time>2023-07-04T13:47:46Z</time>
      </trkpt>
      <trkpt lat="43.935" lon="0.59058">
        <ele>142.4</ele>
        <time>2023-07-04T13:47:47Z</time>
      </trkpt>
      <trkpt lat="43.93498" lon="0.59059">
        <ele>142</ele>
        <time>2023-07-04T13:47:49Z</time>
      </trkpt>
      <trkpt lat="43.93497" lon="0.5906">
        <ele>142</ele>
        <time>2023-07-04T13:47:50Z</time>
      </trkpt>
      <trkpt lat="43.93495" lon="0.59061">
        <ele>141.6</ele>
        <time>2023-07-04T13:47:52Z</time>
      </trkpt>
      <trkpt lat="43.93486" lon="0.59068">
        <ele>140.4</ele>
        <time>2023-07-04T13:47:58Z</time>
      </trkpt>
      <trkpt lat="43.93483" lon="0.5907">
        <ele>140.4</ele>
        <time>2023-07-04T13:48:00Z</time>
      </trkpt>
      <trkpt lat="43.9348" lon="0.59073">
        <ele>139.4</ele>
        <time>2023-07-04T13:48:03Z</time>
      </trkpt>
      <trkpt lat="43.93476" lon="0.59077">
        <ele>139</ele>
        <time>2023-07-04T13:48:06Z</time>
      </trkpt>
      <trkpt lat="43.9347" lon="0.59079">
        <ele>138.4</ele>
        <time>2023-07-04T13:48:10Z</time>
      </trkpt>
      <trkpt lat="43.93463" lon="0.59083">
        <ele>137.4</ele>
        <time>2023-07-04T13:48:15Z</time>
      </trkpt>
      <trkpt lat="43.93452" lon="0.59089">
        <ele>136.2</ele>
        <time>2023-07-04T13:48:23Z</time>
      </trkpt>
      <trkpt lat="43.93449" lon="0.59089">
        <ele>136</ele>
        <time>2023-07-04T13:48:25Z</time>
      </trkpt>
      <trkpt lat="43.93446" lon="0.59089">
        <ele>135</ele>
        <time>2023-07-04T13:48:28Z</time>
      </trkpt>
      <trkpt lat="43.93441" lon="0.59093">
        <ele>134</ele>
        <time>2023-07-04T13:48:32Z</time>
      </trkpt>
      <trkpt lat="43.93436" lon="0.59096">
        <ele>133.6</ele>
        <time>2023-07-04T13:48:36Z</time>
      </trkpt>
      <trkpt lat="43.93434" lon="0.59097">
        <ele>133.2</ele>
        <time>2023-07-04T13:48:37Z</time>
      </trkpt>
      <trkpt lat="43.93433" lon="0.59098">
        <ele>133</ele>
        <time>2023-07-04T13:48:38Z</time>
      </trkpt>
      <trkpt lat="43.93431" lon="0.59098">
        <ele>132.8</ele>
        <time>2023-07-04T13:48:39Z</time>
      </trkpt>
      <trkpt lat="43.93422" lon="0.59104">
        <ele>131.8</ele>
        <time>2023-07-04T13:48:46Z</time>
      </trkpt>
      <trkpt lat="43.9341" lon="0.59112">
        <ele>130.6</ele>
        <time>2023-07-04T13:48:56Z</time>
      </trkpt>
      <trkpt lat="43.93402" lon="0.59118">
        <ele>129.6</ele>
        <time>2023-07-04T13:49:02Z</time>
      </trkpt>
      <trkpt lat="43.93399" lon="0.59119">
        <ele>129.2</ele>
        <time>2023-07-04T13:49:04Z</time>
      </trkpt>
      <trkpt lat="43.93391" lon="0.59122">
        <ele>128.4</ele>
        <time>2023-07-04T13:49:11Z</time>
      </trkpt>
      <trkpt lat="43.93389" lon="0.59122">
        <ele>128.4</ele>
        <time>2023-07-04T13:49:12Z</time>
      </trkpt>
      <trkpt lat="43.93383" lon="0.59126">
        <ele>127.6</ele>
        <time>2023-07-04T13:49:18Z</time>
      </trkpt>
      <trkpt lat="43.93381" lon="0.59127">
        <ele>127.2</ele>
        <time>2023-07-04T13:49:20Z</time>
      </trkpt>
      <trkpt lat="43.93377" lon="0.59129">
        <ele>126.6</ele>
        <time>2023-07-04T13:49:23Z</time>
      </trkpt>
      <trkpt lat="43.93373" lon="0.59133">
        <ele>126</ele>
        <time>2023-07-04T13:49:27Z</time>
      </trkpt>
      <trkpt lat="43.93362" lon="0.59138">
        <ele>125.2</ele>
        <time>2023-07-04T13:49:36Z</time>
      </trkpt>
      <trkpt lat="43.93359" lon="0.59139">
        <ele>125</ele>
        <time>2023-07-04T13:49:38Z</time>
      </trkpt>
      <trkpt lat="43.93357" lon="0.5914">
        <ele>124.6</ele>
        <time>2023-07-04T13:49:40Z</time>
      </trkpt>
      <trkpt lat="43.93356" lon="0.59141">
        <ele>124.4</ele>
        <time>2023-07-04T13:49:41Z</time>
      </trkpt>
      <trkpt lat="43.93351" lon="0.59144">
        <ele>124</ele>
        <time>2023-07-04T13:49:45Z</time>
      </trkpt>
      <trkpt lat="43.93346" lon="0.59146">
        <ele>123.2</ele>
        <time>2023-07-04T13:49:49Z</time>
      </trkpt>
      <trkpt lat="43.93343" lon="0.59147">
        <ele>123</ele>
        <time>2023-07-04T13:49:51Z</time>
      </trkpt>
      <trkpt lat="43.93337" lon="0.5915">
        <ele>122.2</ele>
        <time>2023-07-04T13:49:56Z</time>
      </trkpt>
      <trkpt lat="43.93334" lon="0.59151">
        <ele>121.8</ele>
        <time>2023-07-04T13:49:59Z</time>
      </trkpt>
      <trkpt lat="43.93327" lon="0.59156">
        <ele>121.2</ele>
        <time>2023-07-04T13:50:05Z</time>
      </trkpt>
      <trkpt lat="43.93325" lon="0.59158">
        <ele>120.6</ele>
        <time>2023-07-04T13:50:07Z</time>
      </trkpt>
      <trkpt lat="43.93323" lon="0.59158">
        <ele>120.6</ele>
        <time>2023-07-04T13:50:08Z</time>
      </trkpt>
      <trkpt lat="43.93317" lon="0.59161">
        <ele>119.6</ele>
        <time>2023-07-04T13:50:14Z</time>
      </trkpt>
      <trkpt lat="43.93316" lon="0.59162">
        <ele>119.6</ele>
        <time>2023-07-04T13:50:15Z</time>
      </trkpt>
      <trkpt lat="43.93307" lon="0.59167">
        <ele>118.4</ele>
        <time>2023-07-04T13:50:23Z</time>
      </trkpt>
      <trkpt lat="43.933" lon="0.59172">
        <ele>117.4</ele>
        <time>2023-07-04T13:50:30Z</time>
      </trkpt>
      <trkpt lat="43.93296" lon="0.59174">
        <ele>117</ele>
        <time>2023-07-04T13:50:33Z</time>
      </trkpt>
      <trkpt lat="43.93291" lon="0.59178">
        <ele>116.2</ele>
        <time>2023-07-04T13:50:38Z</time>
      </trkpt>
      <trkpt lat="43.93287" lon="0.5918">
        <ele>115.8</ele>
        <time>2023-07-04T13:50:41Z</time>
      </trkpt>
      <trkpt lat="43.93286" lon="0.5918">
        <ele>115.8</ele>
        <time>2023-07-04T13:50:42Z</time>
      </trkpt>
      <trkpt lat="43.93284" lon="0.59182">
        <ele>115.6</ele>
        <time>2023-07-04T13:50:44Z</time>
      </trkpt>
      <trkpt lat="43.93283" lon="0.59182">
        <ele>115.6</ele>
        <time>2023-07-04T13:50:45Z</time>
      </trkpt>
      <trkpt lat="43.93279" lon="0.59184">
        <ele>115.2</ele>
        <time>2023-07-04T13:50:48Z</time>
      </trkpt>
      <trkpt lat="43.93275" lon="0.59187">
        <ele>114.4</ele>
        <time>2023-07-04T13:50:52Z</time>
      </trkpt>
      <trkpt lat="43.93274" lon="0.59187">
        <ele>114.2</ele>
        <time>2023-07-04T13:50:53Z</time>
      </trkpt>
      <trkpt lat="43.93272" lon="0.59188">
        <ele>114</ele>
        <time>2023-07-04T13:50:55Z</time>
      </trkpt>
      <trkpt lat="43.93265" lon="0.59192">
        <ele>113.4</ele>
        <time>2023-07-04T13:51:01Z</time>
      </trkpt>
      <trkpt lat="43.9326" lon="0.59195">
        <ele>113</ele>
        <time>2023-07-04T13:51:05Z</time>
      </trkpt>
      <trkpt lat="43.93254" lon="0.59199">
        <ele>112.8</ele>
        <time>2023-07-04T13:51:10Z</time>
      </trkpt>
      <trkpt lat="43.9325" lon="0.59201">
        <ele>112</ele>
        <time>2023-07-04T13:51:13Z</time>
      </trkpt>
      <trkpt lat="43.93247" lon="0.59203">
        <ele>111.8</ele>
        <time>2023-07-04T13:51:16Z</time>
      </trkpt>
      <trkpt lat="43.93244" lon="0.59205">
        <ele>111.6</ele>
        <time>2023-07-04T13:51:19Z</time>
      </trkpt>
      <trkpt lat="43.93243" lon="0.59206">
        <ele>111.2</ele>
        <time>2023-07-04T13:51:21Z</time>
      </trkpt>
      <trkpt lat="43.93243" lon="0.59206">
        <ele>111.2</ele>
        <time>2023-07-04T13:51:22Z</time>
      </trkpt>
      <trkpt lat="43.93242" lon="0.59206">
        <ele>111</ele>
        <time>2023-07-04T13:51:23Z</time>
      </trkpt>
      <trkpt lat="43.93242" lon="0.59207">
        <ele>111</ele>
        <time>2023-07-04T13:51:24Z</time>
      </trkpt>
      <trkpt lat="43.93243" lon="0.59208">
        <ele>110.8</ele>
        <time>2023-07-04T13:51:25Z</time>
      </trkpt>
      <trkpt lat="43.93244" lon="0.59211">
        <ele>110.8</ele>
        <time>2023-07-04T13:51:27Z</time>
      </trkpt>
      <trkpt lat="43.93244" lon="0.59222">
        <ele>111</ele>
        <time>2023-07-04T13:51:33Z</time>
      </trkpt>
      <trkpt lat="43.93245" lon="0.59226">
        <ele>111</ele>
        <time>2023-07-04T13:51:35Z</time>
      </trkpt>
      <trkpt lat="43.93247" lon="0.59235">
        <ele>111</ele>
        <time>2023-07-04T13:51:40Z</time>
      </trkpt>
      <trkpt lat="43.93247" lon="0.59239">
        <ele>110.8</ele>
        <time>2023-07-04T13:51:42Z</time>
      </trkpt>
      <trkpt lat="43.93248" lon="0.59244">
        <ele>110.6</ele>
        <time>2023-07-04T13:51:45Z</time>
      </trkpt>
      <trkpt lat="43.93249" lon="0.59246">
        <ele>110.6</ele>
        <time>2023-07-04T13:51:46Z</time>
      </trkpt>
      <trkpt lat="43.93249" lon="0.5925">
        <ele>110.4</ele>
        <time>2023-07-04T13:51:48Z</time>
      </trkpt>
      <trkpt lat="43.9325" lon="0.59255">
        <ele>110.4</ele>
        <time>2023-07-04T13:51:51Z</time>
      </trkpt>
      <trkpt lat="43.9325" lon="0.59258">
        <ele>110.4</ele>
        <time>2023-07-04T13:51:52Z</time>
      </trkpt>
      <trkpt lat="43.93251" lon="0.59262">
        <ele>110.2</ele>
        <time>2023-07-04T13:51:55Z</time>
      </trkpt>
      <trkpt lat="43.93251" lon="0.59274">
        <ele>110</ele>
        <time>2023-07-04T13:52:01Z</time>
      </trkpt>
      <trkpt lat="43.93251" lon="0.59276">
        <ele>110</ele>
        <time>2023-07-04T13:52:02Z</time>
      </trkpt>
      <trkpt lat="43.93252" lon="0.59282">
        <ele>110.4</ele>
        <time>2023-07-04T13:52:05Z</time>
      </trkpt>
      <trkpt lat="43.93254" lon="0.59296">
        <ele>110</ele>
        <time>2023-07-04T13:52:12Z</time>
      </trkpt>
      <trkpt lat="43.93255" lon="0.59304">
        <ele>109.6</ele>
        <time>2023-07-04T13:52:16Z</time>
      </trkpt>
      <trkpt lat="43.93255" lon="0.59307">
        <ele>109.4</ele>
        <time>2023-07-04T13:52:18Z</time>
      </trkpt>
      <trkpt lat="43.93256" lon="0.59311">
        <ele>109.4</ele>
        <time>2023-07-04T13:52:20Z</time>
      </trkpt>
      <trkpt lat="43.93256" lon="0.59315">
        <ele>109.4</ele>
        <time>2023-07-04T13:52:22Z</time>
      </trkpt>
      <trkpt lat="43.93258" lon="0.59333">
        <ele>108.8</ele>
        <time>2023-07-04T13:52:32Z</time>
      </trkpt>
      <trkpt lat="43.93259" lon="0.59337">
        <ele>108.4</ele>
        <time>2023-07-04T13:52:34Z</time>
      </trkpt>
      <trkpt lat="43.93262" lon="0.59359">
        <ele>108.4</ele>
        <time>2023-07-04T13:52:45Z</time>
      </trkpt>
      <trkpt lat="43.93263" lon="0.59367">
        <ele>107.8</ele>
        <time>2023-07-04T13:52:49Z</time>
      </trkpt>
      <trkpt lat="43.93264" lon="0.5938">
        <ele>107.2</ele>
        <time>2023-07-04T13:52:56Z</time>
      </trkpt>
      <trkpt lat="43.93265" lon="0.59397">
        <ele>106.8</ele>
        <time>2023-07-04T13:53:05Z</time>
      </trkpt>
      <trkpt lat="43.93266" lon="0.59401">
        <ele>106.6</ele>
        <time>2023-07-04T13:53:06Z</time>
      </trkpt>
      <trkpt lat="43.93266" lon="0.59401">
        <ele>106.6</ele>
        <time>2023-07-04T13:53:07Z</time>
      </trkpt>
      <trkpt lat="43.93268" lon="0.5941">
        <ele>106.6</ele>
        <time>2023-07-04T13:53:12Z</time>
      </trkpt>
      <trkpt lat="43.93268" lon="0.59415">
        <ele>106.6</ele>
        <time>2023-07-04T13:53:15Z</time>
      </trkpt>
      <trkpt lat="43.93268" lon="0.59424">
        <ele>106.2</ele>
        <time>2023-07-04T13:53:20Z</time>
      </trkpt>
      <trkpt lat="43.93268" lon="0.59426">
        <ele>106.2</ele>
        <time>2023-07-04T13:53:21Z</time>
      </trkpt>
      <trkpt lat="43.93269" lon="0.59432">
        <ele>105.4</ele>
        <time>2023-07-04T13:53:24Z</time>
      </trkpt>
      <trkpt lat="43.93269" lon="0.59436">
        <ele>105.4</ele>
        <time>2023-07-04T13:53:26Z</time>
      </trkpt>
      <trkpt lat="43.93267" lon="0.59438">
        <ele>105.4</ele>
        <time>2023-07-04T13:53:28Z</time>
      </trkpt>
      <trkpt lat="43.93266" lon="0.5944">
        <ele>105.4</ele>
        <time>2023-07-04T13:53:29Z</time>
      </trkpt>
      <trkpt lat="43.93265" lon="0.59441">
        <ele>105.4</ele>
        <time>2023-07-04T13:53:30Z</time>
      </trkpt>
      <trkpt lat="43.93264" lon="0.59443">
        <ele>105.4</ele>
        <time>2023-07-04T13:53:31Z</time>
      </trkpt>
      <trkpt lat="43.93265" lon="0.59448">
        <ele>105.2</ele>
        <time>2023-07-04T13:53:34Z</time>
      </trkpt>
      <trkpt lat="43.93272" lon="0.59456">
        <ele>104.8</ele>
        <time>2023-07-04T13:53:40Z</time>
      </trkpt>
      <trkpt lat="43.93274" lon="0.59463">
        <ele>104.4</ele>
        <time>2023-07-04T13:53:44Z</time>
      </trkpt>
      <trkpt lat="43.93277" lon="0.59474">
        <ele>103.8</ele>
        <time>2023-07-04T13:53:50Z</time>
      </trkpt>
      <trkpt lat="43.93278" lon="0.59478">
        <ele>103.6</ele>
        <time>2023-07-04T13:53:52Z</time>
      </trkpt>
      <trkpt lat="43.93282" lon="0.59487">
        <ele>103.4</ele>
        <time>2023-07-04T13:53:57Z</time>
      </trkpt>
      <trkpt lat="43.93283" lon="0.59493">
        <ele>102.6</ele>
        <time>2023-07-04T13:54:01Z</time>
      </trkpt>
      <trkpt lat="43.93285" lon="0.59498">
        <ele>102.4</ele>
        <time>2023-07-04T13:54:04Z</time>
      </trkpt>
      <trkpt lat="43.93289" lon="0.59504">
        <ele>101.8</ele>
        <time>2023-07-04T13:54:08Z</time>
      </trkpt>
      <trkpt lat="43.93292" lon="0.5951">
        <ele>101.4</ele>
        <time>2023-07-04T13:54:12Z</time>
      </trkpt>
      <trkpt lat="43.93293" lon="0.59512">
        <ele>101.2</ele>
        <time>2023-07-04T13:54:13Z</time>
      </trkpt>
      <trkpt lat="43.93295" lon="0.59514">
        <ele>101</ele>
        <time>2023-07-04T13:54:15Z</time>
      </trkpt>
      <trkpt lat="43.93303" lon="0.59527">
        <ele>100.4</ele>
        <time>2023-07-04T13:54:24Z</time>
      </trkpt>
      <trkpt lat="43.93304" lon="0.59529">
        <ele>100</ele>
        <time>2023-07-04T13:54:25Z</time>
      </trkpt>
      <trkpt lat="43.93311" lon="0.5954">
        <ele>99.6</ele>
        <time>2023-07-04T13:54:33Z</time>
      </trkpt>
      <trkpt lat="43.93316" lon="0.59548">
        <ele>99</ele>
        <time>2023-07-04T13:54:39Z</time>
      </trkpt>
      <trkpt lat="43.93319" lon="0.59551">
        <ele>98.8</ele>
        <time>2023-07-04T13:54:41Z</time>
      </trkpt>
      <trkpt lat="43.93321" lon="0.59556">
        <ele>98.6</ele>
        <time>2023-07-04T13:54:44Z</time>
      </trkpt>
      <trkpt lat="43.93327" lon="0.59564">
        <ele>98</ele>
        <time>2023-07-04T13:54:50Z</time>
      </trkpt>
      <trkpt lat="43.93328" lon="0.59565">
        <ele>97.8</ele>
        <time>2023-07-04T13:54:51Z</time>
      </trkpt>
      <trkpt lat="43.9334" lon="0.5958">
        <ele>97.4</ele>
        <time>2023-07-04T13:55:02Z</time>
      </trkpt>
      <trkpt lat="43.9335" lon="0.59593">
        <ele>96.6</ele>
        <time>2023-07-04T13:55:10Z</time>
      </trkpt>
      <trkpt lat="43.9335" lon="0.59595">
        <ele>96.6</ele>
        <time>2023-07-04T13:55:11Z</time>
      </trkpt>
      <trkpt lat="43.93355" lon="0.59607">
        <ele>95.6</ele>
        <time>2023-07-04T13:55:18Z</time>
      </trkpt>
      <trkpt lat="43.93356" lon="0.5961">
        <ele>95.4</ele>
        <time>2023-07-04T13:55:20Z</time>
      </trkpt>
      <trkpt lat="43.93357" lon="0.59612">
        <ele>95.2</ele>
        <time>2023-07-04T13:55:21Z</time>
      </trkpt>
      <trkpt lat="43.93357" lon="0.59614">
        <ele>95.2</ele>
        <time>2023-07-04T13:55:22Z</time>
      </trkpt>
      <trkpt lat="43.93358" lon="0.59616">
        <ele>95</ele>
        <time>2023-07-04T13:55:23Z</time>
      </trkpt>
      <trkpt lat="43.9336" lon="0.59621">
        <ele>94.8</ele>
        <time>2023-07-04T13:55:26Z</time>
      </trkpt>
      <trkpt lat="43.93361" lon="0.59625">
        <ele>94.8</ele>
        <time>2023-07-04T13:55:28Z</time>
      </trkpt>
      <trkpt lat="43.93364" lon="0.59633">
        <ele>94.4</ele>
        <time>2023-07-04T13:55:33Z</time>
      </trkpt>
      <trkpt lat="43.93365" lon="0.59637">
        <ele>94</ele>
        <time>2023-07-04T13:55:35Z</time>
      </trkpt>
      <trkpt lat="43.93369" lon="0.59654">
        <ele>93.8</ele>
        <time>2023-07-04T13:55:44Z</time>
      </trkpt>
      <trkpt lat="43.9337" lon="0.59662">
        <ele>93.6</ele>
        <time>2023-07-04T13:55:48Z</time>
      </trkpt>
      <trkpt lat="43.93371" lon="0.59664">
        <ele>93.6</ele>
        <time>2023-07-04T13:55:49Z</time>
      </trkpt>
      <trkpt lat="43.93372" lon="0.5967">
        <ele>93.4</ele>
        <time>2023-07-04T13:55:52Z</time>
      </trkpt>
      <trkpt lat="43.93373" lon="0.59676">
        <ele>93</ele>
        <time>2023-07-04T13:55:55Z</time>
      </trkpt>
      <trkpt lat="43.93377" lon="0.59694">
        <ele>93</ele>
        <time>2023-07-04T13:56:04Z</time>
      </trkpt>
      <trkpt lat="43.93378" lon="0.59707">
        <ele>92.8</ele>
        <time>2023-07-04T13:56:11Z</time>
      </trkpt>
      <trkpt lat="43.93379" lon="0.59712">
        <ele>93.2</ele>
        <time>2023-07-04T13:56:14Z</time>
      </trkpt>
      <trkpt lat="43.93379" lon="0.59714">
        <ele>93.2</ele>
        <time>2023-07-04T13:56:15Z</time>
      </trkpt>
      <trkpt lat="43.9338" lon="0.59718">
        <ele>93.2</ele>
        <time>2023-07-04T13:56:17Z</time>
      </trkpt>
      <trkpt lat="43.93382" lon="0.59736">
        <ele>93</ele>
        <time>2023-07-04T13:56:27Z</time>
      </trkpt>
      <trkpt lat="43.93386" lon="0.5976">
        <ele>93.8</ele>
        <time>2023-07-04T13:56:40Z</time>
      </trkpt>
      <trkpt lat="43.93387" lon="0.59773">
        <ele>94</ele>
        <time>2023-07-04T13:56:48Z</time>
      </trkpt>
      <trkpt lat="43.93388" lon="0.59778">
        <ele>94.4</ele>
        <time>2023-07-04T13:56:51Z</time>
      </trkpt>
      <trkpt lat="43.93389" lon="0.59786">
        <ele>94.6</ele>
        <time>2023-07-04T13:56:56Z</time>
      </trkpt>
      <trkpt lat="43.93389" lon="0.59788">
        <ele>94.6</ele>
        <time>2023-07-04T13:56:57Z</time>
      </trkpt>
      <trkpt lat="43.93389" lon="0.59791">
        <ele>94.8</ele>
        <time>2023-07-04T13:56:59Z</time>
      </trkpt>
      <trkpt lat="43.9339" lon="0.598">
        <ele>95.6</ele>
        <time>2023-07-04T13:57:05Z</time>
      </trkpt>
      <trkpt lat="43.93391" lon="0.59812">
        <ele>96.2</ele>
        <time>2023-07-04T13:57:12Z</time>
      </trkpt>
      <trkpt lat="43.93392" lon="0.59817">
        <ele>96.6</ele>
        <time>2023-07-04T13:57:15Z</time>
      </trkpt>
      <trkpt lat="43.93392" lon="0.5982">
        <ele>96.6</ele>
        <time>2023-07-04T13:57:17Z</time>
      </trkpt>
      <trkpt lat="43.93392" lon="0.59826">
        <ele>97.2</ele>
        <time>2023-07-04T13:57:21Z</time>
      </trkpt>
      <trkpt lat="43.93393" lon="0.59834">
        <ele>97.4</ele>
        <time>2023-07-04T13:57:26Z</time>
      </trkpt>
      <trkpt lat="43.93393" lon="0.59838">
        <ele>97.8</ele>
        <time>2023-07-04T13:57:29Z</time>
      </trkpt>
      <trkpt lat="43.93397" lon="0.59845">
        <ele>98</ele>
        <time>2023-07-04T13:57:32Z</time>
      </trkpt>
      <trkpt lat="43.93397" lon="0.5985">
        <ele>98.2</ele>
        <time>2023-07-04T13:57:35Z</time>
      </trkpt>
      <trkpt lat="43.93398" lon="0.59857">
        <ele>98.6</ele>
        <time>2023-07-04T13:57:39Z</time>
      </trkpt>
      <trkpt lat="43.93398" lon="0.59864">
        <ele>98.8</ele>
        <time>2023-07-04T13:57:43Z</time>
      </trkpt>
      <trkpt lat="43.93401" lon="0.59881">
        <ele>99.6</ele>
        <time>2023-07-04T13:57:52Z</time>
      </trkpt>
      <trkpt lat="43.93401" lon="0.59888">
        <ele>100</ele>
        <time>2023-07-04T13:57:56Z</time>
      </trkpt>
      <trkpt lat="43.93401" lon="0.59895">
        <ele>100.4</ele>
        <time>2023-07-04T13:58:01Z</time>
      </trkpt>
      <trkpt lat="43.93403" lon="0.59911">
        <ele>100.6</ele>
        <time>2023-07-04T13:58:10Z</time>
      </trkpt>
      <trkpt lat="43.93404" lon="0.59915">
        <ele>100.6</ele>
        <time>2023-07-04T13:58:12Z</time>
      </trkpt>
      <trkpt lat="43.93404" lon="0.59921">
        <ele>100.8</ele>
        <time>2023-07-04T13:58:16Z</time>
      </trkpt>
      <trkpt lat="43.93404" lon="0.59925">
        <ele>100.8</ele>
        <time>2023-07-04T13:58:18Z</time>
      </trkpt>
      <trkpt lat="43.93405" lon="0.59933">
        <ele>101.2</ele>
        <time>2023-07-04T13:58:23Z</time>
      </trkpt>
      <trkpt lat="43.93405" lon="0.59935">
        <ele>101.4</ele>
        <time>2023-07-04T13:58:24Z</time>
      </trkpt>
      <trkpt lat="43.93405" lon="0.59936">
        <ele>101.4</ele>
        <time>2023-07-04T13:58:25Z</time>
      </trkpt>
      <trkpt lat="43.93406" lon="0.5994">
        <ele>101.6</ele>
        <time>2023-07-04T13:58:27Z</time>
      </trkpt>
      <trkpt lat="43.93406" lon="0.59942">
        <ele>101.6</ele>
        <time>2023-07-04T13:58:28Z</time>
      </trkpt>
      <trkpt lat="43.93405" lon="0.59945">
        <ele>101.6</ele>
        <time>2023-07-04T13:58:30Z</time>
      </trkpt>
      <trkpt lat="43.93405" lon="0.59955">
        <ele>101.6</ele>
        <time>2023-07-04T13:58:35Z</time>
      </trkpt>
      <trkpt lat="43.93408" lon="0.59957">
        <ele>101.6</ele>
        <time>2023-07-04T13:58:36Z</time>
      </trkpt>
      <trkpt lat="43.93413" lon="0.59964">
        <ele>102.2</ele>
        <time>2023-07-04T13:58:39Z</time>
      </trkpt>
      <trkpt lat="43.93415" lon="0.59973">
        <ele>102.4</ele>
        <time>2023-07-04T13:58:43Z</time>
      </trkpt>
      <trkpt lat="43.93416" lon="0.59988">
        <ele>102.6</ele>
        <time>2023-07-04T13:58:52Z</time>
      </trkpt>
      <trkpt lat="43.93417" lon="0.59995">
        <ele>103</ele>
        <time>2023-07-04T13:58:56Z</time>
      </trkpt>
      <trkpt lat="43.93418" lon="0.59997">
        <ele>103</ele>
        <time>2023-07-04T13:58:57Z</time>
      </trkpt>
      <trkpt lat="43.93418" lon="0.60003">
        <ele>103.2</ele>
        <time>2023-07-04T13:59:00Z</time>
      </trkpt>
      <trkpt lat="43.93421" lon="0.60013">
        <ele>103.2</ele>
        <time>2023-07-04T13:59:06Z</time>
      </trkpt>
      <trkpt lat="43.93421" lon="0.60016">
        <ele>103</ele>
        <time>2023-07-04T13:59:07Z</time>
      </trkpt>
      <trkpt lat="43.93421" lon="0.60018">
        <ele>103.2</ele>
        <time>2023-07-04T13:59:08Z</time>
      </trkpt>
      <trkpt lat="43.93421" lon="0.60025">
        <ele>103.2</ele>
        <time>2023-07-04T13:59:12Z</time>
      </trkpt>
      <trkpt lat="43.93424" lon="0.6004">
        <ele>104</ele>
        <time>2023-07-04T13:59:20Z</time>
      </trkpt>
      <trkpt lat="43.93424" lon="0.60046">
        <ele>104.2</ele>
        <time>2023-07-04T13:59:22Z</time>
      </trkpt>
      <trkpt lat="43.93425" lon="0.60054">
        <ele>104.4</ele>
        <time>2023-07-04T13:59:27Z</time>
      </trkpt>
      <trkpt lat="43.93425" lon="0.60058">
        <ele>104.4</ele>
        <time>2023-07-04T13:59:29Z</time>
      </trkpt>
      <trkpt lat="43.93425" lon="0.60062">
        <ele>104.6</ele>
        <time>2023-07-04T13:59:31Z</time>
      </trkpt>
      <trkpt lat="43.93425" lon="0.60064">
        <ele>104.6</ele>
        <time>2023-07-04T13:59:32Z</time>
      </trkpt>
      <trkpt lat="43.93426" lon="0.60067">
        <ele>104.6</ele>
        <time>2023-07-04T13:59:34Z</time>
      </trkpt>
      <trkpt lat="43.93427" lon="0.60069">
        <ele>104.6</ele>
        <time>2023-07-04T13:59:35Z</time>
      </trkpt>
      <trkpt lat="43.93426" lon="0.60078">
        <ele>104.6</ele>
        <time>2023-07-04T13:59:41Z</time>
      </trkpt>
      <trkpt lat="43.93425" lon="0.60082">
        <ele>104.6</ele>
        <time>2023-07-04T13:59:43Z</time>
      </trkpt>
      <trkpt lat="43.93424" lon="0.60094">
        <ele>104.6</ele>
        <time>2023-07-04T13:59:50Z</time>
      </trkpt>
      <trkpt lat="43.93424" lon="0.60096">
        <ele>104.6</ele>
        <time>2023-07-04T13:59:51Z</time>
      </trkpt>
      <trkpt lat="43.93426" lon="0.60109">
        <ele>103.8</ele>
        <time>2023-07-04T13:59:58Z</time>
      </trkpt>
      <trkpt lat="43.93425" lon="0.60117">
        <ele>103.6</ele>
        <time>2023-07-04T14:00:03Z</time>
      </trkpt>
      <trkpt lat="43.93424" lon="0.60119">
        <ele>103.4</ele>
        <time>2023-07-04T14:00:04Z</time>
      </trkpt>
      <trkpt lat="43.93424" lon="0.60122">
        <ele>103.2</ele>
        <time>2023-07-04T14:00:06Z</time>
      </trkpt>
      <trkpt lat="43.93424" lon="0.60124">
        <ele>103.2</ele>
        <time>2023-07-04T14:00:07Z</time>
      </trkpt>
      <trkpt lat="43.93423" lon="0.60133">
        <ele>102.8</ele>
        <time>2023-07-04T14:00:12Z</time>
      </trkpt>
      <trkpt lat="43.93422" lon="0.60137">
        <ele>102.6</ele>
        <time>2023-07-04T14:00:14Z</time>
      </trkpt>
      <trkpt lat="43.93422" lon="0.60145">
        <ele>102</ele>
        <time>2023-07-04T14:00:18Z</time>
      </trkpt>
      <trkpt lat="43.93424" lon="0.60153">
        <ele>101.4</ele>
        <time>2023-07-04T14:00:23Z</time>
      </trkpt>
      <trkpt lat="43.93424" lon="0.60156">
        <ele>101</ele>
        <time>2023-07-04T14:00:25Z</time>
      </trkpt>
      <trkpt lat="43.93424" lon="0.60158">
        <ele>100.8</ele>
        <time>2023-07-04T14:00:26Z</time>
      </trkpt>
      <trkpt lat="43.93424" lon="0.6016">
        <ele>100.6</ele>
        <time>2023-07-04T14:00:27Z</time>
      </trkpt>
      <trkpt lat="43.93424" lon="0.60165">
        <ele>100</ele>
        <time>2023-07-04T14:00:30Z</time>
      </trkpt>
      <trkpt lat="43.93425" lon="0.60169">
        <ele>99.8</ele>
        <time>2023-07-04T14:00:32Z</time>
      </trkpt>
      <trkpt lat="43.93424" lon="0.60178">
        <ele>99.4</ele>
        <time>2023-07-04T14:00:37Z</time>
      </trkpt>
      <trkpt lat="43.93424" lon="0.60187">
        <ele>99</ele>
        <time>2023-07-04T14:00:41Z</time>
      </trkpt>
      <trkpt lat="43.93424" lon="0.60189">
        <ele>98.8</ele>
        <time>2023-07-04T14:00:42Z</time>
      </trkpt>
      <trkpt lat="43.93424" lon="0.60191">
        <ele>98.8</ele>
        <time>2023-07-04T14:00:43Z</time>
      </trkpt>
      <trkpt lat="43.93426" lon="0.60198">
        <ele>98.4</ele>
        <time>2023-07-04T14:00:47Z</time>
      </trkpt>
      <trkpt lat="43.93427" lon="0.60202">
        <ele>98.2</ele>
        <time>2023-07-04T14:00:49Z</time>
      </trkpt>
      <trkpt lat="43.93427" lon="0.60204">
        <ele>97.8</ele>
        <time>2023-07-04T14:00:50Z</time>
      </trkpt>
      <trkpt lat="43.9343" lon="0.60212">
        <ele>96.8</ele>
        <time>2023-07-04T14:00:55Z</time>
      </trkpt>
      <trkpt lat="43.93431" lon="0.60213">
        <ele>96.6</ele>
        <time>2023-07-04T14:00:56Z</time>
      </trkpt>
      <trkpt lat="43.93431" lon="0.60214">
        <ele>96.6</ele>
        <time>2023-07-04T14:00:57Z</time>
      </trkpt>
      <trkpt lat="43.93432" lon="0.60218">
        <ele>96.4</ele>
        <time>2023-07-04T14:00:59Z</time>
      </trkpt>
      <trkpt lat="43.93433" lon="0.60227">
        <ele>95.6</ele>
        <time>2023-07-04T14:01:03Z</time>
      </trkpt>
      <trkpt lat="43.93433" lon="0.60229">
        <ele>95.6</ele>
        <time>2023-07-04T14:01:04Z</time>
      </trkpt>
      <trkpt lat="43.93435" lon="0.60243">
        <ele>95</ele>
        <time>2023-07-04T14:01:10Z</time>
      </trkpt>
      <trkpt lat="43.93439" lon="0.60253">
        <ele>94.6</ele>
        <time>2023-07-04T14:01:13Z</time>
      </trkpt>
      <trkpt lat="43.93443" lon="0.60259">
        <ele>94</ele>
        <time>2023-07-04T14:01:15Z</time>
      </trkpt>
      <trkpt lat="43.93443" lon="0.60261">
        <ele>93.8</ele>
        <time>2023-07-04T14:01:16Z</time>
      </trkpt>
      <trkpt lat="43.93443" lon="0.60265">
        <ele>93.6</ele>
        <time>2023-07-04T14:01:18Z</time>
      </trkpt>
      <trkpt lat="43.93443" lon="0.60274">
        <ele>92.8</ele>
        <time>2023-07-04T14:01:23Z</time>
      </trkpt>
      <trkpt lat="43.93442" lon="0.60279">
        <ele>92.6</ele>
        <time>2023-07-04T14:01:26Z</time>
      </trkpt>
      <trkpt lat="43.9344" lon="0.60291">
        <ele>91.4</ele>
        <time>2023-07-04T14:01:32Z</time>
      </trkpt>
      <trkpt lat="43.93444" lon="0.60303">
        <ele>91</ele>
        <time>2023-07-04T14:01:36Z</time>
      </trkpt>
      <trkpt lat="43.93444" lon="0.60309">
        <ele>90.4</ele>
        <time>2023-07-04T14:01:39Z</time>
      </trkpt>
      <trkpt lat="43.93451" lon="0.60323">
        <ele>89.4</ele>
        <time>2023-07-04T14:01:45Z</time>
      </trkpt>
      <trkpt lat="43.93451" lon="0.60328">
        <ele>89.4</ele>
        <time>2023-07-04T14:01:47Z</time>
      </trkpt>
      <trkpt lat="43.93451" lon="0.60338">
        <ele>88.8</ele>
        <time>2023-07-04T14:01:52Z</time>
      </trkpt>
      <trkpt lat="43.93452" lon="0.60342">
        <ele>88.2</ele>
        <time>2023-07-04T14:01:54Z</time>
      </trkpt>
      <trkpt lat="43.93455" lon="0.60354">
        <ele>87.4</ele>
        <time>2023-07-04T14:02:00Z</time>
      </trkpt>
      <trkpt lat="43.93455" lon="0.60363">
        <ele>87.2</ele>
        <time>2023-07-04T14:02:05Z</time>
      </trkpt>
      <trkpt lat="43.93455" lon="0.60367">
        <ele>87</ele>
        <time>2023-07-04T14:02:07Z</time>
      </trkpt>
      <trkpt lat="43.93454" lon="0.6038">
        <ele>86</ele>
        <time>2023-07-04T14:02:14Z</time>
      </trkpt>
      <trkpt lat="43.93454" lon="0.60382">
        <ele>86</ele>
        <time>2023-07-04T14:02:15Z</time>
      </trkpt>
      <trkpt lat="43.93457" lon="0.60391">
        <ele>86</ele>
        <time>2023-07-04T14:02:21Z</time>
      </trkpt>
      <trkpt lat="43.93458" lon="0.60392">
        <ele>86</ele>
        <time>2023-07-04T14:02:23Z</time>
      </trkpt>
      <trkpt lat="43.9346" lon="0.60396">
        <ele>86.2</ele>
        <time>2023-07-04T14:02:30Z</time>
      </trkpt>
      <trkpt lat="43.93459" lon="0.6041">
        <ele>85.8</ele>
        <time>2023-07-04T14:02:38Z</time>
      </trkpt>
      <trkpt lat="43.9346" lon="0.60423">
        <ele>85.4</ele>
        <time>2023-07-04T14:02:45Z</time>
      </trkpt>
      <trkpt lat="43.93461" lon="0.6043">
        <ele>85.2</ele>
        <time>2023-07-04T14:02:49Z</time>
      </trkpt>
      <trkpt lat="43.93462" lon="0.60436">
        <ele>85.2</ele>
        <time>2023-07-04T14:02:53Z</time>
      </trkpt>
      <trkpt lat="43.93462" lon="0.60438">
        <ele>85.2</ele>
        <time>2023-07-04T14:02:54Z</time>
      </trkpt>
      <trkpt lat="43.93463" lon="0.60441">
        <ele>85.2</ele>
        <time>2023-07-04T14:02:56Z</time>
      </trkpt>
      <trkpt lat="43.93463" lon="0.60443">
        <ele>85.2</ele>
        <time>2023-07-04T14:02:57Z</time>
      </trkpt>
      <trkpt lat="43.93463" lon="0.60447">
        <ele>85</ele>
        <time>2023-07-04T14:03:00Z</time>
      </trkpt>
      <trkpt lat="43.93463" lon="0.60449">
        <ele>85</ele>
        <time>2023-07-04T14:03:01Z</time>
      </trkpt>
      <trkpt lat="43.93463" lon="0.60458">
        <ele>85.2</ele>
        <time>2023-07-04T14:03:06Z</time>
      </trkpt>
      <trkpt lat="43.93463" lon="0.6046">
        <ele>85.2</ele>
        <time>2023-07-04T14:03:07Z</time>
      </trkpt>
      <trkpt lat="43.93463" lon="0.60462">
        <ele>85.2</ele>
        <time>2023-07-04T14:03:08Z</time>
      </trkpt>
      <trkpt lat="43.93469" lon="0.60473">
        <ele>84.8</ele>
        <time>2023-07-04T14:03:12Z</time>
      </trkpt>
      <trkpt lat="43.9347" lon="0.60477">
        <ele>84.8</ele>
        <time>2023-07-04T14:03:14Z</time>
      </trkpt>
      <trkpt lat="43.93471" lon="0.60486">
        <ele>84.6</ele>
        <time>2023-07-04T14:03:19Z</time>
      </trkpt>
      <trkpt lat="43.93472" lon="0.60493">
        <ele>84.6</ele>
        <time>2023-07-04T14:03:22Z</time>
      </trkpt>
      <trkpt lat="43.93471" lon="0.60494">
        <ele>84.6</ele>
        <time>2023-07-04T14:03:23Z</time>
      </trkpt>
      <trkpt lat="43.93471" lon="0.60501">
        <ele>84.8</ele>
        <time>2023-07-04T14:03:29Z</time>
      </trkpt>
      <trkpt lat="43.93472" lon="0.60502">
        <ele>84.8</ele>
        <time>2023-07-04T14:03:30Z</time>
      </trkpt>
      <trkpt lat="43.93472" lon="0.60504">
        <ele>84.8</ele>
        <time>2023-07-04T14:03:31Z</time>
      </trkpt>
      <trkpt lat="43.93472" lon="0.60506">
        <ele>84.8</ele>
        <time>2023-07-04T14:03:32Z</time>
      </trkpt>
      <trkpt lat="43.93472" lon="0.60508">
        <ele>84.8</ele>
        <time>2023-07-04T14:03:33Z</time>
      </trkpt>
      <trkpt lat="43.93472" lon="0.60509">
        <ele>84.8</ele>
        <time>2023-07-04T14:03:34Z</time>
      </trkpt>
      <trkpt lat="43.93472" lon="0.60511">
        <ele>84.8</ele>
        <time>2023-07-04T14:03:35Z</time>
      </trkpt>
      <trkpt lat="43.93472" lon="0.60512">
        <ele>85</ele>
        <time>2023-07-04T14:03:36Z</time>
      </trkpt>
      <trkpt lat="43.93473" lon="0.60515">
        <ele>85</ele>
        <time>2023-07-04T14:03:38Z</time>
      </trkpt>
      <trkpt lat="43.93473" lon="0.60516">
        <ele>85</ele>
        <time>2023-07-04T14:03:39Z</time>
      </trkpt>
      <trkpt lat="43.93474" lon="0.60518">
        <ele>85</ele>
        <time>2023-07-04T14:03:40Z</time>
      </trkpt>
      <trkpt lat="43.93474" lon="0.60519">
        <ele>84.8</ele>
        <time>2023-07-04T14:03:41Z</time>
      </trkpt>
      <trkpt lat="43.93476" lon="0.60523">
        <ele>84.6</ele>
        <time>2023-07-04T14:03:43Z</time>
      </trkpt>
      <trkpt lat="43.93478" lon="0.60525">
        <ele>84.6</ele>
        <time>2023-07-04T14:03:44Z</time>
      </trkpt>
      <trkpt lat="43.93477" lon="0.60526">
        <ele>84.6</ele>
        <time>2023-07-04T14:03:45Z</time>
      </trkpt>
      <trkpt lat="43.93477" lon="0.60532">
        <ele>84.4</ele>
        <time>2023-07-04T14:03:48Z</time>
      </trkpt>
      <trkpt lat="43.93476" lon="0.60533">
        <ele>84.6</ele>
        <time>2023-07-04T14:03:49Z</time>
      </trkpt>
      <trkpt lat="43.93476" lon="0.60538">
        <ele>84.8</ele>
        <time>2023-07-04T14:03:52Z</time>
      </trkpt>
      <trkpt lat="43.93475" lon="0.60548">
        <ele>85</ele>
        <time>2023-07-04T14:03:57Z</time>
      </trkpt>
      <trkpt lat="43.93475" lon="0.60552">
        <ele>85</ele>
        <time>2023-07-04T14:03:59Z</time>
      </trkpt>
      <trkpt lat="43.93475" lon="0.60559">
        <ele>84.8</ele>
        <time>2023-07-04T14:04:03Z</time>
      </trkpt>
      <trkpt lat="43.93476" lon="0.60563">
        <ele>84.6</ele>
        <time>2023-07-04T14:04:05Z</time>
      </trkpt>
      <trkpt lat="43.93476" lon="0.60568">
        <ele>84.8</ele>
        <time>2023-07-04T14:04:08Z</time>
      </trkpt>
      <trkpt lat="43.93473" lon="0.60577">
        <ele>84.8</ele>
        <time>2023-07-04T14:04:13Z</time>
      </trkpt>
      <trkpt lat="43.93472" lon="0.60584">
        <ele>84.8</ele>
        <time>2023-07-04T14:04:18Z</time>
      </trkpt>
      <trkpt lat="43.93471" lon="0.60586">
        <ele>84.8</ele>
        <time>2023-07-04T14:04:19Z</time>
      </trkpt>
      <trkpt lat="43.9347" lon="0.60594">
        <ele>84.6</ele>
        <time>2023-07-04T14:04:23Z</time>
      </trkpt>
      <trkpt lat="43.93469" lon="0.60599">
        <ele>84.6</ele>
        <time>2023-07-04T14:04:26Z</time>
      </trkpt>
      <trkpt lat="43.93471" lon="0.60608">
        <ele>84.2</ele>
        <time>2023-07-04T14:04:30Z</time>
      </trkpt>
      <trkpt lat="43.9347" lon="0.60611">
        <ele>84.2</ele>
        <time>2023-07-04T14:04:32Z</time>
      </trkpt>
      <trkpt lat="43.93469" lon="0.60614">
        <ele>84</ele>
        <time>2023-07-04T14:04:34Z</time>
      </trkpt>
      <trkpt lat="43.93468" lon="0.60623">
        <ele>84.2</ele>
        <time>2023-07-04T14:04:38Z</time>
      </trkpt>
      <trkpt lat="43.93468" lon="0.60632">
        <ele>84.4</ele>
        <time>2023-07-04T14:04:43Z</time>
      </trkpt>
      <trkpt lat="43.93467" lon="0.60634">
        <ele>84.4</ele>
        <time>2023-07-04T14:04:44Z</time>
      </trkpt>
      <trkpt lat="43.93472" lon="0.60645">
        <ele>84.2</ele>
        <time>2023-07-04T14:04:50Z</time>
      </trkpt>
      <trkpt lat="43.93471" lon="0.60646">
        <ele>84.4</ele>
        <time>2023-07-04T14:04:51Z</time>
      </trkpt>
      <trkpt lat="43.9347" lon="0.6065">
        <ele>84.2</ele>
        <time>2023-07-04T14:04:54Z</time>
      </trkpt>
      <trkpt lat="43.93468" lon="0.60656">
        <ele>84</ele>
        <time>2023-07-04T14:04:57Z</time>
      </trkpt>
      <trkpt lat="43.93471" lon="0.60673">
        <ele>83.8</ele>
        <time>2023-07-04T14:05:03Z</time>
      </trkpt>
      <trkpt lat="43.93471" lon="0.60682">
        <ele>84</ele>
        <time>2023-07-04T14:05:08Z</time>
      </trkpt>
      <trkpt lat="43.93468" lon="0.60688">
        <ele>84.2</ele>
        <time>2023-07-04T14:05:12Z</time>
      </trkpt>
      <trkpt lat="43.93464" lon="0.60704">
        <ele>84.4</ele>
        <time>2023-07-04T14:05:20Z</time>
      </trkpt>
      <trkpt lat="43.93463" lon="0.60706">
        <ele>84.4</ele>
        <time>2023-07-04T14:05:21Z</time>
      </trkpt>
      <trkpt lat="43.93462" lon="0.60708">
        <ele>84.2</ele>
        <time>2023-07-04T14:05:23Z</time>
      </trkpt>
      <trkpt lat="43.93462" lon="0.60711">
        <ele>84.2</ele>
        <time>2023-07-04T14:05:25Z</time>
      </trkpt>
      <trkpt lat="43.93461" lon="0.60712">
        <ele>84.2</ele>
        <time>2023-07-04T14:05:26Z</time>
      </trkpt>
      <trkpt lat="43.9346" lon="0.60714">
        <ele>84.2</ele>
        <time>2023-07-04T14:05:27Z</time>
      </trkpt>
      <trkpt lat="43.9346" lon="0.60715">
        <ele>84.2</ele>
        <time>2023-07-04T14:05:28Z</time>
      </trkpt>
      <trkpt lat="43.9346" lon="0.60717">
        <ele>84</ele>
        <time>2023-07-04T14:05:29Z</time>
      </trkpt>
      <trkpt lat="43.93459" lon="0.6072">
        <ele>84</ele>
        <time>2023-07-04T14:05:31Z</time>
      </trkpt>
      <trkpt lat="43.93458" lon="0.60726">
        <ele>84</ele>
        <time>2023-07-04T14:05:34Z</time>
      </trkpt>
      <trkpt lat="43.93457" lon="0.60729">
        <ele>84.2</ele>
        <time>2023-07-04T14:05:36Z</time>
      </trkpt>
      <trkpt lat="43.93457" lon="0.60732">
        <ele>84.2</ele>
        <time>2023-07-04T14:05:38Z</time>
      </trkpt>
      <trkpt lat="43.93457" lon="0.60741">
        <ele>84</ele>
        <time>2023-07-04T14:05:44Z</time>
      </trkpt>
      <trkpt lat="43.93457" lon="0.60744">
        <ele>83.8</ele>
        <time>2023-07-04T14:05:46Z</time>
      </trkpt>
      <trkpt lat="43.93454" lon="0.60751">
        <ele>83.8</ele>
        <time>2023-07-04T14:05:51Z</time>
      </trkpt>
      <trkpt lat="43.93455" lon="0.60754">
        <ele>83.8</ele>
        <time>2023-07-04T14:05:53Z</time>
      </trkpt>
      <trkpt lat="43.93452" lon="0.6076">
        <ele>84</ele>
        <time>2023-07-04T14:05:57Z</time>
      </trkpt>
      <trkpt lat="43.9345" lon="0.60766">
        <ele>84</ele>
        <time>2023-07-04T14:06:00Z</time>
      </trkpt>
      <trkpt lat="43.93449" lon="0.60772">
        <ele>84</ele>
        <time>2023-07-04T14:06:04Z</time>
      </trkpt>
      <trkpt lat="43.93448" lon="0.60775">
        <ele>83.8</ele>
        <time>2023-07-04T14:06:06Z</time>
      </trkpt>
      <trkpt lat="43.93446" lon="0.60791">
        <ele>84</ele>
        <time>2023-07-04T14:06:15Z</time>
      </trkpt>
      <trkpt lat="43.93446" lon="0.60793">
        <ele>84</ele>
        <time>2023-07-04T14:06:16Z</time>
      </trkpt>
      <trkpt lat="43.93446" lon="0.60797">
        <ele>84</ele>
        <time>2023-07-04T14:06:18Z</time>
      </trkpt>
      <trkpt lat="43.93444" lon="0.60802">
        <ele>83.8</ele>
        <time>2023-07-04T14:06:21Z</time>
      </trkpt>
      <trkpt lat="43.93444" lon="0.60804">
        <ele>83.8</ele>
        <time>2023-07-04T14:06:22Z</time>
      </trkpt>
      <trkpt lat="43.93444" lon="0.60808">
        <ele>83.6</ele>
        <time>2023-07-04T14:06:24Z</time>
      </trkpt>
      <trkpt lat="43.93442" lon="0.60812">
        <ele>83.8</ele>
        <time>2023-07-04T14:06:26Z</time>
      </trkpt>
      <trkpt lat="43.93439" lon="0.6082">
        <ele>84.4</ele>
        <time>2023-07-04T14:06:30Z</time>
      </trkpt>
      <trkpt lat="43.93437" lon="0.60825">
        <ele>84.2</ele>
        <time>2023-07-04T14:06:33Z</time>
      </trkpt>
      <trkpt lat="43.93442" lon="0.60837">
        <ele>84</ele>
        <time>2023-07-04T14:06:37Z</time>
      </trkpt>
      <trkpt lat="43.93441" lon="0.60848">
        <ele>84.2</ele>
        <time>2023-07-04T14:06:42Z</time>
      </trkpt>
      <trkpt lat="43.9344" lon="0.60849">
        <ele>84.2</ele>
        <time>2023-07-04T14:06:43Z</time>
      </trkpt>
      <trkpt lat="43.93439" lon="0.60853">
        <ele>84.2</ele>
        <time>2023-07-04T14:06:46Z</time>
      </trkpt>
      <trkpt lat="43.93438" lon="0.60861">
        <ele>84.2</ele>
        <time>2023-07-04T14:06:50Z</time>
      </trkpt>
      <trkpt lat="43.93434" lon="0.6087">
        <ele>84.6</ele>
        <time>2023-07-04T14:06:57Z</time>
      </trkpt>
      <trkpt lat="43.93435" lon="0.60875">
        <ele>84.8</ele>
        <time>2023-07-04T14:06:59Z</time>
      </trkpt>
      <trkpt lat="43.93437" lon="0.60878">
        <ele>84.8</ele>
        <time>2023-07-04T14:07:00Z</time>
      </trkpt>
      <trkpt lat="43.93437" lon="0.60883">
        <ele>84.8</ele>
        <time>2023-07-04T14:07:03Z</time>
      </trkpt>
      <trkpt lat="43.93435" lon="0.60888">
        <ele>84.8</ele>
        <time>2023-07-04T14:07:06Z</time>
      </trkpt>
      <trkpt lat="43.93435" lon="0.6089">
        <ele>84.6</ele>
        <time>2023-07-04T14:07:07Z</time>
      </trkpt>
      <trkpt lat="43.93435" lon="0.60895">
        <ele>84.4</ele>
        <time>2023-07-04T14:07:10Z</time>
      </trkpt>
      <trkpt lat="43.93434" lon="0.6091">
        <ele>84.8</ele>
        <time>2023-07-04T14:07:17Z</time>
      </trkpt>
      <trkpt lat="43.93434" lon="0.60912">
        <ele>84.8</ele>
        <time>2023-07-04T14:07:18Z</time>
      </trkpt>
      <trkpt lat="43.93435" lon="0.60926">
        <ele>84.8</ele>
        <time>2023-07-04T14:07:24Z</time>
      </trkpt>
      <trkpt lat="43.93435" lon="0.60928">
        <ele>84.8</ele>
        <time>2023-07-04T14:07:25Z</time>
      </trkpt>
      <trkpt lat="43.93432" lon="0.60938">
        <ele>84.8</ele>
        <time>2023-07-04T14:07:32Z</time>
      </trkpt>
      <trkpt lat="43.93431" lon="0.60941">
        <ele>84.8</ele>
        <time>2023-07-04T14:07:34Z</time>
      </trkpt>
      <trkpt lat="43.93433" lon="0.60948">
        <ele>85.2</ele>
        <time>2023-07-04T14:07:37Z</time>
      </trkpt>
      <trkpt lat="43.93429" lon="0.60955">
        <ele>85.2</ele>
        <time>2023-07-04T14:07:40Z</time>
      </trkpt>
      <trkpt lat="43.93424" lon="0.60964">
        <ele>85.4</ele>
        <time>2023-07-04T14:07:46Z</time>
      </trkpt>
      <trkpt lat="43.93422" lon="0.60968">
        <ele>85.4</ele>
        <time>2023-07-04T14:07:48Z</time>
      </trkpt>
      <trkpt lat="43.93422" lon="0.60978">
        <ele>85.6</ele>
        <time>2023-07-04T14:07:53Z</time>
      </trkpt>
      <trkpt lat="43.93419" lon="0.60992">
        <ele>85.4</ele>
        <time>2023-07-04T14:08:01Z</time>
      </trkpt>
      <trkpt lat="43.93418" lon="0.60993">
        <ele>85.4</ele>
        <time>2023-07-04T14:08:02Z</time>
      </trkpt>
      <trkpt lat="43.93416" lon="0.61007">
        <ele>86</ele>
        <time>2023-07-04T14:08:10Z</time>
      </trkpt>
      <trkpt lat="43.93414" lon="0.61013">
        <ele>86.2</ele>
        <time>2023-07-04T14:08:13Z</time>
      </trkpt>
      <trkpt lat="43.93411" lon="0.61019">
        <ele>86.4</ele>
        <time>2023-07-04T14:08:18Z</time>
      </trkpt>
      <trkpt lat="43.9341" lon="0.61021">
        <ele>86.4</ele>
        <time>2023-07-04T14:08:19Z</time>
      </trkpt>
      <trkpt lat="43.93409" lon="0.61035">
        <ele>86.6</ele>
        <time>2023-07-04T14:08:26Z</time>
      </trkpt>
      <trkpt lat="43.93408" lon="0.61049">
        <ele>87</ele>
        <time>2023-07-04T14:08:33Z</time>
      </trkpt>
      <trkpt lat="43.93406" lon="0.61054">
        <ele>87</ele>
        <time>2023-07-04T14:08:36Z</time>
      </trkpt>
      <trkpt lat="43.93404" lon="0.61058">
        <ele>87.2</ele>
        <time>2023-07-04T14:08:38Z</time>
      </trkpt>
      <trkpt lat="43.93403" lon="0.61059">
        <ele>87.2</ele>
        <time>2023-07-04T14:08:39Z</time>
      </trkpt>
      <trkpt lat="43.93409" lon="0.61073">
        <ele>87.2</ele>
        <time>2023-07-04T14:08:44Z</time>
      </trkpt>
      <trkpt lat="43.93414" lon="0.61088">
        <ele>87.2</ele>
        <time>2023-07-04T14:12:11Z</time>
      </trkpt>
      <trkpt lat="43.93412" lon="0.61095">
        <ele>88</ele>
        <time>2023-07-04T14:12:15Z</time>
      </trkpt>
      <trkpt lat="43.93412" lon="0.61096">
        <ele>88.2</ele>
        <time>2023-07-04T14:12:16Z</time>
      </trkpt>
      <trkpt lat="43.9341" lon="0.61098">
        <ele>88.6</ele>
        <time>2023-07-04T14:12:19Z</time>
      </trkpt>
      <trkpt lat="43.93408" lon="0.61103">
        <ele>88.2</ele>
        <time>2023-07-04T14:12:23Z</time>
      </trkpt>
      <trkpt lat="43.93406" lon="0.61112">
        <ele>88.6</ele>
        <time>2023-07-04T14:12:28Z</time>
      </trkpt>
      <trkpt lat="43.93406" lon="0.61113">
        <ele>88.6</ele>
        <time>2023-07-04T14:12:29Z</time>
      </trkpt>
      <trkpt lat="43.93405" lon="0.61115">
        <ele>88.8</ele>
        <time>2023-07-04T14:12:30Z</time>
      </trkpt>
      <trkpt lat="43.93406" lon="0.61126">
        <ele>88.4</ele>
        <time>2023-07-04T14:12:36Z</time>
      </trkpt>
      <trkpt lat="43.93408" lon="0.6113">
        <ele>88.4</ele>
        <time>2023-07-04T14:12:37Z</time>
      </trkpt>
      <trkpt lat="43.93409" lon="0.61139">
        <ele>88.4</ele>
        <time>2023-07-04T14:12:41Z</time>
      </trkpt>
      <trkpt lat="43.93409" lon="0.61142">
        <ele>88.4</ele>
        <time>2023-07-04T14:12:43Z</time>
      </trkpt>
      <trkpt lat="43.93407" lon="0.61154">
        <ele>88.4</ele>
        <time>2023-07-04T14:12:50Z</time>
      </trkpt>
      <trkpt lat="43.93406" lon="0.61156">
        <ele>88.4</ele>
        <time>2023-07-04T14:12:52Z</time>
      </trkpt>
      <trkpt lat="43.93405" lon="0.6116">
        <ele>88.4</ele>
        <time>2023-07-04T14:12:55Z</time>
      </trkpt>
      <trkpt lat="43.93405" lon="0.61162">
        <ele>88.4</ele>
        <time>2023-07-04T14:12:56Z</time>
      </trkpt>
      <trkpt lat="43.93404" lon="0.61164">
        <ele>88.4</ele>
        <time>2023-07-04T14:12:57Z</time>
      </trkpt>
      <trkpt lat="43.93403" lon="0.61174">
        <ele>88.2</ele>
        <time>2023-07-04T14:13:04Z</time>
      </trkpt>
      <trkpt lat="43.93403" lon="0.6119">
        <ele>88.4</ele>
        <time>2023-07-04T14:13:12Z</time>
      </trkpt>
      <trkpt lat="43.93401" lon="0.61205">
        <ele>88.6</ele>
        <time>2023-07-04T14:13:19Z</time>
      </trkpt>
      <trkpt lat="43.93401" lon="0.61222">
        <ele>89</ele>
        <time>2023-07-04T14:13:26Z</time>
      </trkpt>
      <trkpt lat="43.93394" lon="0.61233">
        <ele>89.2</ele>
        <time>2023-07-04T14:13:33Z</time>
      </trkpt>
      <trkpt lat="43.93393" lon="0.61234">
        <ele>89.2</ele>
        <time>2023-07-04T14:13:34Z</time>
      </trkpt>
      <trkpt lat="43.93394" lon="0.61243">
        <ele>89.8</ele>
        <time>2023-07-04T14:13:38Z</time>
      </trkpt>
      <trkpt lat="43.93393" lon="0.61248">
        <ele>90</ele>
        <time>2023-07-04T14:13:41Z</time>
      </trkpt>
      <trkpt lat="43.93392" lon="0.61249">
        <ele>90</ele>
        <time>2023-07-04T14:13:42Z</time>
      </trkpt>
      <trkpt lat="43.9339" lon="0.61253">
        <ele>90.2</ele>
        <time>2023-07-04T14:13:45Z</time>
      </trkpt>
      <trkpt lat="43.9339" lon="0.61254">
        <ele>90.4</ele>
        <time>2023-07-04T14:13:46Z</time>
      </trkpt>
      <trkpt lat="43.93389" lon="0.61256">
        <ele>90.4</ele>
        <time>2023-07-04T14:13:47Z</time>
      </trkpt>
      <trkpt lat="43.93387" lon="0.6126">
        <ele>90.8</ele>
        <time>2023-07-04T14:13:50Z</time>
      </trkpt>
      <trkpt lat="43.93385" lon="0.61265">
        <ele>91</ele>
        <time>2023-07-04T14:13:54Z</time>
      </trkpt>
      <trkpt lat="43.93385" lon="0.61266">
        <ele>91.2</ele>
        <time>2023-07-04T14:13:55Z</time>
      </trkpt>
      <trkpt lat="43.93385" lon="0.61265">
        <ele>91.2</ele>
        <time>2023-07-04T14:13:56Z</time>
      </trkpt>
      <trkpt lat="43.93385" lon="0.61264">
        <ele>91.6</ele>
        <time>2023-07-04T14:13:58Z</time>
      </trkpt>
      <trkpt lat="43.93388" lon="0.61261">
        <ele>91.8</ele>
        <time>2023-07-04T14:14:02Z</time>
      </trkpt>
      <trkpt lat="43.93386" lon="0.61263">
        <ele>91.8</ele>
        <time>2023-07-04T14:14:05Z</time>
      </trkpt>
      <trkpt lat="43.93385" lon="0.61265">
        <ele>91.8</ele>
        <time>2023-07-04T14:14:07Z</time>
      </trkpt>
      <trkpt lat="43.93379" lon="0.61269">
        <ele>91.8</ele>
        <time>2023-07-04T14:14:12Z</time>
      </trkpt>
      <trkpt lat="43.93378" lon="0.61272">
        <ele>91.8</ele>
        <time>2023-07-04T14:14:13Z</time>
      </trkpt>
      <trkpt lat="43.93378" lon="0.61272">
        <ele>91.8</ele>
        <time>2023-07-04T14:14:14Z</time>
      </trkpt>
      <trkpt lat="43.93371" lon="0.61282">
        <ele>92</ele>
        <time>2023-07-04T14:14:21Z</time>
      </trkpt>
      <trkpt lat="43.93371" lon="0.61283">
        <ele>92</ele>
        <time>2023-07-04T14:14:22Z</time>
      </trkpt>
      <trkpt lat="43.93368" lon="0.61291">
        <ele>92</ele>
        <time>2023-07-04T14:14:27Z</time>
      </trkpt>
      <trkpt lat="43.93368" lon="0.61292">
        <ele>92.2</ele>
        <time>2023-07-04T14:14:28Z</time>
      </trkpt>
      <trkpt lat="43.93377" lon="0.61296">
        <ele>92.4</ele>
        <time>2023-07-04T14:14:32Z</time>
      </trkpt>
      <trkpt lat="43.93384" lon="0.61297">
        <ele>92.4</ele>
        <time>2023-07-04T14:14:35Z</time>
      </trkpt>
      <trkpt lat="43.93387" lon="0.61297">
        <ele>92.6</ele>
        <time>2023-07-04T14:14:37Z</time>
      </trkpt>
      <trkpt lat="43.93393" lon="0.61298">
        <ele>92.6</ele>
        <time>2023-07-04T14:14:40Z</time>
      </trkpt>
      <trkpt lat="43.93401" lon="0.61296">
        <ele>93</ele>
        <time>2023-07-04T14:14:46Z</time>
      </trkpt>
      <trkpt lat="43.93409" lon="0.61291">
        <ele>93.2</ele>
        <time>2023-07-04T14:14:53Z</time>
      </trkpt>
      <trkpt lat="43.93417" lon="0.61285">
        <ele>93.6</ele>
        <time>2023-07-04T14:15:00Z</time>
      </trkpt>
      <trkpt lat="43.93431" lon="0.61278">
        <ele>94.4</ele>
        <time>2023-07-04T14:15:10Z</time>
      </trkpt>
      <trkpt lat="43.93433" lon="0.61276">
        <ele>94.8</ele>
        <time>2023-07-04T14:15:12Z</time>
      </trkpt>
      <trkpt lat="43.9344" lon="0.61273">
        <ele>95.4</ele>
        <time>2023-07-04T14:15:18Z</time>
      </trkpt>
      <trkpt lat="43.93447" lon="0.61271">
        <ele>95.6</ele>
        <time>2023-07-04T14:15:23Z</time>
      </trkpt>
      <trkpt lat="43.9345" lon="0.61271">
        <ele>95.8</ele>
        <time>2023-07-04T14:15:25Z</time>
      </trkpt>
      <trkpt lat="43.9345" lon="0.6127">
        <ele>95.8</ele>
        <time>2023-07-04T14:15:26Z</time>
      </trkpt>
      <trkpt lat="43.93455" lon="0.61269">
        <ele>96.2</ele>
        <time>2023-07-04T14:15:30Z</time>
      </trkpt>
      <trkpt lat="43.93456" lon="0.61268">
        <ele>96.4</ele>
        <time>2023-07-04T14:15:31Z</time>
      </trkpt>
      <trkpt lat="43.93459" lon="0.61268">
        <ele>97</ele>
        <time>2023-07-04T14:15:34Z</time>
      </trkpt>
      <trkpt lat="43.93459" lon="0.61267">
        <ele>97</ele>
        <time>2023-07-04T14:15:35Z</time>
      </trkpt>
      <trkpt lat="43.93459" lon="0.61264">
        <ele>97.2</ele>
        <time>2023-07-04T14:15:37Z</time>
      </trkpt>
      <trkpt lat="43.93458" lon="0.61265">
        <ele>97.2</ele>
        <time>2023-07-04T14:15:39Z</time>
      </trkpt>
      <trkpt lat="43.9346" lon="0.61273">
        <ele>97.8</ele>
        <time>2023-07-04T14:15:43Z</time>
      </trkpt>
      <trkpt lat="43.93459" lon="0.61274">
        <ele>97.8</ele>
        <time>2023-07-04T14:15:44Z</time>
      </trkpt>
      <trkpt lat="43.93458" lon="0.61276">
        <ele>97.8</ele>
        <time>2023-07-04T14:15:45Z</time>
      </trkpt>
      <trkpt lat="43.93458" lon="0.61277">
        <ele>98</ele>
        <time>2023-07-04T14:15:46Z</time>
      </trkpt>
      <trkpt lat="43.93457" lon="0.61287">
        <ele>99.2</ele>
        <time>2023-07-04T14:15:50Z</time>
      </trkpt>
      <trkpt lat="43.93456" lon="0.61302">
        <ele>100.2</ele>
        <time>2023-07-04T14:15:59Z</time>
      </trkpt>
      <trkpt lat="43.93455" lon="0.61303">
        <ele>100.4</ele>
        <time>2023-07-04T14:16:00Z</time>
      </trkpt>
      <trkpt lat="43.9345" lon="0.61312">
        <ele>101</ele>
        <time>2023-07-04T14:16:08Z</time>
      </trkpt>
      <trkpt lat="43.93449" lon="0.61316">
        <ele>101.4</ele>
        <time>2023-07-04T14:16:10Z</time>
      </trkpt>
      <trkpt lat="43.93449" lon="0.61318">
        <ele>102</ele>
        <time>2023-07-04T14:16:11Z</time>
      </trkpt>
      <trkpt lat="43.93448" lon="0.61324">
        <ele>102.4</ele>
        <time>2023-07-04T14:16:14Z</time>
      </trkpt>
      <trkpt lat="43.93445" lon="0.61338">
        <ele>103.6</ele>
        <time>2023-07-04T14:16:22Z</time>
      </trkpt>
      <trkpt lat="43.93442" lon="0.61343">
        <ele>104.2</ele>
        <time>2023-07-04T14:16:26Z</time>
      </trkpt>
      <trkpt lat="43.93441" lon="0.61345">
        <ele>104.4</ele>
        <time>2023-07-04T14:16:27Z</time>
      </trkpt>
      <trkpt lat="43.93441" lon="0.61346">
        <ele>104.6</ele>
        <time>2023-07-04T14:16:28Z</time>
      </trkpt>
      <trkpt lat="43.9344" lon="0.61348">
        <ele>104.6</ele>
        <time>2023-07-04T14:16:29Z</time>
      </trkpt>
      <trkpt lat="43.93432" lon="0.61358">
        <ele>105.4</ele>
        <time>2023-07-04T14:16:36Z</time>
      </trkpt>
      <trkpt lat="43.93429" lon="0.61361">
        <ele>105.6</ele>
        <time>2023-07-04T14:16:38Z</time>
      </trkpt>
      <trkpt lat="43.93425" lon="0.61369">
        <ele>106</ele>
        <time>2023-07-04T14:16:43Z</time>
      </trkpt>
      <trkpt lat="43.93423" lon="0.61372">
        <ele>106.4</ele>
        <time>2023-07-04T14:16:45Z</time>
      </trkpt>
      <trkpt lat="43.93422" lon="0.61373">
        <ele>106.6</ele>
        <time>2023-07-04T14:16:46Z</time>
      </trkpt>
      <trkpt lat="43.93419" lon="0.61376">
        <ele>107</ele>
        <time>2023-07-04T14:16:49Z</time>
      </trkpt>
      <trkpt lat="43.9342" lon="0.61383">
        <ele>107.4</ele>
        <time>2023-07-04T14:16:52Z</time>
      </trkpt>
      <trkpt lat="43.93418" lon="0.61386">
        <ele>107.8</ele>
        <time>2023-07-04T14:16:54Z</time>
      </trkpt>
      <trkpt lat="43.93412" lon="0.61392">
        <ele>108.4</ele>
        <time>2023-07-04T14:16:59Z</time>
      </trkpt>
      <trkpt lat="43.93399" lon="0.614">
        <ele>108.8</ele>
        <time>2023-07-04T14:17:05Z</time>
      </trkpt>
      <trkpt lat="43.93398" lon="0.61411">
        <ele>109.2</ele>
        <time>2023-07-04T14:17:11Z</time>
      </trkpt>
      <trkpt lat="43.93398" lon="0.61413">
        <ele>109.4</ele>
        <time>2023-07-04T14:17:12Z</time>
      </trkpt>
      <trkpt lat="43.93398" lon="0.61421">
        <ele>109.6</ele>
        <time>2023-07-04T14:17:17Z</time>
      </trkpt>
      <trkpt lat="43.93398" lon="0.61423">
        <ele>109.6</ele>
        <time>2023-07-04T14:17:19Z</time>
      </trkpt>
      <trkpt lat="43.93396" lon="0.61425">
        <ele>109.8</ele>
        <time>2023-07-04T14:17:21Z</time>
      </trkpt>
      <trkpt lat="43.93394" lon="0.61427">
        <ele>110</ele>
        <time>2023-07-04T14:17:23Z</time>
      </trkpt>
      <trkpt lat="43.93391" lon="0.61432">
        <ele>110.4</ele>
        <time>2023-07-04T14:17:27Z</time>
      </trkpt>
      <trkpt lat="43.93388" lon="0.61437">
        <ele>110.8</ele>
        <time>2023-07-04T14:17:31Z</time>
      </trkpt>
      <trkpt lat="43.93386" lon="0.6144">
        <ele>111</ele>
        <time>2023-07-04T14:17:33Z</time>
      </trkpt>
      <trkpt lat="43.93382" lon="0.61452">
        <ele>111.8</ele>
        <time>2023-07-04T14:17:40Z</time>
      </trkpt>
      <trkpt lat="43.93376" lon="0.61458">
        <ele>112.6</ele>
        <time>2023-07-04T14:17:46Z</time>
      </trkpt>
      <trkpt lat="43.93371" lon="0.61466">
        <ele>112.8</ele>
        <time>2023-07-04T14:17:53Z</time>
      </trkpt>
      <trkpt lat="43.93369" lon="0.61468">
        <ele>112.8</ele>
        <time>2023-07-04T14:17:54Z</time>
      </trkpt>
      <trkpt lat="43.93368" lon="0.6147">
        <ele>113</ele>
        <time>2023-07-04T14:17:55Z</time>
      </trkpt>
      <trkpt lat="43.93362" lon="0.61481">
        <ele>113.8</ele>
        <time>2023-07-04T14:18:02Z</time>
      </trkpt>
      <trkpt lat="43.93355" lon="0.61491">
        <ele>114.6</ele>
        <time>2023-07-04T14:18:09Z</time>
      </trkpt>
      <trkpt lat="43.93352" lon="0.61496">
        <ele>115</ele>
        <time>2023-07-04T14:18:13Z</time>
      </trkpt>
      <trkpt lat="43.9335" lon="0.61503">
        <ele>115.6</ele>
        <time>2023-07-04T14:18:17Z</time>
      </trkpt>
      <trkpt lat="43.93348" lon="0.61505">
        <ele>115.6</ele>
        <time>2023-07-04T14:18:18Z</time>
      </trkpt>
      <trkpt lat="43.93349" lon="0.61512">
        <ele>116</ele>
        <time>2023-07-04T14:18:21Z</time>
      </trkpt>
      <trkpt lat="43.9335" lon="0.61516">
        <ele>116</ele>
        <time>2023-07-04T14:18:23Z</time>
      </trkpt>
      <trkpt lat="43.93349" lon="0.61516">
        <ele>116.2</ele>
        <time>2023-07-04T14:18:24Z</time>
      </trkpt>
      <trkpt lat="43.93343" lon="0.61522">
        <ele>116.6</ele>
        <time>2023-07-04T14:18:31Z</time>
      </trkpt>
      <trkpt lat="43.93342" lon="0.61523">
        <ele>116.8</ele>
        <time>2023-07-04T14:18:32Z</time>
      </trkpt>
      <trkpt lat="43.93339" lon="0.61527">
        <ele>116.8</ele>
        <time>2023-07-04T14:18:35Z</time>
      </trkpt>
      <trkpt lat="43.93338" lon="0.61529">
        <ele>117</ele>
        <time>2023-07-04T14:18:37Z</time>
      </trkpt>
      <trkpt lat="43.93339" lon="0.6153">
        <ele>117.2</ele>
        <time>2023-07-04T14:18:38Z</time>
      </trkpt>
      <trkpt lat="43.93344" lon="0.61532">
        <ele>118</ele>
        <time>2023-07-04T14:18:43Z</time>
      </trkpt>
      <trkpt lat="43.93347" lon="0.61533">
        <ele>118.4</ele>
        <time>2023-07-04T14:18:45Z</time>
      </trkpt>
      <trkpt lat="43.93348" lon="0.61533">
        <ele>118.6</ele>
        <time>2023-07-04T14:18:47Z</time>
      </trkpt>
      <trkpt lat="43.9335" lon="0.61534">
        <ele>119.2</ele>
        <time>2023-07-04T14:18:49Z</time>
      </trkpt>
      <trkpt lat="43.93351" lon="0.61534">
        <ele>119.2</ele>
        <time>2023-07-04T14:18:51Z</time>
      </trkpt>
      <trkpt lat="43.93354" lon="0.61535">
        <ele>119.8</ele>
        <time>2023-07-04T14:18:55Z</time>
      </trkpt>
      <trkpt lat="43.93354" lon="0.61536">
        <ele>120.2</ele>
        <time>2023-07-04T14:18:58Z</time>
      </trkpt>
      <trkpt lat="43.93354" lon="0.61538">
        <ele>120.4</ele>
        <time>2023-07-04T14:18:59Z</time>
      </trkpt>
    </trkseg>
  </trk>
</gpx>